GFSGL_prec_precacc_042.txt.gz
Total_Precipitation_Accumulation
0.04 0.05 0.05 0.10 0.15 0.17 0.19 0.12 0.07 0.04 0.02 0.01 0.01 0.01 0.01 0.01 0.01 0.02 0.04 0.06 0.05 0.04 0.03 0.03 0.02 0.02 0.03 0.03 0.03 0.02 0.02 0.04 0.08 0.01 0.00 0.00 0.00 0.00 0.00 0.00 0.00 0.02 0.05
0.08 0.10 0.11 0.13 0.13 0.13 0.12 0.09 0.05 0.02 0.01 0.00 0.01 0.00 0.00 0.01 0.03 0.05 0.05 0.04 0.05 0.02 0.01 0.01 0.01 0.00 0.00 0.00 0.00 0.00 0.00 0.00 0.01 0.01 0.00 0.00 0.00 0.00 0.00 0.00 0.01 0.00 0.02
0.11 0.10 0.08 0.07 0.09 0.12 0.10 0.07 0.04 0.01 0.01 0.02 0.00 0.01 0.01 0.01 0.02 0.03 0.04 0.05 0.03 0.00 0.00 0.00 0.00 0.00 0.00 0.00 0.00 0.00 0.00 0.01 0.03 0.06 0.02 0.00 0.00 0.00 0.01 0.01 0.01 0.02 0.03
0.09 0.05 0.05 0.05 0.04 0.03 0.02 0.02 0.02 0.03 0.03 0.01 0.01 0.02 0.01 0.00 0.03 0.06 0.09 0.05 0.00 0.01 0.00 0.00 0.00 0.00 0.00 0.00 0.01 0.01 0.03 0.05 0.04 0.03 0.02 0.01 0.00 0.00 0.02 0.03 0.04 0.04 0.03
0.03 0.02 0.02 0.03 0.03 0.02 0.04 0.02 0.03 0.02 0.00 0.01 0.02 0.02 0.03 0.07 0.11 0.11 0.04 0.02 0.01 0.00 0.00 0.00 0.00 0.00 0.00 0.01 0.02 0.03 0.03 0.04 0.05 0.05 0.05 0.04 0.04 0.04 0.05 0.06 0.05 0.03 0.02
0.01 0.00 0.01 0.02 0.04 0.04 0.02 0.04 0.02 0.01 0.01 0.02 0.04 0.07 0.17 0.20 0.07 0.02 0.01 0.00 0.00 0.00 0.00 0.00 0.00 0.00 0.00 0.00 0.01 0.01 0.03 0.07 0.11 0.08 0.06 0.06 0.05 0.05 0.08 0.10 0.11 0.07 0.04
0.00 0.00 0.01 0.02 0.02 0.02 0.04 0.02 0.01 0.04 0.07 0.12 0.21 0.24 0.13 0.02 0.03 0.02 0.01 0.00 0.00 0.00 0.00 0.00 0.00 0.00 0.00 0.00 0.00 0.01 0.02 0.03 0.09 0.11 0.10 0.06 0.07 0.06 0.05 0.05 0.05 0.07 0.06
0.00 0.00 0.01 0.01 0.02 0.04 0.04 0.04 0.11 0.18 0.23 0.21 0.10 0.02 0.00 0.01 0.02 0.00 0.00 0.00 0.00 0.00 0.00 0.00 0.00 0.00 0.00 0.01 0.08 0.07 0.02 0.01 0.01 0.02 0.05 0.05 0.05 0.05 0.05 0.06 0.08 0.07 0.02
0.00 0.00 0.01 0.01 0.03 0.08 0.17 0.27 0.25 0.16 0.06 0.02 0.01 0.00 0.00 0.01 0.00 0.00 0.00 0.00 0.00 0.00 0.00 0.00 0.00 0.01 0.01 0.07 0.10 0.03 0.01 0.00 0.01 0.01 0.03 0.04 0.05 0.06 0.07 0.16 0.13 0.13 0.09
0.00 0.00 0.03 0.11 0.23 0.30 0.24 0.13 0.05 0.02 0.01 0.00 0.00 0.00 0.00 0.00 0.00 0.00 0.00 0.00 0.00 0.00 0.00 0.00 0.00 0.03 0.10 0.08 0.09 0.06 0.04 0.03 0.02 0.01 0.01 0.01 0.01 0.01 0.02 0.07 0.10 0.21 0.18
0.08 0.15 0.24 0.29 0.24 0.14 0.06 0.01 0.00 0.00 0.00 0.00 0.00 0.00 0.00 0.00 0.00 0.00 0.00 0.00 0.00 0.01 0.00 0.00 0.01 0.06 0.08 0.05 0.06 0.06 0.12 0.07 0.04 0.04 0.03 0.02 0.02 0.03 0.04 0.04 0.06 0.11 0.18
0.14 0.16 0.12 0.04 0.00 0.00 0.00 0.00 0.00 0.00 0.00 0.00 0.00 0.00 0.00 0.00 0.00 0.00 0.00 0.00 0.00 0.01 0.02 0.02 0.03 0.06 0.05 0.04 0.07 0.11 0.06 0.04 0.08 0.09 0.06 0.04 0.04 0.03 0.03 0.04 0.07 0.09 0.10
0.02 0.01 0.00 0.00 0.00 0.00 0.00 0.00 0.00 0.00 0.00 0.00 0.00 0.00 0.01 0.01 0.02 0.00 0.00 0.00 0.00 0.01 0.03 0.04 0.06 0.05 0.04 0.06 0.08 0.07 0.07 0.14 0.15 0.13 0.10 0.07 0.07 0.07 0.08 0.12 0.10 0.07 0.05
0.00 0.00 0.00 0.00 0.00 0.00 0.00 0.00 0.00 0.00 0.00 0.00 0.00 0.01 0.01 0.01 0.02 0.02 0.01 0.01 0.01 0.02 0.02 0.04 0.04 0.05 0.07 0.11 0.08 0.09 0.13 0.12 0.13 0.14 0.12 0.11 0.12 0.12 0.16 0.20 0.19 0.21 0.17
0.00 0.00 0.00 0.00 0.00 0.00 0.00 0.00 0.00 0.00 0.00 0.00 0.00 0.01 0.02 0.02 0.02 0.02 0.04 0.06 0.08 0.08 0.11 0.15 0.13 0.12 0.11 0.10 0.08 0.08 0.10 0.12 0.13 0.11 0.11 0.11 0.11 0.10 0.12 0.16 0.21 0.29 0.31
0.00 0.00 0.02 0.03 0.02 0.01 0.00 0.00 0.00 0.00 0.00 0.00 0.00 0.00 0.00 0.00 0.00 0.00 0.01 0.02 0.06 0.11 0.24 0.14 0.07 0.06 0.07 0.07 0.08 0.06 0.07 0.11 0.08 0.10 0.11 0.10 0.09 0.09 0.09 0.07 0.10 0.15 0.18
0.01 0.02 0.04 0.05 0.03 0.02 0.01 0.01 0.01 0.01 0.00 0.00 0.00 0.00 0.00 0.01 0.02 0.05 0.07 0.09 0.09 0.14 0.24 0.11 0.10 0.10 0.10 0.10 0.10 0.07 0.06 0.06 0.08 0.12 0.12 0.10 0.09 0.08 0.06 0.04 0.03 0.04 0.04
0.00 0.01 0.03 0.02 0.02 0.02 0.02 0.03 0.04 0.05 0.05 0.03 0.01 0.01 0.03 0.04 0.05 0.03 0.03 0.10 0.15 0.12 0.13 0.10 0.08 0.07 0.07 0.08 0.08 0.06 0.05 0.05 0.05 0.04 0.06 0.06 0.07 0.06 0.05 0.03 0.03 0.03 0.03
0.00 0.01 0.01 0.01 0.01 0.01 0.02 0.03 0.04 0.07 0.08 0.06 0.03 0.02 0.00 0.00 0.01 0.02 0.03 0.15 0.11 0.07 0.06 0.06 0.06 0.09 0.09 0.11 0.11 0.09 0.07 0.05 0.05 0.06 0.05 0.06 0.06 0.06 0.04 0.03 0.03 0.02 0.01
0.00 0.01 0.01 0.01 0.02 0.03 0.04 0.06 0.07 0.08 0.07 0.07 0.05 0.03 0.02 0.05 0.06 0.04 0.05 0.10 0.13 0.10 0.08 0.10 0.09 0.11 0.13 0.15 0.13 0.13 0.11 0.07 0.06 0.05 0.04 0.04 0.05 0.05 0.04 0.03 0.02 0.02 0.01
0.01 0.02 0.02 0.04 0.04 0.06 0.07 0.08 0.07 0.09 0.09 0.08 0.05 0.04 0.06 0.14 0.14 0.12 0.12 0.13 0.14 0.14 0.15 0.16 0.13 0.13 0.12 0.11 0.12 0.12 0.11 0.09 0.07 0.06 0.06 0.05 0.06 0.04 0.02 0.03 0.01 0.01 0.00
0.02 0.04 0.04 0.05 0.07 0.08 0.08 0.06 0.07 0.09 0.10 0.11 0.09 0.09 0.11 0.14 0.13 0.14 0.17 0.19 0.18 0.19 0.20 0.20 0.16 0.14 0.14 0.16 0.15 0.15 0.11 0.07 0.06 0.07 0.08 0.06 0.05 0.04 0.02 0.01 0.01 0.00 0.00
0.03 0.05 0.06 0.06 0.07 0.07 0.08 0.09 0.14 0.17 0.19 0.21 0.23 0.20 0.16 0.20 0.21 0.20 0.21 0.20 0.21 0.21 0.18 0.19 0.19 0.16 0.14 0.14 0.16 0.17 0.15 0.09 0.08 0.10 0.10 0.09 0.06 0.05 0.02 0.01 0.01 0.01 0.00
0.04 0.07 0.09 0.09 0.12 0.18 0.20 0.20 0.19 0.19 0.21 0.22 0.18 0.17 0.18 0.18 0.19 0.20 0.18 0.18 0.19 0.19 0.22 0.25 0.26 0.24 0.21 0.19 0.20 0.19 0.17 0.15 0.17 0.16 0.16 0.13 0.08 0.05 0.03 0.01 0.01 0.00 0.00
0.12 0.15 0.18 0.20 0.22 0.20 0.18 0.18 0.22 0.22 0.20 0.18 0.17 0.14 0.12 0.12 0.11 0.09 0.09 0.09 0.10 0.10 0.10 0.10 0.11 0.11 0.12 0.15 0.17 0.15 0.13 0.15 0.18 0.19 0.24 0.21 0.14 0.09 0.04 0.02 0.01 0.01 0.01
0.10 0.15 0.15 0.14 0.17 0.20 0.23 0.21 0.19 0.17 0.16 0.14 0.14 0.13 0.12 0.11 0.09 0.07 0.06 0.07 0.07 0.07 0.06 0.07 0.08 0.08 0.08 0.09 0.11 0.13 0.11 0.12 0.16 0.20 0.22 0.23 0.19 0.14 0.09 0.05 0.04 0.02 0.01

GFSGL_prec_precacc_048.txt.gz
Total_Precipitation_Accumulation
0.05 0.05 0.06 0.14 0.18 0.19 0.24 0.17 0.12 0.07 0.03 0.01 0.01 0.01 0.02 0.02 0.01 0.02 0.05 0.06 0.06 0.05 0.04 0.06 0.05 0.03 0.03 0.03 0.03 0.02 0.02 0.04 0.08 0.01 0.00 0.00 0.00 0.00 0.00 0.00 0.00 0.02 0.05
0.12 0.15 0.16 0.19 0.15 0.19 0.17 0.15 0.11 0.03 0.01 0.01 0.01 0.01 0.01 0.01 0.04 0.05 0.05 0.04 0.06 0.13 0.18 0.10 0.03 0.00 0.00 0.00 0.00 0.00 0.00 0.00 0.01 0.01 0.00 0.00 0.00 0.00 0.00 0.00 0.01 0.00 0.02
0.19 0.24 0.13 0.16 0.17 0.15 0.18 0.11 0.06 0.02 0.02 0.02 0.01 0.01 0.01 0.02 0.03 0.04 0.05 0.10 0.18 0.15 0.04 0.01 0.00 0.00 0.00 0.00 0.00 0.00 0.00 0.01 0.03 0.06 0.02 0.00 0.00 0.00 0.01 0.01 0.01 0.02 0.03
0.16 0.12 0.07 0.15 0.13 0.06 0.05 0.04 0.03 0.04 0.04 0.02 0.02 0.03 0.02 0.03 0.07 0.11 0.15 0.13 0.04 0.01 0.01 0.00 0.00 0.00 0.00 0.00 0.01 0.02 0.04 0.05 0.04 0.03 0.02 0.01 0.00 0.00 0.02 0.03 0.04 0.04 0.03
0.13 0.07 0.08 0.09 0.05 0.06 0.07 0.04 0.04 0.03 0.00 0.01 0.02 0.03 0.05 0.11 0.13 0.13 0.05 0.02 0.01 0.00 0.00 0.00 0.00 0.00 0.00 0.01 0.02 0.03 0.03 0.04 0.05 0.05 0.05 0.04 0.04 0.04 0.05 0.06 0.05 0.03 0.02
0.03 0.03 0.03 0.03 0.04 0.05 0.02 0.04 0.02 0.01 0.01 0.02 0.04 0.08 0.18 0.20 0.07 0.02 0.01 0.00 0.00 0.00 0.00 0.00 0.00 0.00 0.00 0.00 0.01 0.01 0.03 0.07 0.11 0.08 0.06 0.06 0.05 0.05 0.08 0.11 0.11 0.07 0.04
0.02 0.01 0.02 0.02 0.02 0.02 0.04 0.02 0.01 0.04 0.07 0.12 0.21 0.24 0.13 0.02 0.03 0.02 0.01 0.00 0.00 0.00 0.00 0.00 0.00 0.00 0.00 0.00 0.00 0.01 0.02 0.03 0.09 0.11 0.10 0.06 0.07 0.06 0.07 0.06 0.05 0.07 0.06
0.00 0.00 0.01 0.01 0.02 0.04 0.04 0.04 0.11 0.18 0.23 0.21 0.10 0.02 0.00 0.01 0.02 0.00 0.00 0.00 0.00 0.00 0.00 0.00 0.00 0.00 0.00 0.01 0.08 0.07 0.02 0.01 0.01 0.03 0.05 0.05 0.05 0.05 0.06 0.06 0.08 0.07 0.02
0.00 0.00 0.01 0.01 0.03 0.08 0.17 0.27 0.25 0.16 0.06 0.02 0.01 0.00 0.00 0.01 0.00 0.00 0.00 0.00 0.00 0.00 0.00 0.00 0.00 0.01 0.01 0.07 0.10 0.04 0.01 0.01 0.02 0.04 0.06 0.06 0.06 0.06 0.07 0.16 0.13 0.13 0.09
0.00 0.00 0.03 0.11 0.23 0.30 0.24 0.13 0.05 0.02 0.01 0.00 0.00 0.00 0.00 0.00 0.00 0.00 0.00 0.00 0.00 0.00 0.00 0.00 0.00 0.03 0.10 0.08 0.09 0.07 0.06 0.03 0.04 0.06 0.07 0.05 0.03 0.02 0.03 0.08 0.11 0.23 0.20
0.08 0.15 0.24 0.29 0.24 0.14 0.06 0.01 0.00 0.00 0.00 0.00 0.00 0.00 0.00 0.00 0.00 0.00 0.00 0.00 0.00 0.01 0.00 0.00 0.01 0.06 0.09 0.05 0.06 0.08 0.14 0.08 0.08 0.09 0.09 0.08 0.05 0.04 0.04 0.05 0.06 0.11 0.18
0.14 0.16 0.12 0.04 0.00 0.00 0.00 0.00 0.00 0.00 0.00 0.00 0.00 0.00 0.00 0.00 0.00 0.00 0.00 0.00 0.00 0.01 0.03 0.03 0.04 0.07 0.05 0.04 0.07 0.12 0.08 0.06 0.11 0.12 0.09 0.06 0.07 0.05 0.04 0.04 0.07 0.09 0.10
0.02 0.01 0.00 0.00 0.00 0.00 0.00 0.00 0.00 0.00 0.00 0.00 0.00 0.00 0.01 0.01 0.02 0.00 0.00 0.00 0.00 0.01 0.03 0.05 0.06 0.05 0.05 0.07 0.08 0.07 0.07 0.16 0.18 0.19 0.16 0.12 0.10 0.11 0.13 0.16 0.13 0.09 0.06
0.00 0.00 0.00 0.00 0.00 0.00 0.00 0.00 0.00 0.00 0.00 0.00 0.00 0.01 0.01 0.01 0.02 0.02 0.01 0.01 0.01 0.02 0.02 0.04 0.04 0.05 0.08 0.12 0.09 0.11 0.16 0.16 0.18 0.21 0.18 0.15 0.17 0.20 0.21 0.23 0.23 0.24 0.21
0.00 0.00 0.00 0.00 0.00 0.00 0.00 0.00 0.00 0.00 0.00 0.00 0.00 0.01 0.02 0.02 0.02 0.02 0.04 0.06 0.08 0.08 0.11 0.16 0.14 0.13 0.12 0.12 0.11 0.10 0.13 0.14 0.16 0.14 0.16 0.16 0.16 0.15 0.16 0.18 0.24 0.31 0.33
0.00 0.00 0.02 0.03 0.02 0.01 0.00 0.00 0.00 0.00 0.00 0.00 0.00 0.00 0.00 0.00 0.00 0.00 0.01 0.02 0.06 0.11 0.24 0.16 0.09 0.09 0.09 0.10 0.13 0.13 0.13 0.16 0.15 0.20 0.20 0.16 0.15 0.15 0.13 0.11 0.14 0.17 0.19
0.01 0.02 0.04 0.05 0.03 0.02 0.01 0.01 0.01 0.01 0.00 0.00 0.00 0.00 0.00 0.01 0.02 0.05 0.07 0.09 0.09 0.14 0.24 0.12 0.12 0.13 0.13 0.13 0.15 0.16 0.18 0.18 0.18 0.19 0.17 0.12 0.13 0.13 0.13 0.10 0.08 0.08 0.06
0.00 0.01 0.03 0.02 0.02 0.02 0.02 0.03 0.04 0.05 0.05 0.03 0.01 0.01 0.03 0.04 0.05 0.03 0.03 0.10 0.15 0.12 0.13 0.10 0.09 0.08 0.08 0.09 0.11 0.12 0.12 0.13 0.16 0.16 0.17 0.14 0.12 0.11 0.11 0.09 0.07 0.06 0.04
0.00 0.01 0.01 0.01 0.01 0.01 0.02 0.03 0.04 0.07 0.08 0.06 0.03 0.02 0.00 0.00 0.01 0.02 0.03 0.15 0.12 0.08 0.06 0.06 0.06 0.09 0.10 0.12 0.14 0.16 0.17 0.18 0.18 0.20 0.17 0.15 0.12 0.11 0.10 0.08 0.08 0.05 0.03
0.03 0.04 0.03 0.02 0.02 0.03 0.04 0.06 0.07 0.08 0.07 0.07 0.05 0.03 0.02 0.05 0.06 0.04 0.05 0.10 0.13 0.11 0.09 0.10 0.10 0.12 0.14 0.16 0.16 0.16 0.16 0.14 0.16 0.18 0.18 0.16 0.13 0.13 0.11 0.09 0.08 0.07 0.03
0.05 0.04 0.03 0.04 0.04 0.06 0.07 0.08 0.07 0.09 0.09 0.08 0.05 0.04 0.06 0.14 0.14 0.13 0.12 0.13 0.15 0.15 0.16 0.16 0.14 0.14 0.13 0.13 0.14 0.14 0.14 0.13 0.15 0.16 0.16 0.15 0.16 0.13 0.09 0.10 0.09 0.07 0.04
0.04 0.04 0.04 0.05 0.07 0.08 0.08 0.06 0.07 0.09 0.10 0.11 0.09 0.09 0.11 0.14 0.14 0.15 0.17 0.19 0.19 0.20 0.21 0.20 0.17 0.15 0.15 0.17 0.17 0.17 0.13 0.11 0.11 0.13 0.13 0.11 0.11 0.10 0.09 0.10 0.10 0.09 0.04
0.03 0.05 0.06 0.06 0.07 0.07 0.08 0.09 0.14 0.17 0.19 0.21 0.23 0.20 0.16 0.21 0.22 0.20 0.22 0.21 0.21 0.22 0.19 0.20 0.20 0.17 0.15 0.15 0.17 0.19 0.18 0.12 0.11 0.14 0.14 0.12 0.10 0.09 0.10 0.10 0.10 0.11 0.05
0.04 0.07 0.09 0.09 0.12 0.18 0.20 0.20 0.20 0.19 0.21 0.22 0.18 0.17 0.18 0.18 0.19 0.20 0.19 0.18 0.19 0.20 0.23 0.26 0.27 0.24 0.22 0.20 0.21 0.20 0.18 0.16 0.20 0.19 0.20 0.16 0.10 0.09 0.11 0.10 0.09 0.09 0.07
0.12 0.15 0.18 0.20 0.22 0.20 0.18 0.18 0.22 0.22 0.20 0.18 0.17 0.15 0.12 0.12 0.11 0.10 0.09 0.10 0.11 0.11 0.10 0.10 0.12 0.12 0.13 0.15 0.18 0.15 0.15 0.17 0.20 0.21 0.27 0.24 0.17 0.13 0.11 0.11 0.11 0.10 0.08
0.10 0.15 0.15 0.14 0.17 0.21 0.24 0.22 0.19 0.18 0.16 0.15 0.14 0.14 0.12 0.11 0.09 0.07 0.06 0.07 0.08 0.07 0.06 0.08 0.08 0.08 0.09 0.10 0.11 0.14 0.12 0.13 0.18 0.22 0.26 0.26 0.23 0.19 0.17 0.15 0.14 0.14 0.09

GFSGL_prec_precacc_051.txt.gz
Total_Precipitation_Accumulation
0.10 0.05 0.07 0.17 0.36 0.25 0.24 0.17 0.12 0.09 0.05 0.02 0.02 0.02 0.02 0.02 0.02 0.02 0.05 0.06 0.06 0.06 0.06 0.08 0.06 0.05 0.04 0.03 0.03 0.02 0.02 0.04 0.08 0.01 0.00 0.00 0.00 0.00 0.00 0.00 0.00 0.02 0.05
0.20 0.23 0.42 0.46 0.52 0.41 0.25 0.17 0.16 0.09 0.03 0.01 0.01 0.01 0.01 0.01 0.04 0.06 0.06 0.05 0.07 0.16 0.22 0.11 0.04 0.01 0.00 0.00 0.00 0.00 0.00 0.00 0.01 0.01 0.00 0.00 0.00 0.00 0.00 0.00 0.01 0.00 0.02
0.42 0.48 0.45 0.31 0.25 0.24 0.33 0.21 0.12 0.07 0.04 0.02 0.01 0.01 0.01 0.02 0.03 0.05 0.07 0.13 0.22 0.18 0.06 0.01 0.00 0.00 0.00 0.00 0.00 0.00 0.00 0.01 0.03 0.06 0.02 0.00 0.00 0.00 0.01 0.01 0.01 0.02 0.03
0.27 0.18 0.14 0.23 0.16 0.07 0.09 0.11 0.06 0.06 0.05 0.03 0.03 0.03 0.02 0.03 0.08 0.11 0.16 0.14 0.05 0.02 0.01 0.00 0.00 0.00 0.00 0.00 0.01 0.02 0.04 0.05 0.04 0.04 0.03 0.01 0.00 0.00 0.02 0.03 0.04 0.04 0.03
0.14 0.07 0.09 0.11 0.07 0.09 0.09 0.07 0.06 0.05 0.02 0.02 0.02 0.03 0.05 0.11 0.14 0.14 0.06 0.02 0.01 0.00 0.00 0.00 0.00 0.00 0.00 0.01 0.02 0.03 0.03 0.04 0.05 0.05 0.05 0.04 0.04 0.04 0.05 0.06 0.05 0.03 0.02
0.03 0.04 0.05 0.04 0.05 0.07 0.06 0.07 0.03 0.01 0.01 0.02 0.04 0.08 0.18 0.20 0.07 0.03 0.01 0.00 0.00 0.00 0.00 0.00 0.00 0.00 0.00 0.00 0.01 0.01 0.03 0.07 0.11 0.08 0.06 0.06 0.05 0.05 0.09 0.13 0.12 0.08 0.05
0.02 0.02 0.02 0.02 0.05 0.03 0.05 0.02 0.01 0.04 0.07 0.12 0.21 0.24 0.13 0.02 0.03 0.02 0.01 0.00 0.00 0.00 0.00 0.00 0.00 0.00 0.00 0.00 0.00 0.01 0.02 0.03 0.09 0.11 0.11 0.06 0.08 0.07 0.09 0.08 0.07 0.08 0.07
0.01 0.02 0.02 0.02 0.02 0.05 0.04 0.04 0.11 0.18 0.23 0.21 0.10 0.02 0.00 0.01 0.02 0.00 0.00 0.00 0.00 0.00 0.00 0.00 0.00 0.00 0.00 0.01 0.08 0.07 0.02 0.01 0.01 0.03 0.06 0.05 0.06 0.06 0.08 0.08 0.10 0.09 0.05
0.02 0.03 0.03 0.01 0.03 0.08 0.17 0.27 0.25 0.16 0.06 0.02 0.01 0.00 0.00 0.01 0.00 0.00 0.00 0.00 0.00 0.00 0.00 0.00 0.00 0.01 0.01 0.07 0.10 0.04 0.01 0.01 0.02 0.04 0.06 0.06 0.06 0.07 0.08 0.18 0.15 0.16 0.11
0.00 0.00 0.03 0.11 0.23 0.30 0.24 0.13 0.05 0.02 0.01 0.00 0.00 0.00 0.00 0.00 0.00 0.00 0.00 0.00 0.00 0.00 0.00 0.00 0.00 0.03 0.10 0.08 0.09 0.07 0.06 0.03 0.04 0.06 0.07 0.05 0.04 0.04 0.05 0.10 0.15 0.30 0.26
0.08 0.15 0.24 0.29 0.24 0.14 0.06 0.01 0.00 0.00 0.00 0.00 0.00 0.00 0.00 0.00 0.00 0.00 0.00 0.00 0.00 0.01 0.00 0.00 0.01 0.06 0.09 0.05 0.06 0.08 0.14 0.08 0.08 0.09 0.09 0.08 0.06 0.05 0.05 0.05 0.07 0.13 0.22
0.14 0.16 0.12 0.04 0.00 0.00 0.00 0.00 0.00 0.00 0.00 0.00 0.00 0.00 0.00 0.00 0.00 0.00 0.00 0.00 0.00 0.01 0.03 0.03 0.04 0.07 0.05 0.04 0.07 0.12 0.08 0.06 0.11 0.13 0.09 0.06 0.07 0.06 0.05 0.05 0.08 0.10 0.10
0.02 0.01 0.00 0.00 0.00 0.00 0.00 0.00 0.00 0.00 0.00 0.00 0.00 0.00 0.01 0.01 0.02 0.00 0.00 0.00 0.00 0.01 0.03 0.05 0.06 0.05 0.05 0.07 0.08 0.07 0.07 0.16 0.19 0.20 0.17 0.12 0.11 0.12 0.16 0.23 0.22 0.15 0.07
0.00 0.00 0.00 0.00 0.00 0.00 0.00 0.00 0.00 0.00 0.00 0.00 0.00 0.01 0.01 0.01 0.02 0.02 0.01 0.01 0.01 0.02 0.02 0.04 0.04 0.05 0.08 0.12 0.09 0.11 0.16 0.17 0.20 0.22 0.19 0.16 0.17 0.21 0.23 0.24 0.25 0.27 0.26
0.00 0.00 0.00 0.00 0.00 0.00 0.00 0.00 0.00 0.00 0.00 0.00 0.00 0.01 0.02 0.02 0.02 0.02 0.04 0.06 0.08 0.08 0.11 0.16 0.14 0.13 0.12 0.12 0.11 0.10 0.13 0.14 0.16 0.14 0.17 0.18 0.21 0.20 0.17 0.18 0.24 0.32 0.36
0.00 0.00 0.02 0.03 0.02 0.01 0.00 0.00 0.00 0.00 0.00 0.00 0.00 0.00 0.00 0.00 0.00 0.00 0.01 0.02 0.06 0.11 0.24 0.16 0.09 0.09 0.09 0.10 0.13 0.13 0.13 0.16 0.16 0.21 0.24 0.23 0.20 0.18 0.14 0.12 0.15 0.19 0.20
0.01 0.02 0.04 0.05 0.03 0.02 0.01 0.01 0.01 0.01 0.00 0.00 0.00 0.00 0.00 0.01 0.02 0.05 0.07 0.09 0.09 0.14 0.24 0.12 0.12 0.13 0.13 0.13 0.15 0.16 0.18 0.18 0.18 0.20 0.18 0.16 0.16 0.16 0.15 0.12 0.10 0.09 0.08
0.00 0.01 0.03 0.02 0.02 0.02 0.02 0.03 0.04 0.05 0.05 0.03 0.01 0.01 0.03 0.04 0.05 0.03 0.03 0.10 0.15 0.12 0.13 0.10 0.09 0.08 0.08 0.09 0.11 0.12 0.12 0.13 0.16 0.16 0.18 0.18 0.19 0.18 0.17 0.12 0.09 0.09 0.06
0.00 0.01 0.01 0.01 0.02 0.02 0.03 0.04 0.05 0.07 0.08 0.06 0.03 0.02 0.00 0.00 0.01 0.02 0.03 0.15 0.12 0.08 0.06 0.06 0.06 0.09 0.10 0.12 0.14 0.16 0.17 0.18 0.18 0.20 0.18 0.18 0.18 0.20 0.17 0.13 0.11 0.08 0.07
0.04 0.06 0.06 0.07 0.07 0.07 0.06 0.07 0.07 0.08 0.07 0.07 0.05 0.03 0.02 0.05 0.06 0.04 0.05 0.10 0.13 0.11 0.09 0.10 0.10 0.12 0.14 0.16 0.16 0.16 0.16 0.14 0.16 0.18 0.19 0.18 0.17 0.19 0.19 0.15 0.12 0.10 0.06
0.19 0.18 0.15 0.13 0.11 0.10 0.09 0.09 0.07 0.09 0.09 0.08 0.05 0.04 0.06 0.14 0.14 0.13 0.12 0.13 0.15 0.15 0.16 0.16 0.14 0.14 0.13 0.13 0.14 0.14 0.14 0.13 0.15 0.16 0.16 0.16 0.19 0.19 0.15 0.13 0.11 0.09 0.06
0.17 0.14 0.11 0.09 0.09 0.10 0.08 0.06 0.07 0.09 0.10 0.11 0.09 0.09 0.11 0.14 0.14 0.15 0.17 0.19 0.19 0.20 0.21 0.20 0.17 0.15 0.15 0.17 0.17 0.18 0.14 0.11 0.11 0.13 0.13 0.11 0.11 0.12 0.12 0.12 0.11 0.10 0.08
0.10 0.10 0.09 0.08 0.08 0.08 0.08 0.09 0.14 0.17 0.19 0.21 0.23 0.20 0.16 0.21 0.22 0.20 0.22 0.21 0.21 0.22 0.19 0.20 0.20 0.17 0.15 0.15 0.17 0.20 0.18 0.12 0.11 0.14 0.15 0.13 0.10 0.10 0.10 0.10 0.11 0.12 0.10
0.07 0.09 0.10 0.10 0.12 0.18 0.20 0.20 0.20 0.19 0.21 0.22 0.18 0.17 0.18 0.18 0.19 0.20 0.19 0.18 0.19 0.20 0.23 0.26 0.27 0.24 0.22 0.20 0.21 0.20 0.18 0.17 0.21 0.20 0.20 0.16 0.10 0.09 0.11 0.11 0.10 0.10 0.11
0.14 0.16 0.19 0.21 0.22 0.20 0.18 0.18 0.22 0.22 0.20 0.18 0.17 0.15 0.12 0.12 0.11 0.10 0.09 0.10 0.11 0.11 0.10 0.10 0.12 0.12 0.13 0.15 0.18 0.15 0.15 0.18 0.21 0.21 0.27 0.24 0.17 0.13 0.11 0.12 0.11 0.11 0.11
0.11 0.15 0.16 0.14 0.17 0.21 0.24 0.22 0.19 0.18 0.16 0.15 0.14 0.14 0.12 0.11 0.09 0.07 0.06 0.07 0.08 0.07 0.06 0.08 0.08 0.08 0.09 0.10 0.12 0.14 0.12 0.13 0.18 0.23 0.27 0.28 0.24 0.20 0.17 0.16 0.15 0.16 0.11

GFSGL_prec_precacc_054.txt.gz
Total_Precipitation_Accumulation
0.18 0.09 0.10 0.25 0.50 0.41 0.29 0.25 0.26 0.29 0.29 0.15 0.06 0.03 0.03 0.02 0.02 0.02 0.05 0.06 0.07 0.07 0.08 0.11 0.11 0.09 0.06 0.04 0.03 0.02 0.02 0.04 0.08 0.01 0.00 0.00 0.00 0.00 0.00 0.00 0.00 0.02 0.05
0.25 0.27 0.47 0.69 0.88 0.77 0.58 0.52 0.30 0.19 0.11 0.07 0.05 0.02 0.01 0.01 0.04 0.06 0.06 0.05 0.08 0.16 0.26 0.20 0.11 0.04 0.01 0.00 0.00 0.00 0.00 0.00 0.01 0.01 0.00 0.00 0.00 0.00 0.00 0.00 0.01 0.00 0.02
0.46 0.52 0.50 0.43 0.65 0.77 0.53 0.33 0.21 0.15 0.13 0.09 0.04 0.04 0.02 0.02 0.03 0.05 0.07 0.13 0.22 0.19 0.08 0.02 0.00 0.00 0.00 0.00 0.00 0.00 0.00 0.01 0.03 0.06 0.02 0.00 0.00 0.00 0.01 0.01 0.01 0.02 0.03
0.30 0.22 0.18 0.29 0.25 0.27 0.19 0.15 0.10 0.10 0.10 0.07 0.05 0.04 0.03 0.03 0.08 0.11 0.16 0.14 0.05 0.02 0.01 0.00 0.01 0.00 0.00 0.00 0.01 0.02 0.04 0.05 0.04 0.04 0.03 0.01 0.00 0.00 0.02 0.03 0.04 0.04 0.04
0.18 0.11 0.16 0.15 0.14 0.18 0.17 0.12 0.09 0.08 0.04 0.03 0.03 0.03 0.05 0.11 0.14 0.15 0.06 0.02 0.01 0.01 0.00 0.00 0.00 0.00 0.00 0.01 0.02 0.03 0.03 0.04 0.05 0.05 0.05 0.04 0.04 0.04 0.05 0.06 0.06 0.04 0.02
0.10 0.08 0.12 0.11 0.14 0.18 0.13 0.11 0.05 0.04 0.04 0.03 0.05 0.08 0.18 0.21 0.09 0.03 0.02 0.00 0.00 0.00 0.00 0.00 0.00 0.00 0.00 0.00 0.01 0.01 0.03 0.07 0.11 0.08 0.06 0.06 0.05 0.05 0.09 0.13 0.13 0.09 0.07
0.05 0.05 0.07 0.08 0.10 0.10 0.11 0.05 0.04 0.06 0.08 0.13 0.22 0.25 0.13 0.02 0.04 0.02 0.01 0.00 0.00 0.00 0.00 0.00 0.00 0.00 0.00 0.00 0.00 0.01 0.02 0.03 0.09 0.11 0.11 0.06 0.08 0.07 0.09 0.08 0.08 0.09 0.10
0.02 0.04 0.05 0.06 0.07 0.08 0.07 0.07 0.13 0.18 0.23 0.21 0.11 0.02 0.00 0.01 0.02 0.00 0.00 0.00 0.00 0.00 0.00 0.00 0.00 0.00 0.00 0.01 0.08 0.07 0.02 0.01 0.01 0.03 0.06 0.05 0.06 0.06 0.08 0.09 0.11 0.10 0.05
0.04 0.06 0.05 0.03 0.04 0.10 0.20 0.28 0.25 0.16 0.06 0.02 0.01 0.00 0.00 0.01 0.00 0.00 0.00 0.00 0.00 0.00 0.00 0.00 0.00 0.01 0.01 0.07 0.10 0.04 0.01 0.01 0.02 0.04 0.06 0.06 0.06 0.07 0.08 0.18 0.16 0.17 0.13
0.01 0.02 0.04 0.12 0.24 0.30 0.25 0.13 0.05 0.02 0.01 0.00 0.00 0.00 0.00 0.00 0.00 0.00 0.00 0.00 0.00 0.00 0.00 0.00 0.00 0.03 0.10 0.08 0.09 0.07 0.06 0.03 0.04 0.06 0.07 0.05 0.04 0.04 0.05 0.10 0.16 0.34 0.30
0.08 0.15 0.24 0.29 0.24 0.14 0.06 0.01 0.00 0.00 0.00 0.00 0.00 0.00 0.00 0.00 0.00 0.00 0.00 0.00 0.00 0.01 0.00 0.00 0.01 0.06 0.09 0.05 0.06 0.08 0.14 0.08 0.08 0.09 0.09 0.08 0.06 0.05 0.05 0.05 0.07 0.14 0.28
0.14 0.16 0.12 0.04 0.00 0.00 0.00 0.00 0.00 0.00 0.00 0.00 0.00 0.00 0.00 0.00 0.00 0.00 0.00 0.00 0.00 0.01 0.03 0.03 0.04 0.07 0.05 0.04 0.07 0.12 0.08 0.06 0.11 0.13 0.09 0.07 0.07 0.06 0.05 0.05 0.08 0.10 0.11
0.02 0.01 0.00 0.00 0.00 0.00 0.00 0.00 0.00 0.00 0.00 0.00 0.00 0.00 0.01 0.01 0.02 0.00 0.00 0.00 0.00 0.01 0.03 0.05 0.06 0.05 0.05 0.07 0.08 0.07 0.07 0.16 0.19 0.20 0.17 0.12 0.11 0.12 0.16 0.23 0.22 0.16 0.11
0.00 0.00 0.00 0.00 0.00 0.00 0.00 0.00 0.00 0.00 0.00 0.00 0.00 0.01 0.01 0.01 0.02 0.02 0.01 0.01 0.01 0.02 0.02 0.04 0.04 0.05 0.08 0.12 0.09 0.11 0.16 0.17 0.20 0.22 0.19 0.16 0.17 0.21 0.24 0.24 0.28 0.29 0.27
0.00 0.00 0.00 0.00 0.00 0.00 0.00 0.00 0.00 0.00 0.00 0.00 0.00 0.01 0.02 0.02 0.02 0.02 0.04 0.06 0.08 0.08 0.11 0.16 0.14 0.13 0.12 0.12 0.11 0.10 0.13 0.14 0.16 0.14 0.17 0.18 0.21 0.21 0.21 0.23 0.29 0.33 0.37
0.00 0.00 0.02 0.03 0.02 0.01 0.00 0.00 0.00 0.00 0.00 0.00 0.00 0.00 0.01 0.01 0.00 0.00 0.01 0.02 0.06 0.11 0.24 0.16 0.09 0.09 0.09 0.10 0.13 0.13 0.13 0.16 0.16 0.21 0.24 0.23 0.20 0.18 0.16 0.14 0.17 0.21 0.20
0.01 0.02 0.04 0.05 0.03 0.02 0.01 0.01 0.02 0.01 0.00 0.00 0.00 0.00 0.01 0.01 0.02 0.05 0.07 0.09 0.09 0.14 0.24 0.12 0.12 0.13 0.13 0.13 0.15 0.16 0.19 0.18 0.18 0.20 0.18 0.16 0.16 0.17 0.16 0.14 0.13 0.13 0.10
0.00 0.01 0.03 0.02 0.03 0.02 0.03 0.03 0.04 0.06 0.07 0.05 0.02 0.01 0.03 0.04 0.05 0.03 0.03 0.10 0.15 0.12 0.13 0.10 0.09 0.08 0.08 0.09 0.11 0.12 0.13 0.14 0.16 0.16 0.18 0.18 0.20 0.19 0.19 0.16 0.14 0.13 0.08
0.00 0.01 0.02 0.04 0.04 0.04 0.05 0.08 0.10 0.12 0.13 0.09 0.04 0.03 0.01 0.01 0.01 0.02 0.03 0.15 0.12 0.08 0.06 0.06 0.06 0.09 0.10 0.12 0.14 0.16 0.18 0.18 0.19 0.20 0.18 0.19 0.19 0.21 0.19 0.17 0.18 0.14 0.11
0.11 0.12 0.13 0.15 0.18 0.20 0.19 0.16 0.13 0.13 0.12 0.09 0.07 0.04 0.02 0.05 0.06 0.04 0.05 0.10 0.13 0.11 0.09 0.10 0.10 0.12 0.14 0.16 0.16 0.16 0.16 0.14 0.17 0.18 0.19 0.18 0.17 0.20 0.22 0.19 0.16 0.14 0.08
0.32 0.32 0.30 0.28 0.25 0.23 0.20 0.17 0.14 0.14 0.12 0.09 0.06 0.04 0.06 0.14 0.14 0.13 0.12 0.13 0.15 0.15 0.16 0.16 0.14 0.14 0.13 0.13 0.14 0.14 0.14 0.13 0.15 0.17 0.16 0.16 0.19 0.19 0.16 0.16 0.14 0.12 0.08
0.27 0.24 0.21 0.19 0.18 0.17 0.13 0.10 0.10 0.12 0.11 0.12 0.10 0.09 0.11 0.14 0.14 0.15 0.17 0.19 0.19 0.20 0.21 0.20 0.17 0.15 0.15 0.17 0.17 0.18 0.14 0.11 0.11 0.13 0.13 0.12 0.12 0.12 0.13 0.13 0.13 0.13 0.10
0.16 0.15 0.14 0.13 0.13 0.12 0.11 0.11 0.16 0.18 0.20 0.22 0.24 0.21 0.17 0.21 0.22 0.21 0.22 0.21 0.22 0.22 0.19 0.20 0.20 0.17 0.15 0.15 0.17 0.20 0.18 0.12 0.12 0.15 0.16 0.13 0.10 0.10 0.10 0.11 0.11 0.13 0.13
0.11 0.13 0.13 0.13 0.15 0.20 0.23 0.22 0.22 0.21 0.23 0.23 0.19 0.18 0.19 0.18 0.19 0.20 0.19 0.18 0.19 0.20 0.23 0.26 0.27 0.24 0.22 0.20 0.21 0.20 0.19 0.17 0.22 0.21 0.21 0.17 0.11 0.09 0.11 0.11 0.10 0.10 0.11
0.16 0.19 0.22 0.24 0.24 0.22 0.20 0.20 0.23 0.23 0.21 0.19 0.18 0.15 0.12 0.12 0.11 0.10 0.09 0.10 0.11 0.11 0.10 0.10 0.12 0.12 0.13 0.15 0.18 0.15 0.16 0.18 0.21 0.21 0.28 0.25 0.18 0.13 0.12 0.12 0.11 0.12 0.11
0.12 0.16 0.16 0.15 0.18 0.21 0.24 0.22 0.19 0.18 0.16 0.15 0.14 0.14 0.12 0.11 0.09 0.07 0.06 0.07 0.08 0.07 0.06 0.08 0.08 0.08 0.09 0.10 0.12 0.15 0.12 0.13 0.19 0.23 0.29 0.29 0.25 0.20 0.18 0.16 0.15 0.16 0.12

GFSGL_prec_precacc_057.txt.gz
Total_Precipitation_Accumulation
0.18 0.09 0.10 0.25 0.51 0.42 0.32 0.28 0.31 0.42 0.46 0.54 0.26 0.11 0.12 0.14 0.08 0.04 0.05 0.06 0.07 0.07 0.08 0.12 0.12 0.10 0.08 0.07 0.05 0.03 0.03 0.04 0.08 0.01 0.00 0.00 0.00 0.00 0.00 0.00 0.00 0.02 0.05
0.29 0.28 0.49 0.69 0.89 0.80 0.63 0.75 0.53 0.29 0.16 0.17 0.16 0.11 0.08 0.10 0.12 0.11 0.07 0.05 0.08 0.16 0.26 0.20 0.11 0.05 0.02 0.01 0.00 0.00 0.00 0.00 0.01 0.01 0.00 0.00 0.00 0.00 0.00 0.00 0.01 0.00 0.02
0.51 0.58 0.55 0.47 0.67 0.82 0.66 0.48 0.32 0.19 0.17 0.12 0.10 0.09 0.08 0.09 0.07 0.08 0.08 0.14 0.23 0.20 0.09 0.03 0.01 0.00 0.00 0.00 0.00 0.00 0.00 0.01 0.03 0.06 0.02 0.00 0.00 0.00 0.01 0.01 0.01 0.02 0.03
0.30 0.23 0.20 0.31 0.27 0.31 0.31 0.29 0.16 0.12 0.11 0.10 0.10 0.09 0.08 0.07 0.10 0.13 0.17 0.15 0.06 0.02 0.02 0.01 0.01 0.00 0.00 0.00 0.01 0.02 0.04 0.05 0.04 0.04 0.03 0.01 0.00 0.00 0.02 0.03 0.04 0.04 0.04
0.18 0.11 0.17 0.18 0.17 0.20 0.22 0.17 0.16 0.13 0.07 0.06 0.06 0.07 0.09 0.13 0.16 0.15 0.07 0.03 0.01 0.01 0.00 0.00 0.00 0.00 0.01 0.01 0.02 0.03 0.03 0.04 0.05 0.05 0.05 0.04 0.04 0.04 0.05 0.06 0.06 0.04 0.02
0.10 0.08 0.13 0.13 0.17 0.22 0.15 0.12 0.08 0.10 0.09 0.06 0.09 0.12 0.21 0.22 0.10 0.04 0.02 0.00 0.00 0.00 0.00 0.00 0.00 0.00 0.00 0.00 0.01 0.01 0.03 0.07 0.11 0.08 0.06 0.06 0.05 0.05 0.09 0.13 0.13 0.09 0.08
0.05 0.05 0.08 0.09 0.14 0.14 0.15 0.09 0.08 0.14 0.15 0.16 0.25 0.27 0.15 0.03 0.06 0.03 0.01 0.00 0.00 0.00 0.00 0.00 0.00 0.00 0.00 0.00 0.00 0.01 0.02 0.03 0.09 0.11 0.11 0.06 0.08 0.07 0.09 0.08 0.08 0.09 0.10
0.02 0.04 0.05 0.07 0.10 0.12 0.12 0.10 0.17 0.22 0.27 0.26 0.15 0.05 0.02 0.03 0.04 0.01 0.00 0.00 0.00 0.00 0.00 0.00 0.00 0.00 0.00 0.01 0.08 0.07 0.02 0.01 0.01 0.03 0.06 0.05 0.06 0.06 0.08 0.09 0.11 0.10 0.06
0.04 0.06 0.06 0.05 0.08 0.15 0.28 0.35 0.32 0.21 0.10 0.04 0.03 0.02 0.01 0.01 0.01 0.00 0.00 0.00 0.00 0.00 0.00 0.00 0.00 0.01 0.01 0.07 0.10 0.04 0.01 0.01 0.02 0.04 0.06 0.06 0.06 0.07 0.08 0.18 0.16 0.18 0.14
0.02 0.03 0.06 0.14 0.27 0.33 0.28 0.17 0.07 0.03 0.02 0.01 0.00 0.00 0.00 0.00 0.00 0.00 0.00 0.00 0.00 0.00 0.00 0.00 0.00 0.03 0.10 0.08 0.09 0.07 0.06 0.03 0.04 0.06 0.07 0.05 0.04 0.04 0.05 0.10 0.16 0.35 0.31
0.09 0.16 0.25 0.29 0.24 0.14 0.06 0.02 0.01 0.01 0.00 0.00 0.00 0.00 0.00 0.00 0.00 0.00 0.00 0.00 0.00 0.01 0.00 0.00 0.01 0.06 0.09 0.05 0.06 0.08 0.14 0.08 0.08 0.09 0.09 0.08 0.06 0.05 0.05 0.05 0.07 0.16 0.31
0.14 0.16 0.12 0.04 0.00 0.00 0.00 0.00 0.00 0.00 0.00 0.00 0.00 0.00 0.00 0.00 0.00 0.00 0.00 0.00 0.00 0.01 0.03 0.03 0.04 0.07 0.05 0.04 0.07 0.12 0.08 0.06 0.11 0.13 0.09 0.07 0.07 0.06 0.05 0.05 0.08 0.10 0.12
0.02 0.01 0.00 0.00 0.00 0.00 0.00 0.00 0.00 0.00 0.00 0.00 0.00 0.00 0.01 0.01 0.02 0.00 0.00 0.00 0.00 0.01 0.03 0.05 0.06 0.05 0.05 0.07 0.08 0.07 0.07 0.16 0.19 0.20 0.17 0.12 0.11 0.12 0.16 0.23 0.22 0.16 0.12
0.00 0.00 0.00 0.00 0.00 0.00 0.00 0.00 0.00 0.00 0.00 0.00 0.00 0.01 0.01 0.01 0.02 0.02 0.01 0.01 0.01 0.02 0.02 0.04 0.04 0.05 0.08 0.12 0.09 0.11 0.16 0.17 0.20 0.22 0.19 0.16 0.17 0.21 0.24 0.24 0.28 0.30 0.30
0.00 0.00 0.00 0.00 0.00 0.00 0.00 0.00 0.00 0.00 0.00 0.00 0.00 0.01 0.02 0.02 0.02 0.02 0.05 0.06 0.08 0.08 0.11 0.16 0.14 0.13 0.12 0.12 0.11 0.10 0.13 0.14 0.16 0.14 0.17 0.18 0.21 0.21 0.21 0.23 0.30 0.36 0.40
0.00 0.00 0.02 0.03 0.02 0.01 0.00 0.00 0.00 0.00 0.00 0.00 0.00 0.00 0.01 0.01 0.00 0.01 0.02 0.03 0.07 0.11 0.24 0.16 0.09 0.09 0.09 0.10 0.13 0.13 0.13 0.16 0.16 0.21 0.24 0.23 0.20 0.18 0.16 0.14 0.17 0.22 0.23
0.01 0.02 0.04 0.05 0.03 0.02 0.01 0.01 0.02 0.01 0.00 0.00 0.00 0.00 0.01 0.02 0.03 0.05 0.08 0.09 0.09 0.14 0.24 0.12 0.12 0.13 0.13 0.13 0.15 0.16 0.19 0.18 0.18 0.20 0.18 0.16 0.17 0.17 0.16 0.14 0.13 0.14 0.12
0.00 0.01 0.03 0.02 0.03 0.02 0.03 0.03 0.05 0.06 0.08 0.08 0.06 0.04 0.05 0.06 0.06 0.05 0.04 0.10 0.15 0.12 0.13 0.10 0.09 0.08 0.08 0.09 0.11 0.12 0.13 0.14 0.16 0.16 0.18 0.18 0.20 0.19 0.19 0.16 0.14 0.15 0.11
0.03 0.05 0.07 0.09 0.10 0.10 0.10 0.13 0.16 0.19 0.21 0.17 0.11 0.09 0.09 0.08 0.06 0.05 0.05 0.16 0.12 0.08 0.06 0.07 0.07 0.09 0.10 0.12 0.14 0.16 0.18 0.18 0.19 0.20 0.18 0.19 0.19 0.21 0.19 0.18 0.18 0.16 0.15
0.29 0.29 0.25 0.26 0.27 0.28 0.27 0.25 0.22 0.21 0.20 0.17 0.15 0.12 0.08 0.08 0.08 0.05 0.06 0.11 0.14 0.11 0.09 0.11 0.10 0.12 0.14 0.16 0.16 0.16 0.16 0.14 0.17 0.18 0.19 0.18 0.17 0.20 0.22 0.19 0.16 0.16 0.12
0.40 0.38 0.36 0.34 0.31 0.28 0.25 0.22 0.18 0.18 0.16 0.13 0.10 0.07 0.08 0.15 0.16 0.14 0.13 0.14 0.16 0.16 0.16 0.16 0.14 0.14 0.13 0.13 0.14 0.14 0.14 0.13 0.15 0.17 0.16 0.16 0.19 0.19 0.16 0.16 0.14 0.13 0.11
0.31 0.28 0.24 0.22 0.21 0.20 0.16 0.13 0.14 0.15 0.15 0.15 0.14 0.12 0.13 0.16 0.16 0.17 0.19 0.21 0.20 0.21 0.21 0.20 0.17 0.15 0.15 0.17 0.17 0.18 0.14 0.11 0.11 0.13 0.14 0.12 0.12 0.12 0.13 0.13 0.13 0.14 0.12
0.17 0.16 0.16 0.15 0.15 0.14 0.14 0.14 0.19 0.22 0.24 0.26 0.27 0.24 0.20 0.24 0.25 0.23 0.23 0.22 0.22 0.22 0.19 0.20 0.20 0.17 0.15 0.15 0.17 0.20 0.19 0.12 0.12 0.15 0.17 0.14 0.10 0.10 0.10 0.11 0.11 0.14 0.13
0.12 0.14 0.14 0.14 0.17 0.22 0.25 0.25 0.24 0.24 0.26 0.26 0.22 0.20 0.20 0.19 0.20 0.20 0.19 0.18 0.19 0.20 0.23 0.26 0.27 0.24 0.22 0.20 0.21 0.20 0.19 0.17 0.23 0.22 0.22 0.18 0.11 0.09 0.12 0.11 0.10 0.10 0.12
0.17 0.20 0.23 0.25 0.26 0.23 0.21 0.21 0.24 0.23 0.21 0.19 0.18 0.15 0.12 0.12 0.11 0.10 0.09 0.10 0.11 0.11 0.10 0.10 0.12 0.12 0.13 0.15 0.18 0.15 0.16 0.19 0.21 0.21 0.28 0.26 0.19 0.14 0.12 0.12 0.12 0.12 0.12
0.13 0.16 0.16 0.15 0.18 0.21 0.24 0.22 0.19 0.18 0.16 0.15 0.14 0.14 0.12 0.11 0.09 0.07 0.06 0.07 0.08 0.07 0.06 0.08 0.08 0.08 0.09 0.10 0.12 0.15 0.13 0.13 0.19 0.23 0.30 0.30 0.25 0.20 0.18 0.17 0.15 0.16 0.12

GFSGL_prec_precacc_060.txt.gz
Total_Precipitation_Accumulation
0.18 0.09 0.10 0.25 0.51 0.42 0.32 0.28 0.31 0.43 0.47 0.57 0.41 0.24 0.18 0.18 0.15 0.10 0.10 0.11 0.09 0.09 0.09 0.12 0.13 0.11 0.09 0.07 0.05 0.03 0.03 0.05 0.08 0.01 0.00 0.00 0.00 0.00 0.00 0.00 0.00 0.02 0.05
0.30 0.28 0.49 0.69 0.89 0.80 0.63 0.75 0.53 0.29 0.16 0.17 0.20 0.16 0.12 0.13 0.17 0.16 0.13 0.11 0.11 0.18 0.27 0.21 0.12 0.05 0.03 0.01 0.01 0.00 0.00 0.00 0.01 0.01 0.00 0.00 0.00 0.00 0.00 0.00 0.01 0.00 0.02
0.52 0.59 0.55 0.47 0.68 0.82 0.67 0.48 0.35 0.25 0.21 0.16 0.12 0.14 0.14 0.16 0.16 0.15 0.16 0.19 0.25 0.21 0.10 0.04 0.03 0.02 0.02 0.01 0.01 0.00 0.00 0.01 0.03 0.06 0.02 0.00 0.00 0.00 0.01 0.01 0.01 0.02 0.03
0.30 0.23 0.20 0.31 0.28 0.32 0.32 0.30 0.19 0.21 0.16 0.12 0.10 0.11 0.11 0.10 0.14 0.17 0.21 0.17 0.08 0.04 0.02 0.01 0.02 0.01 0.01 0.01 0.01 0.02 0.04 0.05 0.04 0.04 0.03 0.01 0.00 0.00 0.02 0.03 0.04 0.04 0.04
0.18 0.11 0.17 0.18 0.18 0.22 0.25 0.20 0.19 0.17 0.13 0.13 0.11 0.09 0.10 0.14 0.20 0.18 0.09 0.04 0.02 0.02 0.01 0.01 0.02 0.03 0.02 0.02 0.02 0.03 0.03 0.04 0.05 0.05 0.05 0.04 0.04 0.04 0.05 0.06 0.06 0.04 0.02
0.10 0.08 0.13 0.13 0.17 0.24 0.19 0.16 0.12 0.15 0.18 0.15 0.13 0.16 0.23 0.24 0.14 0.06 0.03 0.01 0.01 0.02 0.02 0.02 0.03 0.04 0.01 0.01 0.01 0.01 0.03 0.07 0.11 0.08 0.06 0.06 0.05 0.05 0.09 0.13 0.13 0.09 0.08
0.05 0.05 0.08 0.09 0.14 0.14 0.19 0.15 0.15 0.22 0.26 0.24 0.30 0.31 0.18 0.06 0.10 0.06 0.03 0.01 0.02 0.03 0.03 0.02 0.01 0.00 0.00 0.00 0.00 0.01 0.02 0.03 0.09 0.11 0.11 0.06 0.08 0.07 0.09 0.08 0.08 0.09 0.10
0.02 0.04 0.05 0.07 0.10 0.13 0.18 0.14 0.21 0.31 0.36 0.32 0.21 0.11 0.06 0.05 0.09 0.05 0.04 0.01 0.02 0.02 0.01 0.01 0.00 0.00 0.00 0.01 0.08 0.07 0.02 0.01 0.01 0.03 0.06 0.05 0.06 0.06 0.08 0.09 0.11 0.11 0.06
0.04 0.06 0.06 0.06 0.08 0.16 0.30 0.38 0.35 0.25 0.16 0.10 0.06 0.05 0.05 0.06 0.08 0.04 0.02 0.00 0.01 0.01 0.00 0.00 0.01 0.01 0.01 0.08 0.10 0.04 0.01 0.01 0.02 0.04 0.06 0.06 0.06 0.07 0.08 0.18 0.16 0.18 0.14
0.02 0.04 0.06 0.15 0.28 0.34 0.30 0.20 0.11 0.06 0.05 0.04 0.04 0.04 0.05 0.04 0.05 0.02 0.01 0.00 0.01 0.00 0.00 0.00 0.01 0.03 0.10 0.08 0.09 0.07 0.06 0.03 0.04 0.06 0.07 0.05 0.04 0.04 0.05 0.10 0.16 0.36 0.32
0.09 0.16 0.25 0.30 0.25 0.15 0.07 0.03 0.02 0.02 0.03 0.02 0.02 0.02 0.02 0.02 0.02 0.01 0.01 0.00 0.00 0.01 0.00 0.00 0.01 0.06 0.09 0.05 0.06 0.08 0.14 0.08 0.08 0.09 0.09 0.08 0.06 0.05 0.05 0.05 0.07 0.16 0.31
0.14 0.16 0.13 0.04 0.01 0.00 0.01 0.01 0.02 0.01 0.02 0.03 0.02 0.01 0.01 0.01 0.01 0.01 0.00 0.00 0.01 0.01 0.03 0.03 0.04 0.07 0.05 0.04 0.07 0.12 0.08 0.06 0.11 0.13 0.09 0.07 0.07 0.06 0.05 0.05 0.08 0.10 0.12
0.02 0.01 0.01 0.00 0.01 0.03 0.03 0.03 0.03 0.02 0.02 0.01 0.01 0.00 0.01 0.01 0.02 0.00 0.00 0.00 0.00 0.01 0.03 0.05 0.06 0.05 0.05 0.07 0.08 0.07 0.07 0.16 0.19 0.20 0.17 0.12 0.11 0.12 0.16 0.23 0.22 0.16 0.12
0.01 0.00 0.00 0.00 0.01 0.01 0.02 0.03 0.02 0.01 0.01 0.00 0.00 0.01 0.01 0.01 0.02 0.02 0.01 0.01 0.01 0.02 0.02 0.04 0.05 0.05 0.08 0.12 0.09 0.11 0.16 0.17 0.20 0.22 0.19 0.16 0.17 0.21 0.24 0.24 0.28 0.30 0.30
0.00 0.00 0.00 0.00 0.00 0.00 0.01 0.01 0.00 0.00 0.00 0.00 0.00 0.01 0.02 0.02 0.02 0.02 0.05 0.06 0.08 0.08 0.12 0.16 0.14 0.13 0.12 0.12 0.11 0.10 0.13 0.14 0.16 0.14 0.17 0.18 0.21 0.21 0.21 0.23 0.30 0.36 0.40
0.00 0.00 0.02 0.03 0.02 0.01 0.00 0.00 0.00 0.00 0.00 0.00 0.01 0.01 0.02 0.02 0.01 0.02 0.02 0.03 0.07 0.11 0.24 0.16 0.09 0.09 0.09 0.10 0.13 0.13 0.13 0.16 0.16 0.21 0.24 0.23 0.20 0.18 0.16 0.14 0.17 0.22 0.23
0.01 0.02 0.04 0.05 0.03 0.02 0.02 0.03 0.04 0.07 0.07 0.07 0.08 0.08 0.07 0.06 0.05 0.06 0.08 0.09 0.09 0.14 0.24 0.12 0.12 0.13 0.13 0.13 0.15 0.16 0.19 0.18 0.18 0.20 0.18 0.16 0.17 0.17 0.16 0.14 0.13 0.14 0.12
0.01 0.02 0.03 0.04 0.07 0.12 0.15 0.16 0.15 0.16 0.16 0.15 0.11 0.07 0.07 0.08 0.08 0.06 0.05 0.12 0.17 0.13 0.14 0.11 0.09 0.09 0.09 0.09 0.11 0.12 0.13 0.14 0.16 0.16 0.18 0.18 0.20 0.20 0.19 0.16 0.14 0.16 0.11
0.03 0.06 0.12 0.20 0.26 0.23 0.19 0.19 0.21 0.23 0.25 0.22 0.18 0.16 0.16 0.14 0.11 0.10 0.10 0.20 0.16 0.11 0.09 0.10 0.09 0.11 0.12 0.13 0.15 0.17 0.18 0.18 0.19 0.20 0.18 0.19 0.19 0.21 0.19 0.18 0.18 0.16 0.15
0.40 0.46 0.42 0.38 0.36 0.34 0.31 0.29 0.27 0.26 0.25 0.22 0.20 0.16 0.12 0.11 0.12 0.09 0.10 0.14 0.17 0.15 0.13 0.14 0.13 0.14 0.15 0.17 0.16 0.16 0.16 0.14 0.17 0.19 0.19 0.18 0.17 0.20 0.22 0.19 0.16 0.16 0.12
0.51 0.47 0.42 0.38 0.34 0.32 0.28 0.24 0.20 0.20 0.19 0.15 0.13 0.10 0.10 0.16 0.17 0.16 0.15 0.16 0.17 0.18 0.18 0.19 0.16 0.15 0.13 0.13 0.14 0.14 0.14 0.13 0.15 0.17 0.16 0.16 0.19 0.19 0.16 0.16 0.15 0.13 0.11
0.35 0.31 0.27 0.24 0.23 0.21 0.17 0.14 0.15 0.16 0.16 0.16 0.15 0.14 0.15 0.17 0.17 0.19 0.21 0.23 0.22 0.22 0.22 0.21 0.17 0.15 0.15 0.17 0.17 0.18 0.14 0.11 0.11 0.13 0.14 0.12 0.12 0.12 0.13 0.13 0.13 0.14 0.12
0.21 0.19 0.18 0.16 0.16 0.15 0.14 0.15 0.19 0.22 0.25 0.27 0.28 0.25 0.21 0.25 0.26 0.23 0.24 0.22 0.22 0.22 0.19 0.20 0.20 0.17 0.15 0.15 0.17 0.20 0.19 0.12 0.12 0.16 0.17 0.14 0.11 0.10 0.11 0.11 0.12 0.14 0.14
0.13 0.14 0.14 0.15 0.17 0.23 0.26 0.26 0.25 0.25 0.27 0.26 0.22 0.20 0.20 0.19 0.20 0.20 0.19 0.18 0.19 0.20 0.23 0.26 0.27 0.24 0.22 0.20 0.21 0.20 0.19 0.18 0.23 0.23 0.22 0.18 0.11 0.09 0.12 0.12 0.10 0.10 0.12
0.17 0.20 0.23 0.25 0.26 0.24 0.21 0.21 0.24 0.23 0.21 0.19 0.18 0.15 0.13 0.12 0.11 0.10 0.09 0.10 0.11 0.11 0.10 0.10 0.12 0.12 0.13 0.15 0.18 0.15 0.16 0.19 0.22 0.22 0.29 0.26 0.19 0.14 0.13 0.13 0.12 0.12 0.12
0.13 0.16 0.16 0.15 0.18 0.21 0.24 0.22 0.19 0.18 0.17 0.15 0.14 0.14 0.12 0.11 0.09 0.07 0.06 0.07 0.08 0.07 0.06 0.08 0.08 0.08 0.09 0.10 0.12 0.15 0.13 0.13 0.19 0.24 0.30 0.30 0.26 0.21 0.19 0.17 0.16 0.17 0.12

GFSGL_prec_precacc_063.txt.gz
Total_Precipitation_Accumulation
0.18 0.09 0.10 0.25 0.51 0.42 0.32 0.28 0.31 0.43 0.47 0.57 0.41 0.25 0.20 0.21 0.18 0.15 0.16 0.19 0.18 0.17 0.15 0.17 0.16 0.13 0.09 0.07 0.05 0.03 0.03 0.05 0.08 0.01 0.00 0.00 0.00 0.00 0.00 0.00 0.00 0.02 0.05
0.31 0.28 0.49 0.69 0.89 0.80 0.63 0.75 0.53 0.29 0.16 0.17 0.20 0.17 0.14 0.19 0.25 0.24 0.19 0.15 0.17 0.26 0.34 0.30 0.19 0.08 0.03 0.01 0.01 0.00 0.00 0.00 0.01 0.01 0.00 0.00 0.00 0.00 0.00 0.00 0.01 0.00 0.02
0.53 0.59 0.55 0.47 0.68 0.82 0.67 0.48 0.35 0.25 0.21 0.16 0.13 0.15 0.14 0.16 0.19 0.21 0.21 0.27 0.36 0.36 0.24 0.16 0.08 0.04 0.02 0.02 0.01 0.01 0.00 0.01 0.03 0.06 0.02 0.00 0.00 0.00 0.01 0.01 0.01 0.02 0.03
0.30 0.23 0.20 0.31 0.28 0.32 0.32 0.31 0.19 0.22 0.16 0.13 0.11 0.11 0.11 0.10 0.14 0.21 0.29 0.25 0.12 0.08 0.06 0.04 0.03 0.03 0.02 0.03 0.03 0.03 0.04 0.05 0.04 0.04 0.03 0.01 0.00 0.00 0.02 0.03 0.04 0.04 0.04
0.18 0.11 0.17 0.18 0.18 0.22 0.25 0.20 0.20 0.19 0.16 0.17 0.13 0.11 0.12 0.15 0.21 0.18 0.10 0.06 0.04 0.04 0.02 0.02 0.02 0.07 0.07 0.04 0.04 0.04 0.04 0.04 0.05 0.05 0.05 0.04 0.04 0.04 0.05 0.06 0.06 0.04 0.02
0.10 0.08 0.13 0.13 0.17 0.24 0.19 0.16 0.13 0.17 0.22 0.20 0.19 0.26 0.34 0.30 0.20 0.13 0.08 0.04 0.04 0.04 0.03 0.02 0.04 0.08 0.02 0.04 0.04 0.03 0.04 0.07 0.11 0.08 0.06 0.06 0.05 0.05 0.09 0.13 0.13 0.09 0.08
0.05 0.05 0.08 0.09 0.14 0.14 0.19 0.15 0.16 0.25 0.33 0.33 0.41 0.40 0.27 0.11 0.16 0.12 0.08 0.03 0.04 0.04 0.03 0.02 0.02 0.03 0.06 0.02 0.03 0.03 0.02 0.04 0.09 0.11 0.11 0.06 0.08 0.07 0.09 0.08 0.08 0.09 0.10
0.02 0.04 0.05 0.07 0.10 0.13 0.18 0.14 0.21 0.32 0.38 0.35 0.26 0.17 0.12 0.11 0.16 0.09 0.07 0.02 0.03 0.04 0.03 0.03 0.03 0.03 0.03 0.03 0.08 0.07 0.03 0.01 0.01 0.03 0.06 0.05 0.06 0.06 0.08 0.09 0.11 0.11 0.06
0.04 0.06 0.06 0.06 0.08 0.16 0.30 0.38 0.35 0.26 0.18 0.14 0.11 0.10 0.09 0.09 0.14 0.08 0.04 0.01 0.04 0.04 0.04 0.04 0.04 0.03 0.03 0.10 0.10 0.04 0.01 0.01 0.02 0.04 0.06 0.06 0.06 0.07 0.08 0.18 0.16 0.18 0.14
0.02 0.04 0.06 0.15 0.28 0.34 0.30 0.20 0.12 0.09 0.08 0.06 0.07 0.07 0.10 0.07 0.13 0.06 0.04 0.02 0.03 0.03 0.04 0.03 0.05 0.04 0.12 0.10 0.09 0.07 0.06 0.03 0.04 0.06 0.07 0.05 0.04 0.04 0.05 0.10 0.16 0.36 0.32
0.09 0.16 0.25 0.30 0.26 0.16 0.08 0.04 0.03 0.03 0.04 0.03 0.04 0.04 0.05 0.06 0.08 0.08 0.07 0.04 0.05 0.05 0.03 0.01 0.02 0.08 0.10 0.06 0.06 0.08 0.14 0.08 0.08 0.09 0.09 0.08 0.06 0.05 0.05 0.05 0.07 0.16 0.31
0.14 0.16 0.15 0.06 0.03 0.04 0.04 0.02 0.02 0.02 0.02 0.04 0.04 0.04 0.05 0.06 0.10 0.09 0.07 0.05 0.04 0.02 0.03 0.03 0.05 0.08 0.05 0.04 0.07 0.12 0.08 0.06 0.11 0.13 0.09 0.07 0.07 0.06 0.05 0.05 0.08 0.10 0.12
0.03 0.03 0.03 0.03 0.04 0.04 0.03 0.05 0.04 0.04 0.05 0.06 0.04 0.05 0.05 0.06 0.07 0.06 0.03 0.01 0.00 0.01 0.03 0.05 0.06 0.05 0.05 0.07 0.08 0.07 0.07 0.16 0.19 0.20 0.17 0.12 0.11 0.12 0.16 0.23 0.22 0.16 0.12
0.06 0.04 0.04 0.02 0.02 0.02 0.03 0.04 0.05 0.05 0.07 0.08 0.08 0.06 0.05 0.04 0.02 0.02 0.02 0.01 0.02 0.02 0.02 0.04 0.05 0.06 0.08 0.12 0.09 0.11 0.16 0.17 0.20 0.22 0.19 0.16 0.17 0.21 0.24 0.24 0.28 0.30 0.30
0.01 0.01 0.00 0.00 0.01 0.00 0.01 0.02 0.02 0.03 0.04 0.03 0.04 0.05 0.06 0.03 0.02 0.03 0.05 0.07 0.09 0.10 0.13 0.17 0.14 0.13 0.12 0.12 0.11 0.10 0.13 0.14 0.16 0.14 0.17 0.18 0.21 0.21 0.21 0.23 0.30 0.36 0.40
0.01 0.00 0.02 0.03 0.02 0.01 0.00 0.01 0.02 0.01 0.02 0.02 0.04 0.05 0.07 0.07 0.08 0.09 0.09 0.07 0.08 0.12 0.25 0.16 0.09 0.09 0.09 0.10 0.13 0.13 0.13 0.16 0.16 0.21 0.24 0.23 0.20 0.18 0.16 0.14 0.17 0.22 0.23
0.01 0.02 0.04 0.06 0.04 0.02 0.02 0.03 0.07 0.17 0.19 0.20 0.20 0.18 0.13 0.13 0.10 0.09 0.10 0.10 0.10 0.14 0.26 0.13 0.13 0.14 0.14 0.14 0.16 0.18 0.20 0.19 0.18 0.20 0.18 0.16 0.17 0.17 0.16 0.14 0.13 0.14 0.12
0.05 0.06 0.07 0.08 0.09 0.13 0.17 0.20 0.22 0.23 0.24 0.23 0.17 0.11 0.11 0.11 0.10 0.08 0.07 0.13 0.18 0.14 0.15 0.12 0.11 0.10 0.10 0.11 0.12 0.13 0.13 0.14 0.16 0.16 0.18 0.18 0.20 0.20 0.19 0.16 0.14 0.16 0.11
0.12 0.15 0.18 0.26 0.33 0.33 0.29 0.27 0.27 0.28 0.29 0.26 0.21 0.19 0.19 0.17 0.13 0.12 0.11 0.21 0.17 0.12 0.10 0.11 0.10 0.12 0.13 0.14 0.16 0.17 0.18 0.18 0.19 0.20 0.18 0.19 0.19 0.21 0.19 0.18 0.18 0.16 0.15
0.62 0.68 0.59 0.52 0.49 0.45 0.39 0.34 0.30 0.28 0.27 0.24 0.21 0.17 0.13 0.12 0.12 0.09 0.10 0.15 0.18 0.16 0.14 0.16 0.15 0.16 0.16 0.18 0.17 0.17 0.16 0.14 0.17 0.19 0.19 0.18 0.17 0.20 0.22 0.19 0.16 0.16 0.12
0.64 0.62 0.55 0.48 0.42 0.37 0.32 0.27 0.23 0.22 0.20 0.17 0.14 0.11 0.11 0.17 0.18 0.16 0.16 0.16 0.18 0.19 0.19 0.20 0.17 0.16 0.14 0.13 0.14 0.14 0.14 0.13 0.15 0.17 0.16 0.16 0.20 0.19 0.16 0.16 0.15 0.13 0.11
0.41 0.36 0.31 0.28 0.26 0.24 0.20 0.16 0.17 0.18 0.17 0.18 0.16 0.15 0.15 0.18 0.18 0.19 0.22 0.23 0.22 0.22 0.22 0.21 0.17 0.15 0.15 0.17 0.17 0.18 0.14 0.11 0.11 0.13 0.14 0.12 0.12 0.12 0.13 0.13 0.14 0.14 0.12
0.24 0.22 0.21 0.20 0.18 0.16 0.16 0.16 0.20 0.23 0.25 0.28 0.29 0.26 0.21 0.25 0.26 0.24 0.24 0.22 0.22 0.22 0.19 0.20 0.20 0.17 0.15 0.15 0.17 0.20 0.19 0.12 0.12 0.16 0.18 0.15 0.11 0.10 0.11 0.12 0.12 0.14 0.14
0.13 0.15 0.15 0.15 0.17 0.23 0.26 0.26 0.25 0.25 0.27 0.26 0.22 0.20 0.20 0.19 0.20 0.20 0.19 0.18 0.19 0.20 0.23 0.26 0.27 0.24 0.22 0.20 0.21 0.20 0.19 0.18 0.23 0.23 0.23 0.19 0.12 0.10 0.13 0.12 0.11 0.11 0.13
0.17 0.20 0.23 0.25 0.26 0.24 0.21 0.21 0.24 0.23 0.21 0.19 0.18 0.15 0.13 0.12 0.11 0.10 0.09 0.10 0.11 0.11 0.10 0.10 0.12 0.12 0.13 0.15 0.18 0.15 0.16 0.19 0.22 0.22 0.29 0.27 0.19 0.14 0.13 0.14 0.12 0.13 0.12
0.13 0.16 0.16 0.15 0.18 0.21 0.24 0.22 0.19 0.18 0.17 0.15 0.15 0.14 0.12 0.11 0.09 0.07 0.06 0.07 0.08 0.07 0.06 0.08 0.08 0.08 0.09 0.10 0.12 0.15 0.13 0.13 0.19 0.24 0.31 0.31 0.26 0.21 0.20 0.18 0.16 0.17 0.13

GFSGL_prec_precacc_066.txt.gz
Total_Precipitation_Accumulation
0.18 0.09 0.10 0.25 0.51 0.42 0.32 0.28 0.31 0.43 0.47 0.57 0.41 0.25 0.20 0.21 0.18 0.15 0.16 0.19 0.19 0.19 0.17 0.20 0.20 0.19 0.19 0.20 0.18 0.08 0.04 0.05 0.08 0.01 0.00 0.00 0.00 0.00 0.00 0.00 0.00 0.02 0.05
0.31 0.28 0.49 0.69 0.89 0.80 0.63 0.75 0.53 0.29 0.16 0.17 0.20 0.17 0.14 0.19 0.25 0.24 0.20 0.17 0.21 0.31 0.40 0.39 0.32 0.28 0.31 0.29 0.20 0.09 0.03 0.01 0.01 0.01 0.00 0.00 0.00 0.00 0.00 0.00 0.01 0.00 0.02
0.53 0.59 0.55 0.47 0.68 0.82 0.67 0.48 0.35 0.25 0.21 0.16 0.13 0.15 0.14 0.16 0.19 0.21 0.22 0.28 0.40 0.42 0.32 0.27 0.22 0.20 0.15 0.09 0.06 0.03 0.03 0.03 0.03 0.07 0.03 0.00 0.00 0.00 0.01 0.01 0.01 0.02 0.03
0.30 0.23 0.20 0.31 0.28 0.32 0.32 0.31 0.19 0.22 0.16 0.13 0.11 0.11 0.11 0.10 0.14 0.21 0.29 0.25 0.15 0.13 0.12 0.12 0.10 0.08 0.07 0.06 0.07 0.06 0.06 0.07 0.06 0.05 0.03 0.01 0.00 0.00 0.02 0.03 0.04 0.04 0.04
0.18 0.11 0.17 0.18 0.18 0.22 0.25 0.20 0.20 0.19 0.16 0.17 0.14 0.11 0.12 0.15 0.21 0.18 0.10 0.06 0.05 0.04 0.03 0.04 0.05 0.11 0.12 0.07 0.05 0.05 0.05 0.06 0.06 0.06 0.05 0.04 0.04 0.04 0.05 0.06 0.06 0.04 0.02
0.10 0.08 0.13 0.13 0.17 0.24 0.19 0.16 0.13 0.17 0.22 0.20 0.19 0.27 0.36 0.33 0.24 0.17 0.12 0.07 0.06 0.05 0.05 0.04 0.07 0.14 0.07 0.07 0.06 0.05 0.05 0.08 0.12 0.09 0.06 0.06 0.05 0.05 0.09 0.13 0.13 0.09 0.08
0.05 0.05 0.08 0.09 0.14 0.14 0.19 0.15 0.16 0.25 0.33 0.33 0.42 0.41 0.28 0.13 0.19 0.16 0.15 0.08 0.07 0.06 0.06 0.05 0.05 0.06 0.10 0.03 0.06 0.06 0.05 0.06 0.10 0.11 0.11 0.06 0.08 0.07 0.09 0.08 0.08 0.09 0.10
0.02 0.04 0.05 0.07 0.10 0.13 0.18 0.14 0.21 0.32 0.38 0.36 0.26 0.18 0.14 0.13 0.21 0.16 0.15 0.05 0.04 0.06 0.06 0.05 0.05 0.05 0.07 0.07 0.10 0.09 0.04 0.02 0.02 0.03 0.06 0.05 0.06 0.06 0.08 0.09 0.11 0.11 0.06
0.04 0.06 0.06 0.06 0.08 0.16 0.30 0.38 0.35 0.26 0.18 0.14 0.11 0.11 0.10 0.11 0.20 0.13 0.10 0.02 0.06 0.06 0.07 0.08 0.10 0.09 0.20 0.24 0.19 0.12 0.06 0.02 0.03 0.04 0.06 0.06 0.06 0.07 0.08 0.18 0.16 0.18 0.14
0.02 0.04 0.06 0.15 0.28 0.34 0.30 0.20 0.12 0.09 0.09 0.06 0.07 0.07 0.13 0.08 0.17 0.08 0.05 0.02 0.04 0.05 0.08 0.13 0.22 0.20 0.34 0.27 0.23 0.16 0.10 0.04 0.04 0.06 0.07 0.05 0.04 0.04 0.05 0.10 0.16 0.36 0.32
0.09 0.16 0.25 0.30 0.26 0.16 0.08 0.04 0.04 0.05 0.05 0.04 0.04 0.04 0.05 0.08 0.11 0.11 0.10 0.05 0.07 0.13 0.14 0.16 0.17 0.22 0.19 0.12 0.09 0.08 0.15 0.08 0.08 0.10 0.09 0.08 0.06 0.05 0.05 0.05 0.07 0.16 0.31
0.14 0.16 0.15 0.06 0.04 0.06 0.07 0.07 0.05 0.03 0.03 0.04 0.04 0.05 0.05 0.07 0.15 0.14 0.11 0.10 0.14 0.12 0.15 0.15 0.18 0.21 0.11 0.06 0.08 0.12 0.08 0.07 0.11 0.13 0.09 0.07 0.07 0.06 0.05 0.05 0.08 0.10 0.12
0.03 0.04 0.04 0.05 0.07 0.07 0.06 0.05 0.05 0.04 0.05 0.06 0.05 0.06 0.07 0.09 0.12 0.14 0.10 0.09 0.09 0.09 0.12 0.15 0.15 0.10 0.06 0.07 0.09 0.09 0.09 0.17 0.20 0.20 0.17 0.12 0.11 0.12 0.16 0.23 0.22 0.16 0.12
0.06 0.05 0.05 0.04 0.05 0.03 0.03 0.04 0.05 0.06 0.08 0.09 0.10 0.10 0.10 0.10 0.11 0.12 0.13 0.12 0.12 0.10 0.07 0.06 0.05 0.06 0.09 0.14 0.11 0.12 0.16 0.17 0.20 0.22 0.19 0.16 0.17 0.21 0.24 0.24 0.28 0.30 0.30
0.02 0.01 0.01 0.01 0.01 0.00 0.01 0.03 0.02 0.03 0.06 0.05 0.06 0.10 0.14 0.18 0.20 0.21 0.21 0.18 0.17 0.16 0.17 0.20 0.16 0.14 0.13 0.12 0.11 0.10 0.13 0.14 0.16 0.14 0.17 0.18 0.21 0.21 0.21 0.23 0.30 0.36 0.40
0.03 0.02 0.04 0.05 0.03 0.02 0.01 0.02 0.05 0.04 0.06 0.06 0.08 0.09 0.13 0.14 0.15 0.17 0.17 0.15 0.15 0.16 0.29 0.19 0.11 0.10 0.10 0.11 0.14 0.13 0.13 0.16 0.16 0.21 0.25 0.23 0.21 0.18 0.16 0.14 0.17 0.22 0.23
0.07 0.05 0.05 0.07 0.06 0.05 0.06 0.06 0.09 0.23 0.27 0.29 0.29 0.25 0.19 0.19 0.16 0.15 0.14 0.14 0.12 0.16 0.28 0.15 0.14 0.15 0.15 0.15 0.17 0.18 0.21 0.20 0.19 0.20 0.19 0.16 0.17 0.17 0.16 0.14 0.13 0.14 0.12
0.20 0.23 0.21 0.20 0.22 0.27 0.32 0.33 0.32 0.32 0.34 0.35 0.29 0.21 0.18 0.17 0.15 0.12 0.09 0.14 0.19 0.15 0.15 0.13 0.11 0.10 0.10 0.11 0.12 0.13 0.13 0.14 0.17 0.17 0.19 0.19 0.20 0.20 0.19 0.16 0.14 0.16 0.11
0.31 0.37 0.45 0.54 0.61 0.57 0.47 0.41 0.39 0.39 0.40 0.38 0.31 0.27 0.25 0.20 0.15 0.13 0.11 0.22 0.17 0.13 0.10 0.11 0.10 0.12 0.13 0.14 0.16 0.18 0.19 0.19 0.19 0.20 0.19 0.19 0.19 0.22 0.19 0.18 0.19 0.17 0.16
0.73 0.86 0.82 0.78 0.74 0.67 0.57 0.48 0.42 0.38 0.34 0.30 0.26 0.21 0.15 0.13 0.14 0.10 0.11 0.15 0.19 0.16 0.14 0.16 0.15 0.16 0.17 0.19 0.18 0.18 0.16 0.15 0.17 0.19 0.19 0.19 0.18 0.21 0.23 0.19 0.17 0.16 0.12
0.68 0.68 0.62 0.55 0.49 0.45 0.40 0.34 0.29 0.26 0.24 0.19 0.16 0.13 0.12 0.17 0.18 0.17 0.16 0.17 0.19 0.19 0.20 0.20 0.17 0.16 0.15 0.14 0.15 0.15 0.15 0.14 0.15 0.17 0.17 0.17 0.20 0.20 0.16 0.17 0.15 0.14 0.11
0.41 0.38 0.32 0.29 0.28 0.26 0.22 0.18 0.18 0.19 0.19 0.19 0.17 0.16 0.15 0.18 0.18 0.20 0.22 0.24 0.23 0.23 0.23 0.21 0.17 0.15 0.16 0.18 0.17 0.18 0.15 0.12 0.11 0.13 0.14 0.13 0.13 0.13 0.14 0.14 0.14 0.14 0.13
0.24 0.23 0.21 0.20 0.19 0.17 0.16 0.16 0.21 0.23 0.26 0.28 0.29 0.26 0.21 0.25 0.26 0.24 0.24 0.22 0.22 0.23 0.19 0.20 0.20 0.17 0.15 0.15 0.17 0.21 0.19 0.13 0.13 0.16 0.18 0.15 0.12 0.11 0.12 0.13 0.13 0.15 0.15
0.13 0.15 0.15 0.15 0.17 0.23 0.26 0.26 0.25 0.25 0.27 0.27 0.22 0.20 0.21 0.19 0.20 0.21 0.19 0.19 0.19 0.20 0.23 0.26 0.27 0.24 0.22 0.20 0.21 0.20 0.19 0.18 0.24 0.24 0.23 0.19 0.12 0.10 0.13 0.13 0.11 0.12 0.13
0.17 0.20 0.23 0.25 0.26 0.24 0.21 0.21 0.24 0.23 0.21 0.19 0.18 0.16 0.13 0.13 0.12 0.10 0.09 0.10 0.11 0.11 0.10 0.10 0.12 0.12 0.13 0.15 0.18 0.15 0.16 0.19 0.22 0.22 0.30 0.27 0.20 0.15 0.14 0.14 0.13 0.14 0.13
0.13 0.16 0.16 0.15 0.18 0.21 0.24 0.22 0.19 0.18 0.17 0.15 0.15 0.14 0.13 0.12 0.10 0.08 0.06 0.07 0.08 0.07 0.06 0.08 0.08 0.08 0.09 0.10 0.12 0.15 0.13 0.13 0.19 0.24 0.31 0.31 0.27 0.22 0.20 0.19 0.17 0.18 0.14

GFSGL_prec_precacc_072.txt.gz
Total_Precipitation_Accumulation
0.18 0.09 0.11 0.26 0.51 0.42 0.32 0.28 0.31 0.43 0.47 0.57 0.41 0.25 0.20 0.21 0.18 0.15 0.17 0.20 0.19 0.20 0.21 0.22 0.22 0.21 0.22 0.25 0.31 0.37 0.42 0.44 0.47 0.24 0.13 0.13 0.09 0.03 0.01 0.00 0.01 0.03 0.05
0.31 0.28 0.49 0.69 0.89 0.80 0.63 0.75 0.53 0.29 0.16 0.17 0.20 0.17 0.14 0.19 0.25 0.24 0.20 0.17 0.21 0.31 0.41 0.40 0.32 0.29 0.33 0.34 0.35 0.31 0.27 0.25 0.30 0.25 0.13 0.09 0.07 0.05 0.04 0.01 0.01 0.00 0.02
0.53 0.59 0.55 0.47 0.68 0.82 0.67 0.48 0.35 0.25 0.21 0.16 0.13 0.15 0.14 0.16 0.19 0.21 0.22 0.28 0.40 0.42 0.32 0.28 0.25 0.26 0.26 0.22 0.21 0.19 0.17 0.19 0.24 0.31 0.23 0.10 0.07 0.06 0.05 0.04 0.04 0.04 0.03
0.30 0.23 0.20 0.31 0.28 0.32 0.32 0.31 0.19 0.22 0.16 0.13 0.11 0.11 0.11 0.10 0.14 0.21 0.29 0.25 0.15 0.13 0.12 0.12 0.12 0.13 0.13 0.13 0.14 0.13 0.14 0.16 0.19 0.23 0.28 0.21 0.13 0.08 0.07 0.08 0.07 0.06 0.06
0.18 0.11 0.17 0.18 0.18 0.22 0.25 0.20 0.20 0.19 0.16 0.17 0.14 0.11 0.12 0.15 0.21 0.18 0.10 0.06 0.05 0.04 0.03 0.04 0.05 0.11 0.12 0.10 0.11 0.13 0.15 0.20 0.26 0.27 0.29 0.23 0.19 0.13 0.08 0.09 0.11 0.11 0.11
0.10 0.08 0.13 0.13 0.17 0.24 0.19 0.16 0.13 0.17 0.22 0.20 0.19 0.27 0.36 0.33 0.24 0.17 0.12 0.07 0.06 0.06 0.06 0.05 0.07 0.15 0.10 0.16 0.17 0.22 0.26 0.32 0.36 0.31 0.28 0.28 0.21 0.16 0.22 0.32 0.30 0.25 0.23
0.05 0.05 0.08 0.09 0.14 0.14 0.19 0.15 0.16 0.25 0.33 0.33 0.42 0.41 0.28 0.13 0.19 0.16 0.15 0.08 0.08 0.07 0.08 0.08 0.09 0.11 0.17 0.12 0.22 0.31 0.32 0.36 0.33 0.27 0.29 0.25 0.27 0.28 0.34 0.35 0.29 0.29 0.29
0.02 0.04 0.05 0.07 0.10 0.13 0.18 0.14 0.21 0.32 0.38 0.36 0.26 0.18 0.14 0.14 0.22 0.18 0.19 0.07 0.06 0.07 0.07 0.07 0.07 0.07 0.13 0.13 0.15 0.18 0.17 0.20 0.21 0.18 0.23 0.34 0.43 0.48 0.48 0.44 0.39 0.32 0.21
0.04 0.06 0.06 0.06 0.08 0.16 0.30 0.38 0.35 0.26 0.18 0.14 0.11 0.11 0.11 0.12 0.22 0.16 0.14 0.04 0.09 0.12 0.12 0.14 0.18 0.18 0.45 0.45 0.33 0.36 0.45 0.52 0.59 0.56 0.55 0.52 0.47 0.41 0.35 0.41 0.34 0.29 0.20
0.02 0.04 0.07 0.16 0.28 0.34 0.30 0.20 0.12 0.09 0.09 0.06 0.08 0.08 0.15 0.10 0.21 0.14 0.11 0.05 0.09 0.10 0.14 0.24 0.47 0.34 0.60 0.45 0.37 0.31 0.37 0.38 0.33 0.34 0.33 0.29 0.23 0.18 0.15 0.18 0.22 0.39 0.33
0.09 0.16 0.25 0.32 0.27 0.16 0.09 0.04 0.04 0.05 0.06 0.06 0.07 0.06 0.06 0.10 0.16 0.19 0.16 0.09 0.11 0.19 0.23 0.26 0.32 0.44 0.32 0.28 0.26 0.24 0.38 0.36 0.36 0.33 0.30 0.26 0.19 0.12 0.08 0.08 0.08 0.17 0.31
0.14 0.16 0.15 0.06 0.05 0.09 0.11 0.09 0.07 0.05 0.06 0.08 0.07 0.08 0.08 0.10 0.22 0.21 0.18 0.18 0.25 0.19 0.25 0.27 0.40 0.47 0.33 0.31 0.33 0.37 0.33 0.30 0.33 0.34 0.28 0.19 0.13 0.09 0.06 0.06 0.08 0.10 0.12
0.03 0.04 0.04 0.05 0.07 0.09 0.10 0.12 0.08 0.08 0.10 0.11 0.11 0.13 0.14 0.16 0.21 0.24 0.20 0.22 0.25 0.23 0.24 0.35 0.44 0.40 0.32 0.31 0.30 0.29 0.27 0.31 0.31 0.28 0.23 0.16 0.13 0.12 0.16 0.23 0.22 0.16 0.12
0.09 0.08 0.08 0.09 0.13 0.08 0.07 0.09 0.10 0.11 0.16 0.20 0.21 0.23 0.24 0.25 0.26 0.24 0.23 0.24 0.26 0.27 0.32 0.38 0.38 0.37 0.38 0.39 0.34 0.30 0.30 0.27 0.28 0.29 0.23 0.17 0.18 0.21 0.24 0.24 0.28 0.30 0.30
0.07 0.07 0.08 0.08 0.09 0.09 0.10 0.14 0.12 0.14 0.20 0.20 0.25 0.33 0.41 0.49 0.59 0.55 0.44 0.41 0.39 0.39 0.41 0.43 0.38 0.33 0.29 0.26 0.22 0.18 0.17 0.17 0.18 0.15 0.18 0.19 0.21 0.21 0.21 0.23 0.30 0.36 0.40
0.10 0.10 0.13 0.14 0.13 0.13 0.14 0.19 0.26 0.24 0.24 0.27 0.31 0.30 0.39 0.37 0.40 0.38 0.38 0.35 0.35 0.37 0.47 0.38 0.30 0.28 0.26 0.23 0.23 0.19 0.16 0.18 0.17 0.22 0.25 0.23 0.21 0.19 0.16 0.14 0.17 0.22 0.23
0.20 0.22 0.25 0.28 0.26 0.24 0.25 0.28 0.37 0.52 0.55 0.61 0.64 0.64 0.58 0.63 0.59 0.56 0.53 0.48 0.44 0.43 0.50 0.36 0.32 0.30 0.25 0.21 0.20 0.20 0.22 0.21 0.19 0.21 0.19 0.16 0.17 0.18 0.16 0.15 0.13 0.15 0.12
0.37 0.44 0.47 0.50 0.54 0.61 0.66 0.70 0.72 0.75 0.80 0.85 0.79 0.68 0.63 0.57 0.51 0.43 0.35 0.32 0.34 0.27 0.26 0.22 0.20 0.16 0.14 0.13 0.14 0.14 0.14 0.15 0.17 0.17 0.19 0.19 0.21 0.21 0.20 0.16 0.15 0.16 0.11
0.42 0.53 0.65 0.78 0.89 0.89 0.83 0.79 0.77 0.75 0.74 0.72 0.63 0.55 0.51 0.43 0.34 0.29 0.26 0.34 0.29 0.22 0.17 0.17 0.16 0.16 0.15 0.15 0.17 0.19 0.20 0.20 0.20 0.21 0.19 0.20 0.20 0.22 0.20 0.18 0.19 0.17 0.16
0.78 0.94 0.92 0.92 0.92 0.86 0.79 0.71 0.65 0.61 0.57 0.53 0.49 0.45 0.36 0.28 0.25 0.21 0.19 0.21 0.23 0.20 0.16 0.17 0.15 0.16 0.17 0.19 0.18 0.19 0.17 0.15 0.17 0.19 0.20 0.19 0.18 0.21 0.23 0.20 0.17 0.17 0.13
0.71 0.72 0.65 0.59 0.55 0.52 0.48 0.43 0.38 0.35 0.33 0.28 0.26 0.22 0.18 0.22 0.23 0.20 0.19 0.18 0.19 0.19 0.20 0.21 0.18 0.16 0.15 0.14 0.15 0.15 0.15 0.14 0.16 0.17 0.17 0.17 0.21 0.21 0.17 0.17 0.16 0.15 0.12
0.43 0.40 0.34 0.31 0.31 0.30 0.25 0.22 0.22 0.23 0.22 0.22 0.20 0.17 0.16 0.19 0.19 0.20 0.22 0.24 0.23 0.23 0.23 0.22 0.17 0.16 0.16 0.18 0.17 0.19 0.15 0.12 0.12 0.14 0.15 0.13 0.13 0.13 0.14 0.15 0.15 0.15 0.14
0.25 0.23 0.22 0.21 0.20 0.18 0.17 0.17 0.22 0.24 0.27 0.29 0.30 0.26 0.21 0.26 0.26 0.24 0.25 0.23 0.23 0.23 0.19 0.20 0.20 0.17 0.15 0.15 0.18 0.21 0.20 0.13 0.13 0.17 0.19 0.16 0.12 0.12 0.12 0.14 0.14 0.16 0.16
0.13 0.15 0.15 0.16 0.18 0.23 0.26 0.26 0.25 0.25 0.27 0.27 0.23 0.21 0.21 0.20 0.20 0.21 0.20 0.19 0.20 0.21 0.23 0.26 0.27 0.25 0.22 0.21 0.21 0.20 0.19 0.18 0.24 0.24 0.24 0.20 0.13 0.11 0.14 0.14 0.12 0.12 0.14
0.17 0.20 0.23 0.25 0.26 0.24 0.22 0.21 0.24 0.24 0.22 0.20 0.18 0.16 0.14 0.13 0.12 0.10 0.10 0.10 0.11 0.11 0.11 0.10 0.12 0.12 0.13 0.15 0.18 0.16 0.16 0.19 0.22 0.22 0.30 0.28 0.20 0.16 0.15 0.15 0.14 0.15 0.14
0.13 0.16 0.16 0.15 0.18 0.21 0.24 0.22 0.20 0.18 0.17 0.16 0.15 0.15 0.13 0.12 0.10 0.08 0.07 0.07 0.08 0.07 0.07 0.08 0.08 0.08 0.09 0.10 0.12 0.15 0.13 0.13 0.19 0.24 0.31 0.31 0.27 0.23 0.21 0.20 0.18 0.19 0.14

GFSGL_prec_precacc_075.txt.gz
Total_Precipitation_Accumulation
0.18 0.09 0.11 0.26 0.51 0.42 0.32 0.28 0.31 0.43 0.47 0.57 0.41 0.25 0.20 0.21 0.18 0.15 0.17 0.20 0.19 0.20 0.21 0.22 0.22 0.21 0.22 0.25 0.32 0.38 0.42 0.45 0.48 0.24 0.13 0.13 0.09 0.03 0.01 0.00 0.01 0.03 0.05
0.31 0.28 0.49 0.69 0.89 0.80 0.63 0.75 0.53 0.29 0.16 0.17 0.20 0.17 0.14 0.19 0.25 0.24 0.20 0.17 0.21 0.31 0.41 0.40 0.32 0.29 0.33 0.34 0.35 0.31 0.27 0.25 0.30 0.26 0.14 0.10 0.08 0.07 0.06 0.03 0.02 0.01 0.03
0.53 0.59 0.55 0.47 0.68 0.82 0.67 0.48 0.35 0.25 0.21 0.16 0.13 0.15 0.14 0.16 0.19 0.21 0.22 0.28 0.40 0.42 0.32 0.28 0.25 0.26 0.26 0.22 0.21 0.19 0.17 0.19 0.24 0.32 0.23 0.12 0.09 0.09 0.09 0.07 0.07 0.07 0.04
0.30 0.23 0.20 0.31 0.28 0.32 0.32 0.31 0.19 0.22 0.16 0.13 0.11 0.11 0.11 0.10 0.14 0.21 0.29 0.25 0.15 0.13 0.12 0.12 0.12 0.13 0.13 0.13 0.14 0.13 0.15 0.18 0.21 0.24 0.28 0.21 0.14 0.11 0.14 0.16 0.13 0.11 0.11
0.18 0.11 0.17 0.18 0.18 0.22 0.25 0.20 0.20 0.19 0.16 0.17 0.14 0.11 0.12 0.15 0.21 0.18 0.10 0.06 0.05 0.04 0.03 0.04 0.05 0.11 0.12 0.10 0.11 0.14 0.16 0.21 0.28 0.30 0.32 0.25 0.21 0.20 0.21 0.20 0.22 0.20 0.21
0.10 0.08 0.13 0.13 0.17 0.24 0.19 0.16 0.13 0.17 0.22 0.20 0.19 0.27 0.36 0.33 0.24 0.17 0.12 0.07 0.06 0.06 0.06 0.05 0.07 0.15 0.10 0.16 0.17 0.22 0.27 0.35 0.39 0.33 0.31 0.34 0.31 0.33 0.35 0.43 0.44 0.41 0.40
0.07 0.06 0.09 0.09 0.14 0.14 0.19 0.15 0.16 0.25 0.33 0.33 0.42 0.41 0.28 0.13 0.19 0.16 0.15 0.08 0.08 0.07 0.08 0.08 0.09 0.11 0.17 0.12 0.22 0.32 0.33 0.39 0.39 0.37 0.41 0.39 0.39 0.39 0.44 0.52 0.51 0.53 0.55
0.07 0.10 0.10 0.09 0.12 0.15 0.18 0.14 0.21 0.32 0.38 0.36 0.26 0.18 0.14 0.14 0.22 0.18 0.19 0.07 0.06 0.07 0.07 0.07 0.07 0.07 0.13 0.14 0.15 0.18 0.17 0.22 0.26 0.28 0.37 0.51 0.61 0.64 0.63 0.62 0.59 0.55 0.45
0.05 0.10 0.15 0.14 0.14 0.22 0.34 0.39 0.36 0.27 0.18 0.14 0.11 0.11 0.11 0.12 0.22 0.16 0.14 0.04 0.09 0.12 0.12 0.14 0.19 0.18 0.46 0.47 0.35 0.37 0.50 0.59 0.73 0.70 0.65 0.65 0.63 0.55 0.47 0.49 0.46 0.43 0.35
0.02 0.06 0.11 0.19 0.32 0.42 0.37 0.25 0.16 0.13 0.11 0.08 0.09 0.08 0.15 0.10 0.22 0.14 0.11 0.05 0.09 0.11 0.15 0.25 0.49 0.36 0.63 0.51 0.42 0.32 0.42 0.47 0.40 0.43 0.44 0.40 0.34 0.30 0.29 0.31 0.33 0.48 0.42
0.09 0.16 0.25 0.32 0.30 0.19 0.16 0.09 0.09 0.16 0.14 0.11 0.11 0.08 0.07 0.12 0.18 0.22 0.18 0.10 0.11 0.20 0.24 0.29 0.37 0.54 0.39 0.37 0.35 0.28 0.49 0.48 0.47 0.40 0.37 0.35 0.30 0.24 0.18 0.16 0.16 0.24 0.39
0.14 0.16 0.15 0.06 0.05 0.10 0.13 0.14 0.12 0.11 0.12 0.11 0.09 0.09 0.09 0.12 0.26 0.24 0.21 0.22 0.30 0.23 0.32 0.36 0.51 0.61 0.45 0.47 0.51 0.55 0.51 0.44 0.43 0.44 0.39 0.31 0.25 0.19 0.13 0.10 0.11 0.12 0.13
0.03 0.04 0.04 0.05 0.07 0.09 0.11 0.14 0.12 0.11 0.13 0.16 0.16 0.19 0.21 0.21 0.26 0.33 0.28 0.31 0.36 0.36 0.51 0.71 0.81 0.72 0.61 0.60 0.58 0.51 0.40 0.42 0.41 0.39 0.34 0.27 0.21 0.17 0.19 0.25 0.24 0.17 0.12
0.09 0.08 0.08 0.09 0.13 0.08 0.07 0.09 0.11 0.13 0.18 0.24 0.28 0.31 0.33 0.35 0.37 0.40 0.43 0.47 0.55 0.62 0.78 0.89 0.89 0.82 0.70 0.62 0.52 0.43 0.40 0.37 0.39 0.40 0.34 0.28 0.26 0.27 0.28 0.26 0.29 0.30 0.30
0.07 0.07 0.08 0.08 0.09 0.09 0.10 0.15 0.14 0.19 0.26 0.27 0.35 0.46 0.57 0.67 0.83 0.85 0.86 0.88 0.84 0.83 0.79 0.78 0.70 0.57 0.46 0.42 0.37 0.34 0.33 0.32 0.32 0.28 0.28 0.27 0.26 0.23 0.22 0.23 0.30 0.36 0.40
0.10 0.10 0.13 0.14 0.13 0.13 0.14 0.20 0.30 0.33 0.36 0.39 0.45 0.46 0.63 0.71 0.77 0.72 0.66 0.63 0.61 0.61 0.65 0.55 0.47 0.44 0.42 0.40 0.40 0.34 0.30 0.29 0.25 0.27 0.29 0.25 0.22 0.19 0.16 0.14 0.17 0.22 0.23
0.21 0.22 0.26 0.29 0.26 0.25 0.26 0.29 0.40 0.65 0.79 0.93 0.99 1.02 0.97 1.07 1.00 0.87 0.74 0.65 0.60 0.55 0.62 0.49 0.45 0.41 0.35 0.29 0.27 0.25 0.26 0.23 0.21 0.21 0.19 0.16 0.17 0.18 0.16 0.15 0.13 0.15 0.12
0.39 0.46 0.48 0.51 0.55 0.61 0.67 0.72 0.75 0.79 0.86 0.95 0.93 0.82 0.78 0.71 0.63 0.53 0.44 0.39 0.41 0.33 0.32 0.28 0.25 0.21 0.18 0.16 0.16 0.16 0.15 0.15 0.17 0.17 0.19 0.19 0.21 0.21 0.20 0.16 0.15 0.16 0.11
0.44 0.55 0.66 0.79 0.91 0.90 0.84 0.81 0.79 0.79 0.79 0.79 0.71 0.63 0.61 0.51 0.42 0.37 0.32 0.40 0.34 0.28 0.22 0.20 0.18 0.18 0.16 0.16 0.17 0.19 0.20 0.20 0.20 0.21 0.19 0.20 0.20 0.22 0.20 0.18 0.19 0.17 0.16
0.79 0.96 0.94 0.94 0.93 0.88 0.80 0.72 0.67 0.63 0.60 0.56 0.53 0.51 0.42 0.31 0.29 0.24 0.22 0.24 0.25 0.22 0.17 0.17 0.16 0.16 0.17 0.19 0.18 0.19 0.17 0.15 0.17 0.19 0.20 0.19 0.18 0.21 0.23 0.20 0.17 0.17 0.13
0.73 0.73 0.67 0.60 0.56 0.53 0.49 0.44 0.39 0.36 0.34 0.29 0.28 0.24 0.20 0.23 0.24 0.22 0.20 0.19 0.20 0.20 0.21 0.21 0.18 0.16 0.15 0.14 0.15 0.15 0.15 0.14 0.16 0.17 0.17 0.17 0.21 0.21 0.17 0.17 0.16 0.15 0.12
0.45 0.42 0.36 0.33 0.33 0.31 0.27 0.23 0.23 0.23 0.22 0.22 0.20 0.17 0.16 0.19 0.19 0.20 0.23 0.24 0.23 0.23 0.23 0.22 0.17 0.16 0.16 0.18 0.17 0.19 0.15 0.12 0.12 0.14 0.15 0.13 0.13 0.13 0.14 0.15 0.15 0.15 0.14
0.25 0.24 0.22 0.21 0.20 0.18 0.17 0.17 0.22 0.24 0.27 0.29 0.30 0.26 0.21 0.26 0.26 0.24 0.25 0.23 0.23 0.23 0.19 0.20 0.20 0.17 0.15 0.15 0.18 0.21 0.20 0.13 0.13 0.17 0.19 0.16 0.12 0.12 0.12 0.14 0.14 0.16 0.16
0.13 0.15 0.15 0.16 0.18 0.23 0.26 0.26 0.25 0.25 0.27 0.27 0.23 0.21 0.21 0.20 0.21 0.21 0.20 0.19 0.20 0.21 0.23 0.26 0.27 0.25 0.22 0.21 0.21 0.20 0.19 0.18 0.24 0.24 0.24 0.20 0.13 0.11 0.14 0.14 0.12 0.12 0.14
0.17 0.20 0.23 0.25 0.26 0.24 0.22 0.21 0.24 0.24 0.22 0.20 0.18 0.16 0.14 0.13 0.12 0.10 0.10 0.10 0.11 0.11 0.11 0.11 0.12 0.12 0.13 0.15 0.18 0.16 0.16 0.19 0.22 0.22 0.30 0.28 0.20 0.16 0.15 0.15 0.14 0.15 0.15
0.13 0.16 0.16 0.15 0.18 0.21 0.24 0.22 0.20 0.18 0.17 0.16 0.15 0.15 0.13 0.12 0.10 0.08 0.07 0.07 0.08 0.07 0.07 0.08 0.08 0.08 0.09 0.10 0.12 0.15 0.13 0.13 0.19 0.24 0.31 0.31 0.27 0.23 0.21 0.20 0.18 0.19 0.14

GFSGL_prec_precacc_078.txt.gz
Total_Precipitation_Accumulation
0.18 0.09 0.11 0.26 0.51 0.42 0.32 0.28 0.31 0.43 0.47 0.57 0.41 0.25 0.20 0.21 0.18 0.15 0.17 0.20 0.19 0.20 0.21 0.23 0.22 0.21 0.22 0.25 0.32 0.38 0.42 0.45 0.48 0.24 0.13 0.13 0.09 0.03 0.01 0.00 0.01 0.03 0.05
0.31 0.28 0.49 0.69 0.89 0.80 0.63 0.75 0.53 0.29 0.16 0.17 0.20 0.17 0.14 0.19 0.25 0.24 0.20 0.17 0.21 0.31 0.41 0.40 0.32 0.29 0.33 0.34 0.35 0.31 0.27 0.25 0.30 0.26 0.14 0.10 0.08 0.07 0.06 0.03 0.02 0.01 0.03
0.53 0.59 0.55 0.47 0.68 0.82 0.67 0.48 0.35 0.25 0.21 0.16 0.13 0.15 0.14 0.16 0.19 0.21 0.22 0.28 0.40 0.42 0.32 0.28 0.25 0.26 0.26 0.22 0.21 0.19 0.17 0.19 0.24 0.32 0.23 0.12 0.09 0.09 0.09 0.07 0.07 0.07 0.05
0.30 0.23 0.20 0.31 0.28 0.32 0.32 0.31 0.19 0.22 0.16 0.13 0.11 0.11 0.11 0.10 0.14 0.21 0.29 0.25 0.15 0.13 0.12 0.12 0.12 0.13 0.13 0.13 0.14 0.13 0.15 0.18 0.21 0.24 0.28 0.21 0.14 0.11 0.14 0.16 0.14 0.12 0.12
0.19 0.11 0.17 0.18 0.18 0.22 0.25 0.20 0.20 0.19 0.16 0.17 0.14 0.11 0.12 0.15 0.21 0.18 0.10 0.06 0.05 0.04 0.03 0.04 0.05 0.11 0.12 0.10 0.11 0.14 0.16 0.21 0.28 0.30 0.32 0.25 0.21 0.20 0.21 0.21 0.26 0.26 0.29
0.11 0.11 0.15 0.15 0.19 0.25 0.19 0.16 0.13 0.17 0.22 0.20 0.19 0.27 0.36 0.33 0.24 0.17 0.12 0.07 0.06 0.06 0.06 0.05 0.07 0.15 0.10 0.16 0.17 0.22 0.27 0.35 0.39 0.33 0.31 0.34 0.31 0.33 0.35 0.45 0.50 0.48 0.48
0.15 0.13 0.13 0.13 0.16 0.16 0.20 0.16 0.17 0.26 0.33 0.33 0.42 0.41 0.28 0.13 0.19 0.16 0.15 0.08 0.08 0.07 0.08 0.08 0.09 0.11 0.17 0.12 0.22 0.32 0.33 0.39 0.39 0.38 0.43 0.40 0.40 0.40 0.46 0.55 0.58 0.62 0.66
0.09 0.13 0.11 0.12 0.14 0.17 0.20 0.15 0.24 0.34 0.40 0.37 0.27 0.18 0.14 0.14 0.22 0.18 0.19 0.07 0.06 0.07 0.07 0.07 0.07 0.07 0.13 0.14 0.15 0.18 0.17 0.23 0.28 0.30 0.40 0.55 0.67 0.73 0.74 0.75 0.75 0.72 0.60
0.05 0.11 0.17 0.17 0.17 0.27 0.36 0.40 0.37 0.29 0.20 0.16 0.15 0.13 0.11 0.13 0.23 0.16 0.14 0.04 0.09 0.12 0.13 0.15 0.19 0.18 0.47 0.48 0.35 0.37 0.50 0.61 0.78 0.79 0.74 0.78 0.78 0.68 0.57 0.58 0.55 0.52 0.45
0.02 0.06 0.11 0.20 0.33 0.45 0.40 0.27 0.18 0.15 0.13 0.12 0.14 0.10 0.16 0.10 0.23 0.16 0.12 0.05 0.10 0.13 0.16 0.26 0.52 0.39 0.65 0.54 0.43 0.33 0.44 0.52 0.45 0.51 0.55 0.53 0.47 0.45 0.46 0.46 0.46 0.59 0.50
0.09 0.16 0.25 0.32 0.30 0.19 0.16 0.10 0.13 0.21 0.19 0.17 0.15 0.10 0.08 0.13 0.20 0.25 0.20 0.11 0.11 0.22 0.28 0.34 0.42 0.62 0.44 0.43 0.43 0.35 0.66 0.70 0.72 0.62 0.58 0.58 0.55 0.51 0.44 0.35 0.27 0.33 0.47
0.14 0.16 0.15 0.06 0.05 0.10 0.13 0.14 0.13 0.14 0.16 0.16 0.13 0.11 0.10 0.13 0.30 0.28 0.25 0.27 0.37 0.29 0.41 0.47 0.64 0.76 0.55 0.57 0.63 0.77 0.83 0.75 0.75 0.80 0.75 0.66 0.55 0.42 0.28 0.18 0.16 0.15 0.16
0.03 0.04 0.04 0.05 0.07 0.09 0.11 0.14 0.12 0.11 0.14 0.17 0.19 0.24 0.26 0.26 0.31 0.43 0.36 0.41 0.49 0.50 0.70 0.94 1.08 0.96 0.84 0.84 0.89 0.92 0.93 0.99 0.98 0.93 0.83 0.67 0.49 0.36 0.30 0.32 0.30 0.23 0.17
0.09 0.08 0.08 0.09 0.13 0.08 0.07 0.09 0.11 0.13 0.18 0.25 0.31 0.36 0.39 0.43 0.48 0.55 0.61 0.64 0.77 0.89 1.09 1.23 1.25 1.23 1.21 1.18 1.06 0.94 0.88 0.80 0.73 0.65 0.52 0.41 0.35 0.34 0.34 0.31 0.33 0.32 0.31
0.07 0.07 0.08 0.08 0.09 0.09 0.10 0.16 0.14 0.19 0.27 0.27 0.35 0.47 0.60 0.73 0.93 0.98 0.99 1.04 1.08 1.09 1.04 1.03 0.96 0.87 0.77 0.71 0.61 0.53 0.49 0.44 0.41 0.35 0.34 0.31 0.30 0.26 0.24 0.23 0.30 0.36 0.40
0.10 0.10 0.14 0.14 0.13 0.13 0.15 0.21 0.31 0.34 0.37 0.40 0.46 0.47 0.65 0.76 0.84 0.83 0.81 0.79 0.78 0.78 0.83 0.76 0.70 0.67 0.62 0.57 0.53 0.45 0.38 0.35 0.30 0.31 0.31 0.27 0.22 0.19 0.16 0.14 0.17 0.22 0.23
0.21 0.22 0.26 0.29 0.26 0.25 0.26 0.29 0.41 0.66 0.79 0.94 1.01 1.03 0.99 1.11 1.06 0.98 0.88 0.78 0.71 0.63 0.69 0.57 0.53 0.50 0.43 0.36 0.33 0.31 0.31 0.27 0.23 0.22 0.20 0.16 0.17 0.18 0.16 0.15 0.13 0.15 0.12
0.39 0.46 0.48 0.51 0.55 0.62 0.68 0.72 0.76 0.80 0.86 0.95 0.94 0.84 0.79 0.72 0.66 0.58 0.49 0.42 0.45 0.38 0.37 0.34 0.31 0.27 0.23 0.20 0.19 0.17 0.15 0.16 0.17 0.17 0.19 0.19 0.21 0.21 0.20 0.16 0.15 0.16 0.11
0.44 0.55 0.67 0.79 0.91 0.91 0.85 0.82 0.80 0.79 0.80 0.80 0.72 0.64 0.62 0.53 0.43 0.39 0.34 0.43 0.38 0.31 0.26 0.24 0.22 0.21 0.18 0.16 0.17 0.19 0.20 0.20 0.20 0.21 0.19 0.20 0.20 0.22 0.20 0.18 0.19 0.17 0.16
0.80 0.96 0.94 0.94 0.94 0.88 0.81 0.73 0.68 0.64 0.61 0.58 0.55 0.53 0.44 0.32 0.30 0.26 0.24 0.26 0.27 0.24 0.19 0.18 0.16 0.16 0.17 0.19 0.18 0.19 0.17 0.15 0.17 0.19 0.20 0.19 0.18 0.21 0.23 0.20 0.17 0.17 0.13
0.73 0.73 0.67 0.60 0.57 0.54 0.50 0.45 0.40 0.37 0.35 0.31 0.31 0.26 0.21 0.23 0.25 0.22 0.20 0.19 0.20 0.20 0.21 0.21 0.18 0.16 0.15 0.14 0.15 0.15 0.15 0.14 0.16 0.17 0.17 0.17 0.21 0.21 0.17 0.17 0.16 0.15 0.12
0.46 0.42 0.36 0.33 0.33 0.32 0.28 0.23 0.23 0.23 0.23 0.22 0.20 0.17 0.16 0.19 0.19 0.20 0.23 0.25 0.23 0.23 0.23 0.22 0.17 0.16 0.16 0.18 0.17 0.19 0.15 0.12 0.12 0.14 0.15 0.13 0.13 0.13 0.14 0.15 0.15 0.15 0.14
0.25 0.24 0.22 0.21 0.20 0.18 0.17 0.17 0.22 0.25 0.27 0.29 0.30 0.26 0.21 0.26 0.26 0.24 0.25 0.23 0.23 0.23 0.19 0.20 0.20 0.17 0.15 0.15 0.18 0.21 0.20 0.13 0.13 0.17 0.19 0.16 0.12 0.12 0.12 0.14 0.14 0.16 0.16
0.13 0.15 0.15 0.16 0.18 0.23 0.26 0.26 0.26 0.25 0.27 0.27 0.23 0.21 0.22 0.20 0.21 0.21 0.20 0.19 0.20 0.21 0.23 0.26 0.27 0.25 0.22 0.21 0.21 0.20 0.19 0.18 0.24 0.24 0.24 0.20 0.13 0.11 0.14 0.14 0.12 0.12 0.15
0.17 0.20 0.23 0.25 0.26 0.24 0.22 0.21 0.25 0.24 0.22 0.20 0.19 0.16 0.14 0.14 0.12 0.11 0.10 0.10 0.11 0.11 0.11 0.11 0.12 0.12 0.13 0.15 0.18 0.16 0.16 0.19 0.22 0.22 0.30 0.28 0.20 0.16 0.15 0.15 0.14 0.15 0.15
0.13 0.16 0.16 0.15 0.18 0.21 0.24 0.22 0.20 0.18 0.17 0.16 0.15 0.15 0.13 0.12 0.10 0.09 0.07 0.07 0.08 0.07 0.07 0.08 0.09 0.08 0.09 0.10 0.12 0.15 0.13 0.13 0.19 0.24 0.31 0.31 0.27 0.23 0.21 0.21 0.18 0.19 0.14

GFSGL_prec_precacc_081.txt.gz
Total_Precipitation_Accumulation
0.18 0.09 0.11 0.26 0.51 0.42 0.32 0.28 0.31 0.43 0.47 0.57 0.41 0.25 0.20 0.21 0.18 0.15 0.17 0.20 0.19 0.20 0.21 0.23 0.22 0.21 0.23 0.26 0.32 0.38 0.43 0.45 0.48 0.24 0.13 0.13 0.09 0.03 0.01 0.00 0.01 0.03 0.05
0.31 0.28 0.49 0.69 0.89 0.80 0.63 0.75 0.53 0.29 0.16 0.17 0.20 0.17 0.14 0.19 0.25 0.24 0.20 0.17 0.21 0.31 0.41 0.40 0.32 0.29 0.33 0.34 0.35 0.31 0.27 0.25 0.30 0.26 0.14 0.10 0.08 0.07 0.06 0.03 0.02 0.01 0.03
0.53 0.59 0.55 0.47 0.68 0.82 0.67 0.48 0.35 0.25 0.21 0.16 0.13 0.15 0.14 0.16 0.19 0.21 0.22 0.28 0.40 0.42 0.32 0.28 0.25 0.27 0.26 0.22 0.21 0.19 0.17 0.19 0.24 0.32 0.23 0.12 0.09 0.09 0.09 0.07 0.07 0.07 0.05
0.30 0.23 0.20 0.31 0.28 0.32 0.32 0.31 0.19 0.22 0.16 0.13 0.11 0.11 0.11 0.10 0.14 0.21 0.29 0.25 0.15 0.13 0.12 0.12 0.12 0.13 0.13 0.13 0.14 0.13 0.15 0.18 0.21 0.24 0.28 0.21 0.14 0.11 0.14 0.16 0.14 0.12 0.12
0.19 0.12 0.18 0.18 0.18 0.22 0.25 0.20 0.20 0.19 0.16 0.17 0.14 0.11 0.12 0.15 0.21 0.18 0.10 0.06 0.05 0.04 0.03 0.04 0.05 0.11 0.12 0.10 0.11 0.14 0.16 0.21 0.28 0.30 0.32 0.25 0.21 0.20 0.21 0.21 0.26 0.26 0.29
0.14 0.15 0.17 0.16 0.20 0.25 0.19 0.16 0.13 0.17 0.22 0.20 0.19 0.27 0.36 0.33 0.24 0.17 0.12 0.07 0.06 0.06 0.06 0.05 0.07 0.15 0.10 0.16 0.17 0.22 0.27 0.35 0.39 0.33 0.31 0.34 0.31 0.33 0.35 0.45 0.50 0.48 0.48
0.15 0.15 0.15 0.15 0.18 0.17 0.22 0.17 0.19 0.28 0.34 0.34 0.43 0.42 0.28 0.13 0.19 0.16 0.15 0.08 0.08 0.07 0.08 0.08 0.09 0.11 0.17 0.12 0.22 0.32 0.33 0.39 0.39 0.38 0.43 0.40 0.40 0.40 0.47 0.56 0.59 0.64 0.70
0.09 0.13 0.11 0.12 0.14 0.18 0.22 0.20 0.27 0.36 0.42 0.40 0.31 0.21 0.15 0.17 0.23 0.19 0.19 0.07 0.06 0.07 0.07 0.07 0.07 0.07 0.13 0.14 0.15 0.18 0.17 0.23 0.28 0.30 0.40 0.55 0.67 0.74 0.76 0.81 0.85 0.86 0.78
0.05 0.11 0.17 0.17 0.17 0.28 0.36 0.41 0.39 0.31 0.23 0.20 0.20 0.14 0.13 0.15 0.26 0.18 0.15 0.04 0.10 0.13 0.14 0.16 0.21 0.18 0.48 0.50 0.36 0.38 0.51 0.61 0.79 0.80 0.76 0.80 0.82 0.75 0.65 0.64 0.64 0.68 0.67
0.02 0.06 0.11 0.20 0.33 0.45 0.40 0.27 0.19 0.16 0.14 0.15 0.17 0.11 0.20 0.12 0.26 0.17 0.13 0.06 0.12 0.16 0.21 0.32 0.62 0.45 0.68 0.56 0.46 0.34 0.47 0.55 0.48 0.56 0.61 0.61 0.56 0.55 0.62 0.56 0.55 0.75 0.73
0.09 0.16 0.25 0.32 0.30 0.19 0.16 0.10 0.13 0.21 0.20 0.18 0.17 0.12 0.11 0.16 0.24 0.29 0.23 0.13 0.18 0.35 0.41 0.44 0.51 0.75 0.51 0.50 0.53 0.45 0.85 0.87 0.89 0.71 0.66 0.67 0.65 0.62 0.59 0.58 0.57 0.66 0.81
0.14 0.16 0.15 0.06 0.05 0.10 0.13 0.14 0.13 0.14 0.16 0.16 0.15 0.14 0.14 0.16 0.37 0.32 0.28 0.29 0.44 0.41 0.58 0.64 0.84 0.98 0.74 0.79 0.91 1.16 1.27 1.12 1.07 1.16 1.13 1.05 0.92 0.78 0.69 0.61 0.56 0.48 0.42
0.03 0.04 0.04 0.05 0.07 0.09 0.11 0.14 0.12 0.11 0.14 0.17 0.19 0.24 0.27 0.28 0.36 0.50 0.41 0.46 0.56 0.58 0.87 1.24 1.43 1.32 1.15 1.09 1.14 1.21 1.26 1.34 1.39 1.38 1.30 1.17 0.99 0.80 0.62 0.54 0.44 0.31 0.23
0.09 0.08 0.08 0.09 0.13 0.08 0.07 0.09 0.11 0.13 0.18 0.25 0.31 0.36 0.39 0.44 0.48 0.56 0.66 0.74 0.88 1.01 1.26 1.40 1.41 1.36 1.33 1.33 1.24 1.14 1.10 1.02 0.94 0.87 0.73 0.61 0.53 0.49 0.46 0.41 0.41 0.38 0.35
0.07 0.07 0.08 0.08 0.09 0.09 0.11 0.16 0.15 0.20 0.27 0.27 0.36 0.48 0.60 0.74 0.95 0.99 1.00 1.05 1.09 1.11 1.06 1.06 1.00 0.90 0.81 0.75 0.68 0.62 0.58 0.54 0.51 0.46 0.44 0.40 0.37 0.31 0.27 0.25 0.31 0.36 0.41
0.10 0.10 0.14 0.14 0.13 0.13 0.15 0.21 0.32 0.35 0.37 0.41 0.47 0.48 0.67 0.78 0.85 0.83 0.82 0.79 0.78 0.78 0.83 0.76 0.71 0.68 0.64 0.60 0.56 0.49 0.42 0.39 0.35 0.34 0.34 0.29 0.24 0.19 0.16 0.14 0.17 0.22 0.23
0.21 0.22 0.26 0.29 0.26 0.25 0.26 0.29 0.41 0.66 0.80 0.94 1.01 1.04 1.00 1.12 1.07 0.98 0.89 0.78 0.71 0.63 0.69 0.58 0.55 0.52 0.46 0.40 0.37 0.34 0.34 0.30 0.25 0.24 0.20 0.17 0.18 0.18 0.17 0.15 0.13 0.15 0.12
0.39 0.46 0.49 0.52 0.55 0.62 0.68 0.72 0.76 0.80 0.86 0.96 0.95 0.84 0.80 0.73 0.67 0.58 0.49 0.42 0.46 0.38 0.38 0.35 0.32 0.29 0.25 0.22 0.21 0.19 0.16 0.16 0.18 0.17 0.19 0.19 0.21 0.21 0.20 0.16 0.15 0.16 0.11
0.44 0.55 0.67 0.79 0.91 0.91 0.85 0.82 0.80 0.79 0.80 0.80 0.72 0.64 0.63 0.54 0.44 0.39 0.34 0.43 0.39 0.33 0.27 0.25 0.23 0.21 0.19 0.17 0.17 0.19 0.20 0.20 0.20 0.21 0.19 0.20 0.20 0.22 0.20 0.18 0.19 0.17 0.16
0.80 0.96 0.94 0.94 0.94 0.88 0.81 0.73 0.68 0.64 0.61 0.58 0.55 0.54 0.44 0.32 0.31 0.27 0.25 0.26 0.28 0.25 0.19 0.18 0.16 0.16 0.17 0.19 0.18 0.19 0.17 0.15 0.17 0.19 0.20 0.19 0.18 0.21 0.23 0.20 0.17 0.17 0.13
0.73 0.73 0.67 0.60 0.57 0.54 0.50 0.45 0.40 0.37 0.35 0.31 0.31 0.27 0.21 0.23 0.25 0.22 0.20 0.19 0.20 0.20 0.21 0.21 0.18 0.16 0.15 0.14 0.15 0.15 0.15 0.14 0.16 0.17 0.17 0.17 0.21 0.21 0.17 0.17 0.16 0.15 0.12
0.46 0.42 0.36 0.33 0.33 0.32 0.28 0.23 0.23 0.23 0.23 0.22 0.20 0.17 0.16 0.19 0.19 0.20 0.23 0.25 0.23 0.23 0.23 0.22 0.17 0.16 0.16 0.18 0.17 0.19 0.15 0.12 0.12 0.14 0.15 0.13 0.13 0.13 0.14 0.15 0.15 0.15 0.14
0.25 0.24 0.22 0.21 0.20 0.18 0.17 0.17 0.22 0.25 0.27 0.29 0.30 0.26 0.21 0.26 0.26 0.24 0.25 0.23 0.23 0.23 0.19 0.20 0.20 0.17 0.15 0.15 0.18 0.21 0.20 0.13 0.13 0.17 0.19 0.16 0.12 0.12 0.12 0.14 0.14 0.16 0.16
0.13 0.15 0.15 0.16 0.18 0.23 0.26 0.26 0.26 0.25 0.27 0.27 0.23 0.21 0.22 0.20 0.21 0.21 0.20 0.19 0.20 0.21 0.23 0.26 0.27 0.25 0.22 0.21 0.21 0.20 0.19 0.18 0.24 0.24 0.24 0.20 0.13 0.11 0.14 0.14 0.12 0.12 0.15
0.17 0.20 0.23 0.25 0.26 0.24 0.22 0.21 0.25 0.24 0.22 0.20 0.19 0.16 0.14 0.14 0.12 0.11 0.10 0.10 0.11 0.11 0.11 0.11 0.12 0.12 0.13 0.15 0.18 0.16 0.16 0.19 0.22 0.22 0.30 0.28 0.20 0.16 0.15 0.15 0.14 0.15 0.15
0.13 0.16 0.16 0.15 0.18 0.21 0.24 0.22 0.20 0.18 0.17 0.16 0.15 0.15 0.13 0.12 0.10 0.09 0.07 0.07 0.08 0.07 0.07 0.08 0.09 0.08 0.09 0.10 0.12 0.15 0.13 0.13 0.19 0.24 0.31 0.31 0.27 0.23 0.21 0.21 0.18 0.19 0.14

GFSGL_prec_precacc_084.txt.gz
Total_Precipitation_Accumulation
0.18 0.09 0.11 0.26 0.51 0.42 0.32 0.28 0.31 0.43 0.47 0.57 0.41 0.27 0.21 0.21 0.18 0.15 0.17 0.20 0.20 0.22 0.23 0.25 0.24 0.23 0.25 0.29 0.34 0.40 0.44 0.47 0.50 0.24 0.13 0.13 0.09 0.03 0.01 0.00 0.01 0.03 0.05
0.31 0.29 0.49 0.69 0.89 0.80 0.63 0.75 0.53 0.29 0.16 0.17 0.20 0.17 0.14 0.19 0.25 0.24 0.20 0.18 0.21 0.31 0.42 0.41 0.33 0.30 0.35 0.36 0.37 0.33 0.28 0.25 0.31 0.26 0.14 0.10 0.08 0.07 0.06 0.03 0.02 0.01 0.03
0.53 0.59 0.55 0.47 0.68 0.82 0.67 0.48 0.35 0.25 0.21 0.16 0.13 0.15 0.14 0.16 0.19 0.21 0.22 0.28 0.40 0.42 0.33 0.28 0.25 0.28 0.27 0.23 0.21 0.19 0.17 0.19 0.25 0.32 0.23 0.12 0.09 0.09 0.09 0.07 0.07 0.07 0.05
0.30 0.23 0.20 0.31 0.28 0.32 0.32 0.31 0.19 0.22 0.16 0.13 0.11 0.11 0.11 0.10 0.14 0.21 0.29 0.25 0.15 0.13 0.12 0.12 0.12 0.14 0.13 0.13 0.14 0.13 0.15 0.19 0.21 0.25 0.29 0.21 0.14 0.11 0.14 0.16 0.14 0.12 0.12
0.19 0.12 0.18 0.18 0.18 0.22 0.25 0.20 0.20 0.19 0.16 0.17 0.14 0.11 0.12 0.15 0.21 0.18 0.10 0.06 0.05 0.04 0.03 0.04 0.05 0.11 0.12 0.10 0.11 0.14 0.16 0.22 0.28 0.30 0.32 0.25 0.21 0.20 0.21 0.21 0.26 0.26 0.29
0.15 0.16 0.18 0.17 0.20 0.25 0.19 0.16 0.13 0.17 0.22 0.20 0.19 0.27 0.36 0.33 0.24 0.17 0.12 0.07 0.06 0.06 0.06 0.05 0.07 0.15 0.10 0.16 0.17 0.22 0.27 0.35 0.39 0.33 0.31 0.34 0.31 0.33 0.35 0.45 0.50 0.48 0.48
0.17 0.15 0.15 0.15 0.18 0.17 0.22 0.17 0.20 0.28 0.34 0.34 0.43 0.42 0.29 0.14 0.19 0.16 0.15 0.08 0.08 0.07 0.08 0.08 0.09 0.11 0.17 0.12 0.22 0.32 0.33 0.39 0.39 0.38 0.43 0.40 0.40 0.41 0.47 0.56 0.59 0.64 0.70
0.09 0.13 0.11 0.13 0.16 0.20 0.25 0.22 0.29 0.37 0.44 0.42 0.32 0.21 0.16 0.19 0.26 0.19 0.19 0.08 0.06 0.07 0.08 0.07 0.07 0.07 0.13 0.14 0.15 0.18 0.17 0.23 0.29 0.31 0.41 0.56 0.69 0.75 0.77 0.82 0.87 0.90 0.87
0.05 0.11 0.17 0.17 0.17 0.28 0.36 0.42 0.40 0.32 0.25 0.22 0.22 0.16 0.13 0.17 0.32 0.19 0.16 0.05 0.11 0.15 0.17 0.23 0.28 0.21 0.52 0.54 0.37 0.38 0.52 0.63 0.84 0.86 0.81 0.89 0.93 0.81 0.69 0.67 0.67 0.76 0.84
0.02 0.06 0.11 0.20 0.33 0.45 0.40 0.27 0.19 0.16 0.15 0.16 0.20 0.14 0.24 0.15 0.31 0.18 0.14 0.07 0.17 0.25 0.32 0.42 0.75 0.51 0.73 0.60 0.49 0.40 0.65 0.76 0.64 0.68 0.72 0.73 0.67 0.67 0.75 0.62 0.59 0.84 0.90
0.09 0.16 0.25 0.32 0.30 0.19 0.16 0.10 0.13 0.21 0.20 0.19 0.17 0.13 0.12 0.20 0.28 0.33 0.24 0.13 0.22 0.46 0.52 0.56 0.63 0.89 0.62 0.60 0.66 0.63 1.22 1.30 1.34 1.12 1.03 1.00 0.96 0.93 0.89 0.84 0.79 0.85 1.00
0.14 0.16 0.15 0.06 0.05 0.10 0.13 0.14 0.13 0.14 0.16 0.16 0.15 0.14 0.14 0.17 0.40 0.34 0.30 0.31 0.47 0.44 0.63 0.71 0.95 1.12 0.89 0.97 1.12 1.41 1.60 1.51 1.52 1.58 1.49 1.37 1.24 1.10 0.98 0.86 0.77 0.69 0.63
0.03 0.04 0.04 0.05 0.07 0.09 0.11 0.14 0.12 0.11 0.14 0.17 0.20 0.25 0.27 0.28 0.36 0.51 0.41 0.47 0.57 0.59 0.88 1.27 1.47 1.37 1.22 1.20 1.25 1.31 1.35 1.44 1.51 1.51 1.43 1.28 1.09 0.90 0.74 0.65 0.54 0.40 0.31
0.09 0.08 0.08 0.09 0.13 0.08 0.07 0.09 0.11 0.13 0.18 0.25 0.31 0.36 0.40 0.44 0.49 0.56 0.66 0.74 0.88 1.01 1.26 1.41 1.41 1.36 1.34 1.34 1.24 1.15 1.11 1.04 0.96 0.89 0.76 0.64 0.56 0.51 0.49 0.46 0.45 0.43 0.40
0.07 0.07 0.08 0.08 0.09 0.09 0.11 0.17 0.15 0.22 0.27 0.28 0.36 0.48 0.61 0.75 0.96 0.99 1.00 1.06 1.09 1.11 1.07 1.06 1.00 0.90 0.81 0.76 0.68 0.62 0.59 0.55 0.52 0.48 0.45 0.41 0.38 0.31 0.27 0.25 0.31 0.37 0.41
0.10 0.10 0.14 0.14 0.13 0.13 0.15 0.22 0.33 0.36 0.38 0.41 0.47 0.48 0.68 0.78 0.85 0.83 0.82 0.79 0.78 0.78 0.83 0.76 0.71 0.68 0.64 0.60 0.57 0.50 0.43 0.40 0.35 0.35 0.34 0.29 0.24 0.19 0.16 0.14 0.17 0.22 0.24
0.21 0.22 0.26 0.29 0.26 0.25 0.26 0.29 0.42 0.67 0.80 0.95 1.02 1.04 1.01 1.13 1.07 0.98 0.89 0.78 0.71 0.63 0.69 0.59 0.56 0.52 0.47 0.40 0.38 0.35 0.35 0.31 0.25 0.24 0.20 0.17 0.18 0.18 0.17 0.15 0.13 0.15 0.12
0.39 0.46 0.49 0.52 0.56 0.62 0.68 0.72 0.76 0.80 0.86 0.96 0.95 0.85 0.81 0.74 0.67 0.58 0.49 0.42 0.46 0.39 0.38 0.35 0.33 0.29 0.25 0.23 0.21 0.19 0.16 0.16 0.18 0.17 0.19 0.19 0.21 0.21 0.20 0.16 0.15 0.16 0.11
0.45 0.56 0.67 0.79 0.91 0.91 0.85 0.82 0.80 0.79 0.80 0.80 0.72 0.65 0.63 0.54 0.44 0.39 0.34 0.43 0.39 0.33 0.27 0.25 0.23 0.22 0.19 0.17 0.17 0.19 0.20 0.20 0.20 0.21 0.19 0.20 0.20 0.22 0.20 0.18 0.19 0.17 0.16
0.80 0.96 0.94 0.94 0.94 0.88 0.81 0.73 0.68 0.64 0.61 0.58 0.55 0.54 0.44 0.32 0.31 0.27 0.25 0.26 0.28 0.25 0.19 0.18 0.16 0.16 0.17 0.19 0.18 0.19 0.17 0.15 0.17 0.19 0.20 0.19 0.18 0.21 0.23 0.20 0.17 0.17 0.13
0.73 0.73 0.67 0.60 0.57 0.55 0.50 0.45 0.40 0.37 0.35 0.31 0.31 0.27 0.21 0.23 0.25 0.22 0.20 0.20 0.20 0.20 0.21 0.21 0.18 0.16 0.15 0.14 0.15 0.15 0.15 0.14 0.16 0.17 0.17 0.17 0.21 0.21 0.17 0.17 0.16 0.15 0.12
0.46 0.42 0.36 0.34 0.34 0.32 0.28 0.23 0.23 0.23 0.23 0.22 0.20 0.17 0.16 0.19 0.19 0.20 0.23 0.25 0.23 0.23 0.23 0.22 0.17 0.16 0.16 0.18 0.17 0.19 0.15 0.12 0.12 0.14 0.15 0.13 0.13 0.13 0.14 0.15 0.15 0.15 0.14
0.25 0.24 0.22 0.21 0.20 0.18 0.17 0.17 0.22 0.25 0.27 0.29 0.30 0.26 0.21 0.26 0.26 0.24 0.25 0.23 0.23 0.23 0.19 0.20 0.20 0.17 0.15 0.15 0.18 0.21 0.20 0.13 0.13 0.17 0.19 0.16 0.12 0.12 0.12 0.14 0.14 0.16 0.16
0.13 0.15 0.15 0.16 0.18 0.23 0.26 0.27 0.26 0.26 0.28 0.28 0.23 0.21 0.22 0.20 0.21 0.21 0.20 0.19 0.20 0.21 0.23 0.26 0.27 0.25 0.22 0.21 0.21 0.20 0.19 0.18 0.24 0.24 0.24 0.20 0.13 0.11 0.14 0.14 0.12 0.12 0.15
0.17 0.20 0.23 0.25 0.26 0.24 0.22 0.21 0.25 0.24 0.22 0.20 0.19 0.16 0.14 0.14 0.12 0.11 0.10 0.10 0.11 0.11 0.11 0.11 0.12 0.12 0.13 0.15 0.18 0.16 0.16 0.19 0.22 0.22 0.30 0.28 0.20 0.16 0.15 0.15 0.14 0.15 0.15
0.13 0.16 0.16 0.15 0.18 0.21 0.24 0.22 0.20 0.18 0.17 0.16 0.15 0.15 0.13 0.12 0.10 0.09 0.07 0.07 0.08 0.07 0.07 0.08 0.09 0.08 0.09 0.10 0.12 0.15 0.13 0.13 0.19 0.24 0.31 0.31 0.27 0.23 0.21 0.21 0.18 0.19 0.14

GFSGL_prec_precacc_087.txt.gz
Total_Precipitation_Accumulation
0.19 0.09 0.11 0.26 0.52 0.42 0.32 0.28 0.31 0.45 0.50 0.65 0.53 0.38 0.31 0.26 0.19 0.16 0.17 0.20 0.21 0.23 0.24 0.27 0.27 0.25 0.29 0.32 0.38 0.43 0.47 0.48 0.53 0.26 0.13 0.13 0.10 0.04 0.01 0.00 0.01 0.03 0.05
0.31 0.29 0.49 0.69 0.89 0.80 0.63 0.75 0.53 0.29 0.17 0.18 0.22 0.22 0.20 0.30 0.29 0.27 0.21 0.18 0.22 0.33 0.43 0.42 0.35 0.35 0.39 0.38 0.39 0.36 0.30 0.26 0.32 0.28 0.14 0.10 0.08 0.07 0.06 0.03 0.02 0.01 0.03
0.53 0.59 0.55 0.47 0.68 0.82 0.67 0.48 0.35 0.25 0.21 0.16 0.13 0.15 0.14 0.18 0.22 0.24 0.24 0.29 0.41 0.43 0.35 0.31 0.27 0.30 0.28 0.24 0.22 0.20 0.17 0.20 0.25 0.33 0.23 0.12 0.09 0.09 0.09 0.07 0.07 0.07 0.05
0.30 0.23 0.20 0.31 0.28 0.32 0.32 0.31 0.19 0.22 0.16 0.13 0.11 0.11 0.11 0.10 0.14 0.21 0.29 0.25 0.15 0.14 0.13 0.13 0.13 0.15 0.14 0.14 0.16 0.15 0.16 0.20 0.22 0.26 0.29 0.21 0.14 0.11 0.14 0.16 0.14 0.12 0.12
0.19 0.12 0.18 0.18 0.18 0.22 0.25 0.20 0.20 0.19 0.16 0.17 0.14 0.11 0.12 0.15 0.21 0.18 0.10 0.06 0.05 0.04 0.03 0.04 0.05 0.11 0.12 0.10 0.12 0.14 0.16 0.22 0.28 0.30 0.32 0.25 0.21 0.20 0.21 0.21 0.26 0.26 0.29
0.15 0.16 0.18 0.17 0.20 0.25 0.19 0.16 0.13 0.17 0.22 0.20 0.19 0.27 0.36 0.33 0.24 0.17 0.12 0.07 0.06 0.06 0.06 0.05 0.07 0.15 0.10 0.16 0.17 0.22 0.27 0.35 0.39 0.34 0.32 0.35 0.32 0.33 0.36 0.45 0.50 0.48 0.48
0.18 0.16 0.15 0.16 0.18 0.18 0.22 0.18 0.20 0.28 0.34 0.34 0.43 0.42 0.29 0.14 0.20 0.16 0.15 0.08 0.08 0.07 0.08 0.08 0.09 0.11 0.18 0.12 0.22 0.32 0.33 0.40 0.41 0.41 0.46 0.44 0.43 0.44 0.51 0.57 0.60 0.65 0.71
0.10 0.14 0.13 0.14 0.17 0.21 0.26 0.23 0.31 0.39 0.46 0.43 0.33 0.22 0.17 0.22 0.27 0.20 0.19 0.08 0.06 0.08 0.09 0.10 0.09 0.09 0.17 0.18 0.16 0.18 0.18 0.24 0.31 0.35 0.47 0.64 0.78 0.80 0.82 0.90 1.00 1.06 1.06
0.06 0.12 0.17 0.17 0.18 0.28 0.37 0.42 0.40 0.33 0.26 0.23 0.24 0.18 0.16 0.21 0.36 0.20 0.17 0.05 0.11 0.16 0.21 0.27 0.31 0.22 0.59 0.59 0.39 0.41 0.62 0.75 1.00 1.01 0.95 1.04 1.09 0.98 0.85 0.85 0.93 1.09 1.24
0.02 0.06 0.11 0.20 0.33 0.45 0.40 0.27 0.19 0.16 0.16 0.17 0.22 0.17 0.29 0.17 0.37 0.20 0.15 0.09 0.21 0.32 0.41 0.50 0.82 0.54 0.76 0.64 0.54 0.48 0.82 1.01 0.93 0.95 0.95 0.93 0.84 0.81 0.88 0.73 0.68 0.93 1.02
0.09 0.16 0.25 0.32 0.30 0.19 0.16 0.10 0.13 0.21 0.20 0.19 0.18 0.14 0.14 0.22 0.31 0.35 0.25 0.13 0.22 0.47 0.53 0.57 0.66 0.97 0.67 0.67 0.75 0.75 1.44 1.57 1.59 1.33 1.22 1.18 1.12 1.05 0.99 0.94 0.89 0.95 1.10
0.14 0.16 0.15 0.06 0.05 0.10 0.13 0.14 0.13 0.14 0.16 0.16 0.15 0.14 0.14 0.18 0.41 0.35 0.30 0.31 0.47 0.44 0.63 0.72 0.96 1.14 0.90 0.98 1.13 1.43 1.63 1.56 1.56 1.62 1.52 1.40 1.27 1.13 1.01 0.89 0.79 0.71 0.64
0.03 0.04 0.05 0.05 0.07 0.09 0.11 0.14 0.12 0.11 0.14 0.17 0.20 0.25 0.27 0.28 0.36 0.51 0.41 0.47 0.57 0.59 0.89 1.27 1.47 1.37 1.22 1.20 1.25 1.31 1.35 1.44 1.51 1.51 1.44 1.29 1.10 0.92 0.75 0.66 0.54 0.40 0.31
0.09 0.08 0.08 0.09 0.13 0.08 0.07 0.09 0.11 0.13 0.18 0.25 0.31 0.37 0.40 0.44 0.49 0.56 0.66 0.74 0.88 1.01 1.26 1.41 1.41 1.36 1.34 1.34 1.24 1.15 1.11 1.04 0.96 0.90 0.76 0.64 0.57 0.52 0.49 0.46 0.45 0.43 0.40
0.07 0.07 0.08 0.08 0.09 0.09 0.12 0.17 0.16 0.23 0.28 0.28 0.37 0.48 0.61 0.76 0.97 0.99 1.00 1.06 1.09 1.11 1.07 1.06 1.00 0.90 0.81 0.76 0.68 0.62 0.59 0.55 0.52 0.48 0.45 0.41 0.38 0.31 0.27 0.25 0.31 0.37 0.41
0.10 0.10 0.14 0.14 0.13 0.13 0.15 0.23 0.34 0.37 0.38 0.42 0.47 0.49 0.69 0.80 0.86 0.83 0.82 0.79 0.78 0.78 0.83 0.76 0.71 0.68 0.64 0.60 0.57 0.50 0.43 0.40 0.35 0.35 0.34 0.29 0.24 0.19 0.16 0.14 0.17 0.22 0.24
0.21 0.22 0.26 0.29 0.26 0.25 0.26 0.29 0.42 0.67 0.80 0.95 1.02 1.05 1.01 1.14 1.07 0.99 0.89 0.78 0.71 0.63 0.69 0.59 0.56 0.53 0.47 0.40 0.38 0.35 0.35 0.31 0.25 0.24 0.20 0.17 0.18 0.18 0.17 0.15 0.13 0.15 0.12
0.39 0.46 0.49 0.52 0.56 0.62 0.68 0.72 0.76 0.80 0.86 0.96 0.96 0.86 0.81 0.74 0.67 0.58 0.49 0.42 0.46 0.39 0.38 0.35 0.33 0.29 0.25 0.23 0.21 0.19 0.16 0.16 0.18 0.17 0.19 0.19 0.21 0.21 0.20 0.16 0.15 0.16 0.11
0.45 0.56 0.67 0.79 0.91 0.91 0.85 0.82 0.80 0.79 0.80 0.80 0.72 0.65 0.63 0.54 0.44 0.39 0.34 0.43 0.39 0.33 0.27 0.25 0.23 0.22 0.19 0.17 0.17 0.19 0.20 0.20 0.20 0.21 0.19 0.20 0.20 0.22 0.20 0.18 0.19 0.17 0.16
0.80 0.96 0.94 0.94 0.94 0.88 0.81 0.73 0.68 0.64 0.61 0.58 0.55 0.54 0.44 0.32 0.31 0.27 0.25 0.26 0.28 0.25 0.19 0.18 0.16 0.16 0.17 0.19 0.18 0.19 0.17 0.15 0.17 0.19 0.20 0.19 0.18 0.21 0.23 0.20 0.17 0.17 0.13
0.73 0.73 0.67 0.60 0.57 0.55 0.50 0.45 0.40 0.37 0.35 0.31 0.31 0.27 0.21 0.23 0.25 0.22 0.20 0.20 0.20 0.20 0.21 0.21 0.18 0.16 0.15 0.14 0.15 0.15 0.15 0.14 0.16 0.17 0.17 0.17 0.21 0.21 0.17 0.17 0.16 0.15 0.12
0.46 0.42 0.36 0.34 0.34 0.32 0.28 0.23 0.23 0.23 0.23 0.22 0.20 0.17 0.16 0.19 0.19 0.20 0.23 0.25 0.23 0.23 0.23 0.22 0.17 0.16 0.16 0.18 0.17 0.19 0.15 0.12 0.12 0.14 0.15 0.13 0.13 0.13 0.14 0.15 0.15 0.15 0.14
0.25 0.24 0.22 0.21 0.20 0.18 0.17 0.17 0.22 0.25 0.27 0.29 0.30 0.26 0.21 0.26 0.26 0.24 0.25 0.23 0.23 0.23 0.19 0.20 0.20 0.17 0.15 0.15 0.18 0.21 0.20 0.13 0.13 0.17 0.19 0.16 0.12 0.12 0.12 0.14 0.14 0.16 0.16
0.13 0.15 0.15 0.16 0.18 0.23 0.26 0.27 0.26 0.26 0.28 0.28 0.23 0.21 0.22 0.20 0.21 0.21 0.20 0.19 0.20 0.21 0.23 0.26 0.27 0.25 0.22 0.21 0.21 0.20 0.19 0.18 0.24 0.24 0.24 0.20 0.13 0.11 0.14 0.14 0.12 0.12 0.15
0.17 0.20 0.23 0.25 0.26 0.24 0.22 0.21 0.25 0.24 0.22 0.20 0.19 0.16 0.14 0.14 0.12 0.11 0.10 0.10 0.11 0.11 0.11 0.11 0.12 0.12 0.13 0.15 0.18 0.16 0.16 0.19 0.22 0.22 0.30 0.28 0.20 0.16 0.15 0.15 0.14 0.15 0.15
0.13 0.16 0.16 0.15 0.18 0.21 0.24 0.22 0.20 0.18 0.17 0.16 0.15 0.15 0.13 0.12 0.10 0.09 0.07 0.07 0.08 0.07 0.07 0.08 0.09 0.08 0.09 0.10 0.12 0.16 0.13 0.13 0.19 0.24 0.31 0.31 0.27 0.23 0.21 0.21 0.18 0.19 0.14

GFSGL_prec_precacc_090.txt.gz
Total_Precipitation_Accumulation
0.19 0.09 0.11 0.26 0.52 0.42 0.32 0.28 0.32 0.50 0.67 0.77 0.70 0.44 0.34 0.30 0.23 0.18 0.19 0.21 0.21 0.23 0.24 0.28 0.27 0.26 0.30 0.33 0.39 0.46 0.50 0.55 0.58 0.27 0.15 0.14 0.11 0.04 0.01 0.00 0.01 0.03 0.05
0.31 0.29 0.49 0.69 0.89 0.80 0.63 0.76 0.53 0.30 0.19 0.21 0.31 0.29 0.28 0.38 0.36 0.29 0.24 0.19 0.22 0.33 0.43 0.42 0.35 0.36 0.42 0.41 0.43 0.39 0.33 0.29 0.36 0.31 0.15 0.11 0.09 0.08 0.07 0.03 0.02 0.01 0.03
0.53 0.60 0.55 0.47 0.68 0.82 0.67 0.48 0.35 0.25 0.22 0.16 0.15 0.18 0.19 0.23 0.34 0.32 0.27 0.30 0.41 0.43 0.35 0.31 0.28 0.31 0.30 0.26 0.24 0.22 0.18 0.20 0.25 0.33 0.23 0.13 0.12 0.11 0.12 0.09 0.08 0.08 0.05
0.31 0.24 0.21 0.32 0.29 0.32 0.32 0.31 0.19 0.22 0.16 0.13 0.11 0.11 0.11 0.12 0.16 0.25 0.32 0.26 0.15 0.14 0.13 0.13 0.13 0.15 0.14 0.15 0.16 0.15 0.16 0.21 0.23 0.26 0.29 0.21 0.15 0.11 0.15 0.17 0.14 0.12 0.13
0.20 0.12 0.18 0.19 0.19 0.22 0.25 0.20 0.20 0.19 0.16 0.17 0.14 0.12 0.13 0.16 0.21 0.19 0.11 0.07 0.05 0.05 0.04 0.04 0.05 0.11 0.12 0.11 0.15 0.17 0.20 0.25 0.31 0.32 0.33 0.26 0.22 0.20 0.21 0.22 0.26 0.26 0.29
0.15 0.16 0.19 0.18 0.21 0.27 0.21 0.17 0.13 0.18 0.22 0.20 0.19 0.27 0.37 0.33 0.25 0.17 0.13 0.07 0.06 0.06 0.06 0.05 0.08 0.16 0.10 0.16 0.18 0.23 0.30 0.40 0.42 0.36 0.35 0.39 0.34 0.34 0.36 0.45 0.50 0.48 0.48
0.18 0.16 0.16 0.16 0.19 0.18 0.24 0.19 0.21 0.29 0.35 0.34 0.43 0.42 0.29 0.14 0.20 0.16 0.15 0.09 0.08 0.07 0.08 0.08 0.09 0.11 0.19 0.12 0.23 0.32 0.33 0.42 0.47 0.45 0.50 0.48 0.49 0.49 0.56 0.64 0.67 0.74 0.79
0.10 0.14 0.14 0.15 0.18 0.22 0.27 0.25 0.32 0.40 0.47 0.44 0.34 0.24 0.18 0.23 0.29 0.20 0.20 0.08 0.06 0.08 0.09 0.10 0.09 0.10 0.21 0.22 0.16 0.19 0.20 0.27 0.36 0.42 0.58 0.81 0.97 1.00 1.08 1.23 1.34 1.38 1.34
0.07 0.12 0.18 0.18 0.19 0.30 0.38 0.45 0.43 0.36 0.29 0.25 0.27 0.22 0.20 0.24 0.39 0.21 0.18 0.06 0.14 0.19 0.23 0.29 0.32 0.23 0.65 0.64 0.42 0.46 0.72 0.85 1.09 1.07 1.00 1.12 1.18 1.05 0.91 0.92 1.01 1.19 1.37
0.06 0.08 0.12 0.22 0.34 0.46 0.41 0.29 0.20 0.17 0.17 0.18 0.24 0.19 0.32 0.19 0.39 0.21 0.16 0.09 0.24 0.37 0.45 0.53 0.86 0.56 0.78 0.66 0.56 0.51 0.88 1.12 1.07 1.12 1.12 1.04 0.91 0.86 0.90 0.75 0.70 0.94 1.03
0.20 0.21 0.27 0.33 0.31 0.20 0.17 0.10 0.13 0.22 0.21 0.19 0.18 0.14 0.14 0.22 0.32 0.36 0.25 0.14 0.22 0.49 0.56 0.59 0.69 1.02 0.69 0.69 0.77 0.77 1.48 1.63 1.66 1.38 1.24 1.19 1.12 1.05 0.99 0.94 0.89 0.95 1.10
0.25 0.20 0.15 0.07 0.05 0.10 0.13 0.14 0.13 0.14 0.16 0.17 0.15 0.14 0.14 0.18 0.41 0.35 0.30 0.31 0.47 0.44 0.63 0.72 0.96 1.14 0.90 0.98 1.13 1.43 1.63 1.56 1.56 1.62 1.52 1.40 1.27 1.13 1.01 0.89 0.80 0.71 0.65
0.09 0.06 0.06 0.05 0.07 0.09 0.11 0.14 0.12 0.11 0.14 0.17 0.20 0.25 0.28 0.29 0.36 0.51 0.41 0.47 0.57 0.59 0.89 1.27 1.47 1.37 1.22 1.20 1.25 1.31 1.35 1.44 1.51 1.52 1.44 1.29 1.10 0.92 0.75 0.66 0.54 0.40 0.31
0.11 0.09 0.08 0.09 0.13 0.08 0.07 0.09 0.11 0.13 0.18 0.25 0.31 0.37 0.40 0.44 0.49 0.57 0.66 0.75 0.88 1.02 1.26 1.41 1.41 1.36 1.34 1.34 1.24 1.15 1.11 1.04 0.97 0.90 0.77 0.64 0.57 0.52 0.49 0.46 0.45 0.43 0.40
0.10 0.09 0.09 0.09 0.09 0.09 0.12 0.18 0.16 0.23 0.28 0.28 0.37 0.49 0.62 0.77 0.98 0.99 1.00 1.06 1.09 1.11 1.07 1.06 1.00 0.90 0.81 0.76 0.68 0.62 0.59 0.55 0.52 0.48 0.45 0.42 0.38 0.31 0.27 0.25 0.31 0.37 0.41
0.11 0.12 0.15 0.15 0.14 0.13 0.15 0.23 0.35 0.38 0.38 0.42 0.48 0.49 0.69 0.80 0.86 0.84 0.82 0.79 0.78 0.78 0.83 0.76 0.71 0.68 0.65 0.61 0.57 0.50 0.43 0.40 0.35 0.35 0.34 0.29 0.24 0.19 0.16 0.14 0.17 0.22 0.24
0.21 0.22 0.26 0.29 0.26 0.25 0.26 0.29 0.43 0.68 0.80 0.96 1.03 1.05 1.02 1.14 1.07 0.99 0.89 0.78 0.71 0.63 0.69 0.59 0.56 0.53 0.47 0.40 0.38 0.35 0.35 0.31 0.25 0.24 0.20 0.17 0.18 0.18 0.17 0.15 0.13 0.15 0.12
0.39 0.46 0.49 0.52 0.56 0.62 0.68 0.73 0.76 0.80 0.87 0.96 0.96 0.86 0.81 0.74 0.67 0.58 0.49 0.42 0.46 0.39 0.38 0.35 0.33 0.29 0.25 0.23 0.21 0.19 0.16 0.16 0.18 0.17 0.19 0.19 0.21 0.21 0.20 0.16 0.15 0.16 0.11
0.45 0.56 0.67 0.79 0.91 0.91 0.85 0.82 0.80 0.79 0.80 0.80 0.73 0.65 0.63 0.54 0.44 0.39 0.34 0.43 0.39 0.33 0.27 0.25 0.23 0.22 0.19 0.17 0.17 0.19 0.20 0.20 0.20 0.21 0.19 0.20 0.20 0.22 0.20 0.18 0.19 0.17 0.16
0.80 0.96 0.94 0.94 0.94 0.88 0.81 0.73 0.68 0.64 0.61 0.58 0.55 0.54 0.44 0.32 0.31 0.27 0.25 0.26 0.28 0.25 0.19 0.18 0.16 0.16 0.17 0.19 0.18 0.19 0.17 0.15 0.17 0.19 0.20 0.19 0.18 0.21 0.23 0.20 0.17 0.17 0.13
0.74 0.73 0.67 0.60 0.57 0.55 0.50 0.45 0.40 0.37 0.35 0.31 0.31 0.27 0.21 0.23 0.25 0.22 0.20 0.20 0.20 0.20 0.21 0.21 0.18 0.16 0.15 0.14 0.15 0.15 0.15 0.14 0.16 0.17 0.17 0.17 0.21 0.21 0.17 0.17 0.16 0.15 0.12
0.46 0.42 0.36 0.34 0.34 0.32 0.28 0.23 0.23 0.23 0.23 0.22 0.20 0.17 0.16 0.19 0.19 0.20 0.23 0.25 0.23 0.23 0.23 0.22 0.17 0.16 0.16 0.18 0.17 0.19 0.15 0.12 0.12 0.14 0.15 0.13 0.13 0.13 0.14 0.15 0.15 0.15 0.14
0.25 0.24 0.22 0.21 0.20 0.18 0.17 0.17 0.22 0.25 0.27 0.29 0.30 0.26 0.21 0.26 0.27 0.24 0.25 0.23 0.23 0.23 0.19 0.20 0.20 0.17 0.15 0.16 0.18 0.21 0.20 0.13 0.13 0.17 0.19 0.16 0.12 0.12 0.12 0.14 0.14 0.16 0.16
0.13 0.15 0.15 0.16 0.18 0.23 0.27 0.27 0.26 0.26 0.28 0.28 0.23 0.22 0.22 0.20 0.21 0.21 0.20 0.19 0.20 0.21 0.24 0.27 0.27 0.25 0.22 0.21 0.22 0.21 0.19 0.18 0.24 0.24 0.24 0.20 0.13 0.11 0.14 0.14 0.12 0.13 0.15
0.17 0.20 0.23 0.26 0.27 0.24 0.22 0.22 0.25 0.24 0.22 0.20 0.19 0.17 0.15 0.14 0.12 0.11 0.10 0.10 0.11 0.11 0.11 0.11 0.12 0.13 0.13 0.15 0.18 0.16 0.16 0.19 0.22 0.22 0.30 0.28 0.21 0.16 0.15 0.15 0.15 0.16 0.15
0.13 0.16 0.16 0.15 0.18 0.22 0.25 0.23 0.20 0.19 0.18 0.16 0.15 0.15 0.14 0.12 0.10 0.09 0.07 0.07 0.08 0.07 0.07 0.08 0.09 0.08 0.09 0.11 0.12 0.16 0.13 0.13 0.19 0.24 0.31 0.32 0.27 0.23 0.22 0.21 0.18 0.19 0.15

GFSGL_prec_precacc_096.txt.gz
Total_Precipitation_Accumulation
0.20 0.10 0.11 0.26 0.52 0.43 0.33 0.29 0.33 0.54 0.81 0.88 0.88 0.83 0.72 0.68 0.58 0.53 0.35 0.30 0.28 0.29 0.27 0.30 0.28 0.27 0.31 0.35 0.43 0.48 0.52 0.59 0.60 0.28 0.16 0.14 0.17 0.10 0.04 0.01 0.01 0.03 0.05
0.32 0.29 0.49 0.69 0.89 0.81 0.63 0.76 0.53 0.31 0.30 0.33 0.47 0.62 0.56 0.70 0.70 0.62 0.50 0.31 0.29 0.37 0.46 0.44 0.36 0.37 0.42 0.41 0.44 0.40 0.34 0.30 0.38 0.33 0.15 0.11 0.10 0.09 0.08 0.05 0.02 0.01 0.03
0.55 0.62 0.56 0.48 0.68 0.83 0.68 0.49 0.36 0.26 0.25 0.21 0.26 0.35 0.38 0.46 0.63 0.63 0.53 0.48 0.51 0.51 0.40 0.35 0.30 0.32 0.30 0.26 0.25 0.22 0.19 0.21 0.27 0.35 0.24 0.14 0.12 0.12 0.14 0.11 0.10 0.09 0.06
0.35 0.26 0.21 0.32 0.30 0.33 0.34 0.32 0.20 0.23 0.17 0.15 0.15 0.20 0.25 0.29 0.33 0.44 0.54 0.45 0.27 0.19 0.17 0.16 0.16 0.16 0.14 0.15 0.16 0.15 0.17 0.21 0.24 0.29 0.32 0.22 0.15 0.11 0.18 0.20 0.17 0.17 0.21
0.25 0.14 0.19 0.20 0.20 0.24 0.27 0.22 0.22 0.20 0.18 0.19 0.16 0.14 0.17 0.24 0.33 0.25 0.16 0.16 0.17 0.13 0.08 0.09 0.07 0.11 0.12 0.11 0.15 0.19 0.22 0.27 0.32 0.36 0.36 0.28 0.24 0.25 0.28 0.29 0.34 0.30 0.34
0.18 0.18 0.20 0.20 0.23 0.29 0.22 0.18 0.15 0.20 0.24 0.22 0.22 0.31 0.42 0.37 0.32 0.20 0.18 0.14 0.14 0.17 0.10 0.08 0.10 0.16 0.10 0.16 0.18 0.25 0.37 0.47 0.48 0.41 0.41 0.47 0.42 0.42 0.42 0.48 0.52 0.51 0.53
0.20 0.18 0.17 0.18 0.20 0.19 0.25 0.20 0.22 0.31 0.37 0.36 0.44 0.43 0.30 0.15 0.24 0.20 0.21 0.15 0.15 0.12 0.11 0.11 0.13 0.15 0.23 0.13 0.24 0.35 0.37 0.45 0.50 0.47 0.53 0.55 0.60 0.63 0.75 0.87 0.95 1.04 1.06
0.13 0.16 0.16 0.16 0.19 0.23 0.29 0.27 0.34 0.41 0.47 0.45 0.36 0.27 0.21 0.28 0.35 0.24 0.24 0.11 0.11 0.13 0.13 0.13 0.11 0.13 0.27 0.26 0.18 0.21 0.25 0.36 0.50 0.62 0.87 1.19 1.33 1.35 1.43 1.56 1.63 1.64 1.59
0.09 0.15 0.19 0.20 0.21 0.32 0.40 0.47 0.46 0.40 0.32 0.28 0.29 0.24 0.23 0.27 0.45 0.26 0.21 0.07 0.16 0.23 0.27 0.34 0.37 0.25 0.78 0.73 0.49 0.61 0.95 1.14 1.39 1.34 1.22 1.28 1.28 1.13 0.98 0.96 1.07 1.25 1.42
0.12 0.14 0.16 0.26 0.38 0.50 0.45 0.32 0.23 0.22 0.21 0.23 0.27 0.20 0.36 0.21 0.44 0.25 0.21 0.12 0.31 0.45 0.52 0.61 1.00 0.62 0.89 0.74 0.61 0.56 0.98 1.27 1.20 1.27 1.26 1.17 1.00 0.90 0.93 0.75 0.70 0.94 1.03
0.34 0.38 0.44 0.43 0.41 0.30 0.27 0.18 0.20 0.29 0.28 0.26 0.26 0.21 0.19 0.29 0.39 0.44 0.37 0.27 0.43 0.73 0.83 0.89 1.02 1.36 0.98 1.00 1.05 1.02 1.72 1.81 1.77 1.42 1.26 1.20 1.13 1.06 0.99 0.94 0.89 0.95 1.10
0.63 0.51 0.48 0.39 0.28 0.24 0.27 0.32 0.28 0.26 0.29 0.28 0.27 0.25 0.26 0.31 0.57 0.51 0.44 0.43 0.59 0.52 0.70 0.77 1.01 1.19 0.94 1.01 1.15 1.45 1.65 1.56 1.56 1.62 1.52 1.41 1.27 1.14 1.02 0.89 0.80 0.71 0.65
0.93 0.73 0.61 0.50 0.51 0.48 0.40 0.35 0.31 0.32 0.32 0.34 0.35 0.43 0.43 0.39 0.46 0.62 0.53 0.54 0.60 0.60 0.90 1.29 1.48 1.38 1.22 1.20 1.25 1.31 1.35 1.44 1.51 1.52 1.44 1.29 1.11 0.92 0.75 0.66 0.54 0.40 0.31
0.73 0.69 0.70 0.66 0.60 0.51 0.47 0.41 0.33 0.33 0.41 0.46 0.44 0.47 0.51 0.53 0.52 0.58 0.67 0.75 0.88 1.02 1.26 1.41 1.41 1.36 1.34 1.34 1.24 1.15 1.11 1.04 0.97 0.90 0.77 0.64 0.57 0.52 0.49 0.46 0.45 0.43 0.40
0.41 0.44 0.42 0.38 0.36 0.31 0.32 0.35 0.29 0.36 0.36 0.34 0.43 0.52 0.63 0.79 0.99 1.00 1.01 1.06 1.09 1.11 1.07 1.07 1.00 0.90 0.81 0.76 0.68 0.62 0.59 0.55 0.52 0.48 0.45 0.42 0.38 0.31 0.27 0.25 0.31 0.37 0.41
0.36 0.37 0.42 0.40 0.36 0.34 0.35 0.42 0.50 0.48 0.43 0.44 0.49 0.50 0.70 0.81 0.86 0.84 0.82 0.79 0.78 0.78 0.83 0.77 0.72 0.69 0.65 0.61 0.57 0.50 0.43 0.40 0.35 0.35 0.34 0.29 0.24 0.19 0.16 0.14 0.17 0.22 0.24
0.24 0.26 0.33 0.39 0.38 0.37 0.37 0.40 0.56 0.82 0.92 1.06 1.10 1.11 1.05 1.16 1.08 0.99 0.89 0.78 0.71 0.63 0.70 0.59 0.57 0.53 0.47 0.40 0.38 0.35 0.35 0.31 0.25 0.24 0.20 0.17 0.18 0.18 0.17 0.15 0.13 0.15 0.12
0.39 0.46 0.49 0.52 0.56 0.63 0.69 0.74 0.78 0.83 0.89 0.99 0.97 0.88 0.83 0.76 0.69 0.60 0.50 0.42 0.46 0.39 0.38 0.35 0.33 0.29 0.25 0.23 0.21 0.19 0.16 0.16 0.18 0.17 0.19 0.19 0.21 0.21 0.20 0.16 0.15 0.16 0.11
0.45 0.56 0.67 0.80 0.92 0.91 0.86 0.82 0.81 0.80 0.81 0.81 0.73 0.65 0.63 0.54 0.44 0.39 0.34 0.43 0.39 0.33 0.27 0.25 0.23 0.22 0.19 0.17 0.18 0.19 0.20 0.20 0.20 0.21 0.19 0.20 0.20 0.22 0.20 0.18 0.19 0.17 0.16
0.80 0.96 0.94 0.95 0.94 0.89 0.81 0.73 0.68 0.64 0.61 0.58 0.55 0.54 0.44 0.32 0.31 0.27 0.25 0.26 0.28 0.25 0.19 0.18 0.16 0.16 0.17 0.19 0.19 0.19 0.17 0.15 0.17 0.19 0.20 0.20 0.18 0.21 0.23 0.20 0.17 0.17 0.13
0.74 0.73 0.67 0.61 0.57 0.55 0.50 0.45 0.40 0.37 0.35 0.31 0.31 0.27 0.21 0.23 0.25 0.22 0.20 0.20 0.20 0.20 0.21 0.21 0.18 0.16 0.15 0.14 0.15 0.15 0.15 0.14 0.16 0.17 0.17 0.17 0.21 0.21 0.17 0.17 0.16 0.15 0.12
0.46 0.42 0.36 0.34 0.34 0.32 0.28 0.23 0.23 0.23 0.23 0.22 0.20 0.17 0.16 0.19 0.19 0.20 0.23 0.25 0.24 0.23 0.23 0.22 0.18 0.16 0.16 0.18 0.17 0.19 0.15 0.13 0.12 0.14 0.15 0.13 0.13 0.14 0.14 0.15 0.15 0.16 0.14
0.25 0.24 0.22 0.21 0.20 0.18 0.17 0.17 0.22 0.25 0.27 0.29 0.30 0.27 0.22 0.26 0.27 0.25 0.26 0.24 0.24 0.24 0.19 0.21 0.21 0.17 0.15 0.16 0.18 0.22 0.20 0.14 0.14 0.17 0.19 0.16 0.12 0.12 0.13 0.14 0.14 0.16 0.16
0.14 0.15 0.15 0.16 0.18 0.24 0.27 0.28 0.26 0.26 0.28 0.29 0.24 0.22 0.22 0.21 0.21 0.22 0.21 0.20 0.21 0.22 0.24 0.27 0.27 0.25 0.22 0.21 0.22 0.21 0.20 0.19 0.24 0.24 0.24 0.20 0.13 0.11 0.14 0.14 0.12 0.13 0.15
0.17 0.21 0.23 0.26 0.27 0.25 0.22 0.22 0.25 0.25 0.23 0.21 0.19 0.17 0.15 0.14 0.12 0.11 0.10 0.11 0.11 0.11 0.11 0.11 0.13 0.13 0.13 0.15 0.19 0.16 0.16 0.19 0.22 0.22 0.30 0.28 0.21 0.16 0.15 0.15 0.15 0.16 0.15
0.13 0.17 0.17 0.16 0.19 0.22 0.25 0.23 0.21 0.19 0.18 0.16 0.16 0.16 0.14 0.13 0.10 0.09 0.07 0.07 0.08 0.07 0.07 0.09 0.09 0.08 0.09 0.11 0.13 0.16 0.13 0.13 0.19 0.24 0.31 0.32 0.28 0.23 0.22 0.21 0.18 0.20 0.15

GFSGL_prec_precacc_102.txt.gz
Total_Precipitation_Accumulation
0.36 0.20 0.19 0.32 0.56 0.48 0.38 0.32 0.35 0.54 0.81 0.88 0.88 0.84 0.83 0.84 0.88 0.93 0.77 0.68 0.66 0.61 0.55 0.55 0.47 0.41 0.37 0.40 0.46 0.50 0.53 0.59 0.60 0.28 0.16 0.15 0.18 0.12 0.07 0.05 0.07 0.06 0.06
0.50 0.42 0.60 0.79 0.95 0.87 0.72 0.81 0.55 0.31 0.30 0.33 0.47 0.63 0.64 0.86 0.89 0.97 0.94 0.72 0.61 0.74 0.78 0.68 0.57 0.52 0.53 0.45 0.47 0.42 0.35 0.30 0.39 0.33 0.15 0.11 0.11 0.13 0.12 0.08 0.06 0.04 0.04
0.66 0.72 0.67 0.62 0.77 0.95 0.79 0.54 0.37 0.26 0.25 0.21 0.27 0.36 0.41 0.60 0.90 0.95 0.96 0.83 0.82 0.76 0.67 0.58 0.50 0.46 0.42 0.31 0.29 0.25 0.21 0.23 0.27 0.36 0.24 0.15 0.13 0.14 0.15 0.12 0.10 0.10 0.06
0.49 0.38 0.31 0.46 0.40 0.41 0.40 0.32 0.21 0.23 0.17 0.15 0.15 0.22 0.30 0.39 0.64 0.90 0.97 0.94 0.65 0.49 0.46 0.47 0.44 0.34 0.26 0.21 0.23 0.20 0.21 0.25 0.26 0.30 0.33 0.23 0.16 0.12 0.19 0.20 0.17 0.17 0.21
0.37 0.24 0.30 0.25 0.25 0.26 0.28 0.22 0.22 0.20 0.18 0.19 0.16 0.15 0.24 0.39 0.58 0.65 0.62 0.63 0.57 0.49 0.39 0.41 0.38 0.42 0.39 0.26 0.24 0.25 0.28 0.32 0.34 0.36 0.37 0.29 0.24 0.25 0.28 0.29 0.34 0.31 0.36
0.28 0.27 0.28 0.25 0.27 0.31 0.25 0.19 0.16 0.21 0.25 0.23 0.25 0.34 0.45 0.44 0.54 0.45 0.56 0.65 0.59 0.54 0.48 0.42 0.50 0.56 0.40 0.39 0.31 0.30 0.41 0.51 0.50 0.43 0.42 0.48 0.42 0.42 0.42 0.50 0.54 0.54 0.58
0.33 0.25 0.23 0.24 0.25 0.23 0.26 0.22 0.25 0.39 0.41 0.40 0.49 0.48 0.33 0.18 0.42 0.36 0.45 0.47 0.78 0.61 0.57 0.51 0.51 0.43 0.48 0.32 0.37 0.42 0.41 0.48 0.52 0.49 0.54 0.55 0.62 0.64 0.77 0.91 1.01 1.11 1.15
0.25 0.27 0.24 0.25 0.25 0.31 0.33 0.30 0.37 0.48 0.57 0.54 0.44 0.34 0.29 0.36 0.41 0.36 0.50 0.28 0.36 0.43 0.42 0.44 0.35 0.33 0.52 0.45 0.29 0.31 0.32 0.40 0.53 0.66 0.91 1.23 1.38 1.40 1.51 1.64 1.72 1.73 1.69
0.22 0.28 0.33 0.34 0.31 0.40 0.48 0.52 0.51 0.44 0.36 0.34 0.37 0.32 0.31 0.34 0.53 0.34 0.31 0.12 0.29 0.43 0.45 0.55 0.62 0.47 1.06 1.03 0.70 0.80 1.09 1.23 1.50 1.44 1.31 1.40 1.41 1.22 1.05 1.03 1.13 1.32 1.51
0.33 0.32 0.31 0.44 0.52 0.60 0.53 0.39 0.30 0.28 0.27 0.27 0.31 0.25 0.43 0.25 0.52 0.34 0.30 0.15 0.35 0.52 0.61 0.74 1.23 0.82 1.16 0.93 0.74 0.66 1.09 1.41 1.33 1.39 1.38 1.28 1.10 1.00 1.03 0.82 0.76 1.00 1.09
0.78 0.70 0.71 0.69 0.63 0.43 0.36 0.27 0.28 0.35 0.34 0.32 0.32 0.25 0.23 0.33 0.47 0.55 0.51 0.35 0.52 0.78 0.87 0.93 1.10 1.51 1.13 1.17 1.23 1.16 1.89 1.98 1.95 1.55 1.37 1.28 1.18 1.08 1.01 0.96 0.92 0.98 1.13
1.27 1.17 1.03 0.83 0.69 0.62 0.56 0.51 0.41 0.36 0.35 0.33 0.31 0.30 0.31 0.38 0.67 0.60 0.53 0.54 0.75 0.64 0.87 0.91 1.18 1.36 1.10 1.20 1.35 1.71 1.88 1.74 1.69 1.74 1.63 1.49 1.33 1.18 1.04 0.91 0.81 0.71 0.65
1.47 1.40 1.38 1.22 1.10 0.98 0.85 0.75 0.62 0.55 0.51 0.51 0.49 0.55 0.59 0.56 0.67 0.83 0.70 0.74 0.79 0.74 1.08 1.53 1.72 1.56 1.39 1.37 1.42 1.46 1.49 1.56 1.62 1.61 1.50 1.33 1.13 0.94 0.75 0.66 0.54 0.40 0.31
1.01 1.08 1.22 1.25 1.20 1.08 0.98 0.96 0.90 0.83 0.85 0.90 0.85 0.85 0.85 0.85 0.87 0.90 0.99 1.07 1.19 1.30 1.55 1.64 1.59 1.51 1.46 1.46 1.37 1.27 1.21 1.11 1.00 0.91 0.77 0.64 0.57 0.52 0.49 0.46 0.45 0.43 0.40
0.58 0.65 0.66 0.69 0.74 0.75 0.73 0.73 0.65 0.76 0.75 0.70 0.79 0.88 0.96 1.10 1.33 1.27 1.24 1.25 1.28 1.31 1.23 1.19 1.09 0.97 0.87 0.79 0.69 0.62 0.59 0.55 0.52 0.48 0.45 0.42 0.38 0.31 0.27 0.25 0.31 0.37 0.41
0.40 0.45 0.54 0.57 0.57 0.58 0.64 0.74 0.80 0.78 0.70 0.69 0.73 0.72 0.92 1.03 1.04 0.97 0.92 0.87 0.83 0.81 0.85 0.79 0.75 0.70 0.66 0.62 0.58 0.50 0.43 0.40 0.35 0.35 0.34 0.29 0.24 0.19 0.16 0.14 0.17 0.22 0.24
0.24 0.27 0.33 0.40 0.42 0.45 0.48 0.54 0.75 1.03 1.13 1.28 1.34 1.34 1.28 1.39 1.29 1.18 1.06 0.93 0.84 0.72 0.78 0.67 0.63 0.59 0.50 0.42 0.39 0.36 0.36 0.31 0.25 0.24 0.20 0.17 0.18 0.18 0.17 0.15 0.13 0.15 0.12
0.40 0.46 0.49 0.52 0.56 0.63 0.69 0.75 0.79 0.85 0.93 1.03 1.03 0.94 0.91 0.84 0.77 0.67 0.58 0.50 0.54 0.47 0.48 0.46 0.44 0.38 0.33 0.30 0.26 0.23 0.19 0.18 0.19 0.18 0.20 0.19 0.21 0.21 0.20 0.16 0.15 0.16 0.11
0.45 0.56 0.67 0.80 0.92 0.91 0.86 0.82 0.81 0.80 0.81 0.82 0.73 0.65 0.63 0.54 0.44 0.39 0.34 0.43 0.39 0.33 0.27 0.26 0.23 0.22 0.19 0.17 0.18 0.19 0.20 0.20 0.20 0.21 0.19 0.20 0.20 0.22 0.20 0.18 0.19 0.17 0.16
0.80 0.96 0.94 0.95 0.94 0.89 0.81 0.73 0.68 0.64 0.61 0.58 0.55 0.54 0.44 0.32 0.31 0.27 0.25 0.26 0.28 0.25 0.19 0.18 0.16 0.16 0.17 0.19 0.19 0.19 0.17 0.15 0.17 0.19 0.20 0.20 0.18 0.21 0.23 0.20 0.17 0.17 0.13
0.74 0.73 0.67 0.61 0.57 0.55 0.50 0.45 0.40 0.37 0.35 0.31 0.31 0.27 0.21 0.23 0.25 0.22 0.20 0.20 0.21 0.21 0.21 0.21 0.18 0.16 0.15 0.14 0.15 0.15 0.15 0.14 0.16 0.17 0.17 0.17 0.21 0.21 0.17 0.17 0.16 0.15 0.12
0.46 0.42 0.36 0.34 0.34 0.32 0.28 0.23 0.23 0.23 0.23 0.22 0.20 0.17 0.16 0.19 0.19 0.21 0.23 0.25 0.24 0.23 0.24 0.22 0.18 0.16 0.16 0.18 0.17 0.19 0.15 0.13 0.12 0.14 0.15 0.13 0.13 0.14 0.14 0.15 0.15 0.16 0.14
0.25 0.24 0.22 0.21 0.20 0.18 0.17 0.17 0.22 0.25 0.27 0.29 0.30 0.27 0.22 0.26 0.27 0.25 0.26 0.24 0.24 0.24 0.19 0.21 0.21 0.17 0.15 0.16 0.18 0.22 0.20 0.14 0.14 0.17 0.19 0.16 0.12 0.12 0.13 0.14 0.14 0.16 0.16
0.14 0.15 0.15 0.16 0.18 0.24 0.28 0.28 0.26 0.26 0.28 0.29 0.25 0.22 0.23 0.21 0.21 0.22 0.21 0.20 0.21 0.22 0.24 0.27 0.27 0.25 0.22 0.21 0.22 0.21 0.20 0.19 0.24 0.24 0.24 0.20 0.13 0.11 0.14 0.14 0.12 0.13 0.15
0.17 0.21 0.23 0.26 0.27 0.25 0.23 0.23 0.26 0.25 0.23 0.21 0.19 0.17 0.16 0.15 0.13 0.11 0.10 0.11 0.11 0.11 0.11 0.11 0.13 0.13 0.13 0.15 0.19 0.16 0.16 0.19 0.22 0.22 0.30 0.28 0.21 0.16 0.15 0.15 0.15 0.16 0.15
0.13 0.17 0.17 0.16 0.19 0.22 0.25 0.23 0.21 0.19 0.18 0.16 0.16 0.16 0.15 0.13 0.11 0.09 0.07 0.07 0.08 0.07 0.07 0.09 0.09 0.08 0.09 0.11 0.13 0.16 0.13 0.13 0.19 0.24 0.31 0.32 0.28 0.23 0.22 0.21 0.18 0.20 0.15

GFSGL_prec_precacc_105.txt.gz
Total_Precipitation_Accumulation
0.43 0.27 0.25 0.40 0.65 0.57 0.46 0.40 0.38 0.55 0.82 0.89 0.90 0.86 0.83 0.85 0.89 0.94 0.78 0.70 0.71 0.70 0.66 0.66 0.54 0.47 0.42 0.42 0.47 0.53 0.53 0.59 0.61 0.28 0.16 0.15 0.18 0.12 0.07 0.05 0.07 0.06 0.06
0.57 0.48 0.65 0.86 1.03 0.94 0.79 0.87 0.58 0.33 0.31 0.36 0.48 0.64 0.65 0.87 0.91 0.99 0.97 0.78 0.73 0.90 0.94 0.84 0.72 0.66 0.64 0.55 0.52 0.44 0.37 0.30 0.39 0.33 0.15 0.11 0.11 0.14 0.13 0.09 0.07 0.06 0.09
0.80 0.83 0.81 0.77 0.87 1.03 0.86 0.59 0.41 0.28 0.26 0.22 0.27 0.36 0.41 0.60 0.91 0.96 1.00 0.92 0.98 1.00 0.93 0.79 0.65 0.59 0.57 0.47 0.38 0.31 0.24 0.26 0.28 0.37 0.25 0.15 0.13 0.14 0.17 0.14 0.12 0.14 0.09
0.59 0.47 0.44 0.59 0.51 0.48 0.47 0.36 0.23 0.24 0.17 0.15 0.15 0.22 0.30 0.39 0.65 0.91 1.00 1.02 0.75 0.71 0.74 0.66 0.58 0.50 0.37 0.33 0.33 0.30 0.29 0.31 0.32 0.32 0.36 0.26 0.18 0.14 0.21 0.23 0.20 0.21 0.24
0.51 0.36 0.44 0.35 0.33 0.31 0.31 0.24 0.22 0.20 0.18 0.19 0.16 0.16 0.25 0.39 0.59 0.66 0.69 0.75 0.78 0.69 0.57 0.65 0.55 0.58 0.61 0.45 0.38 0.40 0.42 0.45 0.43 0.44 0.42 0.33 0.28 0.28 0.30 0.30 0.36 0.33 0.37
0.50 0.42 0.35 0.29 0.31 0.35 0.27 0.20 0.16 0.21 0.25 0.23 0.25 0.34 0.45 0.44 0.55 0.48 0.66 0.92 0.90 0.85 0.73 0.61 0.71 0.79 0.74 0.78 0.58 0.49 0.56 0.67 0.66 0.54 0.49 0.53 0.44 0.44 0.44 0.52 0.56 0.55 0.58
0.41 0.35 0.30 0.29 0.28 0.25 0.27 0.22 0.26 0.39 0.41 0.40 0.49 0.48 0.33 0.18 0.43 0.39 0.52 0.65 1.01 0.86 0.89 0.83 0.78 0.73 0.77 0.62 0.69 0.67 0.60 0.61 0.64 0.61 0.67 0.62 0.64 0.66 0.79 0.94 1.02 1.12 1.15
0.27 0.31 0.31 0.31 0.30 0.35 0.38 0.31 0.39 0.49 0.57 0.54 0.44 0.34 0.30 0.38 0.45 0.39 0.53 0.38 0.51 0.69 0.75 0.77 0.73 0.70 0.80 0.71 0.59 0.60 0.53 0.53 0.62 0.71 0.95 1.27 1.42 1.43 1.54 1.66 1.72 1.74 1.70
0.22 0.30 0.37 0.41 0.39 0.45 0.54 0.59 0.57 0.47 0.37 0.34 0.38 0.34 0.32 0.36 0.57 0.38 0.34 0.18 0.40 0.61 0.71 0.86 0.96 0.88 1.41 1.32 0.92 1.04 1.32 1.42 1.66 1.56 1.40 1.47 1.48 1.30 1.12 1.07 1.15 1.33 1.53
0.36 0.34 0.34 0.49 0.68 0.81 0.69 0.48 0.38 0.35 0.30 0.27 0.31 0.25 0.46 0.27 0.58 0.40 0.32 0.16 0.39 0.61 0.78 0.92 1.44 1.09 1.44 1.21 1.02 0.93 1.34 1.64 1.50 1.53 1.48 1.35 1.15 1.05 1.09 0.87 0.82 1.05 1.13
0.81 0.76 0.76 0.76 0.74 0.66 0.69 0.57 0.44 0.46 0.40 0.35 0.33 0.26 0.25 0.36 0.49 0.59 0.57 0.37 0.53 0.79 0.89 0.97 1.19 1.68 1.31 1.38 1.47 1.40 2.15 2.16 2.08 1.65 1.44 1.36 1.26 1.13 1.03 0.99 0.94 1.01 1.18
1.28 1.20 1.11 0.92 0.83 0.80 0.79 0.81 0.71 0.58 0.46 0.40 0.34 0.31 0.32 0.41 0.73 0.64 0.58 0.59 0.81 0.68 0.93 0.96 1.23 1.39 1.16 1.27 1.44 1.87 2.02 1.85 1.76 1.78 1.66 1.52 1.36 1.22 1.08 0.94 0.86 0.77 0.71
1.47 1.41 1.42 1.32 1.23 1.14 1.06 1.02 0.89 0.78 0.71 0.65 0.57 0.61 0.64 0.61 0.74 0.91 0.75 0.77 0.83 0.76 1.12 1.62 1.83 1.65 1.45 1.41 1.47 1.54 1.58 1.64 1.70 1.70 1.61 1.44 1.23 1.02 0.80 0.70 0.57 0.43 0.32
1.02 1.08 1.23 1.28 1.28 1.19 1.10 1.11 1.07 1.03 1.05 1.08 1.01 1.01 0.99 0.96 0.95 0.98 1.06 1.12 1.24 1.33 1.59 1.69 1.64 1.55 1.51 1.54 1.48 1.39 1.33 1.23 1.12 1.03 0.87 0.72 0.61 0.54 0.49 0.46 0.45 0.43 0.40
0.58 0.65 0.66 0.69 0.76 0.78 0.80 0.84 0.78 0.92 0.90 0.84 0.93 0.99 1.07 1.22 1.46 1.38 1.32 1.34 1.37 1.39 1.29 1.24 1.14 1.01 0.91 0.84 0.75 0.67 0.63 0.59 0.56 0.50 0.46 0.42 0.38 0.31 0.27 0.25 0.31 0.37 0.41
0.40 0.45 0.55 0.58 0.57 0.59 0.64 0.76 0.86 0.87 0.79 0.79 0.83 0.80 1.01 1.12 1.12 1.04 0.98 0.93 0.90 0.87 0.90 0.84 0.80 0.75 0.70 0.65 0.61 0.53 0.45 0.40 0.35 0.35 0.34 0.29 0.24 0.19 0.16 0.14 0.17 0.22 0.24
0.24 0.27 0.33 0.40 0.42 0.45 0.48 0.54 0.75 1.04 1.15 1.31 1.39 1.41 1.35 1.46 1.35 1.24 1.11 0.98 0.90 0.77 0.83 0.73 0.70 0.65 0.57 0.48 0.44 0.39 0.39 0.33 0.27 0.26 0.22 0.19 0.20 0.20 0.19 0.17 0.15 0.16 0.13
0.40 0.46 0.49 0.52 0.56 0.63 0.69 0.75 0.79 0.85 0.93 1.03 1.03 0.95 0.92 0.86 0.79 0.70 0.61 0.52 0.57 0.50 0.51 0.49 0.48 0.43 0.38 0.34 0.31 0.27 0.23 0.21 0.21 0.21 0.23 0.23 0.24 0.23 0.22 0.17 0.15 0.16 0.11
0.45 0.56 0.67 0.80 0.92 0.91 0.86 0.82 0.81 0.80 0.81 0.82 0.73 0.65 0.63 0.54 0.44 0.39 0.34 0.43 0.39 0.33 0.28 0.26 0.24 0.22 0.19 0.17 0.18 0.20 0.20 0.20 0.20 0.21 0.20 0.21 0.21 0.23 0.20 0.19 0.19 0.17 0.16
0.80 0.96 0.94 0.95 0.94 0.89 0.81 0.73 0.68 0.64 0.61 0.58 0.55 0.54 0.44 0.32 0.31 0.27 0.25 0.27 0.28 0.25 0.19 0.19 0.16 0.16 0.18 0.19 0.19 0.19 0.17 0.15 0.17 0.19 0.20 0.20 0.18 0.21 0.23 0.20 0.17 0.17 0.13
0.74 0.73 0.67 0.61 0.57 0.55 0.50 0.45 0.40 0.37 0.35 0.31 0.31 0.27 0.21 0.23 0.25 0.22 0.20 0.20 0.21 0.21 0.21 0.21 0.18 0.16 0.15 0.14 0.15 0.15 0.15 0.14 0.16 0.17 0.17 0.17 0.21 0.21 0.17 0.17 0.16 0.15 0.12
0.46 0.42 0.36 0.34 0.34 0.32 0.28 0.23 0.23 0.23 0.23 0.22 0.20 0.17 0.16 0.19 0.19 0.21 0.23 0.25 0.24 0.23 0.24 0.22 0.18 0.16 0.16 0.18 0.17 0.19 0.15 0.13 0.12 0.14 0.15 0.13 0.13 0.14 0.14 0.15 0.15 0.16 0.14
0.25 0.24 0.22 0.21 0.20 0.18 0.17 0.17 0.22 0.25 0.27 0.29 0.30 0.27 0.22 0.26 0.27 0.25 0.26 0.24 0.24 0.24 0.19 0.21 0.21 0.17 0.15 0.16 0.18 0.22 0.20 0.14 0.14 0.17 0.19 0.16 0.12 0.12 0.13 0.14 0.14 0.16 0.16
0.14 0.15 0.15 0.16 0.18 0.24 0.28 0.28 0.27 0.26 0.28 0.29 0.25 0.22 0.23 0.21 0.21 0.22 0.21 0.20 0.21 0.22 0.24 0.27 0.27 0.25 0.22 0.21 0.22 0.21 0.20 0.19 0.24 0.24 0.24 0.20 0.13 0.11 0.14 0.14 0.12 0.13 0.15
0.17 0.21 0.23 0.26 0.27 0.25 0.23 0.23 0.26 0.25 0.23 0.21 0.20 0.18 0.16 0.15 0.13 0.11 0.10 0.11 0.11 0.11 0.11 0.11 0.13 0.13 0.13 0.15 0.19 0.16 0.16 0.19 0.22 0.22 0.30 0.28 0.21 0.16 0.15 0.15 0.15 0.16 0.15
0.13 0.17 0.17 0.16 0.19 0.22 0.25 0.23 0.21 0.19 0.18 0.16 0.16 0.16 0.15 0.13 0.11 0.09 0.07 0.07 0.08 0.07 0.07 0.09 0.09 0.08 0.09 0.11 0.13 0.16 0.13 0.13 0.19 0.24 0.31 0.32 0.28 0.23 0.22 0.21 0.18 0.20 0.15

GFSGL_prec_precacc_108.txt.gz
Total_Precipitation_Accumulation
0.47 0.31 0.29 0.43 0.66 0.57 0.47 0.43 0.42 0.59 0.83 0.89 0.91 0.87 0.85 0.86 0.90 0.95 0.79 0.70 0.72 0.71 0.68 0.68 0.56 0.49 0.48 0.47 0.51 0.56 0.57 0.62 0.61 0.28 0.16 0.15 0.18 0.12 0.07 0.05 0.07 0.06 0.06
0.62 0.55 0.73 0.88 1.03 0.94 0.79 0.91 0.64 0.37 0.34 0.37 0.49 0.67 0.67 0.88 0.92 1.01 0.99 0.80 0.76 0.93 0.95 0.88 0.80 0.76 0.75 0.61 0.57 0.48 0.40 0.34 0.41 0.34 0.15 0.11 0.11 0.14 0.13 0.09 0.07 0.06 0.09
0.88 0.93 0.90 0.87 0.95 1.09 0.93 0.68 0.50 0.35 0.31 0.25 0.29 0.37 0.42 0.60 0.91 0.96 1.02 0.94 1.01 1.04 0.98 0.88 0.74 0.74 0.74 0.57 0.43 0.34 0.27 0.29 0.31 0.40 0.27 0.15 0.13 0.14 0.17 0.14 0.12 0.14 0.09
0.66 0.59 0.53 0.71 0.62 0.60 0.61 0.51 0.35 0.31 0.21 0.18 0.16 0.22 0.30 0.40 0.65 0.91 1.00 1.02 0.76 0.72 0.77 0.73 0.72 0.65 0.50 0.47 0.43 0.35 0.34 0.39 0.39 0.38 0.40 0.28 0.19 0.15 0.23 0.24 0.21 0.21 0.25
0.56 0.42 0.55 0.47 0.55 0.53 0.51 0.35 0.30 0.24 0.19 0.20 0.17 0.16 0.25 0.40 0.59 0.66 0.69 0.75 0.78 0.69 0.59 0.70 0.70 0.80 0.79 0.61 0.48 0.48 0.47 0.53 0.54 0.54 0.50 0.38 0.32 0.31 0.33 0.33 0.40 0.38 0.42
0.59 0.61 0.48 0.53 0.42 0.45 0.38 0.25 0.23 0.22 0.26 0.24 0.25 0.35 0.46 0.45 0.56 0.49 0.66 0.92 0.91 0.91 0.83 0.72 0.90 1.03 0.94 1.03 0.78 0.66 0.70 0.78 0.73 0.62 0.58 0.59 0.47 0.47 0.51 0.62 0.69 0.63 0.63
0.69 0.82 0.62 0.72 0.53 0.31 0.30 0.24 0.27 0.40 0.43 0.42 0.50 0.49 0.34 0.19 0.44 0.40 0.53 0.65 1.03 0.96 1.09 1.03 0.95 0.95 0.99 0.86 0.98 0.92 0.85 0.86 0.84 0.75 0.79 0.72 0.71 0.70 0.85 1.05 1.15 1.21 1.20
0.28 0.41 0.59 0.65 0.54 0.44 0.40 0.33 0.40 0.51 0.60 0.56 0.46 0.35 0.31 0.39 0.46 0.40 0.55 0.38 0.51 0.73 0.82 0.90 0.97 0.94 1.01 0.95 0.84 0.90 0.86 0.90 0.96 0.97 1.18 1.46 1.59 1.60 1.70 1.77 1.83 1.88 1.84
0.22 0.30 0.40 0.49 0.55 0.55 0.59 0.62 0.62 0.51 0.40 0.37 0.39 0.35 0.33 0.36 0.58 0.38 0.36 0.19 0.40 0.63 0.78 0.98 1.20 1.16 1.78 1.70 1.23 1.41 1.71 1.81 2.09 1.94 1.69 1.74 1.69 1.49 1.30 1.22 1.31 1.47 1.66
0.37 0.36 0.35 0.50 0.69 0.84 0.75 0.56 0.45 0.41 0.38 0.32 0.34 0.26 0.48 0.29 0.60 0.42 0.37 0.17 0.40 0.61 0.79 0.98 1.58 1.29 1.77 1.66 1.45 1.32 1.74 2.03 1.82 1.82 1.76 1.61 1.36 1.22 1.27 1.03 1.00 1.24 1.29
0.81 0.77 0.77 0.77 0.75 0.68 0.72 0.66 0.65 0.69 0.61 0.52 0.47 0.33 0.28 0.38 0.51 0.61 0.59 0.39 0.56 0.82 0.90 0.98 1.21 1.72 1.42 1.62 1.79 1.68 2.39 2.39 2.29 1.84 1.66 1.56 1.45 1.30 1.19 1.13 1.08 1.14 1.29
1.28 1.20 1.12 0.93 0.83 0.81 0.81 0.85 0.78 0.75 0.74 0.70 0.60 0.47 0.40 0.45 0.78 0.69 0.62 0.62 0.85 0.72 0.98 1.00 1.26 1.41 1.18 1.31 1.53 2.02 2.19 2.03 1.94 1.98 1.86 1.72 1.52 1.35 1.21 1.07 0.98 0.87 0.80
1.47 1.41 1.42 1.32 1.23 1.14 1.06 1.04 0.93 0.84 0.79 0.81 0.78 0.83 0.83 0.75 0.83 0.98 0.81 0.82 0.85 0.77 1.16 1.69 1.89 1.69 1.50 1.47 1.54 1.59 1.63 1.68 1.76 1.79 1.72 1.56 1.34 1.11 0.85 0.72 0.61 0.48 0.38
1.02 1.08 1.23 1.28 1.28 1.19 1.10 1.11 1.08 1.06 1.10 1.15 1.10 1.11 1.11 1.09 1.06 1.07 1.14 1.22 1.31 1.39 1.64 1.73 1.67 1.57 1.53 1.60 1.55 1.46 1.39 1.28 1.16 1.08 0.94 0.82 0.71 0.62 0.55 0.49 0.47 0.45 0.41
0.58 0.65 0.66 0.69 0.76 0.79 0.80 0.85 0.79 0.96 0.93 0.89 0.99 1.07 1.15 1.32 1.59 1.51 1.44 1.45 1.47 1.49 1.38 1.31 1.19 1.05 0.94 0.89 0.80 0.73 0.70 0.66 0.63 0.59 0.54 0.49 0.44 0.37 0.31 0.28 0.34 0.39 0.43
0.40 0.45 0.55 0.58 0.57 0.59 0.64 0.76 0.86 0.88 0.81 0.81 0.87 0.84 1.07 1.20 1.20 1.12 1.06 1.01 0.98 0.94 0.94 0.90 0.85 0.80 0.75 0.71 0.67 0.60 0.51 0.46 0.40 0.38 0.37 0.32 0.26 0.21 0.17 0.15 0.19 0.23 0.25
0.24 0.27 0.33 0.40 0.42 0.45 0.48 0.54 0.75 1.04 1.15 1.32 1.40 1.42 1.37 1.49 1.39 1.28 1.16 1.03 0.94 0.80 0.86 0.77 0.74 0.69 0.61 0.53 0.49 0.44 0.43 0.38 0.30 0.27 0.24 0.21 0.22 0.22 0.20 0.18 0.16 0.17 0.15
0.40 0.46 0.49 0.52 0.56 0.63 0.69 0.75 0.79 0.85 0.93 1.03 1.03 0.95 0.92 0.86 0.80 0.71 0.62 0.53 0.58 0.51 0.53 0.52 0.51 0.46 0.41 0.36 0.33 0.29 0.25 0.23 0.23 0.22 0.23 0.23 0.25 0.24 0.22 0.18 0.16 0.16 0.11
0.45 0.56 0.67 0.80 0.92 0.91 0.86 0.82 0.81 0.80 0.81 0.82 0.73 0.65 0.63 0.55 0.44 0.39 0.34 0.43 0.39 0.34 0.28 0.26 0.24 0.23 0.19 0.17 0.18 0.20 0.20 0.20 0.20 0.21 0.20 0.21 0.21 0.23 0.20 0.19 0.19 0.17 0.16
0.80 0.96 0.94 0.95 0.94 0.89 0.81 0.73 0.68 0.64 0.61 0.58 0.55 0.54 0.44 0.32 0.31 0.27 0.25 0.27 0.28 0.26 0.20 0.19 0.16 0.16 0.18 0.19 0.19 0.19 0.17 0.15 0.17 0.19 0.20 0.20 0.18 0.21 0.23 0.20 0.17 0.17 0.13
0.74 0.73 0.67 0.61 0.57 0.55 0.50 0.45 0.40 0.37 0.35 0.31 0.31 0.27 0.21 0.23 0.25 0.22 0.21 0.20 0.21 0.21 0.22 0.21 0.18 0.16 0.15 0.14 0.15 0.15 0.15 0.14 0.16 0.17 0.17 0.17 0.21 0.21 0.17 0.17 0.16 0.15 0.12
0.46 0.42 0.36 0.34 0.34 0.32 0.28 0.23 0.23 0.23 0.23 0.22 0.20 0.17 0.16 0.19 0.19 0.21 0.23 0.25 0.24 0.23 0.24 0.22 0.18 0.16 0.16 0.18 0.17 0.19 0.15 0.13 0.12 0.14 0.15 0.13 0.13 0.14 0.14 0.15 0.15 0.16 0.14
0.25 0.24 0.22 0.21 0.20 0.19 0.17 0.18 0.23 0.25 0.27 0.29 0.30 0.27 0.22 0.26 0.27 0.25 0.26 0.24 0.24 0.24 0.19 0.21 0.21 0.17 0.15 0.16 0.18 0.22 0.20 0.14 0.14 0.17 0.19 0.16 0.12 0.12 0.13 0.14 0.14 0.16 0.16
0.14 0.15 0.15 0.16 0.18 0.24 0.28 0.28 0.27 0.26 0.29 0.29 0.25 0.23 0.23 0.21 0.21 0.22 0.21 0.20 0.21 0.22 0.24 0.27 0.27 0.25 0.22 0.21 0.22 0.21 0.20 0.19 0.24 0.24 0.24 0.20 0.13 0.11 0.14 0.14 0.12 0.13 0.15
0.17 0.21 0.23 0.26 0.27 0.25 0.23 0.23 0.26 0.25 0.23 0.21 0.20 0.18 0.16 0.15 0.13 0.11 0.10 0.11 0.11 0.11 0.11 0.11 0.13 0.13 0.13 0.15 0.19 0.16 0.16 0.19 0.22 0.22 0.30 0.28 0.21 0.16 0.15 0.15 0.15 0.16 0.15
0.13 0.17 0.17 0.16 0.19 0.22 0.25 0.24 0.22 0.19 0.18 0.17 0.16 0.16 0.15 0.13 0.11 0.09 0.07 0.07 0.08 0.07 0.07 0.09 0.09 0.08 0.09 0.11 0.13 0.16 0.13 0.13 0.19 0.24 0.31 0.32 0.28 0.23 0.22 0.21 0.18 0.20 0.15

GFSGL_prec_precacc_111.txt.gz
Total_Precipitation_Accumulation
0.58 0.41 0.37 0.48 0.71 0.62 0.50 0.44 0.43 0.61 0.85 0.90 0.91 0.88 0.87 0.88 0.92 0.98 0.82 0.74 0.75 0.73 0.70 0.70 0.57 0.50 0.49 0.47 0.52 0.57 0.59 0.64 0.65 0.29 0.17 0.17 0.20 0.14 0.08 0.05 0.07 0.06 0.06
0.73 0.63 0.80 0.93 1.08 1.01 0.86 0.96 0.67 0.41 0.38 0.41 0.53 0.68 0.69 0.90 0.94 1.02 1.01 0.82 0.78 0.94 0.96 0.88 0.80 0.77 0.76 0.61 0.57 0.49 0.42 0.36 0.45 0.38 0.17 0.14 0.14 0.15 0.13 0.09 0.07 0.06 0.09
1.03 1.10 1.06 1.02 1.08 1.15 0.99 0.76 0.58 0.45 0.42 0.40 0.41 0.44 0.44 0.61 0.92 0.97 1.02 0.95 1.02 1.05 0.99 0.90 0.77 0.77 0.76 0.59 0.46 0.38 0.30 0.31 0.35 0.47 0.35 0.21 0.15 0.15 0.17 0.14 0.12 0.14 0.09
0.74 0.70 0.70 0.85 0.81 0.76 0.72 0.58 0.43 0.42 0.34 0.31 0.25 0.28 0.32 0.41 0.65 0.92 1.00 1.02 0.76 0.72 0.77 0.74 0.74 0.69 0.55 0.52 0.50 0.40 0.40 0.45 0.45 0.43 0.48 0.38 0.27 0.17 0.23 0.24 0.21 0.21 0.25
0.59 0.46 0.62 0.59 0.63 0.62 0.57 0.42 0.37 0.32 0.27 0.27 0.23 0.19 0.27 0.40 0.60 0.67 0.69 0.75 0.78 0.69 0.59 0.70 0.70 0.81 0.82 0.64 0.55 0.57 0.55 0.63 0.67 0.67 0.63 0.46 0.40 0.36 0.35 0.34 0.41 0.38 0.42
0.65 0.64 0.51 0.66 0.60 0.56 0.53 0.48 0.37 0.40 0.35 0.34 0.33 0.40 0.47 0.46 0.58 0.50 0.67 0.93 0.92 0.91 0.83 0.72 0.90 1.06 0.98 1.07 0.85 0.75 0.80 0.87 0.84 0.72 0.70 0.70 0.54 0.51 0.54 0.67 0.74 0.65 0.63
0.73 1.03 0.91 0.89 0.99 0.76 0.46 0.44 0.43 0.59 0.56 0.53 0.57 0.51 0.36 0.20 0.46 0.41 0.55 0.66 1.03 0.96 1.09 1.03 0.95 0.99 1.10 0.98 1.19 1.22 1.16 1.11 0.98 0.85 0.88 0.79 0.77 0.75 0.89 1.13 1.24 1.28 1.25
0.29 0.53 0.89 0.95 1.15 1.18 0.86 0.57 0.66 0.63 0.72 0.60 0.48 0.37 0.33 0.41 0.47 0.41 0.57 0.39 0.52 0.73 0.82 0.90 0.97 0.96 1.07 1.07 1.04 1.15 1.16 1.23 1.29 1.23 1.34 1.61 1.73 1.74 1.88 1.93 1.95 2.01 2.01
0.23 0.32 0.46 0.74 0.82 0.95 1.09 0.96 0.72 0.57 0.43 0.38 0.41 0.36 0.34 0.37 0.59 0.40 0.37 0.19 0.41 0.64 0.78 0.98 1.20 1.18 1.87 1.85 1.44 1.62 1.93 2.04 2.40 2.26 1.99 2.02 1.96 1.80 1.63 1.48 1.51 1.67 1.89
0.39 0.37 0.36 0.51 0.74 0.96 1.00 0.86 0.63 0.48 0.45 0.37 0.38 0.29 0.50 0.30 0.63 0.46 0.40 0.18 0.42 0.62 0.80 0.99 1.59 1.31 1.81 1.73 1.55 1.46 1.94 2.32 2.17 2.25 2.20 1.99 1.79 1.65 1.68 1.40 1.31 1.50 1.50
0.82 0.77 0.77 0.77 0.76 0.70 0.73 0.69 0.70 0.74 0.69 0.66 0.61 0.47 0.40 0.48 0.57 0.65 0.64 0.43 0.58 0.83 0.92 0.99 1.22 1.75 1.45 1.67 1.87 1.81 2.60 2.66 2.65 2.26 2.06 1.93 1.74 1.58 1.48 1.42 1.35 1.39 1.54
1.28 1.20 1.12 0.93 0.83 0.81 0.81 0.85 0.78 0.75 0.75 0.72 0.66 0.61 0.59 0.65 0.98 0.85 0.70 0.66 0.89 0.73 0.99 1.02 1.30 1.44 1.22 1.37 1.59 2.09 2.27 2.12 2.07 2.17 2.07 1.93 1.74 1.56 1.42 1.29 1.22 1.11 1.02
1.47 1.41 1.42 1.32 1.23 1.14 1.06 1.04 0.93 0.84 0.79 0.81 0.79 0.85 0.89 0.83 0.94 1.10 0.93 0.91 0.92 0.82 1.21 1.74 1.93 1.72 1.54 1.51 1.59 1.64 1.65 1.70 1.78 1.82 1.78 1.67 1.49 1.32 1.06 0.91 0.77 0.64 0.55
1.02 1.08 1.23 1.28 1.28 1.20 1.10 1.11 1.08 1.06 1.10 1.15 1.10 1.12 1.12 1.10 1.09 1.10 1.19 1.27 1.38 1.45 1.69 1.77 1.70 1.61 1.56 1.64 1.59 1.50 1.43 1.34 1.22 1.11 0.97 0.86 0.76 0.70 0.65 0.60 0.59 0.56 0.49
0.58 0.65 0.66 0.69 0.76 0.79 0.80 0.86 0.80 0.98 0.94 0.90 1.01 1.08 1.16 1.33 1.62 1.52 1.46 1.48 1.50 1.55 1.44 1.37 1.25 1.10 1.00 0.96 0.88 0.80 0.76 0.73 0.71 0.68 0.63 0.57 0.51 0.42 0.37 0.33 0.40 0.45 0.49
0.40 0.45 0.55 0.58 0.57 0.59 0.64 0.76 0.86 0.88 0.81 0.82 0.87 0.85 1.07 1.22 1.21 1.13 1.07 1.03 1.00 0.98 0.98 0.94 0.92 0.88 0.84 0.80 0.77 0.72 0.63 0.58 0.53 0.50 0.48 0.42 0.37 0.32 0.28 0.23 0.26 0.31 0.32
0.24 0.27 0.33 0.40 0.42 0.45 0.48 0.54 0.75 1.04 1.15 1.32 1.40 1.43 1.37 1.50 1.39 1.28 1.17 1.04 0.95 0.81 0.88 0.79 0.76 0.73 0.66 0.59 0.55 0.51 0.50 0.46 0.38 0.35 0.31 0.27 0.27 0.26 0.24 0.21 0.19 0.20 0.17
0.40 0.46 0.49 0.52 0.56 0.63 0.69 0.75 0.79 0.85 0.93 1.03 1.03 0.95 0.92 0.86 0.80 0.71 0.62 0.53 0.58 0.51 0.54 0.53 0.52 0.47 0.42 0.38 0.35 0.32 0.29 0.27 0.27 0.26 0.27 0.27 0.27 0.26 0.24 0.20 0.17 0.18 0.12
0.45 0.56 0.67 0.80 0.92 0.91 0.86 0.82 0.81 0.80 0.81 0.82 0.73 0.65 0.63 0.55 0.44 0.39 0.34 0.43 0.39 0.34 0.28 0.26 0.24 0.23 0.19 0.17 0.18 0.20 0.20 0.21 0.20 0.21 0.20 0.21 0.21 0.23 0.20 0.19 0.20 0.17 0.16
0.80 0.96 0.94 0.95 0.94 0.89 0.81 0.73 0.68 0.64 0.61 0.58 0.55 0.54 0.44 0.32 0.31 0.27 0.25 0.27 0.28 0.26 0.20 0.19 0.16 0.16 0.18 0.19 0.19 0.19 0.17 0.15 0.17 0.19 0.20 0.20 0.18 0.21 0.23 0.20 0.17 0.17 0.13
0.74 0.73 0.67 0.61 0.57 0.55 0.50 0.45 0.40 0.37 0.35 0.31 0.31 0.27 0.21 0.23 0.25 0.22 0.21 0.20 0.21 0.21 0.22 0.21 0.18 0.16 0.15 0.14 0.15 0.15 0.15 0.14 0.16 0.17 0.17 0.17 0.21 0.21 0.17 0.17 0.16 0.15 0.12
0.46 0.42 0.36 0.34 0.34 0.32 0.28 0.23 0.23 0.23 0.23 0.22 0.20 0.17 0.16 0.19 0.19 0.21 0.23 0.25 0.24 0.23 0.24 0.22 0.18 0.16 0.16 0.18 0.17 0.19 0.15 0.13 0.12 0.14 0.15 0.13 0.13 0.14 0.14 0.15 0.15 0.16 0.14
0.25 0.24 0.22 0.21 0.20 0.19 0.17 0.18 0.23 0.25 0.27 0.29 0.30 0.27 0.22 0.26 0.27 0.25 0.26 0.24 0.24 0.24 0.19 0.21 0.21 0.17 0.15 0.16 0.18 0.22 0.20 0.14 0.14 0.17 0.19 0.16 0.12 0.12 0.13 0.14 0.14 0.16 0.16
0.14 0.15 0.15 0.16 0.18 0.24 0.28 0.28 0.27 0.26 0.29 0.29 0.25 0.23 0.23 0.21 0.21 0.22 0.21 0.20 0.21 0.22 0.24 0.27 0.27 0.25 0.22 0.21 0.22 0.21 0.20 0.19 0.24 0.24 0.24 0.20 0.13 0.11 0.14 0.14 0.12 0.13 0.15
0.17 0.21 0.23 0.26 0.27 0.25 0.23 0.23 0.26 0.25 0.23 0.21 0.20 0.18 0.16 0.15 0.13 0.12 0.10 0.11 0.11 0.11 0.11 0.11 0.13 0.13 0.13 0.15 0.19 0.16 0.16 0.19 0.22 0.22 0.30 0.28 0.21 0.16 0.15 0.15 0.15 0.16 0.15
0.13 0.17 0.17 0.16 0.19 0.22 0.25 0.24 0.22 0.19 0.18 0.17 0.16 0.16 0.15 0.13 0.11 0.10 0.07 0.07 0.08 0.07 0.07 0.09 0.09 0.08 0.09 0.11 0.13 0.16 0.13 0.13 0.19 0.24 0.31 0.32 0.28 0.23 0.22 0.21 0.18 0.20 0.15

GFSGL_prec_precacc_114.txt.gz
Total_Precipitation_Accumulation
0.68 0.52 0.44 0.51 0.77 0.67 0.54 0.46 0.46 0.67 0.90 0.91 0.92 0.89 0.90 0.95 0.96 1.02 0.87 0.79 0.79 0.74 0.71 0.71 0.58 0.51 0.49 0.48 0.52 0.58 0.60 0.65 0.67 0.30 0.18 0.17 0.22 0.16 0.10 0.08 0.08 0.07 0.06
0.80 0.75 0.92 1.04 1.17 1.09 0.93 1.02 0.73 0.50 0.43 0.42 0.55 0.71 0.73 1.00 1.06 1.12 1.08 0.85 0.81 0.96 0.98 0.91 0.82 0.79 0.77 0.63 0.59 0.50 0.43 0.38 0.46 0.38 0.19 0.15 0.15 0.16 0.15 0.11 0.08 0.06 0.09
1.07 1.22 1.22 1.16 1.17 1.26 1.06 0.81 0.68 0.61 0.54 0.50 0.55 0.56 0.57 0.73 1.01 1.05 1.08 0.98 1.04 1.06 1.01 0.92 0.79 0.80 0.79 0.62 0.50 0.40 0.31 0.32 0.36 0.48 0.35 0.22 0.17 0.18 0.27 0.25 0.17 0.16 0.10
0.77 0.77 0.84 1.04 0.98 0.90 0.85 0.74 0.57 0.57 0.50 0.47 0.40 0.41 0.42 0.47 0.69 0.94 1.02 1.03 0.77 0.73 0.78 0.74 0.74 0.70 0.56 0.54 0.53 0.44 0.43 0.48 0.46 0.45 0.50 0.39 0.29 0.21 0.28 0.33 0.34 0.31 0.28
0.66 0.54 0.68 0.70 0.76 0.78 0.75 0.54 0.47 0.40 0.34 0.34 0.27 0.24 0.32 0.44 0.62 0.68 0.70 0.76 0.79 0.70 0.59 0.71 0.70 0.81 0.82 0.65 0.58 0.61 0.62 0.70 0.73 0.75 0.71 0.52 0.44 0.41 0.42 0.39 0.45 0.41 0.44
0.97 0.86 0.57 0.82 0.82 0.66 0.67 0.58 0.44 0.46 0.41 0.38 0.37 0.44 0.52 0.49 0.60 0.52 0.68 0.94 0.92 0.91 0.83 0.72 0.90 1.06 0.98 1.07 0.85 0.77 0.85 0.94 0.91 0.80 0.77 0.78 0.57 0.53 0.57 0.71 0.79 0.70 0.67
0.80 1.37 1.11 1.04 1.42 1.04 0.70 0.73 0.58 0.68 0.66 0.62 0.70 0.66 0.48 0.28 0.52 0.45 0.57 0.66 1.03 0.97 1.10 1.03 0.95 0.99 1.10 0.98 1.19 1.23 1.24 1.30 1.16 0.97 0.98 0.86 0.82 0.80 0.96 1.22 1.32 1.30 1.28
0.32 0.67 1.18 1.19 1.40 1.61 1.39 0.99 1.02 0.92 0.95 0.75 0.66 0.54 0.45 0.49 0.57 0.48 0.60 0.39 0.52 0.73 0.82 0.90 0.97 0.96 1.07 1.07 1.04 1.16 1.20 1.30 1.41 1.44 1.57 1.79 1.87 1.83 1.98 2.08 2.14 2.17 2.19
0.24 0.37 0.54 0.93 1.12 1.26 1.50 1.54 1.17 1.00 0.77 0.64 0.53 0.48 0.39 0.39 0.61 0.41 0.39 0.20 0.42 0.65 0.78 0.99 1.20 1.18 1.87 1.85 1.44 1.65 1.99 2.13 2.51 2.49 2.35 2.32 2.23 2.07 1.89 1.79 1.99 2.00 2.22
0.40 0.38 0.36 0.51 0.76 1.05 1.25 1.23 1.14 0.88 0.74 0.63 0.53 0.39 0.60 0.37 0.71 0.51 0.43 0.20 0.44 0.64 0.81 1.00 1.61 1.31 1.82 1.73 1.55 1.47 1.95 2.36 2.23 2.34 2.40 2.26 2.12 2.07 2.19 1.86 1.65 1.75 1.76
0.82 0.77 0.77 0.77 0.76 0.70 0.74 0.70 0.73 0.83 0.79 0.76 0.79 0.68 0.53 0.59 0.68 0.73 0.70 0.47 0.62 0.86 0.95 1.02 1.24 1.77 1.46 1.68 1.88 1.82 2.61 2.68 2.69 2.32 2.18 2.13 2.03 1.93 1.88 1.83 1.73 1.76 1.83
1.28 1.20 1.12 0.93 0.83 0.81 0.81 0.85 0.78 0.76 0.75 0.72 0.66 0.62 0.61 0.68 1.02 0.90 0.80 0.78 1.00 0.79 1.05 1.07 1.34 1.47 1.23 1.39 1.62 2.13 2.30 2.15 2.09 2.21 2.14 2.04 1.90 1.80 1.72 1.63 1.54 1.42 1.34
1.47 1.41 1.42 1.32 1.23 1.14 1.06 1.04 0.93 0.84 0.79 0.81 0.79 0.85 0.89 0.84 0.94 1.10 0.95 0.95 0.97 0.88 1.29 1.83 1.98 1.74 1.55 1.53 1.62 1.67 1.68 1.71 1.80 1.84 1.82 1.75 1.62 1.48 1.27 1.15 1.03 0.91 0.83
1.02 1.08 1.23 1.28 1.28 1.20 1.11 1.12 1.08 1.07 1.10 1.15 1.11 1.12 1.13 1.11 1.09 1.11 1.20 1.28 1.38 1.45 1.71 1.79 1.73 1.64 1.60 1.68 1.63 1.54 1.48 1.39 1.26 1.16 1.03 0.90 0.79 0.73 0.69 0.65 0.67 0.72 0.71
0.58 0.65 0.66 0.69 0.76 0.79 0.80 0.86 0.81 0.99 0.95 0.90 1.01 1.09 1.17 1.35 1.64 1.53 1.47 1.48 1.51 1.55 1.45 1.37 1.25 1.11 1.01 0.97 0.90 0.84 0.82 0.80 0.78 0.76 0.71 0.66 0.59 0.49 0.43 0.39 0.46 0.52 0.58
0.40 0.45 0.55 0.58 0.57 0.59 0.64 0.76 0.86 0.88 0.81 0.82 0.87 0.85 1.08 1.23 1.21 1.13 1.07 1.03 1.00 0.98 0.98 0.94 0.92 0.89 0.84 0.81 0.79 0.74 0.68 0.64 0.61 0.58 0.57 0.51 0.46 0.42 0.39 0.34 0.36 0.39 0.40
0.24 0.27 0.33 0.40 0.42 0.45 0.48 0.54 0.75 1.04 1.15 1.32 1.40 1.43 1.37 1.50 1.39 1.28 1.17 1.04 0.95 0.81 0.88 0.79 0.77 0.73 0.66 0.59 0.56 0.52 0.53 0.49 0.43 0.40 0.37 0.34 0.35 0.34 0.31 0.28 0.25 0.25 0.23
0.40 0.46 0.49 0.52 0.56 0.63 0.69 0.75 0.79 0.85 0.93 1.03 1.03 0.95 0.92 0.86 0.80 0.71 0.62 0.53 0.58 0.51 0.54 0.53 0.52 0.47 0.43 0.39 0.36 0.33 0.30 0.29 0.29 0.28 0.30 0.31 0.31 0.31 0.29 0.25 0.22 0.22 0.16
0.45 0.56 0.67 0.80 0.92 0.91 0.86 0.82 0.81 0.80 0.81 0.82 0.73 0.65 0.63 0.55 0.44 0.39 0.34 0.43 0.39 0.34 0.28 0.26 0.24 0.23 0.19 0.17 0.19 0.20 0.21 0.21 0.21 0.22 0.21 0.22 0.22 0.23 0.21 0.20 0.20 0.18 0.16
0.80 0.96 0.94 0.95 0.94 0.89 0.81 0.73 0.68 0.64 0.61 0.58 0.55 0.54 0.44 0.32 0.31 0.27 0.25 0.27 0.29 0.26 0.20 0.19 0.16 0.16 0.18 0.19 0.19 0.19 0.17 0.15 0.17 0.19 0.20 0.20 0.19 0.21 0.23 0.20 0.17 0.17 0.13
0.74 0.73 0.67 0.61 0.58 0.55 0.51 0.45 0.40 0.37 0.35 0.31 0.32 0.27 0.21 0.23 0.25 0.22 0.21 0.20 0.21 0.21 0.22 0.21 0.18 0.17 0.15 0.14 0.15 0.15 0.15 0.14 0.16 0.17 0.17 0.17 0.21 0.21 0.17 0.17 0.16 0.15 0.12
0.46 0.42 0.36 0.34 0.34 0.32 0.28 0.24 0.24 0.24 0.23 0.22 0.21 0.17 0.16 0.19 0.19 0.21 0.23 0.25 0.24 0.24 0.24 0.22 0.18 0.16 0.16 0.18 0.17 0.19 0.15 0.13 0.12 0.14 0.15 0.13 0.13 0.14 0.14 0.15 0.15 0.16 0.14
0.25 0.24 0.22 0.21 0.20 0.19 0.17 0.18 0.23 0.26 0.28 0.30 0.30 0.27 0.22 0.27 0.27 0.25 0.26 0.25 0.24 0.24 0.20 0.21 0.21 0.17 0.15 0.16 0.18 0.22 0.20 0.14 0.14 0.17 0.19 0.16 0.12 0.12 0.13 0.14 0.14 0.16 0.16
0.14 0.15 0.15 0.16 0.18 0.24 0.28 0.28 0.27 0.27 0.29 0.30 0.26 0.23 0.23 0.22 0.22 0.22 0.21 0.20 0.21 0.22 0.24 0.27 0.28 0.25 0.22 0.21 0.22 0.21 0.20 0.19 0.24 0.24 0.24 0.21 0.13 0.11 0.14 0.14 0.12 0.13 0.15
0.17 0.21 0.24 0.27 0.27 0.25 0.23 0.23 0.26 0.26 0.24 0.22 0.21 0.19 0.17 0.16 0.13 0.12 0.11 0.11 0.12 0.12 0.12 0.12 0.13 0.13 0.13 0.15 0.19 0.16 0.16 0.19 0.22 0.22 0.30 0.28 0.21 0.16 0.15 0.15 0.15 0.16 0.15
0.13 0.17 0.17 0.16 0.19 0.23 0.26 0.24 0.22 0.20 0.19 0.17 0.17 0.17 0.16 0.14 0.12 0.10 0.08 0.08 0.08 0.08 0.07 0.09 0.09 0.09 0.09 0.12 0.13 0.16 0.13 0.13 0.19 0.24 0.31 0.32 0.28 0.23 0.22 0.21 0.18 0.20 0.15

GFSGL_prec_precacc_117.txt.gz
Total_Precipitation_Accumulation
0.69 0.54 0.46 0.53 0.78 0.72 0.61 0.53 0.54 0.85 1.08 1.01 0.97 0.90 0.91 0.97 0.98 1.06 0.90 0.84 0.87 0.78 0.74 0.73 0.59 0.52 0.50 0.50 0.56 0.60 0.61 0.67 0.68 0.30 0.18 0.18 0.24 0.17 0.11 0.08 0.09 0.10 0.07
0.88 0.79 0.99 1.13 1.22 1.16 1.12 1.24 0.96 0.71 0.66 0.58 0.69 0.79 0.75 1.02 1.10 1.16 1.12 0.94 0.94 1.06 1.05 0.98 0.85 0.81 0.79 0.65 0.62 0.52 0.44 0.39 0.48 0.39 0.20 0.16 0.16 0.17 0.15 0.11 0.09 0.08 0.11
1.14 1.28 1.32 1.26 1.26 1.33 1.27 1.10 0.86 0.82 0.82 0.76 0.82 0.81 0.69 0.83 1.13 1.18 1.20 1.12 1.20 1.23 1.09 0.99 0.83 0.85 0.84 0.68 0.56 0.46 0.35 0.34 0.39 0.50 0.36 0.23 0.18 0.19 0.27 0.25 0.19 0.20 0.15
0.90 0.81 0.89 1.12 1.08 1.06 0.99 0.89 0.73 0.74 0.71 0.70 0.55 0.49 0.49 0.52 0.72 0.98 1.08 1.11 0.82 0.79 0.82 0.81 0.81 0.75 0.58 0.56 0.55 0.46 0.45 0.50 0.48 0.47 0.51 0.40 0.30 0.21 0.29 0.34 0.37 0.40 0.44
1.10 0.73 0.76 0.78 0.84 0.96 0.94 0.70 0.63 0.59 0.55 0.54 0.46 0.40 0.45 0.52 0.70 0.76 0.77 0.82 0.85 0.75 0.63 0.74 0.74 0.83 0.83 0.65 0.58 0.61 0.62 0.71 0.75 0.77 0.73 0.54 0.45 0.42 0.43 0.40 0.47 0.46 0.50
1.21 1.30 0.75 1.00 0.94 0.72 0.76 0.69 0.54 0.58 0.52 0.49 0.46 0.54 0.65 0.62 0.76 0.66 0.78 0.98 0.95 0.94 0.85 0.74 0.92 1.07 0.98 1.07 0.85 0.77 0.85 0.94 0.92 0.82 0.81 0.81 0.60 0.55 0.58 0.73 0.85 0.80 0.75
0.91 1.70 1.56 1.41 1.98 1.32 0.83 0.94 0.72 0.78 0.75 0.72 0.78 0.71 0.53 0.35 0.63 0.58 0.72 0.74 1.07 1.00 1.12 1.05 0.96 0.99 1.10 0.98 1.19 1.23 1.24 1.30 1.18 0.99 1.02 0.92 0.90 0.86 1.00 1.27 1.40 1.36 1.31
0.36 0.74 1.36 1.35 1.80 2.35 1.69 1.45 1.52 1.31 1.15 0.89 0.76 0.60 0.51 0.61 0.72 0.68 0.87 0.65 0.69 0.78 0.83 0.92 0.98 0.97 1.07 1.07 1.04 1.16 1.20 1.30 1.41 1.45 1.60 1.83 1.94 1.90 2.06 2.16 2.23 2.31 2.32
0.24 0.37 0.55 0.96 1.24 1.51 1.91 2.02 1.81 1.66 1.44 1.12 0.83 0.69 0.60 0.54 0.76 0.56 0.57 0.40 0.60 0.78 0.86 1.02 1.20 1.18 1.87 1.85 1.44 1.65 1.99 2.13 2.51 2.49 2.36 2.35 2.29 2.17 2.01 1.95 2.33 2.28 2.42
0.40 0.38 0.36 0.51 0.76 1.06 1.32 1.41 1.40 1.23 1.16 1.12 0.96 0.70 0.88 0.64 0.90 0.68 0.54 0.28 0.52 0.71 0.86 1.04 1.65 1.33 1.82 1.73 1.55 1.47 1.95 2.36 2.23 2.34 2.40 2.27 2.15 2.14 2.36 2.17 1.95 1.98 1.93
0.82 0.77 0.77 0.77 0.76 0.70 0.74 0.70 0.74 0.85 0.84 0.83 0.91 0.82 0.70 0.77 0.94 1.01 0.97 0.69 0.82 1.01 1.05 1.08 1.31 1.84 1.49 1.68 1.88 1.82 2.61 2.68 2.69 2.32 2.18 2.13 2.03 1.97 1.98 2.04 2.03 2.07 2.10
1.28 1.20 1.12 0.93 0.84 0.82 0.81 0.86 0.78 0.76 0.75 0.72 0.66 0.62 0.61 0.69 1.03 0.92 0.83 0.82 1.06 0.88 1.13 1.14 1.41 1.54 1.27 1.42 1.64 2.14 2.31 2.16 2.09 2.21 2.15 2.05 1.91 1.82 1.77 1.73 1.71 1.67 1.61
1.47 1.41 1.42 1.32 1.23 1.14 1.06 1.04 0.93 0.84 0.80 0.82 0.79 0.86 0.90 0.84 0.94 1.10 0.95 0.95 0.97 0.88 1.30 1.84 2.00 1.76 1.56 1.54 1.64 1.69 1.69 1.72 1.81 1.86 1.85 1.78 1.65 1.51 1.30 1.21 1.13 1.06 1.03
1.02 1.08 1.23 1.28 1.28 1.20 1.11 1.12 1.08 1.07 1.11 1.16 1.11 1.13 1.13 1.11 1.09 1.11 1.20 1.28 1.39 1.46 1.71 1.80 1.73 1.64 1.60 1.68 1.64 1.56 1.50 1.42 1.29 1.20 1.07 0.95 0.83 0.76 0.72 0.69 0.72 0.78 0.77
0.58 0.65 0.66 0.69 0.76 0.79 0.80 0.86 0.81 0.99 0.95 0.91 1.02 1.09 1.17 1.36 1.65 1.54 1.47 1.49 1.51 1.55 1.45 1.38 1.25 1.11 1.01 0.97 0.90 0.84 0.83 0.81 0.79 0.78 0.74 0.70 0.63 0.53 0.47 0.43 0.49 0.57 0.64
0.40 0.45 0.55 0.58 0.57 0.59 0.64 0.76 0.86 0.88 0.81 0.82 0.87 0.85 1.08 1.23 1.21 1.13 1.07 1.03 1.00 0.98 0.98 0.95 0.93 0.89 0.85 0.81 0.79 0.75 0.68 0.65 0.62 0.59 0.58 0.53 0.49 0.46 0.43 0.39 0.41 0.44 0.45
0.24 0.27 0.33 0.40 0.42 0.45 0.48 0.54 0.75 1.04 1.15 1.32 1.40 1.43 1.37 1.50 1.39 1.28 1.17 1.04 0.95 0.81 0.88 0.80 0.77 0.73 0.67 0.59 0.56 0.53 0.53 0.50 0.44 0.41 0.38 0.36 0.37 0.36 0.34 0.31 0.29 0.29 0.28
0.40 0.46 0.49 0.52 0.56 0.63 0.69 0.75 0.79 0.85 0.93 1.03 1.03 0.95 0.92 0.86 0.80 0.71 0.62 0.53 0.58 0.51 0.54 0.53 0.52 0.47 0.43 0.39 0.36 0.33 0.30 0.29 0.29 0.29 0.31 0.32 0.33 0.32 0.31 0.28 0.26 0.27 0.21
0.45 0.56 0.67 0.80 0.92 0.91 0.86 0.82 0.81 0.80 0.81 0.82 0.73 0.65 0.63 0.55 0.44 0.39 0.34 0.43 0.39 0.34 0.28 0.26 0.24 0.23 0.19 0.17 0.19 0.20 0.21 0.21 0.21 0.22 0.21 0.22 0.23 0.24 0.22 0.21 0.21 0.19 0.17
0.80 0.96 0.94 0.95 0.94 0.89 0.81 0.73 0.68 0.64 0.61 0.58 0.55 0.54 0.44 0.32 0.31 0.27 0.25 0.27 0.29 0.26 0.20 0.19 0.16 0.17 0.18 0.20 0.19 0.19 0.17 0.16 0.18 0.20 0.20 0.20 0.19 0.22 0.23 0.20 0.17 0.17 0.13
0.74 0.73 0.67 0.61 0.58 0.55 0.51 0.45 0.40 0.37 0.35 0.31 0.32 0.27 0.21 0.23 0.25 0.22 0.21 0.20 0.21 0.22 0.22 0.21 0.19 0.17 0.15 0.14 0.15 0.16 0.15 0.15 0.16 0.18 0.17 0.17 0.21 0.21 0.17 0.17 0.16 0.15 0.12
0.46 0.42 0.36 0.34 0.34 0.32 0.28 0.24 0.24 0.24 0.23 0.23 0.21 0.17 0.16 0.19 0.19 0.21 0.24 0.26 0.25 0.24 0.24 0.23 0.18 0.16 0.16 0.19 0.18 0.19 0.15 0.13 0.13 0.15 0.15 0.13 0.13 0.14 0.15 0.15 0.15 0.16 0.14
0.25 0.24 0.22 0.21 0.20 0.19 0.18 0.18 0.23 0.26 0.28 0.30 0.31 0.27 0.23 0.27 0.28 0.26 0.27 0.25 0.25 0.25 0.20 0.21 0.21 0.18 0.16 0.16 0.18 0.22 0.20 0.14 0.14 0.17 0.19 0.16 0.12 0.12 0.13 0.14 0.14 0.16 0.16
0.14 0.15 0.15 0.16 0.18 0.24 0.29 0.29 0.28 0.27 0.29 0.30 0.26 0.24 0.24 0.22 0.23 0.23 0.22 0.21 0.22 0.23 0.25 0.28 0.28 0.25 0.22 0.21 0.22 0.21 0.20 0.19 0.24 0.24 0.24 0.21 0.14 0.11 0.14 0.14 0.12 0.13 0.15
0.18 0.21 0.24 0.27 0.28 0.26 0.24 0.24 0.27 0.26 0.24 0.22 0.21 0.19 0.17 0.16 0.14 0.13 0.12 0.12 0.12 0.12 0.12 0.12 0.13 0.13 0.13 0.16 0.19 0.16 0.16 0.19 0.22 0.22 0.30 0.28 0.21 0.16 0.15 0.15 0.15 0.16 0.15
0.14 0.17 0.18 0.17 0.20 0.23 0.26 0.25 0.23 0.21 0.19 0.18 0.18 0.18 0.16 0.15 0.12 0.11 0.08 0.09 0.09 0.08 0.08 0.10 0.10 0.09 0.10 0.12 0.13 0.16 0.13 0.13 0.19 0.24 0.31 0.32 0.28 0.24 0.22 0.21 0.18 0.20 0.15

GFSGL_prec_precacc_120.txt.gz
Total_Precipitation_Accumulation
0.69 0.54 0.47 0.53 0.79 0.72 0.62 0.53 0.54 0.86 1.12 1.09 1.16 1.37 1.26 1.21 1.10 1.11 0.92 0.87 0.89 0.80 0.79 0.76 0.60 0.52 0.54 0.56 0.69 0.71 0.67 0.74 0.72 0.31 0.26 0.23 0.27 0.17 0.11 0.08 0.10 0.10 0.07
0.91 0.80 1.00 1.16 1.25 1.20 1.16 1.28 1.04 0.81 0.80 0.77 0.89 1.01 1.01 1.18 1.20 1.21 1.16 0.97 0.96 1.09 1.07 1.00 0.87 0.82 0.84 0.70 0.77 0.72 0.60 0.50 0.54 0.40 0.20 0.16 0.16 0.19 0.16 0.11 0.09 0.08 0.11
1.34 1.33 1.37 1.33 1.35 1.40 1.35 1.20 1.06 1.11 1.18 1.17 1.32 1.34 1.13 1.03 1.21 1.22 1.24 1.15 1.22 1.26 1.12 1.07 0.88 0.90 0.91 0.73 0.62 0.55 0.47 0.41 0.45 0.54 0.37 0.24 0.18 0.19 0.29 0.27 0.19 0.20 0.16
1.34 1.00 0.97 1.20 1.15 1.14 1.06 0.95 0.88 0.94 0.93 1.02 0.88 0.82 0.80 0.76 0.85 1.07 1.15 1.17 0.91 0.91 0.91 0.94 0.95 0.89 0.71 0.63 0.59 0.49 0.48 0.53 0.51 0.50 0.52 0.41 0.31 0.23 0.32 0.36 0.38 0.40 0.44
1.47 1.20 1.01 0.89 0.89 1.00 1.00 0.80 0.70 0.83 0.85 0.74 0.62 0.66 0.70 0.81 0.96 0.91 0.92 1.01 1.02 0.89 0.73 0.82 0.80 0.90 0.89 0.71 0.66 0.69 0.65 0.71 0.75 0.78 0.74 0.55 0.46 0.43 0.44 0.41 0.47 0.46 0.51
1.38 1.61 1.10 1.36 1.05 0.74 0.79 0.78 0.70 0.74 0.72 0.64 0.63 0.74 0.91 0.90 1.12 0.97 0.98 1.10 1.08 1.08 0.96 0.83 1.00 1.15 1.04 1.11 0.87 0.78 0.86 0.94 0.92 0.82 0.81 0.82 0.61 0.56 0.59 0.74 0.87 0.84 0.80
0.98 1.83 1.81 1.80 2.46 1.55 0.90 1.01 0.79 0.88 0.86 0.85 0.91 0.82 0.64 0.56 0.96 0.86 0.99 0.93 1.23 1.12 1.20 1.10 1.01 1.06 1.20 1.07 1.27 1.27 1.26 1.31 1.18 0.99 1.02 0.92 0.90 0.87 1.04 1.31 1.43 1.42 1.36
0.36 0.76 1.39 1.42 2.01 2.73 2.01 1.69 1.70 1.41 1.28 0.98 0.87 0.73 0.60 0.70 0.87 0.89 1.07 0.89 0.86 0.98 1.03 1.09 1.09 1.01 1.09 1.09 1.07 1.18 1.21 1.30 1.41 1.45 1.60 1.83 1.95 1.90 2.07 2.19 2.28 2.39 2.43
0.24 0.37 0.55 0.96 1.26 1.65 2.20 2.43 2.29 2.12 1.81 1.58 1.19 1.04 1.07 0.95 1.03 0.82 0.83 0.64 0.82 0.95 1.04 1.23 1.40 1.31 1.96 1.90 1.48 1.68 2.01 2.14 2.52 2.50 2.36 2.35 2.29 2.17 2.01 1.95 2.35 2.38 2.51
0.40 0.38 0.36 0.51 0.76 1.06 1.32 1.45 1.49 1.44 1.50 1.47 1.43 1.17 1.31 1.11 1.39 1.08 0.85 0.47 0.67 0.89 1.02 1.19 1.81 1.47 1.93 1.81 1.59 1.51 1.97 2.37 2.23 2.34 2.40 2.28 2.15 2.14 2.36 2.17 1.96 2.01 1.98
0.82 0.77 0.77 0.77 0.76 0.71 0.74 0.71 0.74 0.85 0.84 0.84 0.94 0.88 0.78 0.86 1.06 1.15 1.13 0.88 1.01 1.18 1.21 1.25 1.47 2.00 1.63 1.83 2.01 1.93 2.69 2.74 2.72 2.34 2.18 2.13 2.03 1.97 1.98 2.04 2.03 2.08 2.15
1.28 1.20 1.12 0.93 0.84 0.82 0.81 0.86 0.78 0.76 0.75 0.72 0.66 0.62 0.62 0.69 1.03 0.92 0.84 0.86 1.11 0.95 1.24 1.25 1.53 1.63 1.35 1.50 1.73 2.25 2.41 2.23 2.13 2.23 2.15 2.05 1.91 1.82 1.77 1.73 1.71 1.68 1.64
1.47 1.41 1.42 1.32 1.23 1.14 1.06 1.04 0.93 0.84 0.80 0.82 0.79 0.86 0.90 0.84 0.95 1.10 0.95 0.95 0.97 0.88 1.30 1.84 2.01 1.76 1.57 1.54 1.64 1.69 1.69 1.72 1.82 1.87 1.85 1.79 1.66 1.51 1.30 1.21 1.13 1.07 1.04
1.02 1.08 1.23 1.28 1.28 1.20 1.11 1.12 1.08 1.07 1.11 1.16 1.11 1.13 1.13 1.11 1.10 1.12 1.20 1.28 1.39 1.46 1.72 1.80 1.73 1.64 1.60 1.68 1.64 1.56 1.50 1.42 1.30 1.21 1.08 0.95 0.84 0.76 0.72 0.70 0.73 0.79 0.78
0.58 0.65 0.66 0.69 0.76 0.79 0.81 0.86 0.81 0.99 0.95 0.91 1.02 1.10 1.17 1.36 1.65 1.54 1.47 1.49 1.51 1.55 1.45 1.38 1.25 1.11 1.01 0.97 0.90 0.85 0.83 0.81 0.79 0.78 0.75 0.71 0.63 0.53 0.47 0.43 0.50 0.59 0.67
0.40 0.45 0.55 0.58 0.57 0.59 0.64 0.76 0.86 0.88 0.81 0.82 0.87 0.85 1.08 1.23 1.21 1.13 1.07 1.03 1.00 0.98 0.98 0.95 0.93 0.89 0.85 0.81 0.79 0.75 0.68 0.65 0.62 0.60 0.59 0.54 0.50 0.46 0.44 0.39 0.42 0.45 0.47
0.24 0.27 0.33 0.40 0.42 0.45 0.48 0.54 0.75 1.04 1.15 1.32 1.40 1.43 1.37 1.50 1.39 1.28 1.17 1.04 0.95 0.81 0.88 0.80 0.77 0.73 0.67 0.59 0.57 0.53 0.54 0.50 0.44 0.42 0.39 0.36 0.38 0.36 0.34 0.31 0.30 0.30 0.29
0.40 0.46 0.49 0.52 0.56 0.63 0.69 0.75 0.79 0.85 0.93 1.03 1.03 0.95 0.92 0.86 0.80 0.71 0.62 0.53 0.58 0.51 0.54 0.53 0.52 0.47 0.43 0.39 0.36 0.34 0.31 0.29 0.30 0.30 0.32 0.33 0.34 0.33 0.32 0.28 0.27 0.28 0.22
0.45 0.56 0.67 0.80 0.92 0.91 0.86 0.82 0.81 0.80 0.81 0.82 0.73 0.65 0.63 0.55 0.44 0.39 0.34 0.43 0.40 0.34 0.28 0.26 0.24 0.23 0.20 0.18 0.19 0.20 0.21 0.21 0.21 0.23 0.22 0.23 0.23 0.25 0.23 0.22 0.22 0.19 0.18
0.80 0.96 0.94 0.95 0.94 0.89 0.81 0.73 0.68 0.64 0.61 0.58 0.55 0.54 0.44 0.32 0.31 0.27 0.25 0.27 0.29 0.26 0.20 0.19 0.17 0.17 0.18 0.20 0.19 0.20 0.17 0.16 0.18 0.20 0.20 0.20 0.19 0.22 0.24 0.20 0.17 0.17 0.13
0.74 0.73 0.67 0.61 0.58 0.55 0.51 0.45 0.40 0.37 0.35 0.31 0.32 0.27 0.21 0.23 0.25 0.22 0.21 0.21 0.22 0.22 0.22 0.22 0.19 0.17 0.15 0.14 0.15 0.16 0.15 0.15 0.16 0.18 0.18 0.18 0.21 0.21 0.17 0.18 0.16 0.15 0.12
0.46 0.42 0.36 0.34 0.34 0.32 0.28 0.24 0.24 0.24 0.23 0.23 0.21 0.17 0.16 0.20 0.20 0.21 0.24 0.26 0.25 0.24 0.25 0.23 0.19 0.16 0.16 0.19 0.18 0.20 0.15 0.13 0.13 0.15 0.15 0.14 0.14 0.14 0.15 0.15 0.16 0.16 0.14
0.25 0.24 0.22 0.21 0.20 0.19 0.18 0.18 0.23 0.26 0.28 0.30 0.31 0.28 0.23 0.28 0.29 0.26 0.28 0.26 0.25 0.25 0.21 0.22 0.22 0.18 0.16 0.16 0.19 0.22 0.20 0.14 0.14 0.18 0.20 0.17 0.13 0.12 0.13 0.14 0.14 0.16 0.16
0.14 0.16 0.15 0.16 0.19 0.25 0.29 0.29 0.28 0.28 0.30 0.31 0.27 0.25 0.25 0.23 0.23 0.24 0.23 0.22 0.22 0.23 0.25 0.28 0.28 0.26 0.22 0.21 0.23 0.21 0.20 0.19 0.25 0.24 0.25 0.22 0.14 0.11 0.14 0.14 0.12 0.13 0.15
0.18 0.22 0.24 0.27 0.28 0.26 0.25 0.25 0.28 0.27 0.25 0.23 0.23 0.21 0.18 0.17 0.15 0.14 0.13 0.13 0.13 0.13 0.13 0.12 0.14 0.14 0.14 0.16 0.19 0.16 0.16 0.19 0.22 0.22 0.30 0.29 0.21 0.17 0.15 0.15 0.15 0.16 0.15
0.14 0.18 0.18 0.17 0.20 0.24 0.27 0.26 0.24 0.22 0.21 0.19 0.19 0.19 0.18 0.16 0.14 0.13 0.09 0.09 0.10 0.09 0.08 0.11 0.10 0.09 0.10 0.12 0.14 0.16 0.13 0.13 0.19 0.24 0.31 0.33 0.28 0.24 0.22 0.21 0.18 0.20 0.15

GFSGL_prec_precacc_126.txt.gz
Total_Precipitation_Accumulation
0.72 0.57 0.49 0.57 0.82 0.74 0.62 0.55 0.56 0.87 1.12 1.09 1.16 1.38 1.27 1.40 1.41 1.40 1.28 1.15 1.14 1.12 1.06 0.97 0.75 0.68 0.80 0.96 0.92 0.85 0.92 0.98 0.90 0.37 0.34 0.39 0.35 0.20 0.16 0.16 0.13 0.11 0.09
0.94 0.83 1.04 1.20 1.28 1.22 1.19 1.32 1.07 0.84 0.82 0.78 0.94 1.07 1.03 1.23 1.42 1.40 1.28 1.14 1.14 1.31 1.45 1.55 1.37 1.19 1.12 0.95 1.05 0.96 0.83 0.82 0.84 0.51 0.31 0.32 0.31 0.28 0.23 0.19 0.16 0.12 0.11
1.43 1.45 1.47 1.44 1.42 1.48 1.41 1.26 1.13 1.18 1.22 1.23 1.38 1.44 1.22 1.12 1.35 1.41 1.39 1.23 1.25 1.34 1.22 1.21 1.11 1.19 1.24 0.96 0.86 0.84 0.77 0.66 0.68 0.67 0.44 0.34 0.28 0.27 0.36 0.31 0.23 0.22 0.16
1.48 1.18 1.16 1.45 1.36 1.28 1.17 1.03 0.95 1.00 1.00 1.09 0.96 0.91 0.91 0.92 1.02 1.21 1.38 1.46 1.13 1.14 1.13 1.18 1.22 1.09 0.89 0.79 0.73 0.62 0.63 0.67 0.60 0.60 0.62 0.45 0.36 0.28 0.37 0.40 0.41 0.42 0.44
1.57 1.37 1.48 1.30 1.20 1.21 1.14 0.90 0.79 0.92 0.94 0.86 0.70 0.79 0.86 0.95 1.17 1.13 1.19 1.36 1.32 1.13 0.97 1.02 1.00 1.15 1.11 0.89 0.81 0.83 0.79 0.84 0.86 0.85 0.80 0.58 0.48 0.45 0.46 0.42 0.48 0.47 0.51
1.47 1.78 1.34 1.68 1.64 1.18 1.09 0.96 0.94 0.96 1.02 1.18 0.91 0.92 1.20 1.24 1.60 1.59 1.49 1.57 1.47 1.35 1.20 1.10 1.25 1.39 1.22 1.34 1.11 1.01 1.04 1.07 1.00 0.87 0.84 0.84 0.62 0.56 0.59 0.75 0.88 0.86 0.82
0.99 1.86 1.87 1.92 2.69 1.89 1.15 1.16 1.08 1.43 1.39 1.26 1.45 1.33 1.14 1.03 1.49 1.56 1.74 1.58 1.93 1.81 1.67 1.44 1.38 1.43 1.59 1.36 1.60 1.59 1.54 1.57 1.38 1.11 1.08 0.96 0.94 0.90 1.05 1.32 1.44 1.43 1.39
0.36 0.76 1.39 1.44 2.05 2.85 2.20 1.85 1.90 1.57 1.48 1.21 1.17 1.14 1.09 1.61 1.62 1.90 2.19 1.86 1.59 1.61 1.67 1.66 1.63 1.52 1.65 1.68 1.59 1.60 1.59 1.68 1.71 1.70 1.76 1.94 2.01 1.94 2.09 2.21 2.29 2.39 2.43
0.24 0.37 0.55 0.96 1.26 1.65 2.23 2.49 2.40 2.29 1.94 1.70 1.30 1.18 1.22 1.21 1.28 1.10 1.23 1.38 1.89 2.17 2.05 1.99 2.04 1.93 2.59 2.60 2.23 2.38 2.50 2.57 2.93 2.79 2.58 2.52 2.41 2.25 2.05 1.97 2.36 2.38 2.51
0.40 0.38 0.36 0.51 0.76 1.07 1.33 1.45 1.49 1.45 1.52 1.50 1.48 1.27 1.43 1.27 1.64 1.35 1.09 0.72 0.95 1.25 1.57 1.90 2.49 2.11 2.50 2.30 2.03 1.96 2.44 2.77 2.53 2.59 2.59 2.41 2.25 2.21 2.43 2.21 1.98 2.02 1.98
0.82 0.77 0.77 0.77 0.76 0.71 0.74 0.71 0.74 0.85 0.84 0.85 0.94 0.89 0.80 0.88 1.09 1.19 1.19 0.98 1.11 1.27 1.30 1.35 1.59 2.13 1.80 2.03 2.22 2.16 2.96 2.98 2.96 2.52 2.33 2.24 2.11 2.01 2.02 2.07 2.05 2.10 2.16
1.28 1.20 1.12 0.93 0.84 0.82 0.81 0.86 0.78 0.76 0.75 0.72 0.66 0.62 0.62 0.70 1.04 0.92 0.85 0.87 1.12 0.97 1.26 1.28 1.55 1.65 1.36 1.52 1.76 2.31 2.49 2.33 2.24 2.34 2.26 2.16 2.01 1.90 1.85 1.79 1.76 1.71 1.67
1.47 1.41 1.42 1.32 1.23 1.14 1.06 1.04 0.93 0.84 0.80 0.82 0.79 0.86 0.90 0.84 0.95 1.10 0.95 0.95 0.97 0.89 1.30 1.84 2.01 1.76 1.57 1.55 1.64 1.69 1.69 1.73 1.83 1.88 1.88 1.82 1.69 1.54 1.33 1.23 1.15 1.08 1.05
1.02 1.08 1.23 1.28 1.28 1.20 1.11 1.12 1.08 1.07 1.11 1.16 1.11 1.13 1.13 1.11 1.10 1.12 1.20 1.28 1.39 1.46 1.72 1.80 1.73 1.64 1.60 1.68 1.64 1.56 1.50 1.42 1.30 1.22 1.09 0.96 0.84 0.76 0.72 0.70 0.73 0.79 0.78
0.58 0.65 0.66 0.69 0.76 0.79 0.82 0.88 0.81 0.99 0.95 0.91 1.02 1.10 1.17 1.36 1.65 1.54 1.47 1.49 1.51 1.55 1.45 1.38 1.25 1.11 1.01 0.97 0.90 0.85 0.83 0.81 0.79 0.79 0.75 0.71 0.64 0.53 0.47 0.43 0.50 0.59 0.68
0.40 0.45 0.55 0.58 0.57 0.59 0.64 0.77 0.87 0.89 0.81 0.82 0.87 0.85 1.08 1.23 1.21 1.13 1.07 1.03 1.00 0.98 0.98 0.95 0.93 0.89 0.85 0.82 0.79 0.75 0.68 0.65 0.62 0.60 0.59 0.54 0.50 0.47 0.44 0.39 0.42 0.45 0.47
0.24 0.27 0.33 0.40 0.42 0.45 0.48 0.54 0.75 1.04 1.15 1.32 1.40 1.43 1.37 1.50 1.39 1.28 1.17 1.04 0.95 0.81 0.88 0.80 0.77 0.73 0.67 0.60 0.57 0.53 0.55 0.50 0.44 0.42 0.39 0.37 0.38 0.37 0.34 0.32 0.30 0.30 0.29
0.40 0.46 0.49 0.52 0.56 0.63 0.69 0.75 0.79 0.85 0.93 1.03 1.03 0.95 0.92 0.86 0.80 0.71 0.62 0.53 0.58 0.51 0.54 0.53 0.53 0.47 0.43 0.39 0.36 0.34 0.31 0.29 0.30 0.30 0.32 0.33 0.35 0.35 0.32 0.29 0.27 0.28 0.23
0.45 0.56 0.67 0.80 0.92 0.91 0.86 0.82 0.81 0.80 0.81 0.82 0.73 0.65 0.63 0.55 0.44 0.39 0.34 0.43 0.40 0.34 0.28 0.26 0.24 0.23 0.20 0.18 0.20 0.20 0.22 0.22 0.21 0.23 0.22 0.23 0.24 0.26 0.23 0.22 0.22 0.19 0.18
0.80 0.96 0.94 0.95 0.94 0.89 0.81 0.73 0.68 0.64 0.61 0.58 0.55 0.54 0.44 0.32 0.31 0.27 0.25 0.27 0.29 0.26 0.20 0.19 0.17 0.17 0.18 0.20 0.19 0.20 0.17 0.16 0.18 0.20 0.21 0.21 0.20 0.23 0.25 0.21 0.18 0.17 0.13
0.74 0.73 0.67 0.61 0.58 0.55 0.51 0.45 0.40 0.37 0.35 0.31 0.32 0.27 0.21 0.23 0.25 0.22 0.21 0.21 0.22 0.22 0.22 0.22 0.19 0.17 0.15 0.14 0.16 0.16 0.15 0.15 0.16 0.18 0.18 0.18 0.22 0.22 0.18 0.18 0.16 0.15 0.12
0.46 0.42 0.36 0.34 0.34 0.32 0.28 0.24 0.24 0.24 0.23 0.23 0.21 0.17 0.16 0.20 0.20 0.21 0.24 0.26 0.25 0.24 0.25 0.23 0.19 0.16 0.16 0.19 0.19 0.20 0.15 0.13 0.13 0.15 0.16 0.14 0.14 0.15 0.16 0.16 0.16 0.16 0.14
0.25 0.24 0.22 0.21 0.20 0.19 0.18 0.18 0.23 0.26 0.28 0.30 0.31 0.28 0.23 0.28 0.29 0.26 0.28 0.27 0.26 0.25 0.21 0.22 0.22 0.18 0.16 0.16 0.19 0.22 0.20 0.14 0.14 0.18 0.20 0.17 0.13 0.13 0.14 0.15 0.14 0.16 0.16
0.14 0.16 0.15 0.16 0.19 0.25 0.29 0.29 0.28 0.28 0.30 0.31 0.27 0.25 0.25 0.24 0.24 0.24 0.25 0.24 0.23 0.24 0.26 0.29 0.28 0.26 0.22 0.21 0.23 0.21 0.20 0.19 0.25 0.24 0.25 0.22 0.15 0.12 0.15 0.14 0.13 0.13 0.15
0.18 0.22 0.24 0.27 0.29 0.26 0.25 0.25 0.28 0.27 0.25 0.24 0.23 0.21 0.19 0.18 0.15 0.14 0.15 0.14 0.14 0.14 0.14 0.14 0.15 0.14 0.14 0.16 0.19 0.16 0.16 0.19 0.22 0.22 0.30 0.29 0.22 0.17 0.15 0.15 0.15 0.16 0.15
0.14 0.18 0.18 0.17 0.20 0.24 0.27 0.26 0.24 0.22 0.21 0.20 0.19 0.20 0.18 0.16 0.14 0.13 0.10 0.10 0.11 0.10 0.10 0.12 0.12 0.11 0.11 0.12 0.14 0.16 0.13 0.13 0.19 0.24 0.31 0.33 0.28 0.24 0.22 0.21 0.19 0.20 0.15

GFSGL_prec_precacc_129.txt.gz
Total_Precipitation_Accumulation
0.72 0.57 0.50 0.59 0.84 0.77 0.65 0.58 0.60 0.90 1.15 1.11 1.18 1.39 1.28 1.41 1.42 1.41 1.29 1.15 1.14 1.13 1.07 0.99 0.78 0.73 0.82 0.98 0.93 0.86 0.96 1.05 0.95 0.40 0.36 0.41 0.35 0.20 0.16 0.16 0.13 0.11 0.09
0.95 0.83 1.06 1.25 1.33 1.26 1.24 1.37 1.11 0.88 0.85 0.81 0.96 1.09 1.04 1.23 1.42 1.41 1.28 1.14 1.15 1.34 1.49 1.58 1.40 1.22 1.16 1.07 1.22 1.07 0.88 0.87 0.91 0.56 0.38 0.37 0.33 0.28 0.25 0.20 0.17 0.13 0.12
1.45 1.48 1.52 1.50 1.50 1.55 1.47 1.32 1.17 1.21 1.25 1.24 1.39 1.45 1.22 1.12 1.36 1.42 1.40 1.24 1.25 1.35 1.24 1.25 1.14 1.22 1.30 1.15 1.12 1.18 0.97 0.82 0.84 0.82 0.53 0.43 0.36 0.31 0.38 0.32 0.25 0.24 0.17
1.51 1.24 1.23 1.54 1.49 1.41 1.26 1.10 0.97 1.01 1.00 1.09 0.96 0.92 0.92 0.93 1.04 1.24 1.41 1.49 1.15 1.14 1.13 1.18 1.22 1.10 0.89 0.79 0.76 0.68 0.68 0.74 0.69 0.73 0.75 0.55 0.43 0.34 0.43 0.43 0.42 0.42 0.44
1.58 1.41 1.57 1.41 1.31 1.33 1.24 0.95 0.80 0.94 0.97 0.91 0.75 0.82 0.89 0.97 1.21 1.17 1.23 1.39 1.34 1.14 0.97 1.03 1.01 1.16 1.13 0.91 0.84 0.88 0.85 0.93 0.94 0.93 0.88 0.65 0.54 0.49 0.48 0.43 0.49 0.47 0.52
1.47 1.79 1.35 1.69 1.65 1.20 1.13 0.99 0.95 0.97 1.04 1.23 1.03 1.07 1.33 1.34 1.66 1.62 1.51 1.58 1.49 1.37 1.22 1.10 1.26 1.40 1.24 1.42 1.23 1.10 1.14 1.18 1.11 0.99 0.94 0.91 0.66 0.59 0.61 0.76 0.89 0.87 0.83
0.99 1.86 1.87 1.92 2.69 1.89 1.15 1.16 1.09 1.43 1.40 1.29 1.50 1.43 1.32 1.26 1.66 1.63 1.77 1.58 1.94 1.83 1.69 1.46 1.40 1.47 1.64 1.43 1.69 1.68 1.70 1.78 1.55 1.26 1.24 1.15 1.08 0.95 1.06 1.32 1.44 1.44 1.39
0.36 0.76 1.39 1.44 2.05 2.85 2.20 1.85 1.90 1.57 1.49 1.21 1.19 1.16 1.13 1.71 1.78 2.11 2.37 2.00 1.72 1.78 1.90 1.81 1.71 1.60 1.76 1.77 1.69 1.77 1.79 1.90 2.00 2.00 2.05 2.22 2.22 2.09 2.20 2.27 2.32 2.41 2.44
0.24 0.37 0.55 0.96 1.26 1.65 2.23 2.49 2.40 2.29 1.94 1.70 1.30 1.18 1.22 1.21 1.29 1.14 1.32 1.52 2.04 2.34 2.25 2.24 2.30 2.19 2.85 2.79 2.38 2.54 2.72 2.89 3.31 3.24 3.07 2.96 2.84 2.59 2.26 2.15 2.55 2.50 2.57
0.40 0.38 0.36 0.51 0.76 1.07 1.33 1.45 1.49 1.45 1.52 1.50 1.48 1.27 1.43 1.27 1.64 1.35 1.10 0.73 0.98 1.29 1.62 1.96 2.56 2.19 2.60 2.38 2.11 2.04 2.58 3.02 2.78 2.86 2.95 2.81 2.62 2.52 2.67 2.36 2.06 2.08 2.04
0.82 0.77 0.77 0.77 0.76 0.71 0.74 0.71 0.74 0.85 0.84 0.85 0.94 0.89 0.80 0.88 1.09 1.19 1.19 0.98 1.12 1.28 1.31 1.36 1.60 2.14 1.82 2.05 2.24 2.19 2.99 3.02 3.01 2.59 2.39 2.34 2.24 2.17 2.17 2.19 2.13 2.15 2.21
1.28 1.20 1.12 0.93 0.84 0.82 0.81 0.86 0.78 0.76 0.75 0.72 0.66 0.62 0.62 0.70 1.04 0.92 0.85 0.87 1.12 0.97 1.27 1.28 1.55 1.65 1.37 1.52 1.76 2.31 2.49 2.33 2.25 2.35 2.27 2.17 2.02 1.91 1.86 1.81 1.79 1.76 1.72
1.47 1.41 1.42 1.32 1.23 1.14 1.06 1.04 0.93 0.84 0.80 0.82 0.79 0.86 0.90 0.84 0.95 1.10 0.95 0.95 0.97 0.89 1.30 1.84 2.01 1.76 1.57 1.55 1.64 1.69 1.69 1.73 1.83 1.89 1.88 1.82 1.69 1.54 1.33 1.23 1.15 1.08 1.05
1.02 1.08 1.23 1.28 1.28 1.20 1.11 1.12 1.08 1.07 1.11 1.16 1.12 1.14 1.13 1.11 1.10 1.12 1.20 1.28 1.39 1.46 1.72 1.80 1.73 1.64 1.60 1.68 1.64 1.56 1.50 1.42 1.30 1.22 1.09 0.96 0.84 0.76 0.72 0.70 0.73 0.79 0.78
0.58 0.65 0.66 0.69 0.76 0.79 0.83 0.89 0.81 0.99 0.95 0.91 1.02 1.10 1.18 1.36 1.65 1.54 1.47 1.49 1.51 1.55 1.45 1.38 1.25 1.11 1.01 0.97 0.90 0.85 0.83 0.81 0.79 0.79 0.75 0.71 0.64 0.53 0.47 0.43 0.50 0.59 0.68
0.40 0.45 0.55 0.58 0.57 0.59 0.64 0.77 0.87 0.89 0.81 0.82 0.87 0.85 1.08 1.23 1.21 1.13 1.07 1.03 1.00 0.98 0.98 0.95 0.93 0.89 0.85 0.82 0.79 0.75 0.68 0.65 0.62 0.60 0.59 0.55 0.51 0.47 0.44 0.39 0.42 0.45 0.47
0.24 0.27 0.33 0.40 0.42 0.45 0.48 0.54 0.75 1.04 1.15 1.32 1.40 1.43 1.37 1.50 1.39 1.28 1.17 1.04 0.95 0.81 0.88 0.80 0.77 0.73 0.67 0.60 0.57 0.53 0.55 0.50 0.44 0.42 0.39 0.37 0.39 0.37 0.35 0.32 0.30 0.30 0.29
0.40 0.46 0.49 0.52 0.56 0.63 0.69 0.75 0.79 0.85 0.93 1.03 1.03 0.95 0.92 0.86 0.80 0.71 0.62 0.53 0.58 0.51 0.54 0.53 0.53 0.47 0.43 0.39 0.36 0.34 0.31 0.29 0.30 0.30 0.32 0.33 0.35 0.35 0.32 0.29 0.27 0.28 0.23
0.45 0.56 0.67 0.80 0.92 0.91 0.86 0.82 0.81 0.80 0.81 0.82 0.73 0.65 0.63 0.55 0.44 0.39 0.34 0.43 0.40 0.34 0.28 0.26 0.24 0.23 0.20 0.18 0.20 0.20 0.22 0.22 0.21 0.23 0.22 0.23 0.24 0.26 0.24 0.22 0.22 0.19 0.18
0.80 0.96 0.94 0.95 0.94 0.89 0.81 0.73 0.68 0.64 0.61 0.58 0.55 0.54 0.44 0.32 0.31 0.27 0.25 0.27 0.29 0.26 0.20 0.19 0.17 0.17 0.18 0.20 0.19 0.20 0.17 0.16 0.18 0.20 0.21 0.21 0.20 0.23 0.25 0.21 0.18 0.17 0.13
0.74 0.73 0.67 0.61 0.58 0.55 0.51 0.45 0.40 0.37 0.35 0.31 0.32 0.27 0.21 0.23 0.25 0.22 0.21 0.21 0.22 0.22 0.22 0.22 0.19 0.17 0.15 0.14 0.16 0.16 0.15 0.15 0.16 0.18 0.18 0.18 0.22 0.22 0.19 0.18 0.16 0.15 0.12
0.46 0.42 0.36 0.34 0.34 0.32 0.28 0.24 0.24 0.24 0.23 0.23 0.21 0.17 0.16 0.20 0.20 0.21 0.24 0.27 0.25 0.25 0.25 0.23 0.19 0.16 0.16 0.19 0.19 0.20 0.15 0.13 0.13 0.15 0.16 0.14 0.14 0.15 0.16 0.16 0.16 0.16 0.14
0.25 0.24 0.22 0.21 0.20 0.19 0.18 0.18 0.23 0.26 0.28 0.30 0.31 0.28 0.23 0.29 0.29 0.26 0.28 0.27 0.26 0.25 0.21 0.22 0.22 0.18 0.16 0.16 0.19 0.22 0.20 0.14 0.14 0.18 0.20 0.17 0.13 0.13 0.14 0.15 0.14 0.17 0.16
0.14 0.16 0.15 0.16 0.19 0.25 0.29 0.29 0.28 0.28 0.30 0.31 0.27 0.25 0.25 0.24 0.24 0.24 0.25 0.24 0.23 0.24 0.26 0.29 0.29 0.26 0.22 0.21 0.23 0.21 0.20 0.19 0.25 0.24 0.25 0.22 0.15 0.12 0.15 0.14 0.13 0.13 0.15
0.18 0.22 0.24 0.27 0.29 0.26 0.25 0.25 0.28 0.27 0.25 0.24 0.23 0.21 0.19 0.18 0.15 0.14 0.15 0.14 0.14 0.14 0.14 0.14 0.15 0.14 0.14 0.16 0.19 0.16 0.16 0.19 0.22 0.22 0.30 0.29 0.22 0.17 0.15 0.15 0.16 0.16 0.15
0.14 0.18 0.18 0.17 0.20 0.24 0.27 0.26 0.24 0.22 0.21 0.20 0.19 0.20 0.18 0.16 0.15 0.13 0.10 0.10 0.11 0.10 0.10 0.12 0.12 0.11 0.11 0.13 0.14 0.16 0.13 0.13 0.19 0.24 0.31 0.33 0.28 0.24 0.22 0.21 0.19 0.21 0.15

GFSGL_prec_precacc_132.txt.gz
Total_Precipitation_Accumulation
0.72 0.57 0.51 0.61 0.90 0.82 0.71 0.63 0.64 0.94 1.19 1.15 1.21 1.42 1.31 1.43 1.43 1.42 1.29 1.16 1.14 1.13 1.07 1.00 0.79 0.74 0.84 1.01 0.95 0.87 0.97 1.08 1.08 0.53 0.49 0.49 0.39 0.23 0.19 0.19 0.19 0.14 0.11
0.96 0.86 1.11 1.32 1.44 1.35 1.34 1.44 1.16 0.93 0.91 0.85 0.99 1.11 1.07 1.26 1.44 1.43 1.30 1.15 1.16 1.35 1.49 1.59 1.41 1.24 1.18 1.10 1.23 1.07 0.89 0.88 0.93 0.57 0.40 0.42 0.38 0.31 0.26 0.21 0.21 0.15 0.13
1.47 1.56 1.63 1.62 1.60 1.65 1.56 1.40 1.22 1.25 1.29 1.28 1.42 1.47 1.24 1.14 1.37 1.43 1.41 1.25 1.27 1.36 1.25 1.25 1.15 1.22 1.32 1.17 1.14 1.19 0.98 0.82 0.84 0.82 0.53 0.43 0.40 0.35 0.42 0.36 0.29 0.27 0.17
1.52 1.29 1.32 1.66 1.65 1.59 1.41 1.20 1.00 1.03 1.02 1.10 0.98 0.94 0.94 0.94 1.05 1.25 1.43 1.52 1.18 1.18 1.16 1.20 1.24 1.11 0.92 0.81 0.77 0.70 0.69 0.74 0.70 0.73 0.76 0.57 0.46 0.39 0.49 0.47 0.45 0.43 0.45
1.58 1.41 1.60 1.47 1.39 1.40 1.32 1.00 0.82 0.95 0.99 0.92 0.76 0.83 0.90 0.99 1.24 1.18 1.24 1.42 1.39 1.21 1.04 1.06 1.04 1.21 1.17 0.96 0.89 0.91 0.87 0.95 0.96 0.95 0.89 0.67 0.58 0.55 0.53 0.48 0.54 0.53 0.59
1.47 1.79 1.35 1.69 1.65 1.20 1.13 0.99 0.95 0.97 1.04 1.23 1.03 1.08 1.35 1.38 1.71 1.67 1.55 1.61 1.53 1.43 1.29 1.14 1.28 1.42 1.25 1.44 1.24 1.11 1.15 1.19 1.13 1.02 0.99 0.96 0.73 0.62 0.64 0.79 0.94 0.94 0.88
0.99 1.86 1.87 1.92 2.69 1.89 1.15 1.16 1.09 1.43 1.40 1.29 1.51 1.43 1.33 1.29 1.72 1.74 1.86 1.64 1.97 1.87 1.72 1.49 1.42 1.49 1.65 1.43 1.70 1.69 1.71 1.79 1.58 1.30 1.29 1.22 1.17 1.04 1.15 1.39 1.48 1.48 1.42
0.36 0.76 1.39 1.44 2.05 2.85 2.20 1.85 1.90 1.58 1.49 1.22 1.19 1.16 1.13 1.71 1.79 2.15 2.44 2.10 1.81 1.85 1.97 1.86 1.74 1.64 1.82 1.81 1.72 1.79 1.80 1.93 2.09 2.13 2.17 2.34 2.36 2.25 2.33 2.38 2.43 2.53 2.56
0.24 0.37 0.55 0.96 1.26 1.65 2.23 2.49 2.40 2.29 1.94 1.70 1.31 1.18 1.22 1.21 1.29 1.14 1.33 1.53 2.05 2.36 2.29 2.31 2.41 2.34 3.02 2.92 2.48 2.64 2.80 2.96 3.42 3.38 3.25 3.20 3.07 2.81 2.50 2.42 2.79 2.70 2.80
0.40 0.38 0.36 0.51 0.76 1.07 1.33 1.45 1.49 1.45 1.52 1.50 1.49 1.28 1.43 1.27 1.64 1.35 1.10 0.74 0.99 1.31 1.64 1.98 2.59 2.25 2.67 2.46 2.21 2.16 2.72 3.19 2.97 3.03 3.11 2.96 2.79 2.72 2.89 2.62 2.37 2.43 2.42
0.82 0.77 0.77 0.77 0.76 0.71 0.74 0.71 0.74 0.85 0.84 0.85 0.94 0.89 0.80 0.88 1.09 1.19 1.19 0.98 1.12 1.28 1.32 1.38 1.62 2.17 1.84 2.07 2.26 2.21 3.02 3.05 3.05 2.63 2.44 2.39 2.31 2.27 2.32 2.39 2.40 2.43 2.48
1.28 1.20 1.12 0.93 0.84 0.82 0.81 0.86 0.78 0.76 0.75 0.72 0.66 0.62 0.62 0.70 1.04 0.92 0.85 0.87 1.12 0.97 1.27 1.28 1.55 1.65 1.37 1.52 1.77 2.31 2.49 2.33 2.25 2.36 2.28 2.17 2.02 1.92 1.87 1.82 1.83 1.85 1.85
1.47 1.41 1.42 1.32 1.23 1.14 1.06 1.04 0.93 0.84 0.80 0.82 0.79 0.86 0.90 0.84 0.95 1.10 0.95 0.95 0.97 0.89 1.30 1.84 2.01 1.76 1.57 1.55 1.64 1.69 1.70 1.73 1.83 1.89 1.89 1.83 1.69 1.54 1.33 1.23 1.15 1.08 1.05
1.02 1.08 1.23 1.28 1.28 1.20 1.11 1.12 1.08 1.07 1.11 1.16 1.12 1.14 1.13 1.11 1.10 1.12 1.20 1.28 1.39 1.46 1.72 1.80 1.73 1.64 1.60 1.68 1.64 1.56 1.50 1.42 1.30 1.22 1.09 0.96 0.84 0.76 0.72 0.70 0.73 0.79 0.78
0.58 0.65 0.66 0.69 0.76 0.79 0.83 0.89 0.81 0.99 0.95 0.91 1.02 1.10 1.18 1.36 1.65 1.54 1.47 1.49 1.51 1.55 1.45 1.38 1.25 1.11 1.01 0.97 0.90 0.85 0.83 0.81 0.79 0.79 0.75 0.71 0.64 0.53 0.47 0.43 0.50 0.59 0.68
0.40 0.45 0.55 0.58 0.57 0.59 0.64 0.77 0.87 0.89 0.81 0.82 0.87 0.85 1.08 1.23 1.21 1.13 1.07 1.03 1.00 0.98 0.98 0.95 0.93 0.89 0.85 0.82 0.79 0.75 0.68 0.65 0.62 0.60 0.59 0.55 0.51 0.47 0.44 0.39 0.42 0.45 0.47
0.24 0.27 0.33 0.40 0.42 0.45 0.48 0.54 0.75 1.04 1.15 1.32 1.40 1.43 1.37 1.50 1.39 1.28 1.17 1.04 0.95 0.81 0.88 0.80 0.77 0.73 0.67 0.60 0.57 0.53 0.55 0.50 0.44 0.42 0.39 0.37 0.39 0.37 0.35 0.32 0.30 0.30 0.29
0.40 0.46 0.49 0.52 0.56 0.63 0.69 0.75 0.79 0.85 0.93 1.03 1.03 0.95 0.92 0.86 0.80 0.71 0.62 0.53 0.58 0.51 0.54 0.53 0.53 0.47 0.43 0.39 0.36 0.34 0.31 0.29 0.30 0.30 0.32 0.33 0.35 0.35 0.33 0.29 0.27 0.29 0.23
0.45 0.56 0.67 0.80 0.92 0.91 0.86 0.82 0.81 0.80 0.81 0.82 0.73 0.65 0.63 0.55 0.44 0.39 0.34 0.43 0.40 0.34 0.28 0.26 0.24 0.23 0.20 0.18 0.20 0.20 0.22 0.22 0.21 0.23 0.22 0.23 0.24 0.26 0.24 0.22 0.23 0.19 0.18
0.80 0.96 0.94 0.95 0.94 0.89 0.81 0.73 0.68 0.64 0.61 0.58 0.56 0.55 0.44 0.32 0.31 0.27 0.25 0.27 0.29 0.26 0.20 0.19 0.17 0.17 0.18 0.20 0.19 0.20 0.17 0.16 0.18 0.20 0.21 0.21 0.20 0.23 0.25 0.21 0.18 0.18 0.13
0.74 0.73 0.67 0.61 0.58 0.55 0.51 0.45 0.40 0.37 0.35 0.31 0.32 0.27 0.21 0.23 0.25 0.22 0.21 0.21 0.22 0.22 0.23 0.22 0.19 0.17 0.15 0.14 0.16 0.16 0.15 0.15 0.16 0.18 0.18 0.18 0.22 0.22 0.19 0.18 0.16 0.15 0.12
0.46 0.42 0.36 0.34 0.34 0.32 0.28 0.24 0.24 0.24 0.23 0.23 0.21 0.17 0.16 0.20 0.20 0.21 0.24 0.27 0.26 0.25 0.25 0.23 0.19 0.17 0.17 0.20 0.19 0.20 0.15 0.13 0.13 0.15 0.16 0.14 0.14 0.15 0.16 0.16 0.16 0.16 0.14
0.25 0.24 0.22 0.21 0.20 0.19 0.18 0.18 0.23 0.26 0.28 0.30 0.31 0.28 0.24 0.29 0.29 0.26 0.28 0.27 0.26 0.25 0.21 0.22 0.22 0.18 0.16 0.17 0.19 0.23 0.21 0.14 0.14 0.18 0.20 0.17 0.14 0.13 0.14 0.15 0.14 0.17 0.16
0.14 0.16 0.15 0.16 0.19 0.25 0.29 0.29 0.28 0.28 0.30 0.31 0.27 0.25 0.25 0.24 0.24 0.24 0.25 0.24 0.23 0.24 0.26 0.29 0.30 0.26 0.22 0.22 0.23 0.22 0.20 0.19 0.25 0.24 0.25 0.23 0.15 0.12 0.15 0.14 0.13 0.13 0.15
0.18 0.22 0.24 0.27 0.29 0.26 0.25 0.25 0.28 0.27 0.25 0.24 0.23 0.21 0.19 0.18 0.15 0.14 0.15 0.14 0.14 0.14 0.14 0.14 0.15 0.14 0.14 0.16 0.19 0.16 0.17 0.20 0.23 0.22 0.30 0.29 0.22 0.17 0.15 0.15 0.16 0.16 0.15
0.14 0.18 0.18 0.17 0.20 0.24 0.27 0.26 0.24 0.22 0.21 0.20 0.19 0.20 0.18 0.17 0.15 0.13 0.10 0.10 0.11 0.10 0.10 0.12 0.12 0.11 0.11 0.13 0.14 0.16 0.13 0.14 0.19 0.24 0.31 0.33 0.29 0.24 0.22 0.22 0.19 0.21 0.15

GFSGL_prec_precacc_135.txt.gz
Total_Precipitation_Accumulation
0.72 0.58 0.53 0.66 0.97 0.89 0.79 0.71 0.70 0.99 1.24 1.19 1.26 1.47 1.35 1.46 1.46 1.45 1.32 1.17 1.15 1.14 1.07 1.00 0.79 0.75 0.88 1.07 1.06 1.03 1.20 1.48 1.49 0.80 0.71 0.56 0.39 0.23 0.19 0.22 0.24 0.18 0.12
0.96 0.89 1.21 1.43 1.51 1.41 1.41 1.52 1.23 0.98 0.94 0.89 1.04 1.16 1.11 1.29 1.47 1.45 1.32 1.18 1.19 1.38 1.51 1.59 1.41 1.24 1.19 1.13 1.32 1.20 0.99 0.96 0.99 0.62 0.42 0.42 0.38 0.31 0.27 0.21 0.21 0.16 0.14
1.47 1.58 1.70 1.69 1.68 1.74 1.68 1.51 1.33 1.34 1.35 1.32 1.47 1.52 1.28 1.17 1.40 1.46 1.43 1.27 1.29 1.39 1.28 1.27 1.16 1.23 1.33 1.18 1.16 1.24 1.04 0.86 0.85 0.83 0.54 0.44 0.40 0.36 0.43 0.36 0.30 0.27 0.17
1.52 1.29 1.32 1.68 1.69 1.65 1.48 1.28 1.07 1.07 1.07 1.16 1.04 1.01 0.99 0.98 1.07 1.27 1.45 1.53 1.20 1.19 1.17 1.23 1.26 1.13 0.92 0.82 0.79 0.72 0.72 0.78 0.72 0.75 0.77 0.59 0.48 0.40 0.50 0.47 0.45 0.43 0.45
1.58 1.41 1.60 1.47 1.39 1.40 1.33 1.02 0.82 0.96 1.00 0.93 0.77 0.86 0.93 1.04 1.31 1.23 1.27 1.44 1.40 1.22 1.05 1.09 1.07 1.24 1.20 0.99 0.92 0.93 0.89 0.98 1.01 1.01 0.94 0.70 0.61 0.57 0.55 0.48 0.54 0.53 0.60
1.47 1.79 1.35 1.69 1.65 1.20 1.13 0.99 0.95 0.97 1.04 1.23 1.03 1.08 1.36 1.41 1.74 1.71 1.60 1.67 1.56 1.46 1.35 1.23 1.37 1.47 1.30 1.48 1.28 1.15 1.19 1.23 1.18 1.08 1.05 1.01 0.77 0.65 0.66 0.81 0.94 0.96 0.92
0.99 1.86 1.87 1.92 2.69 1.89 1.15 1.16 1.09 1.44 1.40 1.29 1.51 1.43 1.33 1.30 1.73 1.74 1.86 1.66 1.99 1.88 1.75 1.54 1.47 1.52 1.67 1.45 1.70 1.70 1.72 1.81 1.61 1.32 1.32 1.26 1.21 1.06 1.17 1.41 1.51 1.51 1.47
0.36 0.76 1.39 1.44 2.05 2.85 2.20 1.85 1.90 1.58 1.49 1.22 1.19 1.16 1.13 1.71 1.79 2.15 2.44 2.10 1.81 1.87 2.00 1.89 1.78 1.67 1.86 1.83 1.72 1.79 1.80 1.93 2.10 2.14 2.19 2.37 2.40 2.28 2.36 2.45 2.51 2.63 2.66
0.24 0.37 0.55 0.96 1.26 1.65 2.23 2.49 2.40 2.29 1.94 1.70 1.31 1.19 1.22 1.21 1.29 1.14 1.33 1.53 2.05 2.36 2.29 2.32 2.42 2.35 3.03 2.95 2.50 2.68 2.84 3.00 3.46 3.43 3.30 3.26 3.13 2.88 2.56 2.46 2.88 2.87 3.00
0.40 0.38 0.36 0.51 0.76 1.07 1.33 1.45 1.49 1.45 1.52 1.50 1.49 1.28 1.43 1.27 1.64 1.35 1.10 0.74 0.99 1.31 1.64 1.98 2.60 2.26 2.67 2.46 2.22 2.18 2.76 3.24 3.04 3.14 3.23 3.07 2.89 2.82 3.01 2.75 2.49 2.53 2.55
0.82 0.77 0.77 0.77 0.76 0.71 0.74 0.71 0.74 0.85 0.84 0.85 0.94 0.89 0.80 0.88 1.09 1.19 1.19 0.98 1.12 1.28 1.32 1.38 1.62 2.17 1.85 2.07 2.27 2.22 3.04 3.05 3.05 2.64 2.47 2.43 2.35 2.33 2.39 2.50 2.54 2.60 2.66
1.28 1.20 1.12 0.93 0.84 0.82 0.81 0.86 0.78 0.76 0.75 0.72 0.66 0.62 0.62 0.70 1.04 0.92 0.85 0.87 1.12 0.97 1.27 1.28 1.55 1.65 1.37 1.52 1.77 2.32 2.50 2.34 2.26 2.36 2.28 2.18 2.03 1.93 1.87 1.83 1.86 1.89 1.93
1.47 1.41 1.42 1.32 1.23 1.14 1.06 1.04 0.93 0.84 0.80 0.82 0.79 0.86 0.90 0.84 0.95 1.10 0.95 0.95 0.97 0.89 1.30 1.84 2.01 1.76 1.57 1.55 1.64 1.69 1.70 1.74 1.84 1.89 1.89 1.83 1.70 1.55 1.33 1.24 1.15 1.08 1.05
1.02 1.08 1.23 1.28 1.28 1.20 1.11 1.12 1.08 1.07 1.11 1.16 1.12 1.14 1.13 1.11 1.10 1.12 1.20 1.28 1.39 1.46 1.72 1.80 1.73 1.64 1.60 1.68 1.64 1.56 1.50 1.42 1.30 1.23 1.09 0.96 0.84 0.76 0.72 0.70 0.73 0.79 0.78
0.58 0.65 0.66 0.69 0.76 0.79 0.83 0.89 0.81 0.99 0.95 0.91 1.02 1.10 1.18 1.36 1.65 1.54 1.47 1.49 1.51 1.55 1.45 1.38 1.25 1.11 1.01 0.97 0.90 0.85 0.83 0.81 0.79 0.79 0.75 0.71 0.64 0.53 0.47 0.43 0.50 0.59 0.68
0.40 0.45 0.55 0.58 0.57 0.59 0.64 0.77 0.87 0.89 0.81 0.82 0.87 0.85 1.08 1.23 1.21 1.13 1.07 1.03 1.00 0.98 0.98 0.95 0.93 0.89 0.85 0.82 0.79 0.75 0.68 0.65 0.62 0.60 0.59 0.55 0.51 0.47 0.44 0.39 0.42 0.45 0.47
0.24 0.27 0.33 0.40 0.42 0.45 0.48 0.54 0.75 1.04 1.15 1.32 1.40 1.43 1.37 1.50 1.39 1.28 1.17 1.04 0.95 0.81 0.88 0.80 0.77 0.73 0.67 0.60 0.57 0.53 0.55 0.50 0.44 0.42 0.39 0.37 0.39 0.37 0.35 0.32 0.30 0.30 0.29
0.40 0.46 0.49 0.52 0.56 0.63 0.69 0.75 0.79 0.85 0.93 1.03 1.03 0.95 0.93 0.87 0.80 0.71 0.62 0.53 0.58 0.51 0.54 0.53 0.53 0.47 0.43 0.39 0.36 0.34 0.31 0.29 0.30 0.30 0.32 0.33 0.35 0.35 0.33 0.29 0.27 0.29 0.23
0.45 0.56 0.67 0.80 0.92 0.91 0.86 0.82 0.81 0.80 0.81 0.82 0.73 0.65 0.63 0.55 0.44 0.39 0.34 0.43 0.40 0.34 0.28 0.26 0.25 0.23 0.20 0.18 0.20 0.20 0.22 0.22 0.21 0.23 0.22 0.23 0.24 0.26 0.24 0.22 0.23 0.19 0.18
0.80 0.96 0.94 0.95 0.94 0.89 0.81 0.73 0.68 0.64 0.61 0.58 0.56 0.55 0.44 0.32 0.31 0.27 0.25 0.27 0.29 0.26 0.20 0.19 0.17 0.17 0.18 0.20 0.20 0.20 0.17 0.16 0.18 0.20 0.21 0.21 0.20 0.23 0.25 0.21 0.18 0.18 0.13
0.74 0.73 0.67 0.61 0.58 0.55 0.51 0.45 0.40 0.37 0.35 0.31 0.32 0.27 0.21 0.23 0.25 0.22 0.21 0.21 0.22 0.22 0.23 0.22 0.19 0.18 0.16 0.15 0.16 0.16 0.16 0.15 0.16 0.18 0.18 0.18 0.22 0.22 0.19 0.18 0.16 0.15 0.12
0.46 0.42 0.36 0.34 0.34 0.32 0.28 0.24 0.24 0.24 0.23 0.23 0.21 0.17 0.16 0.20 0.20 0.21 0.24 0.27 0.26 0.25 0.25 0.23 0.19 0.17 0.17 0.20 0.20 0.21 0.16 0.14 0.13 0.15 0.16 0.14 0.14 0.15 0.16 0.16 0.16 0.16 0.14
0.25 0.24 0.22 0.21 0.20 0.19 0.18 0.18 0.23 0.26 0.28 0.30 0.31 0.28 0.24 0.29 0.29 0.26 0.28 0.27 0.26 0.25 0.21 0.22 0.22 0.18 0.16 0.17 0.20 0.24 0.21 0.15 0.15 0.18 0.20 0.17 0.14 0.13 0.14 0.15 0.14 0.17 0.17
0.14 0.16 0.15 0.16 0.19 0.25 0.29 0.29 0.28 0.28 0.30 0.31 0.27 0.25 0.25 0.24 0.24 0.24 0.25 0.24 0.23 0.24 0.26 0.29 0.30 0.26 0.22 0.22 0.23 0.22 0.21 0.20 0.26 0.25 0.25 0.23 0.15 0.12 0.15 0.14 0.13 0.13 0.16
0.18 0.22 0.24 0.27 0.29 0.26 0.25 0.25 0.28 0.27 0.25 0.24 0.23 0.21 0.19 0.18 0.15 0.14 0.15 0.14 0.14 0.14 0.14 0.14 0.15 0.14 0.14 0.16 0.19 0.16 0.17 0.20 0.24 0.23 0.31 0.29 0.22 0.17 0.15 0.15 0.16 0.16 0.15
0.14 0.18 0.18 0.17 0.20 0.24 0.27 0.26 0.24 0.22 0.21 0.20 0.19 0.20 0.18 0.17 0.15 0.13 0.10 0.10 0.11 0.10 0.10 0.12 0.12 0.11 0.11 0.13 0.14 0.16 0.13 0.15 0.20 0.25 0.31 0.33 0.29 0.24 0.22 0.22 0.19 0.21 0.15

GFSGL_prec_precacc_138.txt.gz
Total_Precipitation_Accumulation
0.72 0.58 0.54 0.68 1.02 0.94 0.83 0.73 0.72 1.01 1.27 1.23 1.30 1.51 1.39 1.50 1.50 1.48 1.34 1.18 1.18 1.16 1.09 1.02 0.79 0.75 0.89 1.09 1.17 1.28 1.42 1.56 1.58 0.90 0.84 0.76 0.70 0.51 0.32 0.25 0.25 0.19 0.13
0.96 0.89 1.22 1.46 1.55 1.44 1.44 1.55 1.26 1.04 1.00 0.94 1.09 1.20 1.16 1.34 1.52 1.49 1.35 1.20 1.21 1.39 1.53 1.60 1.41 1.24 1.19 1.13 1.34 1.24 1.21 1.23 1.22 0.90 0.74 0.60 0.48 0.41 0.34 0.25 0.23 0.18 0.16
1.47 1.58 1.70 1.70 1.69 1.75 1.70 1.53 1.38 1.43 1.45 1.41 1.56 1.59 1.32 1.22 1.45 1.51 1.48 1.29 1.31 1.41 1.28 1.27 1.16 1.23 1.33 1.18 1.17 1.26 1.12 0.99 1.01 1.13 0.92 0.70 0.55 0.46 0.49 0.40 0.32 0.30 0.21
1.52 1.29 1.33 1.68 1.70 1.65 1.48 1.28 1.07 1.08 1.09 1.21 1.14 1.15 1.13 1.05 1.12 1.31 1.48 1.55 1.22 1.20 1.18 1.23 1.26 1.13 0.93 0.82 0.79 0.72 0.73 0.82 0.81 0.92 0.92 0.73 0.64 0.58 0.64 0.59 0.53 0.49 0.51
1.58 1.41 1.60 1.47 1.39 1.40 1.33 1.02 0.82 0.96 1.01 0.94 0.77 0.88 0.96 1.08 1.41 1.31 1.35 1.49 1.43 1.25 1.08 1.11 1.10 1.26 1.21 1.00 0.92 0.93 0.89 0.99 1.05 1.08 1.03 0.76 0.68 0.67 0.64 0.54 0.57 0.59 0.73
1.47 1.79 1.35 1.69 1.65 1.20 1.13 0.99 0.95 0.98 1.04 1.23 1.03 1.08 1.36 1.42 1.74 1.72 1.62 1.72 1.59 1.48 1.38 1.25 1.40 1.54 1.36 1.51 1.30 1.16 1.20 1.25 1.21 1.11 1.10 1.07 0.80 0.67 0.68 0.85 0.98 0.98 0.94
0.99 1.86 1.87 1.92 2.69 1.89 1.15 1.16 1.09 1.44 1.40 1.29 1.51 1.43 1.33 1.30 1.73 1.74 1.86 1.66 1.99 1.89 1.76 1.55 1.48 1.54 1.68 1.48 1.74 1.73 1.74 1.82 1.63 1.36 1.36 1.30 1.25 1.10 1.19 1.42 1.52 1.55 1.55
0.36 0.76 1.39 1.44 2.05 2.85 2.20 1.85 1.90 1.58 1.49 1.22 1.20 1.16 1.14 1.71 1.79 2.15 2.44 2.10 1.81 1.87 2.00 1.90 1.78 1.67 1.86 1.83 1.72 1.79 1.81 1.94 2.11 2.15 2.20 2.39 2.42 2.31 2.38 2.45 2.51 2.63 2.67
0.24 0.37 0.55 0.96 1.26 1.65 2.23 2.49 2.40 2.29 1.94 1.70 1.31 1.19 1.23 1.21 1.29 1.14 1.33 1.53 2.05 2.36 2.29 2.32 2.42 2.35 3.04 2.95 2.51 2.68 2.84 3.01 3.47 3.44 3.31 3.27 3.14 2.89 2.56 2.46 2.88 2.87 3.00
0.40 0.38 0.36 0.51 0.76 1.07 1.33 1.45 1.49 1.45 1.52 1.50 1.49 1.28 1.43 1.27 1.64 1.35 1.10 0.74 0.99 1.31 1.64 1.98 2.60 2.26 2.67 2.46 2.22 2.18 2.76 3.24 3.04 3.14 3.24 3.08 2.90 2.83 3.02 2.76 2.50 2.55 2.57
0.82 0.77 0.77 0.77 0.76 0.71 0.74 0.71 0.74 0.85 0.84 0.85 0.94 0.89 0.80 0.88 1.09 1.19 1.19 0.98 1.12 1.28 1.32 1.38 1.62 2.17 1.85 2.07 2.27 2.22 3.04 3.05 3.05 2.64 2.47 2.43 2.36 2.33 2.39 2.51 2.56 2.63 2.69
1.28 1.20 1.12 0.93 0.84 0.82 0.81 0.86 0.78 0.76 0.75 0.72 0.66 0.62 0.62 0.70 1.04 0.92 0.85 0.87 1.12 0.97 1.27 1.28 1.55 1.65 1.37 1.52 1.77 2.32 2.50 2.34 2.26 2.36 2.28 2.18 2.03 1.93 1.88 1.83 1.86 1.90 1.95
1.47 1.41 1.42 1.32 1.23 1.14 1.06 1.04 0.93 0.84 0.80 0.82 0.79 0.86 0.90 0.84 0.95 1.10 0.95 0.95 0.97 0.89 1.30 1.84 2.01 1.76 1.57 1.55 1.64 1.69 1.70 1.74 1.84 1.89 1.89 1.83 1.70 1.55 1.33 1.24 1.16 1.09 1.05
1.02 1.08 1.23 1.28 1.28 1.20 1.11 1.12 1.08 1.07 1.11 1.16 1.12 1.14 1.13 1.11 1.10 1.12 1.20 1.28 1.39 1.46 1.72 1.80 1.73 1.64 1.60 1.68 1.64 1.56 1.50 1.42 1.30 1.23 1.10 0.96 0.84 0.76 0.72 0.70 0.73 0.79 0.79
0.58 0.65 0.66 0.69 0.76 0.79 0.83 0.89 0.81 0.99 0.95 0.91 1.02 1.10 1.18 1.36 1.65 1.54 1.47 1.49 1.51 1.55 1.45 1.38 1.25 1.11 1.01 0.97 0.90 0.85 0.83 0.81 0.79 0.79 0.75 0.71 0.64 0.53 0.47 0.43 0.50 0.59 0.68
0.40 0.45 0.55 0.58 0.57 0.59 0.64 0.77 0.87 0.89 0.81 0.82 0.87 0.85 1.08 1.23 1.21 1.13 1.07 1.03 1.00 0.98 0.98 0.95 0.93 0.89 0.85 0.82 0.79 0.75 0.68 0.65 0.62 0.60 0.59 0.55 0.51 0.47 0.44 0.39 0.42 0.45 0.47
0.24 0.27 0.33 0.40 0.42 0.45 0.48 0.54 0.75 1.04 1.15 1.32 1.40 1.43 1.38 1.50 1.40 1.28 1.17 1.04 0.95 0.81 0.88 0.80 0.77 0.73 0.67 0.60 0.57 0.53 0.55 0.50 0.44 0.42 0.39 0.37 0.39 0.37 0.35 0.32 0.30 0.30 0.29
0.40 0.46 0.49 0.52 0.56 0.63 0.69 0.75 0.79 0.85 0.93 1.04 1.03 0.95 0.93 0.87 0.80 0.72 0.62 0.53 0.58 0.51 0.54 0.53 0.53 0.47 0.43 0.39 0.36 0.34 0.31 0.29 0.30 0.30 0.32 0.33 0.35 0.35 0.33 0.29 0.27 0.29 0.23
0.45 0.56 0.67 0.80 0.92 0.91 0.86 0.82 0.81 0.80 0.81 0.82 0.73 0.65 0.63 0.55 0.44 0.39 0.34 0.43 0.40 0.34 0.28 0.26 0.25 0.23 0.20 0.18 0.20 0.21 0.22 0.22 0.21 0.23 0.22 0.23 0.24 0.26 0.24 0.22 0.23 0.19 0.18
0.80 0.96 0.94 0.95 0.94 0.89 0.81 0.73 0.68 0.64 0.61 0.58 0.56 0.55 0.44 0.32 0.31 0.27 0.25 0.27 0.29 0.26 0.20 0.19 0.17 0.18 0.19 0.20 0.20 0.20 0.18 0.16 0.18 0.20 0.21 0.21 0.20 0.23 0.25 0.22 0.18 0.18 0.13
0.74 0.73 0.67 0.61 0.58 0.55 0.51 0.45 0.40 0.37 0.35 0.31 0.32 0.27 0.21 0.23 0.25 0.22 0.21 0.21 0.22 0.22 0.23 0.22 0.19 0.18 0.16 0.15 0.16 0.16 0.16 0.16 0.16 0.18 0.19 0.18 0.23 0.23 0.19 0.19 0.16 0.15 0.12
0.46 0.42 0.36 0.34 0.34 0.32 0.28 0.24 0.24 0.24 0.23 0.23 0.21 0.17 0.16 0.20 0.20 0.21 0.24 0.27 0.26 0.25 0.25 0.23 0.19 0.17 0.17 0.20 0.20 0.21 0.16 0.14 0.14 0.16 0.16 0.15 0.15 0.15 0.16 0.16 0.16 0.16 0.14
0.25 0.24 0.22 0.21 0.20 0.19 0.18 0.18 0.23 0.26 0.28 0.30 0.31 0.28 0.24 0.29 0.29 0.26 0.28 0.27 0.26 0.25 0.21 0.22 0.22 0.18 0.16 0.17 0.20 0.24 0.22 0.15 0.16 0.19 0.21 0.18 0.14 0.13 0.14 0.15 0.15 0.17 0.17
0.14 0.16 0.15 0.16 0.19 0.25 0.29 0.29 0.28 0.28 0.30 0.31 0.27 0.25 0.25 0.24 0.24 0.24 0.25 0.24 0.23 0.24 0.26 0.29 0.30 0.26 0.22 0.22 0.23 0.22 0.21 0.20 0.26 0.25 0.26 0.24 0.15 0.12 0.15 0.15 0.13 0.13 0.16
0.18 0.22 0.24 0.27 0.29 0.26 0.25 0.25 0.28 0.27 0.25 0.24 0.23 0.21 0.19 0.18 0.15 0.15 0.15 0.14 0.14 0.14 0.14 0.14 0.15 0.14 0.14 0.16 0.19 0.16 0.17 0.21 0.24 0.24 0.31 0.30 0.22 0.17 0.16 0.16 0.16 0.17 0.16
0.14 0.18 0.18 0.17 0.20 0.24 0.27 0.26 0.24 0.22 0.21 0.20 0.19 0.20 0.18 0.17 0.15 0.13 0.10 0.10 0.11 0.10 0.10 0.12 0.12 0.11 0.11 0.13 0.14 0.16 0.14 0.15 0.20 0.25 0.32 0.33 0.29 0.24 0.23 0.22 0.19 0.21 0.16

GFSGL_prec_precacc_141.txt.gz
Total_Precipitation_Accumulation
0.72 0.58 0.54 0.69 1.02 0.95 0.85 0.75 0.74 1.03 1.29 1.25 1.33 1.55 1.45 1.58 1.57 1.54 1.39 1.22 1.22 1.19 1.11 1.03 0.80 0.76 0.90 1.10 1.20 1.30 1.52 1.76 1.78 1.01 0.90 0.79 0.73 0.53 0.34 0.34 0.39 0.42 0.47
0.96 0.89 1.22 1.47 1.56 1.45 1.45 1.58 1.31 1.09 1.05 0.99 1.14 1.24 1.20 1.39 1.57 1.56 1.42 1.25 1.25 1.43 1.55 1.61 1.42 1.25 1.19 1.13 1.34 1.24 1.22 1.34 1.38 1.06 0.87 0.67 0.51 0.46 0.41 0.30 0.26 0.22 0.20
1.47 1.58 1.70 1.70 1.70 1.76 1.70 1.54 1.39 1.46 1.50 1.45 1.62 1.68 1.39 1.27 1.50 1.56 1.54 1.34 1.36 1.44 1.32 1.29 1.17 1.24 1.33 1.18 1.17 1.26 1.12 1.00 1.09 1.27 1.02 0.88 0.74 0.61 0.59 0.47 0.35 0.33 0.25
1.52 1.29 1.33 1.68 1.70 1.65 1.48 1.28 1.07 1.08 1.09 1.21 1.16 1.21 1.22 1.15 1.21 1.38 1.53 1.59 1.26 1.25 1.21 1.25 1.28 1.14 0.93 0.82 0.79 0.72 0.73 0.82 0.82 0.97 1.13 1.14 1.10 1.01 1.01 0.86 0.71 0.65 0.62
1.58 1.41 1.60 1.47 1.39 1.40 1.33 1.02 0.82 0.96 1.01 0.94 0.77 0.88 0.96 1.09 1.43 1.35 1.41 1.55 1.49 1.30 1.14 1.15 1.13 1.30 1.24 1.01 0.93 0.93 0.89 0.99 1.05 1.10 1.11 0.94 0.96 1.03 0.98 0.94 0.88 0.95 0.96
1.47 1.79 1.35 1.69 1.65 1.20 1.13 0.99 0.95 0.98 1.04 1.24 1.03 1.08 1.36 1.42 1.74 1.72 1.62 1.72 1.61 1.50 1.40 1.26 1.40 1.56 1.42 1.54 1.31 1.17 1.20 1.25 1.21 1.12 1.11 1.09 0.87 0.77 0.76 0.89 1.10 1.14 1.07
0.99 1.86 1.87 1.92 2.69 1.89 1.15 1.16 1.09 1.44 1.40 1.29 1.51 1.43 1.33 1.30 1.73 1.74 1.86 1.66 1.99 1.89 1.76 1.55 1.48 1.54 1.69 1.48 1.75 1.73 1.74 1.82 1.63 1.36 1.37 1.31 1.26 1.13 1.23 1.45 1.54 1.58 1.63
0.36 0.76 1.39 1.44 2.05 2.85 2.20 1.85 1.90 1.58 1.49 1.22 1.20 1.16 1.14 1.71 1.79 2.15 2.44 2.10 1.81 1.87 2.00 1.90 1.78 1.67 1.86 1.83 1.72 1.79 1.81 1.95 2.12 2.15 2.20 2.40 2.44 2.32 2.38 2.47 2.54 2.65 2.67
0.24 0.37 0.55 0.96 1.26 1.65 2.23 2.49 2.40 2.29 1.94 1.70 1.31 1.19 1.23 1.21 1.29 1.14 1.33 1.53 2.05 2.36 2.29 2.32 2.42 2.35 3.04 2.95 2.51 2.68 2.84 3.01 3.47 3.44 3.31 3.27 3.14 2.89 2.56 2.46 2.88 2.87 3.01
0.40 0.38 0.36 0.51 0.76 1.07 1.33 1.45 1.49 1.45 1.52 1.50 1.49 1.28 1.43 1.27 1.64 1.35 1.10 0.74 0.99 1.31 1.64 1.98 2.60 2.26 2.67 2.46 2.22 2.18 2.76 3.24 3.04 3.14 3.24 3.08 2.90 2.83 3.02 2.76 2.51 2.55 2.57
0.82 0.77 0.77 0.77 0.76 0.71 0.74 0.71 0.74 0.85 0.84 0.85 0.94 0.89 0.80 0.88 1.09 1.19 1.19 0.98 1.12 1.28 1.32 1.38 1.62 2.17 1.85 2.07 2.27 2.22 3.04 3.05 3.05 2.64 2.47 2.43 2.36 2.33 2.39 2.51 2.56 2.64 2.70
1.28 1.20 1.12 0.93 0.84 0.82 0.81 0.86 0.78 0.76 0.75 0.72 0.66 0.62 0.62 0.70 1.04 0.92 0.85 0.87 1.12 0.97 1.27 1.28 1.55 1.65 1.37 1.52 1.77 2.32 2.50 2.34 2.26 2.36 2.28 2.18 2.03 1.93 1.88 1.83 1.86 1.91 1.95
1.47 1.41 1.42 1.32 1.23 1.14 1.07 1.04 0.93 0.84 0.80 0.82 0.79 0.86 0.90 0.84 0.95 1.10 0.95 0.95 0.97 0.89 1.30 1.84 2.01 1.76 1.57 1.55 1.64 1.69 1.70 1.74 1.84 1.89 1.89 1.83 1.70 1.55 1.33 1.24 1.16 1.09 1.05
1.02 1.08 1.23 1.28 1.28 1.20 1.11 1.12 1.08 1.07 1.11 1.16 1.12 1.14 1.13 1.11 1.10 1.12 1.20 1.28 1.39 1.46 1.72 1.80 1.73 1.64 1.60 1.68 1.64 1.56 1.50 1.42 1.30 1.23 1.10 0.96 0.84 0.76 0.72 0.70 0.73 0.79 0.79
0.58 0.65 0.66 0.69 0.76 0.79 0.83 0.89 0.81 0.99 0.95 0.91 1.02 1.11 1.18 1.36 1.65 1.54 1.47 1.49 1.51 1.55 1.45 1.38 1.25 1.11 1.01 0.97 0.90 0.85 0.83 0.81 0.79 0.79 0.75 0.71 0.64 0.53 0.47 0.43 0.50 0.59 0.68
0.40 0.45 0.55 0.58 0.57 0.59 0.64 0.77 0.87 0.89 0.81 0.82 0.87 0.86 1.09 1.23 1.21 1.13 1.07 1.03 1.00 0.98 0.98 0.95 0.93 0.89 0.85 0.82 0.79 0.75 0.68 0.65 0.62 0.60 0.59 0.55 0.51 0.47 0.44 0.39 0.42 0.45 0.47
0.24 0.27 0.33 0.40 0.42 0.45 0.48 0.54 0.75 1.04 1.15 1.32 1.40 1.43 1.38 1.50 1.40 1.28 1.17 1.04 0.95 0.81 0.88 0.80 0.77 0.73 0.67 0.60 0.57 0.53 0.55 0.50 0.44 0.42 0.39 0.37 0.39 0.37 0.35 0.32 0.30 0.30 0.29
0.40 0.46 0.49 0.52 0.56 0.63 0.69 0.75 0.79 0.85 0.93 1.04 1.03 0.95 0.93 0.87 0.80 0.72 0.62 0.53 0.58 0.51 0.54 0.53 0.53 0.47 0.43 0.39 0.36 0.34 0.31 0.30 0.30 0.30 0.32 0.33 0.36 0.35 0.33 0.29 0.27 0.29 0.23
0.45 0.56 0.67 0.80 0.92 0.91 0.86 0.82 0.81 0.80 0.81 0.82 0.73 0.65 0.63 0.55 0.44 0.39 0.34 0.43 0.40 0.34 0.28 0.26 0.25 0.23 0.20 0.18 0.20 0.21 0.22 0.22 0.21 0.23 0.22 0.23 0.24 0.27 0.24 0.22 0.23 0.19 0.18
0.80 0.96 0.94 0.95 0.94 0.89 0.81 0.73 0.68 0.64 0.61 0.58 0.56 0.55 0.44 0.32 0.31 0.27 0.25 0.27 0.29 0.26 0.20 0.19 0.17 0.18 0.19 0.20 0.20 0.21 0.18 0.16 0.18 0.20 0.21 0.21 0.20 0.23 0.26 0.22 0.18 0.18 0.13
0.74 0.73 0.67 0.61 0.58 0.55 0.51 0.45 0.40 0.37 0.35 0.31 0.32 0.27 0.21 0.23 0.25 0.22 0.21 0.21 0.22 0.22 0.23 0.22 0.19 0.18 0.16 0.15 0.16 0.17 0.16 0.16 0.17 0.19 0.19 0.19 0.23 0.23 0.19 0.19 0.17 0.15 0.12
0.46 0.42 0.36 0.34 0.34 0.32 0.28 0.24 0.24 0.24 0.23 0.23 0.21 0.17 0.16 0.20 0.20 0.21 0.24 0.27 0.26 0.25 0.25 0.23 0.20 0.17 0.17 0.20 0.20 0.21 0.16 0.15 0.14 0.16 0.16 0.15 0.15 0.15 0.16 0.16 0.16 0.16 0.15
0.25 0.24 0.22 0.21 0.20 0.19 0.18 0.18 0.23 0.26 0.28 0.30 0.31 0.28 0.24 0.29 0.30 0.27 0.28 0.28 0.26 0.25 0.21 0.22 0.23 0.18 0.16 0.17 0.20 0.24 0.22 0.16 0.16 0.19 0.21 0.18 0.15 0.13 0.15 0.15 0.15 0.17 0.17
0.14 0.16 0.15 0.16 0.19 0.25 0.29 0.29 0.28 0.28 0.30 0.31 0.27 0.25 0.25 0.25 0.24 0.24 0.25 0.24 0.23 0.24 0.26 0.30 0.30 0.26 0.22 0.22 0.23 0.22 0.21 0.20 0.26 0.26 0.26 0.24 0.16 0.13 0.15 0.15 0.13 0.14 0.16
0.18 0.22 0.25 0.28 0.29 0.26 0.25 0.25 0.28 0.27 0.25 0.24 0.23 0.21 0.19 0.18 0.15 0.15 0.15 0.14 0.14 0.14 0.14 0.14 0.15 0.14 0.14 0.16 0.19 0.17 0.17 0.21 0.24 0.24 0.32 0.31 0.23 0.18 0.16 0.16 0.16 0.17 0.16
0.14 0.18 0.18 0.17 0.20 0.24 0.27 0.26 0.24 0.22 0.21 0.20 0.19 0.20 0.18 0.17 0.15 0.14 0.10 0.10 0.11 0.10 0.10 0.12 0.12 0.11 0.11 0.13 0.14 0.16 0.14 0.15 0.21 0.26 0.33 0.34 0.31 0.25 0.23 0.22 0.19 0.21 0.16

GFSGL_prec_precacc_144.txt.gz
Total_Precipitation_Accumulation
0.72 0.58 0.54 0.69 1.02 0.95 0.85 0.77 0.79 1.09 1.34 1.28 1.36 1.57 1.48 1.62 1.62 1.60 1.44 1.28 1.26 1.22 1.14 1.05 0.82 0.78 0.92 1.12 1.21 1.32 1.54 1.80 1.80 1.02 0.96 0.91 0.85 0.72 0.55 0.45 0.51 0.54 0.64
0.96 0.89 1.22 1.47 1.56 1.45 1.46 1.58 1.32 1.12 1.09 1.04 1.19 1.28 1.23 1.43 1.62 1.62 1.50 1.35 1.33 1.49 1.59 1.64 1.45 1.26 1.20 1.14 1.35 1.25 1.23 1.35 1.40 1.08 0.90 0.75 0.66 0.64 0.60 0.49 0.33 0.28 0.24
1.47 1.58 1.70 1.70 1.70 1.76 1.70 1.54 1.39 1.46 1.51 1.46 1.65 1.72 1.44 1.32 1.55 1.61 1.60 1.41 1.43 1.51 1.38 1.34 1.21 1.26 1.35 1.19 1.17 1.26 1.13 1.01 1.11 1.28 1.04 0.90 0.78 0.69 0.68 0.63 0.55 0.50 0.37
1.52 1.29 1.33 1.68 1.70 1.65 1.49 1.28 1.07 1.08 1.09 1.21 1.16 1.22 1.23 1.17 1.25 1.44 1.59 1.67 1.36 1.33 1.32 1.34 1.37 1.18 0.97 0.85 0.81 0.73 0.73 0.82 0.82 0.98 1.13 1.14 1.11 1.07 1.16 0.98 0.80 0.76 0.76
1.58 1.41 1.60 1.47 1.39 1.40 1.33 1.02 0.82 0.96 1.01 0.94 0.77 0.88 0.96 1.09 1.43 1.36 1.42 1.58 1.54 1.38 1.24 1.20 1.19 1.39 1.30 1.07 0.96 0.96 0.90 1.00 1.05 1.10 1.11 0.94 0.97 1.05 1.04 1.07 1.03 1.10 1.13
1.47 1.79 1.35 1.69 1.65 1.20 1.13 0.99 0.95 0.98 1.04 1.24 1.03 1.09 1.36 1.42 1.74 1.72 1.62 1.72 1.61 1.50 1.40 1.26 1.40 1.57 1.48 1.63 1.39 1.21 1.21 1.25 1.22 1.12 1.12 1.10 0.87 0.78 0.80 1.01 1.30 1.42 1.44
0.99 1.86 1.87 1.92 2.69 1.89 1.15 1.16 1.09 1.44 1.40 1.29 1.51 1.43 1.33 1.30 1.73 1.74 1.86 1.66 1.99 1.89 1.76 1.55 1.49 1.54 1.69 1.48 1.75 1.74 1.74 1.83 1.63 1.37 1.38 1.32 1.27 1.14 1.24 1.47 1.56 1.64 1.71
0.36 0.76 1.39 1.44 2.05 2.85 2.20 1.85 1.90 1.58 1.49 1.22 1.20 1.16 1.14 1.71 1.79 2.15 2.44 2.10 1.81 1.87 2.00 1.90 1.78 1.67 1.86 1.83 1.72 1.79 1.81 1.95 2.12 2.16 2.21 2.40 2.44 2.33 2.38 2.47 2.54 2.65 2.68
0.24 0.37 0.55 0.96 1.26 1.65 2.23 2.49 2.40 2.29 1.94 1.70 1.31 1.19 1.23 1.21 1.29 1.14 1.33 1.53 2.05 2.36 2.29 2.32 2.42 2.35 3.04 2.95 2.51 2.68 2.84 3.01 3.47 3.44 3.31 3.27 3.14 2.89 2.56 2.46 2.88 2.87 3.01
0.40 0.38 0.36 0.51 0.76 1.07 1.33 1.45 1.49 1.45 1.52 1.50 1.49 1.28 1.43 1.27 1.64 1.35 1.10 0.74 0.99 1.31 1.64 1.98 2.60 2.26 2.67 2.46 2.22 2.18 2.76 3.24 3.04 3.14 3.24 3.08 2.90 2.83 3.02 2.76 2.51 2.55 2.57
0.82 0.77 0.77 0.77 0.76 0.71 0.74 0.71 0.74 0.85 0.84 0.85 0.94 0.89 0.80 0.88 1.09 1.19 1.19 0.98 1.12 1.28 1.32 1.38 1.62 2.17 1.85 2.07 2.27 2.22 3.04 3.05 3.05 2.64 2.47 2.43 2.36 2.33 2.39 2.51 2.56 2.64 2.70
1.28 1.20 1.12 0.93 0.84 0.82 0.82 0.86 0.78 0.76 0.75 0.72 0.66 0.62 0.62 0.70 1.04 0.92 0.85 0.87 1.12 0.97 1.27 1.28 1.55 1.65 1.37 1.52 1.77 2.32 2.50 2.34 2.26 2.36 2.28 2.18 2.03 1.93 1.88 1.83 1.86 1.91 1.95
1.47 1.41 1.42 1.32 1.23 1.15 1.07 1.04 0.93 0.84 0.80 0.82 0.80 0.86 0.90 0.84 0.95 1.10 0.95 0.95 0.97 0.89 1.30 1.84 2.01 1.76 1.57 1.55 1.64 1.69 1.70 1.74 1.84 1.89 1.89 1.83 1.70 1.55 1.33 1.24 1.16 1.09 1.05
1.02 1.08 1.23 1.28 1.28 1.20 1.11 1.12 1.08 1.07 1.11 1.16 1.12 1.14 1.13 1.11 1.10 1.12 1.20 1.28 1.39 1.46 1.72 1.80 1.73 1.64 1.60 1.68 1.64 1.56 1.50 1.42 1.30 1.23 1.10 0.96 0.84 0.76 0.72 0.70 0.73 0.79 0.79
0.58 0.65 0.66 0.69 0.76 0.79 0.83 0.89 0.81 0.99 0.95 0.91 1.03 1.11 1.18 1.36 1.65 1.54 1.47 1.49 1.51 1.55 1.45 1.38 1.25 1.11 1.01 0.97 0.90 0.85 0.83 0.81 0.79 0.79 0.75 0.71 0.64 0.53 0.47 0.43 0.50 0.59 0.68
0.40 0.45 0.55 0.58 0.57 0.59 0.64 0.77 0.87 0.89 0.81 0.82 0.87 0.86 1.09 1.23 1.21 1.13 1.07 1.03 1.00 0.98 0.98 0.95 0.93 0.89 0.85 0.82 0.79 0.75 0.68 0.65 0.62 0.60 0.59 0.55 0.51 0.47 0.44 0.39 0.42 0.45 0.47
0.24 0.27 0.33 0.40 0.42 0.45 0.48 0.54 0.75 1.04 1.15 1.32 1.40 1.43 1.38 1.50 1.40 1.28 1.17 1.04 0.95 0.81 0.88 0.80 0.78 0.74 0.67 0.60 0.57 0.53 0.55 0.51 0.44 0.42 0.39 0.37 0.39 0.37 0.35 0.32 0.30 0.30 0.29
0.40 0.46 0.49 0.52 0.56 0.63 0.69 0.75 0.79 0.86 0.94 1.05 1.03 0.95 0.93 0.87 0.80 0.72 0.62 0.53 0.58 0.51 0.54 0.53 0.53 0.47 0.43 0.39 0.36 0.34 0.31 0.30 0.30 0.30 0.32 0.34 0.36 0.35 0.33 0.30 0.28 0.29 0.23
0.45 0.56 0.67 0.80 0.92 0.91 0.86 0.82 0.81 0.80 0.81 0.82 0.73 0.65 0.63 0.55 0.44 0.39 0.34 0.43 0.40 0.34 0.28 0.26 0.25 0.23 0.20 0.18 0.20 0.21 0.23 0.22 0.22 0.23 0.22 0.24 0.25 0.27 0.24 0.23 0.23 0.19 0.18
0.80 0.96 0.94 0.95 0.94 0.89 0.81 0.73 0.68 0.64 0.61 0.58 0.56 0.55 0.44 0.32 0.31 0.27 0.25 0.28 0.29 0.26 0.20 0.19 0.17 0.18 0.19 0.21 0.20 0.21 0.18 0.16 0.18 0.21 0.21 0.22 0.21 0.24 0.26 0.22 0.19 0.18 0.13
0.74 0.73 0.67 0.61 0.58 0.55 0.51 0.45 0.40 0.37 0.35 0.31 0.32 0.27 0.21 0.23 0.25 0.22 0.21 0.21 0.22 0.22 0.23 0.22 0.19 0.18 0.16 0.15 0.16 0.17 0.16 0.16 0.17 0.19 0.19 0.19 0.23 0.23 0.20 0.19 0.17 0.16 0.12
0.46 0.42 0.36 0.34 0.34 0.32 0.28 0.24 0.24 0.24 0.23 0.23 0.21 0.17 0.16 0.20 0.20 0.21 0.24 0.27 0.26 0.25 0.25 0.24 0.20 0.17 0.18 0.21 0.20 0.22 0.16 0.15 0.14 0.16 0.16 0.15 0.15 0.16 0.17 0.17 0.17 0.16 0.15
0.25 0.24 0.22 0.21 0.20 0.19 0.18 0.18 0.23 0.26 0.28 0.30 0.31 0.28 0.24 0.29 0.30 0.27 0.28 0.28 0.26 0.25 0.21 0.22 0.23 0.18 0.16 0.17 0.20 0.24 0.22 0.16 0.16 0.19 0.22 0.19 0.15 0.14 0.16 0.16 0.15 0.18 0.17
0.14 0.16 0.15 0.16 0.19 0.25 0.29 0.30 0.28 0.28 0.30 0.31 0.27 0.25 0.25 0.25 0.25 0.24 0.25 0.24 0.23 0.24 0.26 0.30 0.30 0.26 0.22 0.22 0.23 0.22 0.21 0.21 0.27 0.26 0.27 0.25 0.16 0.13 0.16 0.16 0.14 0.14 0.16
0.18 0.22 0.25 0.28 0.29 0.27 0.25 0.25 0.28 0.27 0.25 0.24 0.23 0.21 0.19 0.18 0.15 0.15 0.15 0.14 0.14 0.14 0.14 0.14 0.15 0.14 0.14 0.16 0.20 0.17 0.17 0.21 0.24 0.24 0.33 0.32 0.24 0.19 0.18 0.17 0.16 0.17 0.16
0.14 0.18 0.18 0.17 0.21 0.24 0.28 0.26 0.24 0.22 0.21 0.20 0.20 0.20 0.18 0.17 0.15 0.14 0.10 0.10 0.11 0.10 0.10 0.12 0.12 0.11 0.11 0.13 0.15 0.16 0.14 0.15 0.21 0.26 0.34 0.35 0.31 0.27 0.24 0.23 0.20 0.22 0.16

GFSGL_prec_precacc_147.txt.gz
Total_Precipitation_Accumulation
0.72 0.58 0.54 0.69 1.02 0.95 0.85 0.77 0.79 1.11 1.38 1.32 1.38 1.59 1.51 1.64 1.65 1.63 1.47 1.32 1.30 1.26 1.18 1.09 0.85 0.80 0.93 1.13 1.22 1.34 1.56 1.82 1.82 1.03 0.96 0.92 0.85 0.72 0.56 0.49 0.56 0.62 0.72
0.96 0.89 1.22 1.47 1.56 1.45 1.46 1.58 1.32 1.12 1.09 1.04 1.21 1.30 1.25 1.46 1.66 1.64 1.53 1.38 1.37 1.53 1.63 1.67 1.47 1.29 1.23 1.16 1.36 1.26 1.25 1.38 1.42 1.11 0.92 0.76 0.66 0.64 0.61 0.66 0.67 0.51 0.37
1.47 1.58 1.70 1.70 1.70 1.76 1.70 1.54 1.39 1.46 1.51 1.46 1.65 1.72 1.45 1.33 1.57 1.63 1.63 1.45 1.47 1.55 1.42 1.39 1.26 1.29 1.38 1.21 1.19 1.28 1.14 1.03 1.13 1.31 1.05 0.90 0.78 0.69 0.68 0.66 0.68 0.75 0.66
1.52 1.29 1.33 1.68 1.70 1.65 1.49 1.28 1.07 1.08 1.09 1.21 1.16 1.22 1.23 1.17 1.25 1.44 1.60 1.69 1.40 1.40 1.39 1.41 1.47 1.26 1.02 0.89 0.82 0.74 0.75 0.83 0.83 0.99 1.14 1.15 1.11 1.07 1.16 0.99 0.83 0.81 0.90
1.58 1.41 1.60 1.47 1.39 1.40 1.33 1.02 0.82 0.96 1.01 0.94 0.77 0.88 0.96 1.09 1.43 1.36 1.42 1.58 1.54 1.38 1.24 1.22 1.22 1.47 1.41 1.17 1.04 1.02 0.93 1.02 1.07 1.11 1.12 0.95 0.98 1.05 1.04 1.07 1.03 1.11 1.15
1.47 1.79 1.35 1.69 1.65 1.20 1.13 0.99 0.95 0.98 1.04 1.24 1.03 1.09 1.36 1.43 1.74 1.72 1.62 1.72 1.61 1.50 1.40 1.26 1.40 1.57 1.50 1.66 1.48 1.31 1.26 1.28 1.25 1.14 1.13 1.11 0.88 0.79 0.80 1.01 1.30 1.43 1.44
0.99 1.86 1.87 1.92 2.69 1.89 1.15 1.16 1.09 1.44 1.40 1.29 1.51 1.43 1.33 1.30 1.73 1.74 1.86 1.66 1.99 1.89 1.76 1.55 1.49 1.54 1.69 1.48 1.75 1.74 1.75 1.83 1.64 1.39 1.39 1.33 1.28 1.15 1.25 1.47 1.56 1.64 1.72
0.36 0.76 1.39 1.44 2.05 2.85 2.20 1.85 1.90 1.58 1.49 1.22 1.20 1.16 1.14 1.71 1.79 2.15 2.44 2.10 1.81 1.87 2.00 1.90 1.78 1.67 1.86 1.83 1.72 1.79 1.81 1.95 2.12 2.16 2.21 2.40 2.44 2.33 2.38 2.47 2.54 2.65 2.68
0.24 0.37 0.55 0.96 1.26 1.65 2.23 2.49 2.40 2.29 1.94 1.70 1.31 1.19 1.23 1.21 1.29 1.14 1.33 1.53 2.05 2.36 2.29 2.32 2.42 2.35 3.04 2.95 2.51 2.68 2.84 3.01 3.47 3.44 3.31 3.27 3.14 2.89 2.56 2.46 2.88 2.87 3.01
0.40 0.38 0.36 0.51 0.76 1.07 1.33 1.45 1.49 1.45 1.52 1.50 1.49 1.28 1.43 1.27 1.64 1.35 1.10 0.74 0.99 1.31 1.64 1.98 2.60 2.26 2.67 2.46 2.22 2.18 2.76 3.24 3.04 3.14 3.24 3.08 2.90 2.83 3.02 2.76 2.51 2.55 2.57
0.82 0.77 0.77 0.77 0.76 0.71 0.74 0.71 0.74 0.85 0.84 0.85 0.94 0.89 0.80 0.88 1.09 1.19 1.19 0.98 1.12 1.28 1.32 1.38 1.62 2.17 1.85 2.07 2.27 2.22 3.04 3.05 3.05 2.64 2.47 2.43 2.36 2.33 2.39 2.51 2.56 2.65 2.70
1.28 1.20 1.12 0.93 0.84 0.82 0.82 0.86 0.78 0.76 0.75 0.72 0.66 0.62 0.62 0.70 1.04 0.92 0.85 0.87 1.12 0.97 1.27 1.28 1.55 1.65 1.37 1.52 1.77 2.32 2.50 2.34 2.26 2.36 2.28 2.18 2.03 1.93 1.88 1.83 1.86 1.91 1.95
1.47 1.41 1.42 1.32 1.23 1.15 1.07 1.04 0.93 0.84 0.80 0.82 0.80 0.86 0.90 0.84 0.95 1.10 0.95 0.95 0.97 0.89 1.30 1.84 2.01 1.76 1.57 1.55 1.64 1.69 1.70 1.74 1.84 1.89 1.89 1.83 1.70 1.55 1.33 1.24 1.16 1.09 1.05
1.02 1.08 1.23 1.28 1.28 1.20 1.11 1.12 1.08 1.07 1.11 1.16 1.12 1.14 1.13 1.11 1.10 1.12 1.20 1.28 1.39 1.46 1.72 1.80 1.73 1.64 1.60 1.68 1.64 1.56 1.50 1.42 1.30 1.23 1.10 0.96 0.84 0.76 0.72 0.70 0.73 0.79 0.79
0.58 0.65 0.66 0.69 0.76 0.79 0.83 0.89 0.81 0.99 0.95 0.91 1.03 1.11 1.18 1.36 1.65 1.54 1.47 1.49 1.51 1.55 1.45 1.38 1.25 1.11 1.01 0.97 0.90 0.85 0.83 0.81 0.79 0.79 0.75 0.71 0.64 0.53 0.47 0.43 0.50 0.59 0.68
0.40 0.45 0.55 0.58 0.57 0.59 0.64 0.77 0.87 0.89 0.81 0.82 0.87 0.86 1.09 1.23 1.21 1.13 1.07 1.03 1.00 0.98 0.98 0.95 0.93 0.89 0.85 0.82 0.79 0.75 0.68 0.65 0.62 0.60 0.59 0.55 0.51 0.47 0.44 0.39 0.42 0.45 0.47
0.24 0.27 0.33 0.40 0.42 0.45 0.48 0.54 0.75 1.04 1.15 1.32 1.40 1.43 1.38 1.50 1.40 1.28 1.17 1.04 0.95 0.81 0.88 0.80 0.78 0.74 0.67 0.60 0.57 0.53 0.55 0.51 0.44 0.42 0.39 0.37 0.39 0.37 0.35 0.32 0.30 0.30 0.29
0.40 0.46 0.49 0.52 0.56 0.63 0.69 0.75 0.79 0.86 0.94 1.05 1.03 0.95 0.93 0.87 0.80 0.72 0.62 0.53 0.58 0.51 0.54 0.53 0.53 0.47 0.43 0.39 0.36 0.34 0.31 0.30 0.30 0.30 0.32 0.34 0.36 0.35 0.33 0.30 0.28 0.29 0.23
0.45 0.56 0.67 0.80 0.92 0.91 0.86 0.82 0.81 0.80 0.81 0.82 0.73 0.65 0.63 0.55 0.44 0.39 0.34 0.43 0.40 0.34 0.28 0.26 0.25 0.23 0.20 0.18 0.20 0.21 0.23 0.22 0.22 0.23 0.22 0.24 0.25 0.27 0.24 0.23 0.23 0.19 0.18
0.80 0.96 0.94 0.95 0.94 0.89 0.81 0.73 0.68 0.64 0.61 0.58 0.56 0.55 0.44 0.32 0.31 0.27 0.25 0.28 0.29 0.26 0.20 0.19 0.17 0.18 0.19 0.21 0.20 0.21 0.18 0.16 0.18 0.21 0.21 0.22 0.21 0.24 0.26 0.23 0.19 0.18 0.13
0.74 0.73 0.67 0.61 0.58 0.55 0.51 0.45 0.40 0.37 0.35 0.31 0.32 0.27 0.21 0.23 0.25 0.22 0.21 0.21 0.22 0.22 0.23 0.22 0.19 0.18 0.16 0.15 0.16 0.17 0.16 0.16 0.17 0.19 0.19 0.19 0.23 0.23 0.20 0.20 0.17 0.16 0.12
0.46 0.42 0.36 0.34 0.34 0.32 0.28 0.24 0.24 0.24 0.23 0.23 0.21 0.17 0.16 0.20 0.20 0.21 0.24 0.27 0.26 0.25 0.25 0.24 0.20 0.17 0.18 0.21 0.20 0.22 0.16 0.15 0.15 0.16 0.16 0.15 0.15 0.16 0.17 0.17 0.17 0.16 0.15
0.25 0.24 0.22 0.21 0.20 0.19 0.18 0.18 0.23 0.26 0.28 0.30 0.31 0.28 0.24 0.29 0.30 0.27 0.28 0.28 0.26 0.25 0.21 0.22 0.23 0.18 0.16 0.17 0.20 0.24 0.23 0.16 0.16 0.19 0.22 0.19 0.15 0.14 0.16 0.16 0.16 0.18 0.17
0.14 0.16 0.15 0.16 0.19 0.25 0.29 0.30 0.28 0.28 0.30 0.31 0.27 0.25 0.25 0.25 0.25 0.24 0.25 0.24 0.23 0.24 0.26 0.30 0.30 0.26 0.22 0.22 0.23 0.22 0.21 0.21 0.27 0.26 0.27 0.25 0.16 0.13 0.16 0.17 0.15 0.14 0.16
0.18 0.22 0.25 0.28 0.29 0.27 0.25 0.25 0.28 0.27 0.25 0.24 0.23 0.21 0.19 0.18 0.15 0.15 0.15 0.14 0.14 0.14 0.14 0.14 0.15 0.14 0.14 0.16 0.20 0.17 0.17 0.21 0.24 0.24 0.33 0.32 0.25 0.19 0.19 0.19 0.17 0.17 0.16
0.14 0.18 0.18 0.17 0.21 0.24 0.28 0.26 0.24 0.22 0.21 0.20 0.20 0.20 0.18 0.17 0.15 0.14 0.10 0.10 0.11 0.10 0.10 0.12 0.12 0.11 0.11 0.13 0.15 0.16 0.14 0.15 0.21 0.26 0.34 0.35 0.32 0.28 0.25 0.23 0.20 0.22 0.16

GFSGL_prec_precacc_150.txt.gz
Total_Precipitation_Accumulation
0.72 0.58 0.54 0.69 1.02 0.95 0.85 0.77 0.79 1.11 1.38 1.32 1.39 1.60 1.52 1.65 1.65 1.63 1.48 1.33 1.32 1.28 1.21 1.12 0.89 0.83 0.96 1.15 1.24 1.35 1.58 1.85 1.84 1.04 0.96 0.92 0.85 0.72 0.57 0.49 0.57 0.62 0.72
0.96 0.89 1.22 1.47 1.56 1.45 1.46 1.58 1.32 1.12 1.09 1.04 1.21 1.30 1.25 1.46 1.66 1.65 1.54 1.39 1.39 1.55 1.64 1.71 1.51 1.33 1.27 1.21 1.39 1.28 1.27 1.41 1.44 1.13 0.92 0.76 0.66 0.65 0.61 0.66 0.68 0.51 0.37
1.47 1.58 1.70 1.70 1.70 1.76 1.70 1.54 1.39 1.46 1.51 1.46 1.65 1.72 1.45 1.33 1.57 1.64 1.63 1.46 1.48 1.57 1.44 1.42 1.31 1.32 1.41 1.25 1.23 1.31 1.16 1.04 1.15 1.35 1.07 0.91 0.78 0.69 0.68 0.66 0.68 0.75 0.66
1.52 1.29 1.33 1.68 1.70 1.65 1.49 1.28 1.07 1.08 1.09 1.21 1.16 1.22 1.23 1.17 1.25 1.44 1.60 1.69 1.40 1.40 1.41 1.43 1.51 1.30 1.09 0.94 0.86 0.78 0.77 0.85 0.84 1.00 1.15 1.16 1.12 1.07 1.16 0.99 0.83 0.81 0.90
1.58 1.41 1.60 1.47 1.39 1.40 1.33 1.02 0.82 0.96 1.01 0.94 0.77 0.88 0.97 1.09 1.43 1.36 1.42 1.58 1.54 1.38 1.24 1.22 1.23 1.51 1.45 1.23 1.12 1.07 0.95 1.03 1.08 1.12 1.13 0.95 0.98 1.07 1.05 1.08 1.05 1.13 1.16
1.47 1.79 1.35 1.69 1.65 1.20 1.13 0.99 0.95 0.98 1.04 1.24 1.03 1.09 1.36 1.43 1.74 1.72 1.62 1.72 1.61 1.50 1.40 1.26 1.40 1.57 1.50 1.66 1.50 1.34 1.28 1.31 1.28 1.17 1.14 1.12 0.89 0.79 0.81 1.02 1.31 1.44 1.46
0.99 1.86 1.87 1.92 2.69 1.89 1.15 1.16 1.09 1.44 1.40 1.29 1.51 1.43 1.33 1.30 1.73 1.74 1.86 1.66 1.99 1.89 1.76 1.55 1.49 1.54 1.69 1.48 1.75 1.75 1.75 1.83 1.65 1.39 1.40 1.34 1.28 1.15 1.25 1.47 1.57 1.64 1.72
0.36 0.76 1.39 1.44 2.05 2.85 2.20 1.85 1.90 1.58 1.49 1.22 1.20 1.16 1.14 1.71 1.79 2.15 2.44 2.10 1.81 1.87 2.00 1.90 1.78 1.67 1.86 1.83 1.72 1.79 1.82 1.96 2.12 2.16 2.21 2.41 2.44 2.33 2.39 2.47 2.54 2.66 2.68
0.24 0.37 0.55 0.96 1.26 1.65 2.23 2.49 2.40 2.29 1.94 1.70 1.31 1.19 1.23 1.21 1.29 1.14 1.33 1.53 2.05 2.36 2.29 2.32 2.42 2.35 3.04 2.95 2.51 2.68 2.84 3.01 3.47 3.44 3.31 3.27 3.14 2.89 2.56 2.46 2.88 2.87 3.01
0.40 0.38 0.36 0.51 0.76 1.07 1.33 1.45 1.49 1.45 1.52 1.50 1.49 1.28 1.43 1.27 1.64 1.35 1.10 0.74 0.99 1.31 1.64 1.98 2.60 2.26 2.67 2.46 2.22 2.18 2.76 3.24 3.04 3.14 3.24 3.08 2.90 2.83 3.02 2.76 2.51 2.55 2.57
0.82 0.77 0.77 0.77 0.76 0.71 0.74 0.71 0.74 0.85 0.84 0.85 0.94 0.89 0.80 0.88 1.09 1.19 1.19 0.98 1.12 1.28 1.32 1.38 1.62 2.17 1.85 2.07 2.27 2.22 3.04 3.05 3.05 2.64 2.47 2.43 2.36 2.33 2.39 2.51 2.56 2.65 2.70
1.28 1.20 1.12 0.93 0.84 0.82 0.82 0.86 0.78 0.76 0.75 0.72 0.66 0.62 0.62 0.70 1.04 0.92 0.85 0.87 1.12 0.97 1.27 1.28 1.55 1.65 1.37 1.52 1.77 2.32 2.50 2.34 2.26 2.36 2.28 2.18 2.03 1.93 1.88 1.83 1.86 1.91 1.95
1.47 1.41 1.42 1.32 1.23 1.15 1.07 1.04 0.93 0.84 0.80 0.82 0.80 0.86 0.90 0.84 0.95 1.10 0.95 0.95 0.97 0.89 1.30 1.84 2.01 1.76 1.57 1.55 1.64 1.69 1.70 1.74 1.84 1.89 1.89 1.83 1.70 1.55 1.33 1.24 1.16 1.09 1.05
1.02 1.08 1.23 1.28 1.29 1.20 1.11 1.12 1.08 1.07 1.11 1.16 1.12 1.14 1.13 1.11 1.10 1.12 1.20 1.28 1.39 1.46 1.72 1.80 1.73 1.64 1.60 1.68 1.64 1.56 1.50 1.42 1.30 1.23 1.10 0.96 0.84 0.76 0.72 0.70 0.73 0.79 0.79
0.58 0.65 0.67 0.69 0.76 0.79 0.83 0.89 0.81 0.99 0.95 0.91 1.03 1.11 1.18 1.36 1.65 1.54 1.47 1.49 1.51 1.55 1.45 1.38 1.25 1.11 1.01 0.97 0.90 0.85 0.83 0.81 0.79 0.79 0.75 0.71 0.64 0.53 0.47 0.43 0.50 0.59 0.68
0.40 0.45 0.55 0.58 0.57 0.59 0.64 0.77 0.87 0.89 0.81 0.82 0.87 0.86 1.09 1.23 1.21 1.13 1.07 1.03 1.00 0.98 0.98 0.95 0.93 0.89 0.85 0.82 0.79 0.75 0.68 0.65 0.62 0.60 0.59 0.55 0.51 0.47 0.44 0.39 0.42 0.45 0.47
0.24 0.27 0.33 0.40 0.42 0.45 0.48 0.54 0.75 1.04 1.15 1.32 1.40 1.43 1.38 1.50 1.40 1.28 1.17 1.04 0.95 0.81 0.88 0.80 0.78 0.74 0.67 0.60 0.57 0.53 0.55 0.51 0.44 0.42 0.39 0.37 0.39 0.37 0.35 0.32 0.30 0.30 0.29
0.40 0.46 0.49 0.52 0.56 0.63 0.69 0.75 0.79 0.86 0.94 1.05 1.03 0.95 0.93 0.87 0.80 0.72 0.62 0.53 0.58 0.51 0.54 0.53 0.53 0.47 0.43 0.39 0.36 0.34 0.31 0.30 0.30 0.30 0.32 0.34 0.36 0.35 0.33 0.30 0.28 0.29 0.23
0.45 0.56 0.67 0.80 0.92 0.91 0.86 0.82 0.81 0.80 0.81 0.82 0.73 0.65 0.63 0.55 0.44 0.39 0.34 0.43 0.40 0.34 0.28 0.26 0.25 0.23 0.20 0.18 0.20 0.21 0.23 0.22 0.22 0.23 0.22 0.24 0.25 0.27 0.24 0.23 0.23 0.19 0.18
0.80 0.96 0.94 0.95 0.94 0.89 0.81 0.73 0.68 0.64 0.61 0.58 0.56 0.55 0.44 0.32 0.31 0.27 0.25 0.28 0.29 0.26 0.20 0.19 0.17 0.18 0.19 0.21 0.20 0.21 0.18 0.16 0.18 0.21 0.21 0.22 0.21 0.24 0.26 0.23 0.19 0.18 0.13
0.74 0.73 0.67 0.61 0.58 0.55 0.51 0.45 0.40 0.37 0.35 0.31 0.32 0.27 0.21 0.23 0.25 0.22 0.21 0.21 0.22 0.22 0.23 0.22 0.19 0.18 0.16 0.15 0.16 0.17 0.16 0.16 0.17 0.19 0.19 0.19 0.23 0.23 0.20 0.20 0.17 0.16 0.12
0.46 0.42 0.36 0.34 0.34 0.32 0.28 0.24 0.24 0.24 0.23 0.23 0.21 0.17 0.16 0.20 0.20 0.21 0.24 0.27 0.26 0.25 0.25 0.24 0.20 0.17 0.18 0.21 0.20 0.22 0.16 0.15 0.15 0.16 0.16 0.15 0.15 0.16 0.18 0.17 0.17 0.17 0.15
0.25 0.24 0.22 0.21 0.20 0.19 0.18 0.18 0.23 0.26 0.28 0.30 0.31 0.28 0.24 0.29 0.30 0.27 0.28 0.28 0.26 0.25 0.21 0.22 0.23 0.18 0.16 0.17 0.20 0.24 0.23 0.16 0.16 0.19 0.22 0.19 0.15 0.14 0.16 0.17 0.16 0.18 0.17
0.14 0.16 0.15 0.16 0.19 0.25 0.29 0.30 0.28 0.28 0.30 0.31 0.27 0.25 0.25 0.25 0.25 0.24 0.25 0.24 0.23 0.24 0.26 0.30 0.30 0.26 0.22 0.22 0.23 0.22 0.21 0.21 0.27 0.26 0.27 0.25 0.16 0.13 0.16 0.17 0.15 0.14 0.16
0.18 0.22 0.25 0.28 0.29 0.27 0.25 0.25 0.28 0.27 0.25 0.24 0.23 0.21 0.19 0.18 0.15 0.15 0.15 0.14 0.14 0.14 0.14 0.14 0.15 0.14 0.14 0.16 0.20 0.17 0.17 0.21 0.24 0.24 0.33 0.32 0.25 0.19 0.19 0.19 0.17 0.18 0.16
0.14 0.18 0.18 0.17 0.21 0.24 0.28 0.26 0.24 0.22 0.21 0.20 0.20 0.20 0.18 0.17 0.15 0.14 0.10 0.10 0.11 0.10 0.10 0.12 0.12 0.11 0.11 0.13 0.15 0.16 0.14 0.15 0.21 0.26 0.34 0.35 0.32 0.28 0.25 0.23 0.20 0.22 0.16

GFSGL_prec_precacc_153.txt.gz
Total_Precipitation_Accumulation
0.72 0.58 0.54 0.69 1.02 0.95 0.85 0.77 0.79 1.11 1.38 1.32 1.39 1.60 1.52 1.65 1.65 1.63 1.48 1.33 1.32 1.28 1.21 1.14 0.91 0.85 0.99 1.21 1.29 1.38 1.59 1.86 1.85 1.05 0.97 0.93 0.87 0.73 0.57 0.50 0.57 0.62 0.72
0.96 0.89 1.22 1.47 1.56 1.45 1.46 1.58 1.32 1.12 1.09 1.04 1.21 1.30 1.25 1.46 1.66 1.65 1.54 1.40 1.39 1.55 1.66 1.72 1.53 1.35 1.31 1.27 1.46 1.32 1.29 1.42 1.46 1.16 0.93 0.78 0.67 0.66 0.62 0.67 0.69 0.51 0.37
1.47 1.58 1.70 1.70 1.70 1.76 1.70 1.54 1.39 1.46 1.51 1.46 1.65 1.72 1.45 1.33 1.57 1.64 1.63 1.46 1.48 1.58 1.46 1.45 1.35 1.35 1.44 1.31 1.33 1.41 1.21 1.05 1.17 1.38 1.10 0.94 0.80 0.70 0.69 0.67 0.68 0.75 0.66
1.52 1.29 1.33 1.68 1.70 1.65 1.49 1.28 1.07 1.08 1.09 1.21 1.16 1.22 1.23 1.17 1.25 1.44 1.60 1.69 1.40 1.40 1.41 1.44 1.52 1.33 1.13 0.99 0.91 0.85 0.85 0.91 0.87 1.03 1.18 1.20 1.14 1.08 1.16 0.99 0.83 0.81 0.90
1.58 1.41 1.60 1.47 1.39 1.40 1.33 1.02 0.82 0.96 1.01 0.94 0.77 0.88 0.97 1.09 1.43 1.36 1.42 1.58 1.54 1.38 1.24 1.22 1.23 1.51 1.46 1.27 1.16 1.12 0.98 1.05 1.09 1.14 1.14 0.96 1.00 1.08 1.06 1.08 1.05 1.13 1.16
1.47 1.79 1.35 1.69 1.65 1.20 1.13 0.99 0.95 0.98 1.04 1.24 1.03 1.09 1.36 1.43 1.74 1.72 1.62 1.72 1.61 1.50 1.40 1.26 1.40 1.57 1.50 1.67 1.50 1.35 1.30 1.33 1.31 1.19 1.16 1.12 0.91 0.83 0.85 1.04 1.31 1.46 1.48
0.99 1.86 1.87 1.92 2.69 1.89 1.15 1.16 1.09 1.44 1.40 1.29 1.51 1.43 1.33 1.30 1.73 1.74 1.86 1.66 1.99 1.89 1.76 1.55 1.49 1.54 1.69 1.48 1.75 1.75 1.75 1.83 1.65 1.40 1.41 1.36 1.29 1.16 1.26 1.48 1.57 1.65 1.72
0.36 0.76 1.39 1.44 2.05 2.85 2.20 1.85 1.90 1.58 1.49 1.22 1.20 1.16 1.14 1.71 1.79 2.15 2.44 2.10 1.81 1.87 2.00 1.90 1.78 1.67 1.86 1.83 1.72 1.79 1.82 1.96 2.12 2.16 2.21 2.41 2.44 2.33 2.39 2.47 2.54 2.66 2.68
0.24 0.37 0.55 0.96 1.26 1.65 2.23 2.49 2.40 2.29 1.94 1.70 1.31 1.19 1.23 1.21 1.29 1.14 1.33 1.53 2.05 2.36 2.29 2.32 2.42 2.35 3.04 2.95 2.51 2.68 2.84 3.01 3.47 3.44 3.31 3.27 3.14 2.89 2.56 2.46 2.88 2.87 3.01
0.40 0.38 0.36 0.51 0.76 1.07 1.33 1.45 1.49 1.45 1.52 1.50 1.49 1.28 1.43 1.27 1.64 1.35 1.10 0.74 0.99 1.31 1.64 1.98 2.60 2.26 2.67 2.46 2.22 2.18 2.76 3.24 3.04 3.14 3.24 3.08 2.90 2.83 3.02 2.76 2.51 2.55 2.57
0.82 0.77 0.77 0.77 0.76 0.71 0.74 0.71 0.74 0.85 0.84 0.85 0.94 0.89 0.80 0.88 1.09 1.19 1.19 0.98 1.12 1.28 1.32 1.38 1.62 2.17 1.85 2.07 2.27 2.22 3.04 3.05 3.05 2.64 2.47 2.43 2.36 2.33 2.39 2.51 2.56 2.65 2.70
1.28 1.20 1.12 0.93 0.84 0.82 0.82 0.86 0.78 0.76 0.75 0.72 0.66 0.62 0.62 0.70 1.04 0.93 0.85 0.87 1.12 0.97 1.27 1.28 1.55 1.65 1.37 1.52 1.77 2.32 2.50 2.34 2.26 2.36 2.28 2.18 2.03 1.93 1.88 1.83 1.86 1.91 1.95
1.47 1.41 1.42 1.32 1.23 1.15 1.07 1.04 0.94 0.85 0.80 0.82 0.80 0.86 0.90 0.84 0.95 1.10 0.95 0.95 0.97 0.89 1.30 1.84 2.01 1.76 1.57 1.55 1.64 1.69 1.70 1.74 1.84 1.89 1.89 1.83 1.70 1.55 1.33 1.24 1.16 1.09 1.05
1.02 1.08 1.23 1.28 1.29 1.20 1.11 1.12 1.08 1.08 1.11 1.16 1.12 1.14 1.13 1.11 1.10 1.12 1.20 1.28 1.39 1.46 1.72 1.80 1.73 1.64 1.60 1.68 1.64 1.56 1.50 1.42 1.30 1.23 1.10 0.96 0.84 0.76 0.72 0.70 0.73 0.79 0.79
0.58 0.65 0.67 0.69 0.76 0.79 0.83 0.89 0.81 0.99 0.95 0.91 1.03 1.11 1.18 1.36 1.65 1.54 1.47 1.49 1.51 1.55 1.45 1.38 1.25 1.11 1.01 0.97 0.90 0.85 0.83 0.81 0.79 0.79 0.75 0.71 0.64 0.53 0.47 0.43 0.50 0.59 0.68
0.40 0.45 0.55 0.58 0.57 0.59 0.64 0.77 0.87 0.89 0.81 0.82 0.87 0.86 1.09 1.23 1.21 1.13 1.07 1.03 1.00 0.98 0.98 0.95 0.93 0.89 0.85 0.82 0.79 0.75 0.68 0.65 0.63 0.60 0.59 0.55 0.51 0.47 0.44 0.39 0.42 0.45 0.47
0.24 0.27 0.33 0.40 0.42 0.45 0.48 0.54 0.75 1.04 1.15 1.32 1.40 1.43 1.38 1.50 1.40 1.28 1.17 1.04 0.95 0.81 0.88 0.80 0.78 0.74 0.67 0.60 0.57 0.53 0.55 0.51 0.44 0.42 0.39 0.37 0.39 0.37 0.35 0.32 0.30 0.30 0.29
0.40 0.46 0.49 0.52 0.56 0.63 0.69 0.75 0.79 0.86 0.94 1.05 1.03 0.95 0.93 0.87 0.80 0.72 0.62 0.53 0.58 0.51 0.54 0.53 0.53 0.47 0.43 0.39 0.36 0.34 0.31 0.30 0.30 0.30 0.32 0.34 0.36 0.35 0.33 0.30 0.28 0.29 0.23
0.45 0.56 0.67 0.80 0.92 0.91 0.86 0.82 0.81 0.80 0.81 0.82 0.73 0.65 0.63 0.55 0.44 0.39 0.34 0.43 0.40 0.34 0.28 0.26 0.25 0.23 0.20 0.18 0.20 0.21 0.23 0.22 0.22 0.23 0.22 0.24 0.25 0.27 0.24 0.23 0.23 0.19 0.18
0.80 0.96 0.94 0.95 0.94 0.89 0.81 0.73 0.68 0.64 0.61 0.58 0.56 0.55 0.44 0.32 0.31 0.27 0.25 0.28 0.29 0.26 0.20 0.19 0.17 0.18 0.19 0.21 0.20 0.21 0.18 0.16 0.18 0.21 0.21 0.22 0.21 0.24 0.26 0.23 0.19 0.18 0.13
0.74 0.73 0.67 0.61 0.58 0.55 0.51 0.45 0.40 0.37 0.36 0.31 0.32 0.27 0.21 0.23 0.25 0.22 0.21 0.21 0.22 0.22 0.23 0.22 0.19 0.18 0.16 0.15 0.16 0.17 0.16 0.16 0.17 0.19 0.19 0.19 0.23 0.23 0.20 0.20 0.17 0.16 0.12
0.46 0.42 0.36 0.34 0.34 0.32 0.28 0.24 0.24 0.24 0.23 0.23 0.21 0.17 0.16 0.20 0.20 0.21 0.24 0.27 0.26 0.25 0.25 0.24 0.20 0.17 0.18 0.21 0.20 0.22 0.16 0.15 0.15 0.16 0.16 0.15 0.15 0.16 0.18 0.17 0.17 0.17 0.15
0.25 0.24 0.22 0.21 0.20 0.19 0.18 0.18 0.23 0.26 0.28 0.30 0.31 0.28 0.24 0.29 0.30 0.27 0.28 0.28 0.26 0.25 0.21 0.22 0.23 0.18 0.16 0.17 0.20 0.24 0.23 0.16 0.16 0.19 0.22 0.19 0.15 0.14 0.16 0.17 0.17 0.18 0.17
0.14 0.16 0.15 0.16 0.19 0.25 0.29 0.30 0.28 0.28 0.30 0.31 0.27 0.25 0.25 0.25 0.25 0.24 0.25 0.24 0.23 0.24 0.26 0.30 0.30 0.26 0.22 0.22 0.23 0.22 0.21 0.21 0.27 0.26 0.27 0.25 0.16 0.13 0.16 0.17 0.15 0.14 0.17
0.18 0.22 0.25 0.28 0.29 0.27 0.25 0.25 0.28 0.27 0.25 0.24 0.23 0.21 0.19 0.18 0.15 0.15 0.15 0.14 0.14 0.14 0.14 0.14 0.15 0.14 0.14 0.16 0.20 0.17 0.17 0.21 0.24 0.24 0.33 0.32 0.25 0.19 0.19 0.19 0.17 0.18 0.17
0.14 0.18 0.18 0.17 0.21 0.24 0.28 0.26 0.24 0.22 0.21 0.20 0.20 0.20 0.18 0.17 0.15 0.14 0.10 0.10 0.11 0.10 0.10 0.12 0.12 0.11 0.11 0.13 0.15 0.16 0.14 0.15 0.21 0.26 0.34 0.35 0.32 0.28 0.25 0.23 0.20 0.22 0.16

GFSGL_prec_precacc_159.txt.gz
Total_Precipitation_Accumulation
0.72 0.58 0.54 0.69 1.02 0.95 0.85 0.77 0.79 1.11 1.38 1.32 1.39 1.60 1.52 1.65 1.65 1.63 1.48 1.33 1.32 1.28 1.21 1.15 0.92 0.87 1.02 1.26 1.40 1.50 1.72 1.94 1.91 1.07 0.98 0.96 0.95 0.88 0.69 0.60 0.66 0.70 0.75
0.96 0.89 1.22 1.47 1.56 1.45 1.46 1.58 1.32 1.12 1.09 1.04 1.21 1.30 1.25 1.46 1.66 1.65 1.54 1.40 1.39 1.55 1.66 1.73 1.55 1.37 1.34 1.33 1.56 1.45 1.42 1.52 1.54 1.21 0.95 0.79 0.73 0.75 0.73 0.72 0.73 0.59 0.43
1.47 1.58 1.70 1.70 1.70 1.76 1.70 1.54 1.39 1.46 1.51 1.46 1.65 1.72 1.45 1.33 1.57 1.64 1.63 1.46 1.48 1.58 1.46 1.46 1.38 1.38 1.47 1.37 1.46 1.60 1.34 1.13 1.30 1.52 1.19 0.98 0.86 0.75 0.75 0.73 0.72 0.78 0.68
1.52 1.29 1.33 1.68 1.70 1.65 1.49 1.28 1.07 1.08 1.09 1.21 1.16 1.22 1.23 1.17 1.25 1.44 1.60 1.69 1.40 1.40 1.41 1.44 1.53 1.36 1.18 1.04 1.01 1.05 1.05 1.06 1.04 1.22 1.37 1.30 1.24 1.14 1.20 1.01 0.85 0.81 0.91
1.58 1.41 1.60 1.47 1.39 1.40 1.33 1.02 0.82 0.96 1.01 0.94 0.77 0.88 0.97 1.09 1.43 1.36 1.42 1.58 1.54 1.38 1.24 1.22 1.23 1.52 1.48 1.29 1.19 1.22 1.14 1.25 1.31 1.36 1.38 1.17 1.18 1.21 1.15 1.15 1.09 1.15 1.17
1.47 1.79 1.35 1.69 1.65 1.20 1.13 0.99 0.95 0.98 1.04 1.24 1.03 1.09 1.36 1.43 1.74 1.72 1.62 1.72 1.61 1.50 1.40 1.26 1.40 1.57 1.50 1.67 1.51 1.36 1.35 1.42 1.42 1.30 1.29 1.29 1.10 0.96 0.96 1.09 1.40 1.55 1.54
0.99 1.86 1.87 1.92 2.69 1.89 1.15 1.16 1.09 1.44 1.40 1.29 1.51 1.43 1.33 1.30 1.73 1.74 1.86 1.66 1.99 1.89 1.76 1.55 1.49 1.54 1.69 1.48 1.75 1.75 1.75 1.83 1.65 1.41 1.44 1.39 1.33 1.20 1.27 1.49 1.59 1.68 1.75
0.36 0.76 1.39 1.44 2.05 2.85 2.20 1.85 1.90 1.58 1.49 1.22 1.20 1.16 1.14 1.71 1.79 2.15 2.44 2.10 1.81 1.87 2.00 1.90 1.78 1.67 1.86 1.83 1.72 1.79 1.82 1.97 2.12 2.16 2.22 2.41 2.44 2.33 2.39 2.47 2.54 2.66 2.68
0.24 0.37 0.55 0.96 1.26 1.65 2.23 2.49 2.40 2.29 1.94 1.70 1.31 1.19 1.23 1.21 1.29 1.14 1.33 1.53 2.05 2.36 2.29 2.32 2.42 2.35 3.04 2.95 2.51 2.68 2.84 3.01 3.48 3.44 3.31 3.27 3.14 2.89 2.56 2.46 2.88 2.87 3.01
0.40 0.38 0.36 0.51 0.76 1.07 1.33 1.45 1.49 1.45 1.52 1.50 1.49 1.28 1.43 1.27 1.64 1.35 1.10 0.74 0.99 1.31 1.64 1.98 2.60 2.26 2.67 2.46 2.22 2.18 2.76 3.24 3.04 3.14 3.24 3.08 2.90 2.83 3.02 2.76 2.51 2.55 2.57
0.82 0.77 0.77 0.77 0.76 0.71 0.74 0.71 0.74 0.85 0.84 0.85 0.94 0.89 0.80 0.88 1.09 1.19 1.19 0.98 1.12 1.28 1.32 1.38 1.62 2.17 1.85 2.07 2.27 2.22 3.04 3.05 3.05 2.64 2.47 2.43 2.36 2.33 2.39 2.51 2.56 2.65 2.70
1.28 1.20 1.12 0.93 0.84 0.82 0.82 0.86 0.78 0.76 0.75 0.72 0.66 0.62 0.62 0.70 1.04 0.93 0.85 0.87 1.12 0.97 1.27 1.28 1.55 1.65 1.37 1.52 1.77 2.32 2.50 2.34 2.26 2.36 2.28 2.18 2.03 1.93 1.88 1.83 1.86 1.91 1.95
1.47 1.41 1.42 1.32 1.23 1.15 1.07 1.05 0.94 0.85 0.80 0.82 0.80 0.86 0.90 0.84 0.95 1.10 0.95 0.95 0.97 0.89 1.30 1.84 2.01 1.76 1.57 1.55 1.64 1.69 1.70 1.74 1.84 1.89 1.89 1.83 1.70 1.55 1.33 1.24 1.16 1.09 1.05
1.02 1.08 1.23 1.28 1.29 1.20 1.11 1.12 1.09 1.08 1.11 1.16 1.12 1.14 1.13 1.11 1.10 1.12 1.20 1.28 1.39 1.46 1.72 1.80 1.73 1.64 1.60 1.68 1.64 1.56 1.50 1.42 1.30 1.23 1.10 0.96 0.84 0.76 0.72 0.70 0.73 0.79 0.79
0.58 0.65 0.67 0.69 0.76 0.79 0.83 0.90 0.82 0.99 0.95 0.91 1.03 1.11 1.18 1.36 1.65 1.54 1.47 1.49 1.51 1.55 1.45 1.38 1.25 1.11 1.01 0.97 0.90 0.85 0.83 0.81 0.79 0.79 0.75 0.71 0.64 0.53 0.47 0.43 0.50 0.59 0.68
0.40 0.45 0.55 0.58 0.57 0.59 0.65 0.78 0.89 0.90 0.82 0.82 0.87 0.86 1.09 1.23 1.22 1.13 1.07 1.03 1.00 0.98 0.98 0.95 0.93 0.89 0.85 0.82 0.79 0.75 0.68 0.65 0.63 0.60 0.59 0.55 0.51 0.47 0.44 0.39 0.42 0.45 0.47
0.24 0.27 0.33 0.40 0.42 0.46 0.49 0.55 0.76 1.05 1.15 1.32 1.40 1.43 1.38 1.51 1.41 1.29 1.17 1.04 0.95 0.81 0.88 0.80 0.78 0.74 0.67 0.60 0.57 0.53 0.55 0.51 0.44 0.42 0.39 0.37 0.39 0.37 0.35 0.32 0.30 0.30 0.29
0.40 0.46 0.49 0.52 0.56 0.63 0.69 0.75 0.79 0.86 0.94 1.05 1.03 0.95 0.93 0.87 0.81 0.72 0.62 0.53 0.58 0.51 0.54 0.53 0.53 0.47 0.43 0.39 0.36 0.34 0.31 0.30 0.30 0.30 0.32 0.34 0.36 0.35 0.33 0.30 0.28 0.29 0.23
0.45 0.56 0.68 0.80 0.92 0.91 0.86 0.82 0.81 0.80 0.81 0.82 0.73 0.65 0.64 0.55 0.44 0.39 0.34 0.43 0.40 0.34 0.28 0.26 0.25 0.23 0.20 0.18 0.20 0.21 0.23 0.22 0.22 0.23 0.22 0.24 0.25 0.27 0.24 0.23 0.23 0.19 0.18
0.80 0.96 0.94 0.95 0.94 0.89 0.81 0.73 0.68 0.64 0.61 0.58 0.56 0.55 0.45 0.32 0.31 0.27 0.25 0.28 0.29 0.26 0.20 0.19 0.17 0.18 0.19 0.21 0.20 0.21 0.18 0.16 0.18 0.21 0.21 0.22 0.21 0.24 0.26 0.23 0.19 0.19 0.13
0.74 0.73 0.67 0.61 0.58 0.55 0.51 0.45 0.40 0.37 0.36 0.31 0.32 0.27 0.21 0.23 0.25 0.22 0.21 0.21 0.22 0.22 0.23 0.22 0.19 0.18 0.16 0.15 0.16 0.17 0.16 0.16 0.17 0.19 0.19 0.19 0.23 0.23 0.20 0.20 0.17 0.16 0.12
0.46 0.42 0.36 0.34 0.34 0.32 0.28 0.24 0.24 0.25 0.24 0.23 0.21 0.17 0.16 0.20 0.20 0.21 0.24 0.27 0.26 0.25 0.25 0.24 0.20 0.17 0.18 0.21 0.20 0.22 0.16 0.15 0.15 0.16 0.16 0.15 0.15 0.16 0.18 0.17 0.17 0.17 0.15
0.25 0.24 0.22 0.21 0.20 0.19 0.18 0.19 0.24 0.26 0.29 0.31 0.31 0.29 0.24 0.29 0.30 0.27 0.28 0.28 0.26 0.25 0.21 0.22 0.23 0.18 0.16 0.17 0.20 0.24 0.23 0.16 0.16 0.19 0.22 0.19 0.15 0.14 0.16 0.17 0.17 0.19 0.18
0.14 0.16 0.15 0.16 0.19 0.25 0.29 0.30 0.30 0.29 0.31 0.31 0.28 0.25 0.25 0.25 0.25 0.24 0.25 0.24 0.23 0.24 0.26 0.30 0.30 0.26 0.22 0.22 0.23 0.22 0.21 0.21 0.27 0.26 0.27 0.25 0.16 0.13 0.16 0.17 0.15 0.14 0.17
0.18 0.22 0.25 0.28 0.29 0.27 0.25 0.25 0.29 0.28 0.26 0.24 0.23 0.21 0.19 0.18 0.16 0.15 0.15 0.14 0.14 0.14 0.14 0.14 0.15 0.14 0.14 0.16 0.20 0.17 0.17 0.21 0.24 0.24 0.33 0.32 0.25 0.19 0.19 0.19 0.17 0.18 0.17
0.14 0.18 0.19 0.18 0.21 0.24 0.28 0.26 0.24 0.22 0.21 0.20 0.20 0.20 0.19 0.17 0.15 0.14 0.11 0.10 0.11 0.10 0.10 0.12 0.12 0.11 0.11 0.13 0.15 0.17 0.14 0.15 0.21 0.26 0.34 0.35 0.32 0.28 0.26 0.23 0.20 0.23 0.16

GFSGL_prec_precacc_162.txt.gz
Total_Precipitation_Accumulation
0.72 0.58 0.54 0.69 1.02 0.95 0.85 0.77 0.79 1.11 1.38 1.32 1.39 1.60 1.52 1.65 1.65 1.63 1.48 1.33 1.32 1.28 1.21 1.15 0.92 0.87 1.03 1.26 1.41 1.51 1.73 1.99 2.01 1.17 1.03 0.97 0.96 0.92 0.74 0.63 0.75 0.77 0.78
0.96 0.89 1.22 1.47 1.56 1.45 1.46 1.58 1.32 1.12 1.09 1.04 1.21 1.30 1.25 1.46 1.66 1.65 1.54 1.40 1.39 1.55 1.66 1.73 1.55 1.37 1.34 1.34 1.57 1.46 1.45 1.60 1.63 1.26 0.98 0.81 0.76 0.80 0.84 0.79 0.77 0.69 0.59
1.47 1.58 1.70 1.70 1.70 1.76 1.70 1.54 1.39 1.46 1.51 1.46 1.65 1.72 1.45 1.33 1.57 1.64 1.63 1.46 1.48 1.58 1.46 1.46 1.38 1.38 1.47 1.38 1.47 1.61 1.36 1.15 1.34 1.57 1.25 1.03 0.90 0.82 0.83 0.84 0.80 0.82 0.76
1.52 1.29 1.33 1.68 1.70 1.65 1.49 1.28 1.07 1.08 1.09 1.21 1.16 1.22 1.23 1.17 1.25 1.44 1.60 1.69 1.40 1.40 1.41 1.44 1.53 1.37 1.18 1.04 1.02 1.06 1.08 1.10 1.09 1.26 1.42 1.36 1.29 1.22 1.27 1.08 0.90 0.86 0.95
1.58 1.41 1.60 1.47 1.39 1.40 1.33 1.02 0.82 0.96 1.01 0.94 0.77 0.88 0.97 1.09 1.43 1.36 1.42 1.58 1.54 1.38 1.24 1.22 1.23 1.52 1.48 1.30 1.19 1.23 1.16 1.28 1.35 1.41 1.44 1.26 1.24 1.28 1.23 1.21 1.15 1.21 1.21
1.47 1.79 1.35 1.69 1.65 1.20 1.13 0.99 0.95 0.98 1.04 1.24 1.03 1.09 1.36 1.43 1.74 1.72 1.62 1.72 1.61 1.50 1.40 1.26 1.40 1.57 1.50 1.67 1.51 1.36 1.35 1.43 1.44 1.33 1.36 1.40 1.22 1.06 1.08 1.20 1.48 1.64 1.60
0.99 1.86 1.87 1.92 2.69 1.89 1.15 1.16 1.09 1.44 1.40 1.29 1.51 1.43 1.33 1.30 1.73 1.74 1.86 1.66 1.99 1.89 1.76 1.55 1.49 1.54 1.69 1.48 1.75 1.75 1.75 1.83 1.65 1.41 1.44 1.42 1.39 1.28 1.36 1.53 1.63 1.73 1.80
0.36 0.76 1.39 1.44 2.05 2.85 2.20 1.85 1.90 1.58 1.49 1.22 1.20 1.16 1.14 1.71 1.79 2.15 2.44 2.10 1.81 1.87 2.00 1.90 1.78 1.67 1.86 1.83 1.72 1.79 1.82 1.97 2.12 2.16 2.22 2.42 2.44 2.33 2.39 2.48 2.54 2.66 2.68
0.24 0.37 0.55 0.96 1.26 1.65 2.23 2.49 2.40 2.29 1.94 1.70 1.31 1.19 1.23 1.21 1.29 1.14 1.33 1.53 2.05 2.36 2.29 2.32 2.42 2.35 3.04 2.95 2.51 2.68 2.84 3.01 3.48 3.44 3.31 3.27 3.14 2.89 2.56 2.46 2.88 2.87 3.01
0.40 0.38 0.36 0.51 0.76 1.07 1.33 1.45 1.49 1.45 1.52 1.50 1.49 1.28 1.43 1.28 1.64 1.35 1.10 0.74 0.99 1.31 1.64 1.98 2.60 2.26 2.67 2.46 2.22 2.18 2.76 3.24 3.04 3.14 3.24 3.08 2.90 2.83 3.02 2.76 2.51 2.55 2.57
0.82 0.77 0.77 0.77 0.76 0.71 0.74 0.71 0.74 0.85 0.84 0.85 0.95 0.89 0.80 0.89 1.09 1.19 1.19 0.98 1.12 1.28 1.32 1.38 1.62 2.17 1.85 2.07 2.27 2.22 3.04 3.05 3.05 2.64 2.47 2.43 2.36 2.33 2.39 2.51 2.56 2.65 2.70
1.28 1.20 1.12 0.93 0.84 0.82 0.82 0.86 0.78 0.76 0.75 0.72 0.66 0.62 0.62 0.70 1.04 0.93 0.85 0.87 1.12 0.97 1.27 1.28 1.55 1.65 1.37 1.52 1.77 2.32 2.50 2.34 2.26 2.36 2.28 2.18 2.03 1.93 1.88 1.83 1.86 1.91 1.95
1.47 1.41 1.42 1.32 1.23 1.15 1.07 1.05 0.94 0.85 0.80 0.82 0.80 0.86 0.90 0.84 0.95 1.10 0.95 0.95 0.97 0.89 1.30 1.84 2.01 1.76 1.57 1.55 1.64 1.69 1.70 1.74 1.84 1.89 1.89 1.83 1.70 1.55 1.33 1.24 1.16 1.09 1.05
1.02 1.08 1.23 1.28 1.29 1.21 1.11 1.12 1.09 1.08 1.11 1.16 1.12 1.14 1.13 1.11 1.10 1.12 1.20 1.28 1.39 1.46 1.72 1.80 1.73 1.64 1.60 1.68 1.64 1.56 1.50 1.42 1.30 1.23 1.10 0.96 0.84 0.76 0.72 0.70 0.73 0.79 0.79
0.58 0.65 0.67 0.69 0.76 0.79 0.84 0.90 0.82 0.99 0.95 0.91 1.03 1.11 1.18 1.36 1.65 1.54 1.47 1.49 1.51 1.55 1.45 1.38 1.25 1.11 1.01 0.97 0.90 0.85 0.83 0.81 0.79 0.79 0.75 0.71 0.64 0.53 0.47 0.43 0.50 0.59 0.68
0.40 0.45 0.55 0.58 0.57 0.59 0.65 0.79 0.89 0.90 0.82 0.82 0.87 0.86 1.09 1.23 1.22 1.13 1.07 1.03 1.00 0.98 0.98 0.95 0.93 0.89 0.85 0.82 0.79 0.75 0.68 0.65 0.63 0.60 0.59 0.55 0.51 0.47 0.44 0.39 0.42 0.45 0.47
0.24 0.27 0.33 0.40 0.42 0.46 0.49 0.55 0.76 1.06 1.16 1.32 1.40 1.43 1.38 1.51 1.41 1.29 1.17 1.04 0.95 0.81 0.88 0.80 0.78 0.74 0.67 0.60 0.57 0.53 0.55 0.51 0.44 0.42 0.39 0.37 0.39 0.37 0.35 0.32 0.30 0.30 0.29
0.40 0.46 0.49 0.52 0.56 0.63 0.70 0.75 0.80 0.86 0.95 1.05 1.03 0.95 0.94 0.88 0.81 0.72 0.62 0.53 0.58 0.51 0.54 0.53 0.53 0.47 0.43 0.39 0.36 0.34 0.31 0.30 0.30 0.30 0.32 0.34 0.36 0.35 0.33 0.30 0.28 0.29 0.23
0.45 0.56 0.68 0.80 0.92 0.91 0.86 0.83 0.81 0.80 0.81 0.82 0.74 0.65 0.64 0.56 0.45 0.40 0.34 0.43 0.40 0.34 0.28 0.26 0.25 0.23 0.20 0.18 0.20 0.21 0.23 0.22 0.22 0.23 0.22 0.24 0.25 0.27 0.24 0.23 0.23 0.19 0.18
0.80 0.96 0.94 0.95 0.95 0.89 0.82 0.74 0.68 0.64 0.62 0.58 0.56 0.55 0.45 0.33 0.31 0.28 0.26 0.28 0.29 0.26 0.20 0.19 0.17 0.18 0.19 0.21 0.20 0.21 0.18 0.16 0.18 0.21 0.21 0.22 0.21 0.24 0.26 0.23 0.20 0.19 0.13
0.74 0.74 0.67 0.61 0.58 0.55 0.51 0.46 0.41 0.38 0.36 0.31 0.32 0.28 0.21 0.24 0.26 0.22 0.21 0.21 0.22 0.22 0.23 0.22 0.19 0.18 0.16 0.15 0.16 0.17 0.16 0.16 0.17 0.19 0.19 0.19 0.23 0.23 0.20 0.20 0.18 0.16 0.12
0.46 0.43 0.36 0.34 0.34 0.32 0.28 0.24 0.24 0.25 0.24 0.23 0.22 0.18 0.16 0.20 0.20 0.21 0.24 0.27 0.26 0.25 0.25 0.24 0.20 0.17 0.18 0.21 0.20 0.22 0.16 0.15 0.15 0.16 0.16 0.15 0.15 0.16 0.18 0.17 0.17 0.17 0.15
0.25 0.24 0.22 0.21 0.20 0.19 0.18 0.19 0.24 0.27 0.29 0.31 0.32 0.29 0.24 0.29 0.30 0.27 0.29 0.28 0.26 0.25 0.21 0.22 0.23 0.18 0.16 0.17 0.20 0.24 0.23 0.16 0.16 0.19 0.22 0.19 0.15 0.14 0.16 0.17 0.17 0.19 0.18
0.14 0.16 0.15 0.16 0.19 0.25 0.30 0.31 0.30 0.29 0.31 0.32 0.29 0.26 0.26 0.25 0.25 0.25 0.25 0.24 0.24 0.24 0.26 0.30 0.30 0.26 0.22 0.22 0.23 0.22 0.21 0.21 0.27 0.26 0.27 0.25 0.16 0.13 0.16 0.17 0.16 0.15 0.17
0.18 0.22 0.25 0.28 0.29 0.27 0.26 0.26 0.30 0.29 0.27 0.25 0.25 0.22 0.20 0.19 0.16 0.15 0.15 0.14 0.14 0.14 0.14 0.14 0.15 0.14 0.14 0.16 0.20 0.17 0.17 0.22 0.24 0.24 0.33 0.32 0.25 0.19 0.19 0.19 0.17 0.18 0.17
0.14 0.18 0.19 0.18 0.21 0.25 0.29 0.27 0.25 0.23 0.23 0.22 0.21 0.21 0.19 0.18 0.15 0.14 0.11 0.11 0.12 0.11 0.10 0.12 0.12 0.11 0.11 0.13 0.15 0.17 0.14 0.15 0.21 0.26 0.34 0.35 0.32 0.28 0.26 0.24 0.20 0.23 0.17

GFSGL_prec_precacc_165.txt.gz
Total_Precipitation_Accumulation
0.72 0.58 0.54 0.69 1.02 0.95 0.85 0.77 0.79 1.11 1.38 1.32 1.39 1.60 1.52 1.65 1.65 1.63 1.48 1.33 1.32 1.28 1.21 1.15 0.92 0.87 1.03 1.26 1.41 1.51 1.74 2.02 2.05 1.25 1.10 1.03 0.98 0.92 0.75 0.65 0.79 0.87 0.90
0.96 0.89 1.22 1.47 1.56 1.45 1.46 1.58 1.32 1.12 1.09 1.04 1.21 1.30 1.25 1.46 1.66 1.65 1.54 1.40 1.39 1.55 1.66 1.73 1.55 1.37 1.34 1.34 1.57 1.46 1.45 1.62 1.70 1.33 1.04 0.88 0.82 0.83 0.89 0.85 0.79 0.71 0.67
1.47 1.58 1.70 1.70 1.70 1.76 1.70 1.54 1.39 1.46 1.51 1.46 1.65 1.72 1.45 1.33 1.57 1.64 1.63 1.46 1.48 1.58 1.46 1.46 1.38 1.38 1.47 1.38 1.47 1.62 1.37 1.17 1.38 1.62 1.32 1.09 0.95 0.87 0.87 0.88 0.82 0.83 0.78
1.52 1.29 1.33 1.68 1.70 1.65 1.49 1.28 1.07 1.08 1.09 1.21 1.16 1.22 1.23 1.17 1.25 1.44 1.60 1.69 1.40 1.40 1.41 1.44 1.53 1.37 1.18 1.04 1.02 1.07 1.09 1.11 1.11 1.28 1.45 1.40 1.33 1.27 1.32 1.12 0.94 0.89 0.96
1.58 1.41 1.60 1.47 1.39 1.40 1.33 1.02 0.82 0.96 1.01 0.94 0.77 0.88 0.97 1.09 1.43 1.36 1.42 1.58 1.54 1.38 1.24 1.22 1.23 1.52 1.48 1.30 1.19 1.23 1.16 1.28 1.35 1.41 1.45 1.27 1.27 1.32 1.29 1.29 1.22 1.26 1.25
1.47 1.79 1.35 1.69 1.65 1.20 1.13 0.99 0.95 0.98 1.04 1.24 1.03 1.09 1.36 1.43 1.74 1.72 1.62 1.72 1.61 1.50 1.40 1.26 1.40 1.57 1.50 1.67 1.51 1.36 1.35 1.43 1.44 1.33 1.37 1.41 1.25 1.10 1.14 1.28 1.55 1.72 1.68
0.99 1.86 1.87 1.92 2.69 1.89 1.15 1.16 1.09 1.44 1.40 1.29 1.51 1.43 1.33 1.30 1.73 1.74 1.86 1.66 1.99 1.89 1.76 1.55 1.49 1.54 1.69 1.48 1.75 1.75 1.75 1.83 1.65 1.41 1.44 1.42 1.40 1.30 1.41 1.57 1.67 1.75 1.82
0.36 0.76 1.39 1.44 2.05 2.85 2.20 1.85 1.90 1.58 1.49 1.22 1.20 1.16 1.14 1.71 1.79 2.15 2.44 2.10 1.81 1.87 2.00 1.90 1.78 1.67 1.86 1.83 1.72 1.79 1.82 1.97 2.12 2.16 2.22 2.42 2.44 2.33 2.39 2.48 2.55 2.66 2.69
0.24 0.37 0.55 0.96 1.26 1.65 2.23 2.49 2.40 2.29 1.94 1.71 1.31 1.19 1.23 1.21 1.29 1.14 1.33 1.53 2.05 2.36 2.29 2.32 2.42 2.35 3.04 2.95 2.51 2.68 2.84 3.01 3.48 3.44 3.31 3.27 3.14 2.89 2.56 2.46 2.88 2.87 3.01
0.40 0.38 0.36 0.51 0.76 1.07 1.33 1.45 1.49 1.46 1.52 1.50 1.49 1.28 1.43 1.28 1.64 1.35 1.10 0.74 0.99 1.31 1.64 1.98 2.60 2.26 2.67 2.46 2.22 2.18 2.76 3.24 3.04 3.14 3.24 3.08 2.90 2.83 3.02 2.76 2.51 2.55 2.57
0.82 0.77 0.77 0.77 0.76 0.71 0.74 0.71 0.74 0.85 0.84 0.85 0.95 0.90 0.81 0.89 1.09 1.19 1.19 0.98 1.12 1.28 1.33 1.38 1.62 2.17 1.85 2.07 2.27 2.22 3.04 3.05 3.05 2.64 2.47 2.43 2.36 2.33 2.39 2.51 2.56 2.65 2.70
1.28 1.20 1.12 0.93 0.84 0.82 0.82 0.86 0.78 0.76 0.75 0.72 0.66 0.62 0.62 0.71 1.04 0.93 0.85 0.87 1.12 0.97 1.27 1.28 1.55 1.65 1.37 1.52 1.77 2.32 2.50 2.34 2.26 2.36 2.28 2.18 2.03 1.93 1.88 1.83 1.86 1.91 1.95
1.47 1.41 1.42 1.32 1.23 1.15 1.07 1.05 0.94 0.85 0.80 0.82 0.80 0.86 0.90 0.85 0.95 1.10 0.95 0.95 0.97 0.89 1.30 1.84 2.01 1.76 1.57 1.55 1.64 1.69 1.70 1.74 1.84 1.89 1.89 1.83 1.70 1.55 1.33 1.24 1.16 1.09 1.05
1.02 1.08 1.23 1.28 1.29 1.21 1.12 1.12 1.09 1.08 1.11 1.16 1.12 1.14 1.13 1.12 1.10 1.12 1.21 1.28 1.39 1.46 1.72 1.80 1.73 1.64 1.60 1.68 1.64 1.56 1.50 1.42 1.30 1.23 1.10 0.96 0.84 0.76 0.72 0.70 0.73 0.79 0.79
0.58 0.65 0.67 0.69 0.76 0.79 0.84 0.90 0.82 0.99 0.96 0.91 1.03 1.11 1.18 1.37 1.65 1.54 1.47 1.49 1.51 1.55 1.45 1.38 1.25 1.11 1.01 0.97 0.90 0.85 0.83 0.81 0.79 0.79 0.75 0.71 0.64 0.53 0.47 0.43 0.50 0.59 0.68
0.40 0.45 0.55 0.58 0.57 0.59 0.65 0.79 0.89 0.90 0.82 0.82 0.87 0.86 1.09 1.23 1.22 1.13 1.07 1.03 1.00 0.98 0.98 0.95 0.93 0.89 0.85 0.82 0.79 0.75 0.68 0.65 0.63 0.60 0.59 0.55 0.51 0.47 0.44 0.39 0.42 0.45 0.47
0.24 0.27 0.33 0.40 0.42 0.46 0.49 0.55 0.77 1.07 1.17 1.32 1.40 1.43 1.38 1.51 1.41 1.29 1.17 1.04 0.95 0.81 0.88 0.80 0.78 0.74 0.67 0.60 0.57 0.53 0.55 0.51 0.44 0.42 0.39 0.37 0.39 0.37 0.35 0.32 0.30 0.30 0.29
0.40 0.46 0.49 0.52 0.56 0.63 0.70 0.75 0.80 0.87 0.96 1.06 1.03 0.95 0.94 0.88 0.81 0.72 0.62 0.53 0.58 0.51 0.54 0.53 0.53 0.47 0.43 0.39 0.36 0.34 0.31 0.30 0.30 0.30 0.32 0.34 0.36 0.35 0.33 0.30 0.28 0.29 0.23
0.45 0.56 0.68 0.80 0.92 0.91 0.86 0.83 0.81 0.80 0.81 0.82 0.74 0.65 0.65 0.57 0.45 0.40 0.34 0.43 0.40 0.34 0.28 0.26 0.25 0.23 0.20 0.18 0.20 0.21 0.23 0.22 0.22 0.23 0.22 0.24 0.25 0.27 0.24 0.23 0.23 0.19 0.18
0.80 0.96 0.94 0.95 0.95 0.89 0.82 0.74 0.69 0.65 0.62 0.59 0.56 0.56 0.46 0.35 0.33 0.28 0.26 0.28 0.29 0.26 0.20 0.19 0.17 0.18 0.19 0.21 0.20 0.21 0.18 0.16 0.18 0.21 0.21 0.22 0.21 0.24 0.26 0.23 0.20 0.19 0.13
0.74 0.74 0.67 0.61 0.58 0.56 0.51 0.46 0.41 0.38 0.36 0.31 0.32 0.28 0.21 0.24 0.26 0.23 0.21 0.21 0.22 0.22 0.23 0.22 0.19 0.18 0.16 0.15 0.16 0.17 0.16 0.16 0.17 0.19 0.19 0.19 0.23 0.23 0.20 0.20 0.18 0.16 0.12
0.46 0.43 0.36 0.34 0.34 0.32 0.28 0.24 0.24 0.25 0.24 0.23 0.22 0.18 0.16 0.20 0.20 0.22 0.24 0.27 0.26 0.25 0.25 0.24 0.20 0.17 0.18 0.21 0.20 0.22 0.16 0.15 0.15 0.16 0.16 0.15 0.15 0.16 0.18 0.17 0.17 0.17 0.15
0.25 0.24 0.22 0.21 0.21 0.19 0.18 0.19 0.24 0.27 0.29 0.31 0.32 0.29 0.24 0.30 0.31 0.27 0.29 0.29 0.26 0.25 0.21 0.22 0.23 0.18 0.16 0.17 0.20 0.24 0.23 0.16 0.16 0.19 0.22 0.19 0.15 0.14 0.16 0.17 0.17 0.19 0.18
0.14 0.16 0.15 0.16 0.19 0.25 0.30 0.31 0.30 0.29 0.31 0.32 0.30 0.26 0.26 0.26 0.26 0.26 0.26 0.25 0.24 0.24 0.26 0.30 0.30 0.26 0.22 0.22 0.23 0.22 0.21 0.21 0.27 0.26 0.27 0.25 0.16 0.13 0.16 0.17 0.16 0.15 0.17
0.19 0.22 0.25 0.28 0.29 0.27 0.26 0.27 0.30 0.29 0.27 0.26 0.26 0.24 0.21 0.20 0.17 0.16 0.16 0.15 0.14 0.15 0.15 0.14 0.15 0.14 0.14 0.16 0.20 0.17 0.17 0.22 0.24 0.24 0.33 0.32 0.25 0.19 0.19 0.19 0.17 0.18 0.17
0.15 0.18 0.19 0.18 0.22 0.26 0.30 0.28 0.26 0.24 0.24 0.23 0.23 0.23 0.20 0.19 0.16 0.15 0.12 0.11 0.12 0.11 0.10 0.12 0.12 0.11 0.11 0.13 0.15 0.17 0.14 0.15 0.21 0.26 0.34 0.35 0.32 0.28 0.26 0.24 0.20 0.23 0.17

GFSGL_prec_precacc_168.txt.gz
Total_Precipitation_Accumulation
0.72 0.58 0.54 0.69 1.02 0.95 0.85 0.77 0.79 1.11 1.38 1.32 1.39 1.60 1.52 1.65 1.65 1.63 1.48 1.33 1.32 1.28 1.21 1.15 0.92 0.87 1.03 1.26 1.41 1.52 1.74 2.03 2.07 1.29 1.13 1.05 1.02 0.96 0.77 0.66 0.81 0.96 1.21
0.96 0.89 1.22 1.47 1.56 1.45 1.46 1.58 1.32 1.12 1.09 1.04 1.21 1.30 1.25 1.46 1.66 1.65 1.54 1.40 1.39 1.55 1.66 1.73 1.55 1.37 1.34 1.34 1.57 1.46 1.46 1.63 1.72 1.36 1.06 0.90 0.86 0.89 0.92 0.88 0.84 0.74 0.70
1.47 1.58 1.70 1.70 1.70 1.76 1.70 1.54 1.39 1.46 1.51 1.46 1.65 1.72 1.45 1.33 1.57 1.64 1.63 1.46 1.48 1.58 1.46 1.46 1.38 1.38 1.47 1.38 1.47 1.62 1.37 1.18 1.39 1.63 1.33 1.11 0.97 0.89 0.91 0.92 0.86 0.87 0.79
1.52 1.29 1.33 1.69 1.71 1.65 1.49 1.28 1.07 1.08 1.09 1.21 1.16 1.22 1.23 1.17 1.25 1.44 1.60 1.69 1.40 1.40 1.41 1.44 1.53 1.37 1.18 1.04 1.02 1.07 1.09 1.11 1.11 1.29 1.46 1.40 1.34 1.28 1.34 1.15 0.98 0.94 0.99
1.58 1.41 1.60 1.48 1.39 1.40 1.33 1.02 0.82 0.96 1.01 0.94 0.77 0.88 0.97 1.09 1.43 1.36 1.42 1.58 1.54 1.38 1.24 1.22 1.23 1.52 1.48 1.30 1.19 1.23 1.16 1.28 1.35 1.41 1.45 1.27 1.27 1.32 1.30 1.31 1.26 1.31 1.29
1.47 1.79 1.35 1.69 1.65 1.20 1.13 0.99 0.95 0.98 1.04 1.24 1.03 1.09 1.36 1.43 1.74 1.72 1.62 1.72 1.61 1.50 1.40 1.26 1.40 1.57 1.50 1.67 1.51 1.36 1.35 1.43 1.44 1.33 1.37 1.42 1.26 1.11 1.15 1.28 1.56 1.73 1.69
0.99 1.86 1.87 1.92 2.69 1.89 1.15 1.16 1.09 1.44 1.40 1.29 1.51 1.43 1.33 1.30 1.73 1.74 1.86 1.66 1.99 1.89 1.76 1.55 1.49 1.54 1.69 1.48 1.75 1.75 1.75 1.83 1.65 1.41 1.44 1.42 1.40 1.31 1.41 1.58 1.68 1.76 1.82
0.36 0.76 1.39 1.44 2.05 2.85 2.20 1.85 1.90 1.58 1.49 1.22 1.20 1.16 1.14 1.71 1.79 2.15 2.44 2.10 1.81 1.87 2.00 1.90 1.78 1.67 1.86 1.83 1.72 1.79 1.82 1.97 2.12 2.16 2.22 2.42 2.45 2.33 2.39 2.48 2.55 2.66 2.69
0.24 0.37 0.55 0.96 1.26 1.65 2.23 2.49 2.40 2.29 1.94 1.71 1.31 1.19 1.23 1.21 1.29 1.14 1.33 1.53 2.05 2.36 2.29 2.32 2.42 2.35 3.04 2.95 2.51 2.68 2.84 3.01 3.48 3.44 3.31 3.27 3.14 2.89 2.56 2.46 2.88 2.87 3.01
0.40 0.38 0.36 0.51 0.76 1.07 1.33 1.45 1.49 1.46 1.52 1.50 1.49 1.28 1.43 1.28 1.64 1.35 1.10 0.74 0.99 1.31 1.64 1.98 2.60 2.26 2.67 2.46 2.22 2.18 2.76 3.24 3.04 3.14 3.24 3.08 2.90 2.83 3.02 2.76 2.51 2.55 2.57
0.82 0.77 0.78 0.77 0.76 0.71 0.74 0.71 0.74 0.85 0.85 0.85 0.95 0.90 0.81 0.89 1.09 1.19 1.19 0.99 1.12 1.28 1.33 1.39 1.62 2.17 1.85 2.07 2.27 2.22 3.04 3.05 3.05 2.64 2.47 2.43 2.36 2.33 2.39 2.51 2.56 2.65 2.70
1.28 1.20 1.12 0.93 0.84 0.82 0.82 0.86 0.78 0.76 0.75 0.72 0.66 0.62 0.62 0.71 1.04 0.93 0.85 0.87 1.12 0.97 1.27 1.28 1.55 1.65 1.37 1.52 1.77 2.32 2.50 2.34 2.26 2.36 2.28 2.18 2.03 1.93 1.88 1.83 1.86 1.91 1.95
1.49 1.43 1.42 1.32 1.23 1.15 1.07 1.05 0.94 0.85 0.80 0.82 0.80 0.86 0.90 0.85 0.95 1.10 0.95 0.95 0.97 0.89 1.30 1.84 2.01 1.76 1.57 1.55 1.64 1.69 1.70 1.74 1.84 1.89 1.89 1.83 1.70 1.55 1.33 1.24 1.16 1.09 1.05
1.02 1.08 1.23 1.28 1.29 1.21 1.12 1.13 1.09 1.09 1.12 1.16 1.12 1.14 1.13 1.12 1.10 1.12 1.21 1.28 1.39 1.46 1.72 1.80 1.73 1.64 1.60 1.68 1.64 1.56 1.50 1.42 1.30 1.23 1.10 0.96 0.84 0.76 0.72 0.70 0.73 0.79 0.79
0.58 0.65 0.67 0.69 0.76 0.79 0.84 0.90 0.82 1.00 0.96 0.91 1.03 1.11 1.18 1.37 1.66 1.54 1.47 1.49 1.51 1.56 1.45 1.38 1.25 1.11 1.01 0.97 0.90 0.85 0.83 0.81 0.79 0.79 0.75 0.71 0.64 0.53 0.47 0.43 0.50 0.59 0.68
0.40 0.45 0.55 0.58 0.57 0.59 0.65 0.79 0.89 0.90 0.82 0.82 0.87 0.86 1.09 1.24 1.22 1.13 1.07 1.03 1.00 0.98 0.98 0.95 0.93 0.89 0.85 0.82 0.79 0.75 0.68 0.65 0.63 0.60 0.59 0.55 0.51 0.47 0.44 0.39 0.42 0.45 0.47
0.24 0.27 0.33 0.40 0.42 0.46 0.49 0.55 0.77 1.08 1.17 1.32 1.40 1.43 1.38 1.51 1.41 1.29 1.17 1.04 0.95 0.81 0.88 0.80 0.78 0.74 0.67 0.60 0.57 0.53 0.55 0.51 0.44 0.42 0.39 0.37 0.39 0.37 0.35 0.32 0.30 0.30 0.29
0.40 0.46 0.49 0.52 0.56 0.63 0.70 0.75 0.80 0.87 0.96 1.06 1.03 0.95 0.94 0.88 0.81 0.72 0.62 0.53 0.58 0.51 0.54 0.53 0.53 0.47 0.43 0.39 0.36 0.34 0.31 0.30 0.30 0.30 0.32 0.34 0.36 0.35 0.33 0.30 0.28 0.29 0.23
0.45 0.56 0.68 0.80 0.92 0.91 0.86 0.83 0.81 0.80 0.81 0.83 0.74 0.65 0.65 0.57 0.45 0.40 0.34 0.43 0.40 0.34 0.28 0.26 0.25 0.23 0.20 0.18 0.20 0.21 0.23 0.22 0.22 0.23 0.22 0.24 0.25 0.27 0.24 0.23 0.23 0.19 0.18
0.80 0.96 0.94 0.95 0.95 0.89 0.82 0.74 0.69 0.65 0.62 0.59 0.56 0.56 0.46 0.35 0.34 0.29 0.26 0.28 0.29 0.26 0.20 0.19 0.17 0.18 0.19 0.21 0.20 0.21 0.18 0.16 0.18 0.21 0.21 0.22 0.21 0.24 0.26 0.23 0.20 0.19 0.13
0.74 0.74 0.67 0.61 0.58 0.56 0.51 0.46 0.41 0.38 0.36 0.32 0.32 0.28 0.21 0.24 0.27 0.23 0.22 0.22 0.23 0.22 0.23 0.22 0.19 0.18 0.16 0.15 0.16 0.17 0.16 0.16 0.17 0.19 0.19 0.19 0.23 0.23 0.20 0.20 0.18 0.16 0.12
0.46 0.43 0.36 0.34 0.34 0.32 0.28 0.24 0.24 0.25 0.24 0.23 0.22 0.18 0.16 0.20 0.20 0.22 0.24 0.27 0.26 0.25 0.25 0.24 0.20 0.17 0.18 0.21 0.20 0.22 0.16 0.15 0.15 0.16 0.16 0.15 0.15 0.16 0.18 0.17 0.18 0.17 0.15
0.25 0.24 0.22 0.22 0.21 0.19 0.19 0.19 0.24 0.27 0.29 0.31 0.33 0.30 0.24 0.30 0.31 0.27 0.29 0.29 0.26 0.25 0.21 0.22 0.23 0.18 0.16 0.17 0.20 0.24 0.23 0.16 0.16 0.19 0.22 0.19 0.15 0.14 0.16 0.17 0.17 0.19 0.18
0.14 0.16 0.16 0.17 0.20 0.26 0.31 0.33 0.31 0.30 0.31 0.33 0.31 0.27 0.26 0.26 0.27 0.26 0.27 0.25 0.24 0.24 0.26 0.30 0.30 0.26 0.22 0.22 0.23 0.22 0.21 0.21 0.27 0.26 0.27 0.25 0.16 0.13 0.16 0.17 0.16 0.15 0.17
0.19 0.22 0.25 0.29 0.30 0.29 0.27 0.28 0.31 0.30 0.28 0.27 0.27 0.24 0.21 0.20 0.18 0.18 0.17 0.15 0.14 0.15 0.15 0.14 0.15 0.14 0.14 0.16 0.20 0.17 0.17 0.22 0.24 0.24 0.33 0.32 0.25 0.19 0.19 0.19 0.18 0.18 0.17
0.15 0.18 0.19 0.19 0.22 0.26 0.30 0.29 0.27 0.25 0.25 0.24 0.24 0.23 0.21 0.19 0.17 0.17 0.13 0.11 0.12 0.11 0.10 0.12 0.12 0.11 0.11 0.13 0.15 0.17 0.14 0.15 0.21 0.26 0.34 0.35 0.32 0.28 0.26 0.24 0.20 0.23 0.17

GFSGL_prec_precacc_171.txt.gz
Total_Precipitation_Accumulation
0.72 0.58 0.54 0.69 1.02 0.95 0.85 0.77 0.79 1.11 1.38 1.32 1.39 1.60 1.52 1.65 1.65 1.63 1.48 1.33 1.32 1.28 1.21 1.15 0.92 0.87 1.03 1.26 1.41 1.52 1.75 2.03 2.08 1.32 1.14 1.06 1.03 0.96 0.78 0.69 0.83 0.97 1.23
0.96 0.89 1.22 1.47 1.56 1.45 1.46 1.58 1.32 1.12 1.09 1.04 1.21 1.30 1.25 1.46 1.66 1.65 1.54 1.40 1.39 1.55 1.66 1.73 1.55 1.37 1.34 1.34 1.57 1.46 1.46 1.64 1.73 1.37 1.07 0.91 0.87 0.90 0.93 0.89 0.86 0.75 0.71
1.47 1.58 1.70 1.70 1.70 1.76 1.70 1.54 1.39 1.46 1.51 1.46 1.65 1.72 1.45 1.33 1.57 1.64 1.63 1.46 1.48 1.58 1.46 1.46 1.38 1.38 1.47 1.38 1.47 1.62 1.37 1.18 1.40 1.64 1.34 1.12 0.97 0.90 0.92 0.92 0.87 0.88 0.80
1.52 1.29 1.33 1.69 1.72 1.67 1.51 1.29 1.07 1.08 1.09 1.21 1.16 1.22 1.23 1.17 1.25 1.44 1.60 1.69 1.40 1.40 1.41 1.44 1.53 1.37 1.18 1.04 1.02 1.07 1.09 1.11 1.11 1.29 1.46 1.40 1.34 1.28 1.35 1.17 0.99 0.94 1.00
1.58 1.41 1.60 1.48 1.44 1.45 1.35 1.02 0.82 0.96 1.01 0.94 0.77 0.88 0.97 1.09 1.43 1.36 1.42 1.58 1.54 1.38 1.24 1.22 1.23 1.52 1.48 1.30 1.19 1.23 1.16 1.28 1.35 1.41 1.45 1.27 1.27 1.32 1.30 1.31 1.27 1.33 1.29
1.48 1.79 1.36 1.73 1.73 1.24 1.14 0.99 0.95 0.98 1.04 1.24 1.03 1.09 1.36 1.43 1.74 1.72 1.62 1.72 1.61 1.50 1.40 1.26 1.40 1.57 1.50 1.67 1.51 1.36 1.35 1.43 1.44 1.33 1.37 1.42 1.26 1.11 1.15 1.28 1.56 1.74 1.70
1.03 1.87 1.88 1.96 2.73 1.90 1.16 1.17 1.09 1.44 1.40 1.29 1.51 1.43 1.33 1.30 1.73 1.74 1.86 1.66 1.99 1.89 1.76 1.55 1.49 1.54 1.69 1.48 1.75 1.75 1.75 1.83 1.65 1.41 1.44 1.43 1.41 1.31 1.41 1.58 1.68 1.76 1.82
0.37 0.77 1.41 1.47 2.07 2.85 2.20 1.85 1.90 1.58 1.49 1.22 1.20 1.16 1.14 1.71 1.79 2.15 2.44 2.10 1.81 1.87 2.00 1.90 1.78 1.67 1.86 1.83 1.72 1.79 1.82 1.97 2.12 2.16 2.22 2.42 2.45 2.33 2.39 2.48 2.55 2.66 2.69
0.24 0.38 0.56 0.96 1.26 1.65 2.23 2.49 2.40 2.29 1.94 1.71 1.31 1.19 1.23 1.21 1.29 1.14 1.33 1.53 2.05 2.36 2.29 2.32 2.42 2.35 3.04 2.95 2.51 2.68 2.84 3.01 3.48 3.44 3.31 3.27 3.14 2.89 2.56 2.46 2.88 2.87 3.01
0.40 0.38 0.36 0.51 0.76 1.07 1.33 1.45 1.49 1.46 1.52 1.50 1.49 1.28 1.43 1.28 1.64 1.35 1.10 0.74 0.99 1.31 1.64 1.98 2.60 2.26 2.67 2.46 2.22 2.18 2.76 3.24 3.04 3.14 3.24 3.08 2.90 2.83 3.02 2.76 2.51 2.55 2.57
0.82 0.77 0.78 0.77 0.76 0.72 0.75 0.71 0.74 0.85 0.85 0.85 0.95 0.90 0.81 0.89 1.09 1.19 1.19 0.99 1.12 1.29 1.33 1.39 1.62 2.17 1.85 2.07 2.27 2.22 3.04 3.05 3.05 2.64 2.47 2.43 2.36 2.33 2.39 2.51 2.56 2.65 2.70
1.28 1.20 1.12 0.94 0.85 0.84 0.83 0.86 0.78 0.76 0.75 0.72 0.66 0.62 0.62 0.71 1.04 0.93 0.85 0.87 1.12 0.97 1.27 1.28 1.55 1.65 1.37 1.52 1.77 2.32 2.50 2.34 2.26 2.36 2.28 2.18 2.03 1.93 1.88 1.83 1.86 1.91 1.95
1.52 1.45 1.44 1.33 1.26 1.18 1.08 1.05 0.94 0.85 0.80 0.82 0.80 0.86 0.90 0.85 0.95 1.10 0.95 0.95 0.97 0.89 1.30 1.84 2.01 1.76 1.57 1.55 1.64 1.69 1.70 1.74 1.84 1.89 1.89 1.83 1.70 1.55 1.33 1.24 1.16 1.09 1.05
1.17 1.24 1.35 1.36 1.36 1.23 1.12 1.13 1.09 1.09 1.12 1.16 1.12 1.14 1.14 1.12 1.10 1.12 1.21 1.28 1.39 1.46 1.72 1.80 1.73 1.64 1.60 1.68 1.64 1.56 1.50 1.42 1.30 1.23 1.10 0.96 0.84 0.76 0.72 0.70 0.73 0.79 0.79
0.71 0.75 0.73 0.72 0.77 0.79 0.84 0.90 0.82 1.00 0.96 0.91 1.03 1.11 1.18 1.37 1.66 1.54 1.47 1.49 1.51 1.56 1.45 1.38 1.25 1.11 1.01 0.97 0.90 0.85 0.83 0.81 0.79 0.79 0.75 0.71 0.64 0.53 0.47 0.43 0.50 0.59 0.68
0.43 0.45 0.55 0.58 0.57 0.59 0.65 0.79 0.89 0.90 0.82 0.82 0.87 0.86 1.09 1.24 1.22 1.13 1.07 1.03 1.00 0.98 0.98 0.95 0.93 0.89 0.85 0.82 0.79 0.75 0.68 0.65 0.63 0.60 0.59 0.55 0.51 0.47 0.44 0.39 0.42 0.45 0.47
0.24 0.27 0.33 0.40 0.42 0.46 0.49 0.55 0.78 1.08 1.17 1.32 1.40 1.43 1.38 1.51 1.41 1.29 1.17 1.04 0.95 0.81 0.88 0.80 0.78 0.74 0.67 0.60 0.57 0.53 0.55 0.51 0.44 0.42 0.39 0.37 0.39 0.37 0.35 0.32 0.30 0.30 0.29
0.40 0.46 0.49 0.52 0.56 0.63 0.70 0.75 0.80 0.87 0.97 1.07 1.04 0.95 0.94 0.88 0.82 0.72 0.62 0.53 0.58 0.51 0.54 0.53 0.53 0.47 0.43 0.39 0.36 0.34 0.31 0.30 0.30 0.30 0.32 0.34 0.36 0.35 0.33 0.30 0.28 0.29 0.23
0.45 0.56 0.68 0.80 0.92 0.91 0.86 0.83 0.81 0.80 0.81 0.83 0.75 0.67 0.65 0.57 0.45 0.40 0.34 0.43 0.40 0.34 0.28 0.26 0.25 0.23 0.20 0.18 0.20 0.21 0.23 0.22 0.22 0.23 0.22 0.24 0.25 0.27 0.24 0.23 0.23 0.19 0.18
0.80 0.96 0.94 0.95 0.95 0.89 0.82 0.74 0.69 0.65 0.62 0.59 0.56 0.56 0.47 0.35 0.34 0.29 0.26 0.28 0.29 0.26 0.20 0.19 0.17 0.18 0.19 0.21 0.20 0.21 0.18 0.16 0.18 0.21 0.21 0.22 0.21 0.24 0.26 0.23 0.20 0.19 0.13
0.74 0.74 0.67 0.61 0.58 0.56 0.51 0.46 0.41 0.38 0.36 0.32 0.32 0.28 0.21 0.24 0.27 0.23 0.22 0.22 0.23 0.22 0.23 0.22 0.19 0.18 0.16 0.15 0.16 0.17 0.16 0.16 0.17 0.19 0.19 0.19 0.23 0.23 0.20 0.20 0.18 0.16 0.12
0.46 0.43 0.36 0.34 0.34 0.32 0.28 0.24 0.24 0.25 0.24 0.23 0.22 0.18 0.16 0.20 0.20 0.22 0.24 0.27 0.26 0.25 0.25 0.24 0.20 0.17 0.18 0.21 0.20 0.22 0.16 0.15 0.15 0.16 0.16 0.15 0.15 0.16 0.18 0.17 0.18 0.17 0.15
0.25 0.24 0.22 0.22 0.21 0.19 0.19 0.20 0.24 0.27 0.29 0.32 0.33 0.30 0.24 0.30 0.31 0.27 0.29 0.29 0.26 0.25 0.21 0.22 0.23 0.18 0.16 0.17 0.20 0.24 0.23 0.16 0.16 0.19 0.22 0.19 0.15 0.14 0.16 0.17 0.17 0.19 0.18
0.14 0.16 0.16 0.17 0.20 0.26 0.31 0.33 0.32 0.30 0.31 0.34 0.32 0.27 0.26 0.26 0.28 0.27 0.27 0.25 0.24 0.24 0.26 0.30 0.30 0.26 0.22 0.22 0.23 0.22 0.21 0.21 0.27 0.26 0.27 0.25 0.16 0.13 0.16 0.17 0.16 0.15 0.17
0.19 0.22 0.25 0.29 0.30 0.29 0.28 0.30 0.32 0.30 0.28 0.28 0.28 0.24 0.21 0.20 0.18 0.19 0.18 0.15 0.14 0.15 0.15 0.14 0.15 0.14 0.14 0.16 0.20 0.17 0.17 0.22 0.24 0.24 0.33 0.32 0.25 0.19 0.19 0.19 0.18 0.18 0.17
0.15 0.18 0.20 0.19 0.22 0.27 0.31 0.30 0.29 0.25 0.25 0.25 0.24 0.23 0.21 0.19 0.17 0.18 0.13 0.11 0.12 0.11 0.10 0.12 0.12 0.11 0.11 0.13 0.15 0.17 0.14 0.15 0.21 0.26 0.34 0.35 0.32 0.28 0.26 0.24 0.20 0.23 0.17

GFSGL_prec_precacc_174.txt.gz
Total_Precipitation_Accumulation
0.73 0.58 0.54 0.69 1.02 0.95 0.85 0.77 0.79 1.11 1.38 1.32 1.39 1.60 1.52 1.65 1.65 1.63 1.48 1.33 1.32 1.28 1.21 1.15 0.92 0.87 1.03 1.26 1.41 1.52 1.75 2.03 2.08 1.32 1.15 1.06 1.03 0.96 0.78 0.69 0.83 0.97 1.23
0.96 0.89 1.22 1.47 1.56 1.45 1.46 1.58 1.32 1.12 1.09 1.04 1.21 1.30 1.25 1.46 1.66 1.65 1.54 1.40 1.39 1.55 1.66 1.73 1.55 1.37 1.34 1.34 1.57 1.46 1.46 1.64 1.74 1.38 1.07 0.91 0.87 0.91 0.93 0.89 0.86 0.75 0.71
1.47 1.58 1.70 1.70 1.70 1.76 1.70 1.54 1.39 1.46 1.51 1.46 1.65 1.72 1.45 1.33 1.57 1.64 1.63 1.46 1.48 1.58 1.46 1.46 1.38 1.38 1.47 1.38 1.47 1.62 1.37 1.18 1.40 1.64 1.34 1.12 0.98 0.90 0.92 0.93 0.87 0.88 0.80
1.52 1.29 1.33 1.69 1.72 1.67 1.51 1.30 1.08 1.08 1.09 1.21 1.16 1.22 1.23 1.17 1.25 1.44 1.60 1.69 1.40 1.40 1.41 1.44 1.53 1.37 1.18 1.04 1.02 1.07 1.09 1.11 1.11 1.29 1.46 1.40 1.34 1.28 1.35 1.17 1.00 0.95 1.00
1.58 1.41 1.60 1.48 1.44 1.46 1.40 1.07 0.87 0.97 1.01 0.94 0.77 0.88 0.97 1.09 1.43 1.36 1.42 1.58 1.54 1.38 1.24 1.22 1.23 1.52 1.48 1.30 1.19 1.23 1.16 1.28 1.35 1.41 1.45 1.27 1.27 1.33 1.31 1.31 1.27 1.34 1.30
1.49 1.79 1.36 1.73 1.74 1.30 1.26 1.10 0.99 0.98 1.04 1.24 1.03 1.09 1.36 1.43 1.74 1.72 1.62 1.72 1.61 1.50 1.40 1.26 1.40 1.57 1.50 1.67 1.51 1.36 1.35 1.43 1.44 1.33 1.37 1.42 1.26 1.11 1.15 1.29 1.56 1.74 1.70
1.06 1.89 1.89 1.97 2.79 2.00 1.25 1.24 1.12 1.44 1.40 1.29 1.51 1.43 1.33 1.30 1.73 1.74 1.86 1.66 1.99 1.89 1.76 1.55 1.49 1.54 1.69 1.48 1.75 1.75 1.75 1.83 1.65 1.41 1.44 1.43 1.41 1.31 1.41 1.58 1.68 1.76 1.82
0.38 0.80 1.43 1.49 2.17 2.96 2.26 1.89 1.93 1.59 1.49 1.22 1.20 1.16 1.14 1.71 1.79 2.15 2.44 2.10 1.81 1.87 2.00 1.90 1.78 1.67 1.86 1.83 1.72 1.79 1.82 1.97 2.12 2.16 2.22 2.42 2.45 2.33 2.39 2.48 2.55 2.66 2.69
0.24 0.38 0.56 0.98 1.34 1.73 2.27 2.54 2.44 2.30 1.94 1.71 1.31 1.19 1.23 1.21 1.29 1.14 1.33 1.53 2.05 2.36 2.29 2.32 2.42 2.35 3.04 2.95 2.51 2.68 2.84 3.01 3.48 3.44 3.31 3.27 3.14 2.89 2.56 2.46 2.88 2.88 3.01
0.40 0.38 0.36 0.52 0.80 1.11 1.36 1.48 1.51 1.46 1.52 1.50 1.49 1.28 1.43 1.28 1.64 1.35 1.10 0.74 0.99 1.31 1.64 1.98 2.60 2.26 2.67 2.46 2.22 2.18 2.76 3.24 3.04 3.14 3.24 3.08 2.90 2.83 3.02 2.76 2.51 2.55 2.57
0.82 0.77 0.78 0.78 0.77 0.73 0.77 0.73 0.74 0.85 0.85 0.85 0.95 0.90 0.81 0.89 1.09 1.19 1.20 0.99 1.12 1.29 1.33 1.39 1.62 2.17 1.85 2.07 2.27 2.22 3.04 3.05 3.05 2.64 2.47 2.43 2.36 2.33 2.39 2.51 2.56 2.65 2.70
1.29 1.20 1.12 0.94 0.86 0.85 0.88 0.92 0.81 0.76 0.75 0.72 0.66 0.62 0.62 0.71 1.04 0.93 0.85 0.87 1.12 0.97 1.27 1.28 1.55 1.65 1.37 1.52 1.77 2.32 2.50 2.34 2.26 2.36 2.28 2.18 2.03 1.93 1.88 1.83 1.86 1.91 1.95
1.55 1.45 1.44 1.33 1.26 1.20 1.15 1.14 1.01 0.87 0.80 0.82 0.80 0.86 0.90 0.85 0.95 1.10 0.95 0.95 0.97 0.89 1.30 1.84 2.01 1.76 1.57 1.55 1.64 1.69 1.70 1.74 1.84 1.89 1.89 1.83 1.70 1.55 1.33 1.24 1.16 1.09 1.05
1.26 1.33 1.38 1.37 1.39 1.31 1.22 1.23 1.17 1.10 1.12 1.16 1.12 1.14 1.14 1.12 1.10 1.12 1.21 1.28 1.39 1.46 1.72 1.80 1.73 1.64 1.60 1.68 1.64 1.56 1.50 1.42 1.30 1.23 1.10 0.96 0.84 0.76 0.72 0.70 0.73 0.79 0.79
0.84 1.05 1.06 0.94 0.93 0.91 0.93 0.98 0.87 1.00 0.96 0.91 1.03 1.11 1.19 1.37 1.66 1.54 1.47 1.49 1.51 1.56 1.45 1.38 1.25 1.11 1.01 0.97 0.90 0.85 0.83 0.81 0.79 0.79 0.75 0.71 0.64 0.53 0.47 0.43 0.50 0.59 0.68
0.63 0.70 0.83 0.80 0.70 0.65 0.69 0.81 0.90 0.90 0.82 0.82 0.87 0.86 1.09 1.24 1.22 1.13 1.07 1.03 1.00 0.98 0.98 0.95 0.93 0.89 0.85 0.82 0.79 0.75 0.68 0.65 0.63 0.60 0.59 0.55 0.51 0.47 0.44 0.39 0.42 0.45 0.47
0.27 0.31 0.37 0.43 0.44 0.47 0.50 0.55 0.78 1.09 1.17 1.32 1.40 1.43 1.38 1.51 1.41 1.29 1.17 1.04 0.95 0.81 0.88 0.80 0.78 0.74 0.67 0.60 0.57 0.53 0.55 0.51 0.44 0.42 0.39 0.37 0.39 0.37 0.35 0.32 0.30 0.30 0.29
0.40 0.46 0.49 0.52 0.56 0.63 0.70 0.75 0.80 0.87 0.97 1.07 1.04 0.95 0.94 0.88 0.82 0.72 0.62 0.54 0.59 0.52 0.54 0.53 0.53 0.47 0.43 0.39 0.36 0.34 0.31 0.30 0.30 0.30 0.32 0.34 0.36 0.35 0.33 0.30 0.28 0.29 0.23
0.45 0.56 0.68 0.80 0.92 0.91 0.86 0.83 0.81 0.80 0.81 0.83 0.75 0.68 0.66 0.58 0.46 0.41 0.35 0.44 0.40 0.34 0.28 0.26 0.25 0.23 0.20 0.18 0.20 0.21 0.23 0.22 0.22 0.23 0.22 0.24 0.25 0.27 0.24 0.23 0.23 0.19 0.18
0.80 0.96 0.94 0.95 0.95 0.89 0.82 0.74 0.69 0.65 0.62 0.59 0.57 0.56 0.47 0.37 0.36 0.31 0.27 0.28 0.29 0.26 0.20 0.19 0.17 0.18 0.19 0.21 0.20 0.21 0.18 0.16 0.18 0.21 0.21 0.22 0.21 0.24 0.26 0.23 0.20 0.19 0.13
0.74 0.74 0.67 0.61 0.58 0.56 0.51 0.46 0.41 0.38 0.36 0.32 0.32 0.28 0.21 0.24 0.27 0.23 0.22 0.22 0.23 0.22 0.23 0.22 0.19 0.18 0.16 0.15 0.16 0.17 0.16 0.16 0.17 0.19 0.19 0.19 0.23 0.23 0.20 0.20 0.18 0.16 0.12
0.46 0.43 0.36 0.34 0.34 0.32 0.28 0.24 0.24 0.25 0.24 0.23 0.22 0.18 0.16 0.20 0.20 0.22 0.24 0.27 0.26 0.25 0.25 0.24 0.20 0.17 0.18 0.21 0.20 0.22 0.16 0.15 0.15 0.16 0.16 0.15 0.15 0.16 0.18 0.17 0.18 0.17 0.15
0.25 0.24 0.22 0.22 0.21 0.19 0.20 0.20 0.24 0.27 0.29 0.32 0.34 0.30 0.24 0.30 0.31 0.27 0.29 0.29 0.26 0.25 0.21 0.22 0.23 0.18 0.16 0.17 0.20 0.24 0.23 0.16 0.16 0.19 0.22 0.19 0.15 0.14 0.16 0.17 0.17 0.19 0.18
0.14 0.16 0.16 0.17 0.20 0.26 0.32 0.34 0.32 0.31 0.32 0.35 0.32 0.27 0.26 0.26 0.28 0.27 0.27 0.25 0.24 0.24 0.26 0.30 0.30 0.26 0.22 0.22 0.23 0.22 0.21 0.21 0.27 0.26 0.27 0.25 0.16 0.13 0.16 0.17 0.16 0.15 0.17
0.19 0.22 0.25 0.29 0.30 0.30 0.29 0.31 0.34 0.32 0.30 0.29 0.28 0.25 0.21 0.20 0.18 0.19 0.18 0.15 0.14 0.15 0.15 0.14 0.15 0.14 0.14 0.16 0.20 0.17 0.17 0.22 0.24 0.24 0.33 0.32 0.25 0.19 0.19 0.19 0.18 0.18 0.17
0.15 0.19 0.20 0.20 0.23 0.27 0.31 0.31 0.30 0.26 0.26 0.26 0.25 0.24 0.22 0.20 0.18 0.19 0.13 0.11 0.12 0.11 0.10 0.12 0.12 0.11 0.11 0.13 0.15 0.17 0.14 0.15 0.21 0.26 0.34 0.35 0.32 0.28 0.26 0.24 0.20 0.23 0.17

GFSGL_prec_precacc_177.txt.gz
Total_Precipitation_Accumulation
0.81 0.69 0.66 0.78 1.09 0.97 0.85 0.77 0.79 1.11 1.38 1.32 1.39 1.60 1.52 1.65 1.65 1.63 1.48 1.33 1.32 1.28 1.21 1.15 0.92 0.87 1.03 1.26 1.41 1.52 1.75 2.04 2.08 1.33 1.15 1.06 1.03 0.96 0.78 0.69 0.83 0.97 1.23
1.14 1.15 1.49 1.63 1.63 1.47 1.46 1.58 1.32 1.12 1.09 1.04 1.21 1.30 1.25 1.46 1.66 1.65 1.54 1.40 1.39 1.55 1.66 1.73 1.55 1.37 1.34 1.34 1.57 1.46 1.46 1.64 1.74 1.38 1.07 0.91 0.87 0.91 0.94 0.89 0.86 0.75 0.71
1.64 1.72 1.78 1.76 1.72 1.76 1.70 1.54 1.39 1.46 1.51 1.46 1.65 1.72 1.45 1.33 1.57 1.64 1.63 1.46 1.48 1.58 1.46 1.46 1.38 1.38 1.47 1.38 1.47 1.62 1.37 1.18 1.40 1.64 1.34 1.12 0.98 0.90 0.92 0.93 0.87 0.88 0.80
1.56 1.34 1.35 1.70 1.74 1.68 1.51 1.30 1.08 1.08 1.09 1.22 1.16 1.22 1.23 1.17 1.25 1.44 1.60 1.69 1.40 1.40 1.41 1.44 1.53 1.37 1.18 1.04 1.02 1.07 1.09 1.11 1.11 1.29 1.46 1.40 1.34 1.28 1.35 1.17 1.00 0.95 1.00
1.61 1.43 1.61 1.48 1.44 1.46 1.40 1.07 0.87 0.99 1.03 0.95 0.78 0.88 0.97 1.09 1.43 1.36 1.42 1.58 1.54 1.38 1.24 1.22 1.23 1.52 1.48 1.30 1.19 1.23 1.16 1.28 1.35 1.41 1.45 1.27 1.27 1.33 1.31 1.31 1.27 1.35 1.30
1.49 1.79 1.36 1.73 1.74 1.30 1.26 1.11 1.03 1.03 1.07 1.25 1.03 1.09 1.36 1.43 1.74 1.72 1.62 1.72 1.61 1.50 1.40 1.26 1.40 1.57 1.50 1.67 1.51 1.36 1.35 1.43 1.44 1.33 1.37 1.42 1.26 1.11 1.15 1.29 1.56 1.74 1.70
1.06 1.90 1.89 1.97 2.79 2.00 1.25 1.28 1.20 1.50 1.41 1.30 1.51 1.43 1.33 1.30 1.73 1.74 1.86 1.66 1.99 1.89 1.76 1.55 1.49 1.54 1.69 1.48 1.75 1.75 1.75 1.83 1.65 1.41 1.44 1.43 1.41 1.31 1.41 1.58 1.68 1.76 1.82
0.38 0.80 1.44 1.50 2.18 2.97 2.29 1.93 2.01 1.66 1.53 1.25 1.20 1.16 1.14 1.71 1.79 2.15 2.44 2.10 1.81 1.87 2.00 1.90 1.78 1.67 1.86 1.83 1.72 1.79 1.82 1.97 2.12 2.16 2.22 2.42 2.45 2.33 2.39 2.48 2.55 2.66 2.69
0.24 0.38 0.56 0.99 1.35 1.76 2.31 2.59 2.51 2.39 2.04 1.77 1.33 1.19 1.23 1.21 1.29 1.14 1.33 1.53 2.05 2.36 2.29 2.32 2.42 2.35 3.04 2.95 2.51 2.68 2.84 3.01 3.48 3.44 3.31 3.27 3.14 2.89 2.56 2.46 2.88 2.88 3.01
0.40 0.38 0.36 0.53 0.82 1.17 1.43 1.57 1.65 1.57 1.61 1.55 1.50 1.28 1.43 1.28 1.64 1.35 1.10 0.74 0.99 1.31 1.64 1.98 2.60 2.26 2.67 2.46 2.22 2.18 2.76 3.24 3.04 3.14 3.24 3.08 2.90 2.83 3.02 2.76 2.51 2.55 2.57
0.82 0.78 0.78 0.79 0.79 0.81 0.87 0.87 0.91 0.99 0.92 0.86 0.95 0.90 0.81 0.89 1.09 1.19 1.20 0.99 1.12 1.29 1.33 1.39 1.62 2.17 1.85 2.07 2.27 2.22 3.04 3.05 3.05 2.64 2.47 2.43 2.36 2.33 2.39 2.51 2.56 2.65 2.70
1.29 1.20 1.13 0.95 0.90 0.94 1.00 1.10 1.00 0.90 0.81 0.74 0.66 0.62 0.62 0.71 1.04 0.93 0.86 0.87 1.12 0.97 1.27 1.28 1.55 1.65 1.37 1.52 1.77 2.32 2.50 2.34 2.26 2.36 2.28 2.18 2.03 1.93 1.88 1.83 1.86 1.91 1.95
1.55 1.46 1.45 1.37 1.35 1.31 1.31 1.32 1.18 1.03 0.88 0.86 0.80 0.86 0.90 0.85 0.95 1.10 0.95 0.95 0.98 0.89 1.30 1.84 2.01 1.76 1.57 1.55 1.64 1.69 1.70 1.74 1.84 1.89 1.89 1.83 1.70 1.55 1.33 1.24 1.16 1.09 1.05
1.26 1.36 1.42 1.44 1.51 1.46 1.36 1.34 1.28 1.27 1.22 1.21 1.14 1.14 1.14 1.12 1.10 1.12 1.21 1.29 1.40 1.46 1.72 1.80 1.73 1.64 1.60 1.68 1.64 1.56 1.50 1.42 1.30 1.23 1.10 0.96 0.84 0.76 0.72 0.70 0.73 0.79 0.79
0.84 1.08 1.18 1.12 1.10 1.09 1.07 1.07 1.00 1.19 1.08 0.97 1.05 1.11 1.19 1.37 1.66 1.54 1.47 1.49 1.51 1.56 1.45 1.38 1.25 1.11 1.01 0.97 0.90 0.85 0.83 0.81 0.79 0.79 0.75 0.71 0.64 0.53 0.47 0.43 0.50 0.59 0.68
0.64 0.73 0.93 1.00 0.98 0.94 0.93 1.00 1.09 1.06 0.93 0.85 0.87 0.86 1.09 1.24 1.22 1.13 1.07 1.03 1.00 0.98 0.98 0.95 0.93 0.89 0.85 0.82 0.79 0.75 0.68 0.65 0.63 0.60 0.59 0.55 0.51 0.47 0.44 0.39 0.42 0.45 0.47
0.27 0.34 0.46 0.55 0.60 0.63 0.64 0.66 0.87 1.16 1.19 1.32 1.40 1.43 1.38 1.51 1.41 1.29 1.17 1.04 0.95 0.81 0.88 0.80 0.78 0.74 0.67 0.60 0.57 0.53 0.55 0.51 0.44 0.42 0.39 0.37 0.39 0.37 0.35 0.32 0.30 0.30 0.29
0.43 0.51 0.59 0.62 0.62 0.67 0.73 0.79 0.82 0.90 0.97 1.07 1.04 0.95 0.94 0.88 0.82 0.72 0.62 0.54 0.59 0.52 0.54 0.53 0.53 0.47 0.43 0.39 0.36 0.34 0.31 0.30 0.30 0.30 0.32 0.34 0.36 0.35 0.33 0.30 0.28 0.29 0.23
0.47 0.58 0.71 0.85 0.95 0.93 0.87 0.84 0.82 0.80 0.81 0.83 0.75 0.68 0.66 0.58 0.47 0.41 0.36 0.44 0.40 0.34 0.28 0.26 0.25 0.23 0.20 0.18 0.20 0.21 0.23 0.22 0.22 0.23 0.22 0.24 0.25 0.27 0.24 0.23 0.23 0.19 0.18
0.82 0.97 0.95 0.96 0.95 0.90 0.82 0.74 0.69 0.65 0.62 0.59 0.57 0.57 0.48 0.38 0.39 0.34 0.30 0.28 0.29 0.26 0.20 0.19 0.17 0.18 0.19 0.21 0.20 0.21 0.18 0.16 0.18 0.21 0.21 0.22 0.21 0.24 0.26 0.23 0.20 0.19 0.13
0.74 0.74 0.67 0.61 0.58 0.56 0.51 0.46 0.41 0.38 0.36 0.32 0.32 0.28 0.21 0.25 0.27 0.23 0.22 0.22 0.23 0.22 0.23 0.22 0.19 0.18 0.16 0.15 0.16 0.17 0.16 0.16 0.17 0.19 0.19 0.19 0.23 0.23 0.20 0.20 0.18 0.16 0.12
0.46 0.43 0.36 0.34 0.34 0.32 0.28 0.24 0.24 0.25 0.24 0.23 0.23 0.19 0.16 0.20 0.20 0.22 0.24 0.27 0.26 0.25 0.25 0.24 0.20 0.17 0.18 0.21 0.20 0.22 0.16 0.15 0.15 0.16 0.16 0.15 0.15 0.16 0.18 0.17 0.18 0.17 0.15
0.25 0.24 0.22 0.22 0.21 0.19 0.20 0.20 0.24 0.27 0.30 0.32 0.34 0.30 0.25 0.30 0.32 0.27 0.29 0.29 0.26 0.25 0.21 0.22 0.23 0.18 0.16 0.17 0.20 0.24 0.23 0.16 0.16 0.19 0.22 0.19 0.15 0.14 0.16 0.17 0.17 0.19 0.18
0.14 0.16 0.16 0.17 0.20 0.26 0.32 0.34 0.33 0.31 0.33 0.36 0.33 0.28 0.27 0.26 0.28 0.27 0.27 0.25 0.24 0.24 0.26 0.30 0.30 0.26 0.22 0.22 0.23 0.22 0.21 0.21 0.27 0.26 0.27 0.25 0.16 0.13 0.16 0.17 0.16 0.15 0.17
0.19 0.22 0.25 0.29 0.30 0.30 0.30 0.32 0.35 0.34 0.32 0.31 0.30 0.26 0.22 0.21 0.18 0.19 0.18 0.15 0.14 0.15 0.15 0.14 0.15 0.14 0.14 0.16 0.20 0.17 0.17 0.22 0.24 0.24 0.33 0.32 0.25 0.19 0.19 0.19 0.18 0.18 0.17
0.15 0.19 0.20 0.20 0.24 0.29 0.32 0.32 0.31 0.28 0.27 0.27 0.26 0.25 0.22 0.20 0.18 0.19 0.13 0.11 0.12 0.11 0.10 0.12 0.12 0.11 0.11 0.13 0.15 0.17 0.14 0.15 0.21 0.26 0.34 0.35 0.32 0.28 0.26 0.24 0.20 0.23 0.17